<?xml version="1.0" encoding="UTF-8" ?>
<gpx version="1.1" xmlns:xsi="http://www.w3.org/2001/XMLSchema-instance" 
    xmlns="http://www.topografix.com/GPX/1/1" 
    xsi:schemaLocation="http://www.topografix.com/GPX/1/1 http://www.topografix.com/GPX/1/1/gpx.xsd" 
    creator="Openrunner - https://www.openrunner.com" >	<trk>
						<name>6395996-Le grand circuit des moulins.</name>
						<trkseg>
					<trkpt lat="46.629660" lon="5.225390">
						<ele>181</ele>
						<time>2021-01-30T14:03:11Z</time>
					</trkpt>
					<trkpt lat="46.629730" lon="5.225360">
						<ele>181</ele>
						<time>2021-01-30T14:03:12Z</time>
					</trkpt>
					<trkpt lat="46.629730" lon="5.225360">
						<ele>181</ele>
						<time>2021-01-30T14:03:12Z</time>
					</trkpt>
					<trkpt lat="46.629850" lon="5.225730">
						<ele>180</ele>
						<time>2021-01-30T14:03:17Z</time>
					</trkpt>
					<trkpt lat="46.629950" lon="5.226030">
						<ele>180</ele>
						<time>2021-01-30T14:03:21Z</time>
					</trkpt>
					<trkpt lat="46.629970" lon="5.226170">
						<ele>180</ele>
						<time>2021-01-30T14:03:23Z</time>
					</trkpt>
					<trkpt lat="46.630070" lon="5.226850">
						<ele>181</ele>
						<time>2021-01-30T14:03:32Z</time>
					</trkpt>
					<trkpt lat="46.630180" lon="5.227790">
						<ele>181</ele>
						<time>2021-01-30T14:03:43Z</time>
					</trkpt>
					<trkpt lat="46.630200" lon="5.228000">
						<ele>182</ele>
						<time>2021-01-30T14:03:46Z</time>
					</trkpt>
					<trkpt lat="46.630230" lon="5.228220">
						<ele>182</ele>
						<time>2021-01-30T14:03:49Z</time>
					</trkpt>
					<trkpt lat="46.630240" lon="5.228370">
						<ele>182</ele>
						<time>2021-01-30T14:03:50Z</time>
					</trkpt>
					<trkpt lat="46.630270" lon="5.228570">
						<ele>182</ele>
						<time>2021-01-30T14:03:53Z</time>
					</trkpt>
					<trkpt lat="46.630320" lon="5.228960">
						<ele>183</ele>
						<time>2021-01-30T14:03:58Z</time>
					</trkpt>
					<trkpt lat="46.630380" lon="5.229290">
						<ele>183</ele>
						<time>2021-01-30T14:04:02Z</time>
					</trkpt>
					<trkpt lat="46.630450" lon="5.229700">
						<ele>184</ele>
						<time>2021-01-30T14:04:07Z</time>
					</trkpt>
					<trkpt lat="46.630480" lon="5.229860">
						<ele>185</ele>
						<time>2021-01-30T14:04:09Z</time>
					</trkpt>
					<trkpt lat="46.630570" lon="5.230340">
						<ele>187</ele>
						<time>2021-01-30T14:04:15Z</time>
					</trkpt>
					<trkpt lat="46.630630" lon="5.230680">
						<ele>190</ele>
						<time>2021-01-30T14:04:20Z</time>
					</trkpt>
					<trkpt lat="46.631030" lon="5.233030">
						<ele>197</ele>
						<time>2021-01-30T14:04:49Z</time>
					</trkpt>
					<trkpt lat="46.631080" lon="5.233360">
						<ele>197</ele>
						<time>2021-01-30T14:04:53Z</time>
					</trkpt>
					<trkpt lat="46.631310" lon="5.234840">
						<ele>199</ele>
						<time>2021-01-30T14:05:12Z</time>
					</trkpt>
					<trkpt lat="46.631360" lon="5.235150">
						<ele>200</ele>
						<time>2021-01-30T14:05:16Z</time>
					</trkpt>
					<trkpt lat="46.631360" lon="5.235150">
						<ele>200</ele>
						<time>2021-01-30T14:05:16Z</time>
					</trkpt>
					<trkpt lat="46.631740" lon="5.234780">
						<ele>201</ele>
						<time>2021-01-30T14:05:24Z</time>
					</trkpt>
					<trkpt lat="46.632240" lon="5.234310">
						<ele>201</ele>
						<time>2021-01-30T14:05:34Z</time>
					</trkpt>
					<trkpt lat="46.632430" lon="5.234150">
						<ele>202</ele>
						<time>2021-01-30T14:05:38Z</time>
					</trkpt>
					<trkpt lat="46.632500" lon="5.234100">
						<ele>202</ele>
						<time>2021-01-30T14:05:40Z</time>
					</trkpt>
					<trkpt lat="46.632550" lon="5.234070">
						<ele>202</ele>
						<time>2021-01-30T14:05:41Z</time>
					</trkpt>
					<trkpt lat="46.632620" lon="5.234030">
						<ele>202</ele>
						<time>2021-01-30T14:05:42Z</time>
					</trkpt>
					<trkpt lat="46.632670" lon="5.234020">
						<ele>201</ele>
						<time>2021-01-30T14:05:43Z</time>
					</trkpt>
					<trkpt lat="46.632720" lon="5.234010">
						<ele>201</ele>
						<time>2021-01-30T14:05:44Z</time>
					</trkpt>
					<trkpt lat="46.632800" lon="5.233990">
						<ele>201</ele>
						<time>2021-01-30T14:05:45Z</time>
					</trkpt>
					<trkpt lat="46.632910" lon="5.234000">
						<ele>201</ele>
						<time>2021-01-30T14:05:47Z</time>
					</trkpt>
					<trkpt lat="46.632960" lon="5.234010">
						<ele>201</ele>
						<time>2021-01-30T14:05:48Z</time>
					</trkpt>
					<trkpt lat="46.633010" lon="5.234030">
						<ele>201</ele>
						<time>2021-01-30T14:05:49Z</time>
					</trkpt>
					<trkpt lat="46.633270" lon="5.234130">
						<ele>201</ele>
						<time>2021-01-30T14:05:54Z</time>
					</trkpt>
					<trkpt lat="46.633720" lon="5.234310">
						<ele>200</ele>
						<time>2021-01-30T14:06:02Z</time>
					</trkpt>
					<trkpt lat="46.633800" lon="5.234340">
						<ele>200</ele>
						<time>2021-01-30T14:06:04Z</time>
					</trkpt>
					<trkpt lat="46.633800" lon="5.234340">
						<ele>200</ele>
						<time>2021-01-30T14:06:04Z</time>
					</trkpt>
					<trkpt lat="46.633760" lon="5.234030">
						<ele>200</ele>
						<time>2021-01-30T14:06:07Z</time>
					</trkpt>
					<trkpt lat="46.633690" lon="5.233490">
						<ele>200</ele>
						<time>2021-01-30T14:06:14Z</time>
					</trkpt>
					<trkpt lat="46.633670" lon="5.233310">
						<ele>200</ele>
						<time>2021-01-30T14:06:16Z</time>
					</trkpt>
					<trkpt lat="46.633660" lon="5.233130">
						<ele>200</ele>
						<time>2021-01-30T14:06:19Z</time>
					</trkpt>
					<trkpt lat="46.633650" lon="5.233020">
						<ele>200</ele>
						<time>2021-01-30T14:06:20Z</time>
					</trkpt>
					<trkpt lat="46.633640" lon="5.232930">
						<ele>200</ele>
						<time>2021-01-30T14:06:21Z</time>
					</trkpt>
					<trkpt lat="46.633640" lon="5.232860">
						<ele>200</ele>
						<time>2021-01-30T14:06:22Z</time>
					</trkpt>
					<trkpt lat="46.633650" lon="5.232790">
						<ele>200</ele>
						<time>2021-01-30T14:06:23Z</time>
					</trkpt>
					<trkpt lat="46.633650" lon="5.232650">
						<ele>200</ele>
						<time>2021-01-30T14:06:24Z</time>
					</trkpt>
					<trkpt lat="46.633660" lon="5.232290">
						<ele>200</ele>
						<time>2021-01-30T14:06:29Z</time>
					</trkpt>
					<trkpt lat="46.633680" lon="5.232090">
						<ele>200</ele>
						<time>2021-01-30T14:06:31Z</time>
					</trkpt>
					<trkpt lat="46.633720" lon="5.231410">
						<ele>200</ele>
						<time>2021-01-30T14:06:40Z</time>
					</trkpt>
					<trkpt lat="46.633730" lon="5.231310">
						<ele>200</ele>
						<time>2021-01-30T14:06:41Z</time>
					</trkpt>
					<trkpt lat="46.633740" lon="5.231230">
						<ele>199</ele>
						<time>2021-01-30T14:06:42Z</time>
					</trkpt>
					<trkpt lat="46.633750" lon="5.231110">
						<ele>199</ele>
						<time>2021-01-30T14:06:43Z</time>
					</trkpt>
					<trkpt lat="46.633790" lon="5.230970">
						<ele>199</ele>
						<time>2021-01-30T14:06:45Z</time>
					</trkpt>
					<trkpt lat="46.633790" lon="5.230970">
						<ele>199</ele>
						<time>2021-01-30T14:06:45Z</time>
					</trkpt>
					<trkpt lat="46.634000" lon="5.230580">
						<ele>199</ele>
						<time>2021-01-30T14:06:51Z</time>
					</trkpt>
					<trkpt lat="46.634120" lon="5.230430">
						<ele>198</ele>
						<time>2021-01-30T14:06:54Z</time>
					</trkpt>
					<trkpt lat="46.634180" lon="5.230350">
						<ele>198</ele>
						<time>2021-01-30T14:06:56Z</time>
					</trkpt>
					<trkpt lat="46.634590" lon="5.229960">
						<ele>197</ele>
						<time>2021-01-30T14:07:04Z</time>
					</trkpt>
					<trkpt lat="46.634680" lon="5.229900">
						<ele>197</ele>
						<time>2021-01-30T14:07:06Z</time>
					</trkpt>
					<trkpt lat="46.634740" lon="5.229870">
						<ele>197</ele>
						<time>2021-01-30T14:07:07Z</time>
					</trkpt>
					<trkpt lat="46.634790" lon="5.229860">
						<ele>197</ele>
						<time>2021-01-30T14:07:08Z</time>
					</trkpt>
					<trkpt lat="46.634850" lon="5.229850">
						<ele>197</ele>
						<time>2021-01-30T14:07:09Z</time>
					</trkpt>
					<trkpt lat="46.635470" lon="5.229830">
						<ele>194</ele>
						<time>2021-01-30T14:07:20Z</time>
					</trkpt>
					<trkpt lat="46.635520" lon="5.229830">
						<ele>194</ele>
						<time>2021-01-30T14:07:21Z</time>
					</trkpt>
					<trkpt lat="46.635560" lon="5.229820">
						<ele>193</ele>
						<time>2021-01-30T14:07:22Z</time>
					</trkpt>
					<trkpt lat="46.635630" lon="5.229810">
						<ele>193</ele>
						<time>2021-01-30T14:07:23Z</time>
					</trkpt>
					<trkpt lat="46.635710" lon="5.229780">
						<ele>192</ele>
						<time>2021-01-30T14:07:24Z</time>
					</trkpt>
					<trkpt lat="46.635710" lon="5.229780">
						<ele>192</ele>
						<time>2021-01-30T14:07:24Z</time>
					</trkpt>
					<trkpt lat="46.635730" lon="5.229860">
						<ele>192</ele>
						<time>2021-01-30T14:07:26Z</time>
					</trkpt>
					<trkpt lat="46.635740" lon="5.229880">
						<ele>192</ele>
						<time>2021-01-30T14:07:26Z</time>
					</trkpt>
					<trkpt lat="46.635770" lon="5.229900">
						<ele>192</ele>
						<time>2021-01-30T14:07:26Z</time>
					</trkpt>
					<trkpt lat="46.635820" lon="5.229930">
						<ele>192</ele>
						<time>2021-01-30T14:07:27Z</time>
					</trkpt>
					<trkpt lat="46.636340" lon="5.230170">
						<ele>191</ele>
						<time>2021-01-30T14:07:37Z</time>
					</trkpt>
					<trkpt lat="46.636980" lon="5.230450">
						<ele>192</ele>
						<time>2021-01-30T14:07:49Z</time>
					</trkpt>
					<trkpt lat="46.637070" lon="5.230490">
						<ele>192</ele>
						<time>2021-01-30T14:07:51Z</time>
					</trkpt>
					<trkpt lat="46.637120" lon="5.230500">
						<ele>192</ele>
						<time>2021-01-30T14:07:52Z</time>
					</trkpt>
					<trkpt lat="46.637160" lon="5.230500">
						<ele>193</ele>
						<time>2021-01-30T14:07:52Z</time>
					</trkpt>
					<trkpt lat="46.637210" lon="5.230490">
						<ele>193</ele>
						<time>2021-01-30T14:07:53Z</time>
					</trkpt>
					<trkpt lat="46.637260" lon="5.230480">
						<ele>193</ele>
						<time>2021-01-30T14:07:54Z</time>
					</trkpt>
					<trkpt lat="46.637380" lon="5.230420">
						<ele>193</ele>
						<time>2021-01-30T14:07:56Z</time>
					</trkpt>
					<trkpt lat="46.637580" lon="5.230340">
						<ele>192</ele>
						<time>2021-01-30T14:08:00Z</time>
					</trkpt>
					<trkpt lat="46.637780" lon="5.230230">
						<ele>192</ele>
						<time>2021-01-30T14:08:04Z</time>
					</trkpt>
					<trkpt lat="46.637880" lon="5.230190">
						<ele>191</ele>
						<time>2021-01-30T14:08:06Z</time>
					</trkpt>
					<trkpt lat="46.637950" lon="5.230160">
						<ele>191</ele>
						<time>2021-01-30T14:08:07Z</time>
					</trkpt>
					<trkpt lat="46.638050" lon="5.230140">
						<ele>191</ele>
						<time>2021-01-30T14:08:09Z</time>
					</trkpt>
					<trkpt lat="46.638160" lon="5.230120">
						<ele>191</ele>
						<time>2021-01-30T14:08:11Z</time>
					</trkpt>
					<trkpt lat="46.638220" lon="5.230110">
						<ele>191</ele>
						<time>2021-01-30T14:08:12Z</time>
					</trkpt>
					<trkpt lat="46.638350" lon="5.230110">
						<ele>190</ele>
						<time>2021-01-30T14:08:14Z</time>
					</trkpt>
					<trkpt lat="46.638830" lon="5.230130">
						<ele>189</ele>
						<time>2021-01-30T14:08:23Z</time>
					</trkpt>
					<trkpt lat="46.639220" lon="5.230130">
						<ele>189</ele>
						<time>2021-01-30T14:08:30Z</time>
					</trkpt>
					<trkpt lat="46.639330" lon="5.230140">
						<ele>189</ele>
						<time>2021-01-30T14:08:32Z</time>
					</trkpt>
					<trkpt lat="46.639410" lon="5.230160">
						<ele>189</ele>
						<time>2021-01-30T14:08:33Z</time>
					</trkpt>
					<trkpt lat="46.639460" lon="5.230180">
						<ele>189</ele>
						<time>2021-01-30T14:08:34Z</time>
					</trkpt>
					<trkpt lat="46.639610" lon="5.230260">
						<ele>190</ele>
						<time>2021-01-30T14:08:37Z</time>
					</trkpt>
					<trkpt lat="46.639850" lon="5.230370">
						<ele>191</ele>
						<time>2021-01-30T14:08:41Z</time>
					</trkpt>
					<trkpt lat="46.639890" lon="5.230390">
						<ele>191</ele>
						<time>2021-01-30T14:08:42Z</time>
					</trkpt>
					<trkpt lat="46.640630" lon="5.230750">
						<ele>194</ele>
						<time>2021-01-30T14:08:56Z</time>
					</trkpt>
					<trkpt lat="46.640740" lon="5.230800">
						<ele>195</ele>
						<time>2021-01-30T14:08:58Z</time>
					</trkpt>
					<trkpt lat="46.640830" lon="5.230830">
						<ele>195</ele>
						<time>2021-01-30T14:09:00Z</time>
					</trkpt>
					<trkpt lat="46.640890" lon="5.230840">
						<ele>195</ele>
						<time>2021-01-30T14:09:01Z</time>
					</trkpt>
					<trkpt lat="46.640960" lon="5.230840">
						<ele>195</ele>
						<time>2021-01-30T14:09:02Z</time>
					</trkpt>
					<trkpt lat="46.641020" lon="5.230830">
						<ele>195</ele>
						<time>2021-01-30T14:09:03Z</time>
					</trkpt>
					<trkpt lat="46.641100" lon="5.230790">
						<ele>194</ele>
						<time>2021-01-30T14:09:04Z</time>
					</trkpt>
					<trkpt lat="46.641570" lon="5.230420">
						<ele>193</ele>
						<time>2021-01-30T14:09:14Z</time>
					</trkpt>
					<trkpt lat="46.642200" lon="5.229900">
						<ele>193</ele>
						<time>2021-01-30T14:09:27Z</time>
					</trkpt>
					<trkpt lat="46.642280" lon="5.229810">
						<ele>193</ele>
						<time>2021-01-30T14:09:29Z</time>
					</trkpt>
					<trkpt lat="46.642350" lon="5.229720">
						<ele>193</ele>
						<time>2021-01-30T14:09:30Z</time>
					</trkpt>
					<trkpt lat="46.642590" lon="5.229420">
						<ele>192</ele>
						<time>2021-01-30T14:09:36Z</time>
					</trkpt>
					<trkpt lat="46.642730" lon="5.229220">
						<ele>192</ele>
						<time>2021-01-30T14:09:39Z</time>
					</trkpt>
					<trkpt lat="46.642780" lon="5.229160">
						<ele>192</ele>
						<time>2021-01-30T14:09:41Z</time>
					</trkpt>
					<trkpt lat="46.642840" lon="5.229110">
						<ele>192</ele>
						<time>2021-01-30T14:09:42Z</time>
					</trkpt>
					<trkpt lat="46.643060" lon="5.228960">
						<ele>191</ele>
						<time>2021-01-30T14:09:46Z</time>
					</trkpt>
					<trkpt lat="46.643170" lon="5.228880">
						<ele>191</ele>
						<time>2021-01-30T14:09:48Z</time>
					</trkpt>
					<trkpt lat="46.643320" lon="5.228780">
						<ele>191</ele>
						<time>2021-01-30T14:09:51Z</time>
					</trkpt>
					<trkpt lat="46.643360" lon="5.228730">
						<ele>191</ele>
						<time>2021-01-30T14:09:52Z</time>
					</trkpt>
					<trkpt lat="46.643400" lon="5.228680">
						<ele>191</ele>
						<time>2021-01-30T14:09:53Z</time>
					</trkpt>
					<trkpt lat="46.643430" lon="5.228630">
						<ele>191</ele>
						<time>2021-01-30T14:09:54Z</time>
					</trkpt>
					<trkpt lat="46.643460" lon="5.228560">
						<ele>191</ele>
						<time>2021-01-30T14:09:55Z</time>
					</trkpt>
					<trkpt lat="46.643490" lon="5.228490">
						<ele>190</ele>
						<time>2021-01-30T14:09:56Z</time>
					</trkpt>
					<trkpt lat="46.643500" lon="5.228430">
						<ele>190</ele>
						<time>2021-01-30T14:09:57Z</time>
					</trkpt>
					<trkpt lat="46.643510" lon="5.228370">
						<ele>190</ele>
						<time>2021-01-30T14:09:57Z</time>
					</trkpt>
					<trkpt lat="46.643520" lon="5.228310">
						<ele>190</ele>
						<time>2021-01-30T14:09:58Z</time>
					</trkpt>
					<trkpt lat="46.643530" lon="5.228230">
						<ele>190</ele>
						<time>2021-01-30T14:09:59Z</time>
					</trkpt>
					<trkpt lat="46.643540" lon="5.227940">
						<ele>189</ele>
						<time>2021-01-30T14:10:03Z</time>
					</trkpt>
					<trkpt lat="46.643560" lon="5.227280">
						<ele>187</ele>
						<time>2021-01-30T14:10:11Z</time>
					</trkpt>
					<trkpt lat="46.643580" lon="5.226790">
						<ele>186</ele>
						<time>2021-01-30T14:10:17Z</time>
					</trkpt>
					<trkpt lat="46.643590" lon="5.226330">
						<ele>185</ele>
						<time>2021-01-30T14:10:22Z</time>
					</trkpt>
					<trkpt lat="46.643600" lon="5.226260">
						<ele>185</ele>
						<time>2021-01-30T14:10:23Z</time>
					</trkpt>
					<trkpt lat="46.643590" lon="5.226190">
						<ele>185</ele>
						<time>2021-01-30T14:10:24Z</time>
					</trkpt>
					<trkpt lat="46.643590" lon="5.226130">
						<ele>185</ele>
						<time>2021-01-30T14:10:25Z</time>
					</trkpt>
					<trkpt lat="46.643580" lon="5.226070">
						<ele>185</ele>
						<time>2021-01-30T14:10:26Z</time>
					</trkpt>
					<trkpt lat="46.643570" lon="5.226000">
						<ele>184</ele>
						<time>2021-01-30T14:10:27Z</time>
					</trkpt>
					<trkpt lat="46.643560" lon="5.225930">
						<ele>184</ele>
						<time>2021-01-30T14:10:27Z</time>
					</trkpt>
					<trkpt lat="46.643550" lon="5.225860">
						<ele>184</ele>
						<time>2021-01-30T14:10:28Z</time>
					</trkpt>
					<trkpt lat="46.643440" lon="5.225470">
						<ele>183</ele>
						<time>2021-01-30T14:10:33Z</time>
					</trkpt>
					<trkpt lat="46.643430" lon="5.225430">
						<ele>183</ele>
						<time>2021-01-30T14:10:34Z</time>
					</trkpt>
					<trkpt lat="46.643420" lon="5.225380">
						<ele>182</ele>
						<time>2021-01-30T14:10:35Z</time>
					</trkpt>
					<trkpt lat="46.643400" lon="5.225300">
						<ele>182</ele>
						<time>2021-01-30T14:10:36Z</time>
					</trkpt>
					<trkpt lat="46.643390" lon="5.225180">
						<ele>182</ele>
						<time>2021-01-30T14:10:37Z</time>
					</trkpt>
					<trkpt lat="46.643390" lon="5.225180">
						<ele>182</ele>
						<time>2021-01-30T14:10:37Z</time>
					</trkpt>
					<trkpt lat="46.643480" lon="5.225190">
						<ele>182</ele>
						<time>2021-01-30T14:10:39Z</time>
					</trkpt>
					<trkpt lat="46.643660" lon="5.225220">
						<ele>182</ele>
						<time>2021-01-30T14:10:42Z</time>
					</trkpt>
					<trkpt lat="46.643710" lon="5.225230">
						<ele>182</ele>
						<time>2021-01-30T14:10:43Z</time>
					</trkpt>
					<trkpt lat="46.643790" lon="5.225250">
						<ele>182</ele>
						<time>2021-01-30T14:10:44Z</time>
					</trkpt>
					<trkpt lat="46.643900" lon="5.225280">
						<ele>182</ele>
						<time>2021-01-30T14:10:46Z</time>
					</trkpt>
					<trkpt lat="46.644000" lon="5.225310">
						<ele>183</ele>
						<time>2021-01-30T14:10:48Z</time>
					</trkpt>
					<trkpt lat="46.644370" lon="5.225440">
						<ele>183</ele>
						<time>2021-01-30T14:10:55Z</time>
					</trkpt>
					<trkpt lat="46.644440" lon="5.225470">
						<ele>183</ele>
						<time>2021-01-30T14:10:56Z</time>
					</trkpt>
					<trkpt lat="46.644540" lon="5.225510">
						<ele>184</ele>
						<time>2021-01-30T14:10:58Z</time>
					</trkpt>
					<trkpt lat="46.644660" lon="5.225580">
						<ele>184</ele>
						<time>2021-01-30T14:11:00Z</time>
					</trkpt>
					<trkpt lat="46.644750" lon="5.225630">
						<ele>184</ele>
						<time>2021-01-30T14:11:02Z</time>
					</trkpt>
					<trkpt lat="46.645000" lon="5.225790">
						<ele>185</ele>
						<time>2021-01-30T14:11:07Z</time>
					</trkpt>
					<trkpt lat="46.645310" lon="5.226010">
						<ele>185</ele>
						<time>2021-01-30T14:11:13Z</time>
					</trkpt>
					<trkpt lat="46.645420" lon="5.226090">
						<ele>185</ele>
						<time>2021-01-30T14:11:15Z</time>
					</trkpt>
					<trkpt lat="46.645590" lon="5.226250">
						<ele>185</ele>
						<time>2021-01-30T14:11:19Z</time>
					</trkpt>
					<trkpt lat="46.645790" lon="5.226470">
						<ele>185</ele>
						<time>2021-01-30T14:11:23Z</time>
					</trkpt>
					<trkpt lat="46.645950" lon="5.226650">
						<ele>185</ele>
						<time>2021-01-30T14:11:27Z</time>
					</trkpt>
					<trkpt lat="46.646480" lon="5.227350">
						<ele>187</ele>
						<time>2021-01-30T14:11:40Z</time>
					</trkpt>
					<trkpt lat="46.647280" lon="5.228420">
						<ele>185</ele>
						<time>2021-01-30T14:11:59Z</time>
					</trkpt>
					<trkpt lat="46.647440" lon="5.228610">
						<ele>184</ele>
						<time>2021-01-30T14:12:03Z</time>
					</trkpt>
					<trkpt lat="46.647520" lon="5.228700">
						<ele>183</ele>
						<time>2021-01-30T14:12:04Z</time>
					</trkpt>
					<trkpt lat="46.647610" lon="5.228780">
						<ele>183</ele>
						<time>2021-01-30T14:12:06Z</time>
					</trkpt>
					<trkpt lat="46.647710" lon="5.228850">
						<ele>183</ele>
						<time>2021-01-30T14:12:08Z</time>
					</trkpt>
					<trkpt lat="46.647780" lon="5.228890">
						<ele>182</ele>
						<time>2021-01-30T14:12:10Z</time>
					</trkpt>
					<trkpt lat="46.647850" lon="5.228920">
						<ele>182</ele>
						<time>2021-01-30T14:12:11Z</time>
					</trkpt>
					<trkpt lat="46.647960" lon="5.228960">
						<ele>182</ele>
						<time>2021-01-30T14:12:13Z</time>
					</trkpt>
					<trkpt lat="46.648900" lon="5.229210">
						<ele>178</ele>
						<time>2021-01-30T14:12:30Z</time>
					</trkpt>
					<trkpt lat="46.649700" lon="5.229420">
						<ele>177</ele>
						<time>2021-01-30T14:12:44Z</time>
					</trkpt>
					<trkpt lat="46.649760" lon="5.229430">
						<ele>177</ele>
						<time>2021-01-30T14:12:45Z</time>
					</trkpt>
					<trkpt lat="46.649840" lon="5.229460">
						<ele>176</ele>
						<time>2021-01-30T14:12:47Z</time>
					</trkpt>
					<trkpt lat="46.649880" lon="5.229480">
						<ele>176</ele>
						<time>2021-01-30T14:12:48Z</time>
					</trkpt>
					<trkpt lat="46.649930" lon="5.229500">
						<ele>176</ele>
						<time>2021-01-30T14:12:49Z</time>
					</trkpt>
					<trkpt lat="46.650240" lon="5.229680">
						<ele>177</ele>
						<time>2021-01-30T14:12:55Z</time>
					</trkpt>
					<trkpt lat="46.651100" lon="5.230220">
						<ele>177</ele>
						<time>2021-01-30T14:13:11Z</time>
					</trkpt>
					<trkpt lat="46.651420" lon="5.230420">
						<ele>177</ele>
						<time>2021-01-30T14:13:17Z</time>
					</trkpt>
					<trkpt lat="46.651510" lon="5.230480">
						<ele>177</ele>
						<time>2021-01-30T14:13:19Z</time>
					</trkpt>
					<trkpt lat="46.651600" lon="5.230530">
						<ele>176</ele>
						<time>2021-01-30T14:13:21Z</time>
					</trkpt>
					<trkpt lat="46.651960" lon="5.230760">
						<ele>176</ele>
						<time>2021-01-30T14:13:28Z</time>
					</trkpt>
					<trkpt lat="46.652350" lon="5.231010">
						<ele>176</ele>
						<time>2021-01-30T14:13:35Z</time>
					</trkpt>
					<trkpt lat="46.653710" lon="5.231830">
						<ele>178</ele>
						<time>2021-01-30T14:14:02Z</time>
					</trkpt>
					<trkpt lat="46.653940" lon="5.231970">
						<ele>178</ele>
						<time>2021-01-30T14:14:06Z</time>
					</trkpt>
					<trkpt lat="46.654010" lon="5.232010">
						<ele>178</ele>
						<time>2021-01-30T14:14:07Z</time>
					</trkpt>
					<trkpt lat="46.654070" lon="5.232060">
						<ele>178</ele>
						<time>2021-01-30T14:14:09Z</time>
					</trkpt>
					<trkpt lat="46.654520" lon="5.232330">
						<ele>177</ele>
						<time>2021-01-30T14:14:17Z</time>
					</trkpt>
					<trkpt lat="46.654680" lon="5.232420">
						<ele>177</ele>
						<time>2021-01-30T14:14:20Z</time>
					</trkpt>
					<trkpt lat="46.654810" lon="5.232480">
						<ele>177</ele>
						<time>2021-01-30T14:14:23Z</time>
					</trkpt>
					<trkpt lat="46.654880" lon="5.232500">
						<ele>177</ele>
						<time>2021-01-30T14:14:24Z</time>
					</trkpt>
					<trkpt lat="46.654980" lon="5.232530">
						<ele>177</ele>
						<time>2021-01-30T14:14:26Z</time>
					</trkpt>
					<trkpt lat="46.655070" lon="5.232540">
						<ele>177</ele>
						<time>2021-01-30T14:14:27Z</time>
					</trkpt>
					<trkpt lat="46.655170" lon="5.232540">
						<ele>177</ele>
						<time>2021-01-30T14:14:29Z</time>
					</trkpt>
					<trkpt lat="46.655230" lon="5.232530">
						<ele>177</ele>
						<time>2021-01-30T14:14:30Z</time>
					</trkpt>
					<trkpt lat="46.655380" lon="5.232500">
						<ele>177</ele>
						<time>2021-01-30T14:14:33Z</time>
					</trkpt>
					<trkpt lat="46.655390" lon="5.232500">
						<ele>177</ele>
						<time>2021-01-30T14:14:33Z</time>
					</trkpt>
					<trkpt lat="46.655720" lon="5.232420">
						<ele>177</ele>
						<time>2021-01-30T14:14:39Z</time>
					</trkpt>
					<trkpt lat="46.656270" lon="5.232270">
						<ele>178</ele>
						<time>2021-01-30T14:14:49Z</time>
					</trkpt>
					<trkpt lat="46.656400" lon="5.232240">
						<ele>179</ele>
						<time>2021-01-30T14:14:51Z</time>
					</trkpt>
					<trkpt lat="46.656480" lon="5.232230">
						<ele>179</ele>
						<time>2021-01-30T14:14:53Z</time>
					</trkpt>
					<trkpt lat="46.656550" lon="5.232210">
						<ele>179</ele>
						<time>2021-01-30T14:14:54Z</time>
					</trkpt>
					<trkpt lat="46.656610" lon="5.232210">
						<ele>180</ele>
						<time>2021-01-30T14:14:55Z</time>
					</trkpt>
					<trkpt lat="46.656680" lon="5.232240">
						<ele>180</ele>
						<time>2021-01-30T14:14:57Z</time>
					</trkpt>
					<trkpt lat="46.656720" lon="5.232260">
						<ele>180</ele>
						<time>2021-01-30T14:14:57Z</time>
					</trkpt>
					<trkpt lat="46.656770" lon="5.232290">
						<ele>181</ele>
						<time>2021-01-30T14:14:58Z</time>
					</trkpt>
					<trkpt lat="46.656820" lon="5.232340">
						<ele>181</ele>
						<time>2021-01-30T14:14:59Z</time>
					</trkpt>
					<trkpt lat="46.656870" lon="5.232420">
						<ele>181</ele>
						<time>2021-01-30T14:15:01Z</time>
					</trkpt>
					<trkpt lat="46.656960" lon="5.232560">
						<ele>182</ele>
						<time>2021-01-30T14:15:03Z</time>
					</trkpt>
					<trkpt lat="46.657100" lon="5.232850">
						<ele>183</ele>
						<time>2021-01-30T14:15:07Z</time>
					</trkpt>
					<trkpt lat="46.657200" lon="5.233060">
						<ele>183</ele>
						<time>2021-01-30T14:15:10Z</time>
					</trkpt>
					<trkpt lat="46.657300" lon="5.233300">
						<ele>183</ele>
						<time>2021-01-30T14:15:14Z</time>
					</trkpt>
					<trkpt lat="46.657300" lon="5.233300">
						<ele>183</ele>
						<time>2021-01-30T14:15:14Z</time>
					</trkpt>
					<trkpt lat="46.657280" lon="5.233320">
						<ele>183</ele>
						<time>2021-01-30T14:15:14Z</time>
					</trkpt>
					<trkpt lat="46.657270" lon="5.233330">
						<ele>183</ele>
						<time>2021-01-30T14:15:14Z</time>
					</trkpt>
					<trkpt lat="46.657270" lon="5.233340">
						<ele>183</ele>
						<time>2021-01-30T14:15:15Z</time>
					</trkpt>
					<trkpt lat="46.657250" lon="5.233450">
						<ele>182</ele>
						<time>2021-01-30T14:15:16Z</time>
					</trkpt>
					<trkpt lat="46.657230" lon="5.233550">
						<ele>182</ele>
						<time>2021-01-30T14:15:17Z</time>
					</trkpt>
					<trkpt lat="46.657220" lon="5.233650">
						<ele>181</ele>
						<time>2021-01-30T14:15:19Z</time>
					</trkpt>
					<trkpt lat="46.657220" lon="5.233740">
						<ele>181</ele>
						<time>2021-01-30T14:15:20Z</time>
					</trkpt>
					<trkpt lat="46.657220" lon="5.233900">
						<ele>180</ele>
						<time>2021-01-30T14:15:22Z</time>
					</trkpt>
					<trkpt lat="46.657230" lon="5.234060">
						<ele>180</ele>
						<time>2021-01-30T14:15:24Z</time>
					</trkpt>
					<trkpt lat="46.657250" lon="5.234170">
						<ele>179</ele>
						<time>2021-01-30T14:15:25Z</time>
					</trkpt>
					<trkpt lat="46.657280" lon="5.234350">
						<ele>179</ele>
						<time>2021-01-30T14:15:27Z</time>
					</trkpt>
					<trkpt lat="46.657410" lon="5.234810">
						<ele>179</ele>
						<time>2021-01-30T14:15:33Z</time>
					</trkpt>
					<trkpt lat="46.657570" lon="5.235420">
						<ele>179</ele>
						<time>2021-01-30T14:15:41Z</time>
					</trkpt>
					<trkpt lat="46.657610" lon="5.235590">
						<ele>180</ele>
						<time>2021-01-30T14:15:43Z</time>
					</trkpt>
					<trkpt lat="46.657660" lon="5.235780">
						<ele>180</ele>
						<time>2021-01-30T14:15:46Z</time>
					</trkpt>
					<trkpt lat="46.657680" lon="5.235860">
						<ele>180</ele>
						<time>2021-01-30T14:15:47Z</time>
					</trkpt>
					<trkpt lat="46.657690" lon="5.235950">
						<ele>180</ele>
						<time>2021-01-30T14:15:48Z</time>
					</trkpt>
					<trkpt lat="46.657730" lon="5.236180">
						<ele>180</ele>
						<time>2021-01-30T14:15:51Z</time>
					</trkpt>
					<trkpt lat="46.657770" lon="5.236520">
						<ele>179</ele>
						<time>2021-01-30T14:15:55Z</time>
					</trkpt>
					<trkpt lat="46.657790" lon="5.236650">
						<ele>179</ele>
						<time>2021-01-30T14:15:57Z</time>
					</trkpt>
					<trkpt lat="46.657800" lon="5.236730">
						<ele>179</ele>
						<time>2021-01-30T14:15:58Z</time>
					</trkpt>
					<trkpt lat="46.657830" lon="5.236920">
						<ele>179</ele>
						<time>2021-01-30T14:16:00Z</time>
					</trkpt>
					<trkpt lat="46.657870" lon="5.237060">
						<ele>179</ele>
						<time>2021-01-30T14:16:02Z</time>
					</trkpt>
					<trkpt lat="46.657900" lon="5.237180">
						<ele>179</ele>
						<time>2021-01-30T14:16:04Z</time>
					</trkpt>
					<trkpt lat="46.657940" lon="5.237270">
						<ele>178</ele>
						<time>2021-01-30T14:16:05Z</time>
					</trkpt>
					<trkpt lat="46.658050" lon="5.237520">
						<ele>178</ele>
						<time>2021-01-30T14:16:09Z</time>
					</trkpt>
					<trkpt lat="46.658180" lon="5.237780">
						<ele>179</ele>
						<time>2021-01-30T14:16:12Z</time>
					</trkpt>
					<trkpt lat="46.658180" lon="5.237780">
						<ele>179</ele>
						<time>2021-01-30T14:16:12Z</time>
					</trkpt>
					<trkpt lat="46.658300" lon="5.238050">
						<ele>179</ele>
						<time>2021-01-30T14:16:16Z</time>
					</trkpt>
					<trkpt lat="46.658350" lon="5.238140">
						<ele>179</ele>
						<time>2021-01-30T14:16:18Z</time>
					</trkpt>
					<trkpt lat="46.658440" lon="5.238270">
						<ele>180</ele>
						<time>2021-01-30T14:16:20Z</time>
					</trkpt>
					<trkpt lat="46.658490" lon="5.238360">
						<ele>180</ele>
						<time>2021-01-30T14:16:21Z</time>
					</trkpt>
					<trkpt lat="46.658540" lon="5.238450">
						<ele>180</ele>
						<time>2021-01-30T14:16:23Z</time>
					</trkpt>
					<trkpt lat="46.658590" lon="5.238570">
						<ele>180</ele>
						<time>2021-01-30T14:16:25Z</time>
					</trkpt>
					<trkpt lat="46.658660" lon="5.238730">
						<ele>180</ele>
						<time>2021-01-30T14:16:27Z</time>
					</trkpt>
					<trkpt lat="46.658760" lon="5.239000">
						<ele>180</ele>
						<time>2021-01-30T14:16:31Z</time>
					</trkpt>
					<trkpt lat="46.658900" lon="5.239390">
						<ele>180</ele>
						<time>2021-01-30T14:16:36Z</time>
					</trkpt>
					<trkpt lat="46.658970" lon="5.239580">
						<ele>180</ele>
						<time>2021-01-30T14:16:39Z</time>
					</trkpt>
					<trkpt lat="46.658990" lon="5.239630">
						<ele>180</ele>
						<time>2021-01-30T14:16:39Z</time>
					</trkpt>
					<trkpt lat="46.658990" lon="5.239630">
						<ele>180</ele>
						<time>2021-01-30T14:16:39Z</time>
					</trkpt>
					<trkpt lat="46.659010" lon="5.239750">
						<ele>180</ele>
						<time>2021-01-30T14:16:41Z</time>
					</trkpt>
					<trkpt lat="46.659030" lon="5.239850">
						<ele>180</ele>
						<time>2021-01-30T14:16:42Z</time>
					</trkpt>
					<trkpt lat="46.659040" lon="5.239950">
						<ele>180</ele>
						<time>2021-01-30T14:16:43Z</time>
					</trkpt>
					<trkpt lat="46.659060" lon="5.240120">
						<ele>180</ele>
						<time>2021-01-30T14:16:45Z</time>
					</trkpt>
					<trkpt lat="46.659070" lon="5.240340">
						<ele>180</ele>
						<time>2021-01-30T14:16:48Z</time>
					</trkpt>
					<trkpt lat="46.659080" lon="5.240550">
						<ele>180</ele>
						<time>2021-01-30T14:16:51Z</time>
					</trkpt>
					<trkpt lat="46.659090" lon="5.240690">
						<ele>180</ele>
						<time>2021-01-30T14:16:52Z</time>
					</trkpt>
					<trkpt lat="46.659100" lon="5.240780">
						<ele>180</ele>
						<time>2021-01-30T14:16:54Z</time>
					</trkpt>
					<trkpt lat="46.659120" lon="5.240860">
						<ele>180</ele>
						<time>2021-01-30T14:16:55Z</time>
					</trkpt>
					<trkpt lat="46.659170" lon="5.241130">
						<ele>180</ele>
						<time>2021-01-30T14:16:58Z</time>
					</trkpt>
					<trkpt lat="46.659340" lon="5.241850">
						<ele>180</ele>
						<time>2021-01-30T14:17:07Z</time>
					</trkpt>
					<trkpt lat="46.659370" lon="5.241960">
						<ele>180</ele>
						<time>2021-01-30T14:17:09Z</time>
					</trkpt>
					<trkpt lat="46.659390" lon="5.242100">
						<ele>179</ele>
						<time>2021-01-30T14:17:11Z</time>
					</trkpt>
					<trkpt lat="46.659410" lon="5.242210">
						<ele>179</ele>
						<time>2021-01-30T14:17:12Z</time>
					</trkpt>
					<trkpt lat="46.659530" lon="5.242840">
						<ele>179</ele>
						<time>2021-01-30T14:17:20Z</time>
					</trkpt>
					<trkpt lat="46.659610" lon="5.243330">
						<ele>180</ele>
						<time>2021-01-30T14:17:26Z</time>
					</trkpt>
					<trkpt lat="46.659660" lon="5.243650">
						<ele>181</ele>
						<time>2021-01-30T14:17:30Z</time>
					</trkpt>
					<trkpt lat="46.659680" lon="5.243740">
						<ele>181</ele>
						<time>2021-01-30T14:17:31Z</time>
					</trkpt>
					<trkpt lat="46.659790" lon="5.244180">
						<ele>181</ele>
						<time>2021-01-30T14:17:37Z</time>
					</trkpt>
					<trkpt lat="46.659850" lon="5.244430">
						<ele>181</ele>
						<time>2021-01-30T14:17:40Z</time>
					</trkpt>
					<trkpt lat="46.659980" lon="5.245020">
						<ele>181</ele>
						<time>2021-01-30T14:17:48Z</time>
					</trkpt>
					<trkpt lat="46.660020" lon="5.245280">
						<ele>181</ele>
						<time>2021-01-30T14:17:51Z</time>
					</trkpt>
					<trkpt lat="46.660040" lon="5.245450">
						<ele>182</ele>
						<time>2021-01-30T14:17:53Z</time>
					</trkpt>
					<trkpt lat="46.660050" lon="5.245560">
						<ele>182</ele>
						<time>2021-01-30T14:17:54Z</time>
					</trkpt>
					<trkpt lat="46.660050" lon="5.245670">
						<ele>182</ele>
						<time>2021-01-30T14:17:56Z</time>
					</trkpt>
					<trkpt lat="46.660050" lon="5.245750">
						<ele>182</ele>
						<time>2021-01-30T14:17:57Z</time>
					</trkpt>
					<trkpt lat="46.660040" lon="5.245830">
						<ele>182</ele>
						<time>2021-01-30T14:17:58Z</time>
					</trkpt>
					<trkpt lat="46.660030" lon="5.245910">
						<ele>182</ele>
						<time>2021-01-30T14:17:59Z</time>
					</trkpt>
					<trkpt lat="46.660010" lon="5.246060">
						<ele>181</ele>
						<time>2021-01-30T14:18:01Z</time>
					</trkpt>
					<trkpt lat="46.659980" lon="5.246240">
						<ele>181</ele>
						<time>2021-01-30T14:18:03Z</time>
					</trkpt>
					<trkpt lat="46.659780" lon="5.246940">
						<ele>179</ele>
						<time>2021-01-30T14:18:12Z</time>
					</trkpt>
					<trkpt lat="46.659710" lon="5.247190">
						<ele>179</ele>
						<time>2021-01-30T14:18:15Z</time>
					</trkpt>
					<trkpt lat="46.659690" lon="5.247270">
						<ele>179</ele>
						<time>2021-01-30T14:18:16Z</time>
					</trkpt>
					<trkpt lat="46.659570" lon="5.247710">
						<ele>179</ele>
						<time>2021-01-30T14:18:22Z</time>
					</trkpt>
					<trkpt lat="46.659530" lon="5.247880">
						<ele>179</ele>
						<time>2021-01-30T14:18:24Z</time>
					</trkpt>
					<trkpt lat="46.659500" lon="5.247980">
						<ele>179</ele>
						<time>2021-01-30T14:18:26Z</time>
					</trkpt>
					<trkpt lat="46.659480" lon="5.248090">
						<ele>179</ele>
						<time>2021-01-30T14:18:27Z</time>
					</trkpt>
					<trkpt lat="46.659470" lon="5.248170">
						<ele>179</ele>
						<time>2021-01-30T14:18:28Z</time>
					</trkpt>
					<trkpt lat="46.659460" lon="5.248270">
						<ele>179</ele>
						<time>2021-01-30T14:18:29Z</time>
					</trkpt>
					<trkpt lat="46.659460" lon="5.248370">
						<ele>179</ele>
						<time>2021-01-30T14:18:31Z</time>
					</trkpt>
					<trkpt lat="46.659460" lon="5.248500">
						<ele>179</ele>
						<time>2021-01-30T14:18:32Z</time>
					</trkpt>
					<trkpt lat="46.659470" lon="5.248640">
						<ele>179</ele>
						<time>2021-01-30T14:18:34Z</time>
					</trkpt>
					<trkpt lat="46.659480" lon="5.248720">
						<ele>179</ele>
						<time>2021-01-30T14:18:35Z</time>
					</trkpt>
					<trkpt lat="46.659490" lon="5.248800">
						<ele>179</ele>
						<time>2021-01-30T14:18:36Z</time>
					</trkpt>
					<trkpt lat="46.659530" lon="5.249070">
						<ele>179</ele>
						<time>2021-01-30T14:18:39Z</time>
					</trkpt>
					<trkpt lat="46.659770" lon="5.250150">
						<ele>180</ele>
						<time>2021-01-30T14:18:53Z</time>
					</trkpt>
					<trkpt lat="46.659800" lon="5.250240">
						<ele>179</ele>
						<time>2021-01-30T14:18:54Z</time>
					</trkpt>
					<trkpt lat="46.659830" lon="5.250340">
						<ele>179</ele>
						<time>2021-01-30T14:18:56Z</time>
					</trkpt>
					<trkpt lat="46.659880" lon="5.250480">
						<ele>179</ele>
						<time>2021-01-30T14:18:58Z</time>
					</trkpt>
					<trkpt lat="46.660070" lon="5.250990">
						<ele>180</ele>
						<time>2021-01-30T14:19:05Z</time>
					</trkpt>
					<trkpt lat="46.660340" lon="5.251640">
						<ele>183</ele>
						<time>2021-01-30T14:19:14Z</time>
					</trkpt>
					<trkpt lat="46.660380" lon="5.251750">
						<ele>183</ele>
						<time>2021-01-30T14:19:16Z</time>
					</trkpt>
					<trkpt lat="46.660490" lon="5.252020">
						<ele>183</ele>
						<time>2021-01-30T14:19:19Z</time>
					</trkpt>
					<trkpt lat="46.660570" lon="5.252260">
						<ele>183</ele>
						<time>2021-01-30T14:19:23Z</time>
					</trkpt>
					<trkpt lat="46.660650" lon="5.252480">
						<ele>184</ele>
						<time>2021-01-30T14:19:26Z</time>
					</trkpt>
					<trkpt lat="46.660660" lon="5.252570">
						<ele>184</ele>
						<time>2021-01-30T14:19:27Z</time>
					</trkpt>
					<trkpt lat="46.660660" lon="5.252570">
						<ele>184</ele>
						<time>2021-01-30T14:19:27Z</time>
					</trkpt>
					<trkpt lat="46.660670" lon="5.252620">
						<ele>184</ele>
						<time>2021-01-30T14:19:27Z</time>
					</trkpt>
					<trkpt lat="46.660700" lon="5.252760">
						<ele>184</ele>
						<time>2021-01-30T14:19:29Z</time>
					</trkpt>
					<trkpt lat="46.660730" lon="5.253170">
						<ele>184</ele>
						<time>2021-01-30T14:19:34Z</time>
					</trkpt>
					<trkpt lat="46.660740" lon="5.253300">
						<ele>184</ele>
						<time>2021-01-30T14:19:36Z</time>
					</trkpt>
					<trkpt lat="46.660760" lon="5.253440">
						<ele>185</ele>
						<time>2021-01-30T14:19:38Z</time>
					</trkpt>
					<trkpt lat="46.660780" lon="5.253580">
						<ele>185</ele>
						<time>2021-01-30T14:19:39Z</time>
					</trkpt>
					<trkpt lat="46.660850" lon="5.253880">
						<ele>186</ele>
						<time>2021-01-30T14:19:43Z</time>
					</trkpt>
					<trkpt lat="46.661000" lon="5.254300">
						<ele>188</ele>
						<time>2021-01-30T14:19:49Z</time>
					</trkpt>
					<trkpt lat="46.661150" lon="5.254790">
						<ele>190</ele>
						<time>2021-01-30T14:19:56Z</time>
					</trkpt>
					<trkpt lat="46.661250" lon="5.255060">
						<ele>190</ele>
						<time>2021-01-30T14:19:59Z</time>
					</trkpt>
					<trkpt lat="46.661330" lon="5.255200">
						<ele>191</ele>
						<time>2021-01-30T14:20:01Z</time>
					</trkpt>
					<trkpt lat="46.661390" lon="5.255280">
						<ele>191</ele>
						<time>2021-01-30T14:20:03Z</time>
					</trkpt>
					<trkpt lat="46.661450" lon="5.255340">
						<ele>192</ele>
						<time>2021-01-30T14:20:04Z</time>
					</trkpt>
					<trkpt lat="46.661580" lon="5.255430">
						<ele>193</ele>
						<time>2021-01-30T14:20:07Z</time>
					</trkpt>
					<trkpt lat="46.661740" lon="5.255530">
						<ele>194</ele>
						<time>2021-01-30T14:20:10Z</time>
					</trkpt>
					<trkpt lat="46.661820" lon="5.255560">
						<ele>194</ele>
						<time>2021-01-30T14:20:11Z</time>
					</trkpt>
					<trkpt lat="46.661910" lon="5.255580">
						<ele>195</ele>
						<time>2021-01-30T14:20:13Z</time>
					</trkpt>
					<trkpt lat="46.661980" lon="5.255580">
						<ele>195</ele>
						<time>2021-01-30T14:20:14Z</time>
					</trkpt>
					<trkpt lat="46.662070" lon="5.255560">
						<ele>195</ele>
						<time>2021-01-30T14:20:16Z</time>
					</trkpt>
					<trkpt lat="46.662180" lon="5.255540">
						<ele>196</ele>
						<time>2021-01-30T14:20:18Z</time>
					</trkpt>
					<trkpt lat="46.662340" lon="5.255510">
						<ele>197</ele>
						<time>2021-01-30T14:20:21Z</time>
					</trkpt>
					<trkpt lat="46.662470" lon="5.255460">
						<ele>198</ele>
						<time>2021-01-30T14:20:23Z</time>
					</trkpt>
					<trkpt lat="46.662560" lon="5.255410">
						<ele>198</ele>
						<time>2021-01-30T14:20:25Z</time>
					</trkpt>
					<trkpt lat="46.662610" lon="5.255370">
						<ele>198</ele>
						<time>2021-01-30T14:20:26Z</time>
					</trkpt>
					<trkpt lat="46.662650" lon="5.255320">
						<ele>198</ele>
						<time>2021-01-30T14:20:27Z</time>
					</trkpt>
					<trkpt lat="46.662720" lon="5.255180">
						<ele>199</ele>
						<time>2021-01-30T14:20:29Z</time>
					</trkpt>
					<trkpt lat="46.662820" lon="5.254880">
						<ele>199</ele>
						<time>2021-01-30T14:20:33Z</time>
					</trkpt>
					<trkpt lat="46.662870" lon="5.254790">
						<ele>199</ele>
						<time>2021-01-30T14:20:34Z</time>
					</trkpt>
					<trkpt lat="46.662930" lon="5.254740">
						<ele>199</ele>
						<time>2021-01-30T14:20:36Z</time>
					</trkpt>
					<trkpt lat="46.662990" lon="5.254720">
						<ele>199</ele>
						<time>2021-01-30T14:20:37Z</time>
					</trkpt>
					<trkpt lat="46.663080" lon="5.254730">
						<ele>199</ele>
						<time>2021-01-30T14:20:38Z</time>
					</trkpt>
					<trkpt lat="46.663210" lon="5.254750">
						<ele>199</ele>
						<time>2021-01-30T14:20:41Z</time>
					</trkpt>
					<trkpt lat="46.663330" lon="5.254760">
						<ele>199</ele>
						<time>2021-01-30T14:20:43Z</time>
					</trkpt>
					<trkpt lat="46.663410" lon="5.254750">
						<ele>199</ele>
						<time>2021-01-30T14:20:44Z</time>
					</trkpt>
					<trkpt lat="46.663450" lon="5.254740">
						<ele>199</ele>
						<time>2021-01-30T14:20:45Z</time>
					</trkpt>
					<trkpt lat="46.663490" lon="5.254690">
						<ele>199</ele>
						<time>2021-01-30T14:20:46Z</time>
					</trkpt>
					<trkpt lat="46.663530" lon="5.254660">
						<ele>200</ele>
						<time>2021-01-30T14:20:47Z</time>
					</trkpt>
					<trkpt lat="46.663710" lon="5.254420">
						<ele>200</ele>
						<time>2021-01-30T14:20:51Z</time>
					</trkpt>
					<trkpt lat="46.663750" lon="5.254370">
						<ele>200</ele>
						<time>2021-01-30T14:20:52Z</time>
					</trkpt>
					<trkpt lat="46.663820" lon="5.254340">
						<ele>200</ele>
						<time>2021-01-30T14:20:53Z</time>
					</trkpt>
					<trkpt lat="46.664000" lon="5.254260">
						<ele>200</ele>
						<time>2021-01-30T14:20:57Z</time>
					</trkpt>
					<trkpt lat="46.664250" lon="5.254180">
						<ele>200</ele>
						<time>2021-01-30T14:21:01Z</time>
					</trkpt>
					<trkpt lat="46.664410" lon="5.254170">
						<ele>201</ele>
						<time>2021-01-30T14:21:04Z</time>
					</trkpt>
					<trkpt lat="46.664530" lon="5.254180">
						<ele>201</ele>
						<time>2021-01-30T14:21:06Z</time>
					</trkpt>
					<trkpt lat="46.664640" lon="5.254190">
						<ele>201</ele>
						<time>2021-01-30T14:21:08Z</time>
					</trkpt>
					<trkpt lat="46.664790" lon="5.254210">
						<ele>201</ele>
						<time>2021-01-30T14:21:11Z</time>
					</trkpt>
					<trkpt lat="46.665010" lon="5.254250">
						<ele>202</ele>
						<time>2021-01-30T14:21:15Z</time>
					</trkpt>
					<trkpt lat="46.665110" lon="5.254260">
						<ele>201</ele>
						<time>2021-01-30T14:21:16Z</time>
					</trkpt>
					<trkpt lat="46.665150" lon="5.254260">
						<ele>201</ele>
						<time>2021-01-30T14:21:17Z</time>
					</trkpt>
					<trkpt lat="46.665190" lon="5.254260">
						<ele>201</ele>
						<time>2021-01-30T14:21:18Z</time>
					</trkpt>
					<trkpt lat="46.665220" lon="5.254260">
						<ele>201</ele>
						<time>2021-01-30T14:21:18Z</time>
					</trkpt>
					<trkpt lat="46.665260" lon="5.254250">
						<ele>201</ele>
						<time>2021-01-30T14:21:19Z</time>
					</trkpt>
					<trkpt lat="46.665350" lon="5.254230">
						<ele>201</ele>
						<time>2021-01-30T14:21:21Z</time>
					</trkpt>
					<trkpt lat="46.665760" lon="5.254020">
						<ele>201</ele>
						<time>2021-01-30T14:21:29Z</time>
					</trkpt>
					<trkpt lat="46.666250" lon="5.253780">
						<ele>201</ele>
						<time>2021-01-30T14:21:38Z</time>
					</trkpt>
					<trkpt lat="46.666320" lon="5.253750">
						<ele>201</ele>
						<time>2021-01-30T14:21:39Z</time>
					</trkpt>
					<trkpt lat="46.666410" lon="5.253690">
						<ele>200</ele>
						<time>2021-01-30T14:21:41Z</time>
					</trkpt>
					<trkpt lat="46.666460" lon="5.253660">
						<ele>200</ele>
						<time>2021-01-30T14:21:42Z</time>
					</trkpt>
					<trkpt lat="46.666480" lon="5.253650">
						<ele>200</ele>
						<time>2021-01-30T14:21:42Z</time>
					</trkpt>
					<trkpt lat="46.666500" lon="5.253640">
						<ele>200</ele>
						<time>2021-01-30T14:21:42Z</time>
					</trkpt>
					<trkpt lat="46.666530" lon="5.253610">
						<ele>200</ele>
						<time>2021-01-30T14:21:43Z</time>
					</trkpt>
					<trkpt lat="46.666550" lon="5.253590">
						<ele>200</ele>
						<time>2021-01-30T14:21:44Z</time>
					</trkpt>
					<trkpt lat="46.666600" lon="5.253540">
						<ele>200</ele>
						<time>2021-01-30T14:21:45Z</time>
					</trkpt>
					<trkpt lat="46.666600" lon="5.253540">
						<ele>200</ele>
						<time>2021-01-30T14:21:45Z</time>
					</trkpt>
					<trkpt lat="46.666650" lon="5.253470">
						<ele>201</ele>
						<time>2021-01-30T14:21:46Z</time>
					</trkpt>
					<trkpt lat="46.666680" lon="5.253420">
						<ele>201</ele>
						<time>2021-01-30T14:21:47Z</time>
					</trkpt>
					<trkpt lat="46.666700" lon="5.253380">
						<ele>201</ele>
						<time>2021-01-30T14:21:47Z</time>
					</trkpt>
					<trkpt lat="46.666730" lon="5.253310">
						<ele>201</ele>
						<time>2021-01-30T14:21:48Z</time>
					</trkpt>
					<trkpt lat="46.666770" lon="5.253180">
						<ele>201</ele>
						<time>2021-01-30T14:21:50Z</time>
					</trkpt>
					<trkpt lat="46.666800" lon="5.253050">
						<ele>200</ele>
						<time>2021-01-30T14:21:52Z</time>
					</trkpt>
					<trkpt lat="46.666810" lon="5.252950">
						<ele>200</ele>
						<time>2021-01-30T14:21:53Z</time>
					</trkpt>
					<trkpt lat="46.666840" lon="5.252650">
						<ele>200</ele>
						<time>2021-01-30T14:21:57Z</time>
					</trkpt>
					<trkpt lat="46.666860" lon="5.252540">
						<ele>200</ele>
						<time>2021-01-30T14:21:58Z</time>
					</trkpt>
					<trkpt lat="46.666890" lon="5.252380">
						<ele>200</ele>
						<time>2021-01-30T14:22:00Z</time>
					</trkpt>
					<trkpt lat="46.666890" lon="5.252380">
						<ele>200</ele>
						<time>2021-01-30T14:22:00Z</time>
					</trkpt>
					<trkpt lat="46.666910" lon="5.252310">
						<ele>200</ele>
						<time>2021-01-30T14:22:01Z</time>
					</trkpt>
					<trkpt lat="46.666930" lon="5.252280">
						<ele>200</ele>
						<time>2021-01-30T14:22:01Z</time>
					</trkpt>
					<trkpt lat="46.666950" lon="5.252240">
						<ele>200</ele>
						<time>2021-01-30T14:22:02Z</time>
					</trkpt>
					<trkpt lat="46.666970" lon="5.252220">
						<ele>200</ele>
						<time>2021-01-30T14:22:03Z</time>
					</trkpt>
					<trkpt lat="46.666980" lon="5.252200">
						<ele>200</ele>
						<time>2021-01-30T14:22:03Z</time>
					</trkpt>
					<trkpt lat="46.667010" lon="5.252180">
						<ele>200</ele>
						<time>2021-01-30T14:22:03Z</time>
					</trkpt>
					<trkpt lat="46.667040" lon="5.252150">
						<ele>200</ele>
						<time>2021-01-30T14:22:04Z</time>
					</trkpt>
					<trkpt lat="46.667300" lon="5.251940">
						<ele>200</ele>
						<time>2021-01-30T14:22:09Z</time>
					</trkpt>
					<trkpt lat="46.667370" lon="5.251890">
						<ele>200</ele>
						<time>2021-01-30T14:22:11Z</time>
					</trkpt>
					<trkpt lat="46.667420" lon="5.251840">
						<ele>200</ele>
						<time>2021-01-30T14:22:12Z</time>
					</trkpt>
					<trkpt lat="46.667480" lon="5.251770">
						<ele>201</ele>
						<time>2021-01-30T14:22:13Z</time>
					</trkpt>
					<trkpt lat="46.667530" lon="5.251720">
						<ele>201</ele>
						<time>2021-01-30T14:22:14Z</time>
					</trkpt>
					<trkpt lat="46.667600" lon="5.251630">
						<ele>201</ele>
						<time>2021-01-30T14:22:16Z</time>
					</trkpt>
					<trkpt lat="46.667770" lon="5.251390">
						<ele>202</ele>
						<time>2021-01-30T14:22:20Z</time>
					</trkpt>
					<trkpt lat="46.668050" lon="5.251020">
						<ele>203</ele>
						<time>2021-01-30T14:22:27Z</time>
					</trkpt>
					<trkpt lat="46.668110" lon="5.250940">
						<ele>203</ele>
						<time>2021-01-30T14:22:28Z</time>
					</trkpt>
					<trkpt lat="46.668170" lon="5.250900">
						<ele>203</ele>
						<time>2021-01-30T14:22:29Z</time>
					</trkpt>
					<trkpt lat="46.668220" lon="5.250870">
						<ele>203</ele>
						<time>2021-01-30T14:22:30Z</time>
					</trkpt>
					<trkpt lat="46.668220" lon="5.250870">
						<ele>203</ele>
						<time>2021-01-30T14:22:30Z</time>
					</trkpt>
					<trkpt lat="46.668320" lon="5.250830">
						<ele>203</ele>
						<time>2021-01-30T14:22:32Z</time>
					</trkpt>
					<trkpt lat="46.668430" lon="5.250800">
						<ele>203</ele>
						<time>2021-01-30T14:22:34Z</time>
					</trkpt>
					<trkpt lat="46.668550" lon="5.250780">
						<ele>203</ele>
						<time>2021-01-30T14:22:36Z</time>
					</trkpt>
					<trkpt lat="46.668750" lon="5.250760">
						<ele>202</ele>
						<time>2021-01-30T14:22:40Z</time>
					</trkpt>
					<trkpt lat="46.668750" lon="5.250760">
						<ele>202</ele>
						<time>2021-01-30T14:22:40Z</time>
					</trkpt>
					<trkpt lat="46.668750" lon="5.250890">
						<ele>202</ele>
						<time>2021-01-30T14:22:42Z</time>
					</trkpt>
					<trkpt lat="46.668750" lon="5.250890">
						<ele>202</ele>
						<time>2021-01-30T14:22:42Z</time>
					</trkpt>
					<trkpt lat="46.668750" lon="5.250760">
						<ele>202</ele>
						<time>2021-01-30T14:22:43Z</time>
					</trkpt>
					<trkpt lat="46.668750" lon="5.250760">
						<ele>202</ele>
						<time>2021-01-30T14:22:43Z</time>
					</trkpt>
					<trkpt lat="46.668950" lon="5.250730">
						<ele>202</ele>
						<time>2021-01-30T14:22:47Z</time>
					</trkpt>
					<trkpt lat="46.668950" lon="5.250730">
						<ele>202</ele>
						<time>2021-01-30T14:22:47Z</time>
					</trkpt>
					<trkpt lat="46.669730" lon="5.250640">
						<ele>202</ele>
						<time>2021-01-30T14:23:01Z</time>
					</trkpt>
					<trkpt lat="46.670540" lon="5.250550">
						<ele>202</ele>
						<time>2021-01-30T14:23:15Z</time>
					</trkpt>
					<trkpt lat="46.670720" lon="5.250520">
						<ele>202</ele>
						<time>2021-01-30T14:23:18Z</time>
					</trkpt>
					<trkpt lat="46.670820" lon="5.250500">
						<ele>202</ele>
						<time>2021-01-30T14:23:20Z</time>
					</trkpt>
					<trkpt lat="46.670860" lon="5.250490">
						<ele>202</ele>
						<time>2021-01-30T14:23:21Z</time>
					</trkpt>
					<trkpt lat="46.670860" lon="5.250490">
						<ele>202</ele>
						<time>2021-01-30T14:23:21Z</time>
					</trkpt>
					<trkpt lat="46.670910" lon="5.250480">
						<ele>202</ele>
						<time>2021-01-30T14:23:22Z</time>
					</trkpt>
					<trkpt lat="46.670990" lon="5.250460">
						<ele>201</ele>
						<time>2021-01-30T14:23:23Z</time>
					</trkpt>
					<trkpt lat="46.671120" lon="5.250420">
						<ele>201</ele>
						<time>2021-01-30T14:23:26Z</time>
					</trkpt>
					<trkpt lat="46.671320" lon="5.250330">
						<ele>201</ele>
						<time>2021-01-30T14:23:29Z</time>
					</trkpt>
					<trkpt lat="46.671510" lon="5.250240">
						<ele>200</ele>
						<time>2021-01-30T14:23:33Z</time>
					</trkpt>
					<trkpt lat="46.672110" lon="5.249950">
						<ele>201</ele>
						<time>2021-01-30T14:23:44Z</time>
					</trkpt>
					<trkpt lat="46.672450" lon="5.249770">
						<ele>200</ele>
						<time>2021-01-30T14:23:51Z</time>
					</trkpt>
					<trkpt lat="46.672450" lon="5.249770">
						<ele>200</ele>
						<time>2021-01-30T14:23:51Z</time>
					</trkpt>
					<trkpt lat="46.672480" lon="5.249690">
						<ele>200</ele>
						<time>2021-01-30T14:23:52Z</time>
					</trkpt>
					<trkpt lat="46.672490" lon="5.249640">
						<ele>200</ele>
						<time>2021-01-30T14:23:52Z</time>
					</trkpt>
					<trkpt lat="46.672490" lon="5.249580">
						<ele>201</ele>
						<time>2021-01-30T14:23:53Z</time>
					</trkpt>
					<trkpt lat="46.672480" lon="5.249520">
						<ele>201</ele>
						<time>2021-01-30T14:23:54Z</time>
					</trkpt>
					<trkpt lat="46.672460" lon="5.249470">
						<ele>201</ele>
						<time>2021-01-30T14:23:54Z</time>
					</trkpt>
					<trkpt lat="46.672410" lon="5.249370">
						<ele>201</ele>
						<time>2021-01-30T14:23:56Z</time>
					</trkpt>
					<trkpt lat="46.672410" lon="5.249370">
						<ele>201</ele>
						<time>2021-01-30T14:23:56Z</time>
					</trkpt>
					<trkpt lat="46.672440" lon="5.249390">
						<ele>201</ele>
						<time>2021-01-30T14:23:57Z</time>
					</trkpt>
					<trkpt lat="46.672510" lon="5.249420">
						<ele>201</ele>
						<time>2021-01-30T14:23:58Z</time>
					</trkpt>
					<trkpt lat="46.672610" lon="5.249450">
						<ele>201</ele>
						<time>2021-01-30T14:24:00Z</time>
					</trkpt>
					<trkpt lat="46.672740" lon="5.249480">
						<ele>200</ele>
						<time>2021-01-30T14:24:02Z</time>
					</trkpt>
					<trkpt lat="46.672950" lon="5.249520">
						<ele>200</ele>
						<time>2021-01-30T14:24:06Z</time>
					</trkpt>
					<trkpt lat="46.673950" lon="5.249670">
						<ele>199</ele>
						<time>2021-01-30T14:24:24Z</time>
					</trkpt>
					<trkpt lat="46.675280" lon="5.249880">
						<ele>200</ele>
						<time>2021-01-30T14:24:48Z</time>
					</trkpt>
					<trkpt lat="46.675320" lon="5.249880">
						<ele>200</ele>
						<time>2021-01-30T14:24:48Z</time>
					</trkpt>
					<trkpt lat="46.675390" lon="5.249890">
						<ele>200</ele>
						<time>2021-01-30T14:24:49Z</time>
					</trkpt>
					<trkpt lat="46.675770" lon="5.249870">
						<ele>199</ele>
						<time>2021-01-30T14:24:56Z</time>
					</trkpt>
					<trkpt lat="46.675990" lon="5.249870">
						<ele>199</ele>
						<time>2021-01-30T14:25:00Z</time>
					</trkpt>
					<trkpt lat="46.676190" lon="5.249880">
						<ele>199</ele>
						<time>2021-01-30T14:25:04Z</time>
					</trkpt>
					<trkpt lat="46.676390" lon="5.249930">
						<ele>199</ele>
						<time>2021-01-30T14:25:07Z</time>
					</trkpt>
					<trkpt lat="46.676670" lon="5.250020">
						<ele>199</ele>
						<time>2021-01-30T14:25:12Z</time>
					</trkpt>
					<trkpt lat="46.676800" lon="5.250070">
						<ele>199</ele>
						<time>2021-01-30T14:25:15Z</time>
					</trkpt>
					<trkpt lat="46.676910" lon="5.250130">
						<ele>199</ele>
						<time>2021-01-30T14:25:17Z</time>
					</trkpt>
					<trkpt lat="46.677090" lon="5.250270">
						<ele>200</ele>
						<time>2021-01-30T14:25:21Z</time>
					</trkpt>
					<trkpt lat="46.677160" lon="5.250320">
						<ele>200</ele>
						<time>2021-01-30T14:25:22Z</time>
					</trkpt>
					<trkpt lat="46.677260" lon="5.250390">
						<ele>200</ele>
						<time>2021-01-30T14:25:24Z</time>
					</trkpt>
					<trkpt lat="46.677400" lon="5.250460">
						<ele>200</ele>
						<time>2021-01-30T14:25:27Z</time>
					</trkpt>
					<trkpt lat="46.677550" lon="5.250530">
						<ele>201</ele>
						<time>2021-01-30T14:25:29Z</time>
					</trkpt>
					<trkpt lat="46.677830" lon="5.250670">
						<ele>200</ele>
						<time>2021-01-30T14:25:35Z</time>
					</trkpt>
					<trkpt lat="46.678150" lon="5.250840">
						<ele>200</ele>
						<time>2021-01-30T14:25:41Z</time>
					</trkpt>
					<trkpt lat="46.678390" lon="5.250970">
						<ele>200</ele>
						<time>2021-01-30T14:25:45Z</time>
					</trkpt>
					<trkpt lat="46.678390" lon="5.250970">
						<ele>200</ele>
						<time>2021-01-30T14:25:45Z</time>
					</trkpt>
					<trkpt lat="46.678340" lon="5.251200">
						<ele>200</ele>
						<time>2021-01-30T14:25:48Z</time>
					</trkpt>
					<trkpt lat="46.678290" lon="5.251480">
						<ele>199</ele>
						<time>2021-01-30T14:25:52Z</time>
					</trkpt>
					<trkpt lat="46.678270" lon="5.251650">
						<ele>199</ele>
						<time>2021-01-30T14:25:54Z</time>
					</trkpt>
					<trkpt lat="46.678270" lon="5.251740">
						<ele>199</ele>
						<time>2021-01-30T14:25:55Z</time>
					</trkpt>
					<trkpt lat="46.678290" lon="5.251810">
						<ele>198</ele>
						<time>2021-01-30T14:25:56Z</time>
					</trkpt>
					<trkpt lat="46.678340" lon="5.251900">
						<ele>197</ele>
						<time>2021-01-30T14:25:57Z</time>
					</trkpt>
					<trkpt lat="46.678400" lon="5.251960">
						<ele>197</ele>
						<time>2021-01-30T14:25:59Z</time>
					</trkpt>
					<trkpt lat="46.678520" lon="5.252050">
						<ele>197</ele>
						<time>2021-01-30T14:26:01Z</time>
					</trkpt>
					<trkpt lat="46.678750" lon="5.252140">
						<ele>197</ele>
						<time>2021-01-30T14:26:05Z</time>
					</trkpt>
					<trkpt lat="46.679020" lon="5.252200">
						<ele>197</ele>
						<time>2021-01-30T14:26:10Z</time>
					</trkpt>
					<trkpt lat="46.679220" lon="5.252250">
						<ele>197</ele>
						<time>2021-01-30T14:26:14Z</time>
					</trkpt>
					<trkpt lat="46.679340" lon="5.252280">
						<ele>198</ele>
						<time>2021-01-30T14:26:16Z</time>
					</trkpt>
					<trkpt lat="46.679510" lon="5.252330">
						<ele>198</ele>
						<time>2021-01-30T14:26:19Z</time>
					</trkpt>
					<trkpt lat="46.679590" lon="5.252360">
						<ele>198</ele>
						<time>2021-01-30T14:26:20Z</time>
					</trkpt>
					<trkpt lat="46.679590" lon="5.252360">
						<ele>198</ele>
						<time>2021-01-30T14:26:20Z</time>
					</trkpt>
					<trkpt lat="46.679500" lon="5.252600">
						<ele>196</ele>
						<time>2021-01-30T14:26:24Z</time>
					</trkpt>
					<trkpt lat="46.679450" lon="5.252750">
						<ele>195</ele>
						<time>2021-01-30T14:26:26Z</time>
					</trkpt>
					<trkpt lat="46.679410" lon="5.252780">
						<ele>195</ele>
						<time>2021-01-30T14:26:27Z</time>
					</trkpt>
					<trkpt lat="46.679340" lon="5.252800">
						<ele>194</ele>
						<time>2021-01-30T14:26:28Z</time>
					</trkpt>
					<trkpt lat="46.679290" lon="5.252810">
						<ele>194</ele>
						<time>2021-01-30T14:26:29Z</time>
					</trkpt>
					<trkpt lat="46.679270" lon="5.252840">
						<ele>194</ele>
						<time>2021-01-30T14:26:29Z</time>
					</trkpt>
					<trkpt lat="46.679250" lon="5.252890">
						<ele>193</ele>
						<time>2021-01-30T14:26:30Z</time>
					</trkpt>
					<trkpt lat="46.679070" lon="5.253410">
						<ele>188</ele>
						<time>2021-01-30T14:26:37Z</time>
					</trkpt>
					<trkpt lat="46.679070" lon="5.253410">
						<ele>188</ele>
						<time>2021-01-30T14:26:37Z</time>
					</trkpt>
					<trkpt lat="46.679250" lon="5.252890">
						<ele>193</ele>
						<time>2021-01-30T14:26:44Z</time>
					</trkpt>
					<trkpt lat="46.679270" lon="5.252840">
						<ele>194</ele>
						<time>2021-01-30T14:26:45Z</time>
					</trkpt>
					<trkpt lat="46.679290" lon="5.252810">
						<ele>194</ele>
						<time>2021-01-30T14:26:45Z</time>
					</trkpt>
					<trkpt lat="46.679340" lon="5.252800">
						<ele>194</ele>
						<time>2021-01-30T14:26:46Z</time>
					</trkpt>
					<trkpt lat="46.679410" lon="5.252780">
						<ele>195</ele>
						<time>2021-01-30T14:26:48Z</time>
					</trkpt>
					<trkpt lat="46.679450" lon="5.252750">
						<ele>195</ele>
						<time>2021-01-30T14:26:48Z</time>
					</trkpt>
					<trkpt lat="46.679500" lon="5.252600">
						<ele>196</ele>
						<time>2021-01-30T14:26:50Z</time>
					</trkpt>
					<trkpt lat="46.679590" lon="5.252360">
						<ele>198</ele>
						<time>2021-01-30T14:26:54Z</time>
					</trkpt>
					<trkpt lat="46.679590" lon="5.252360">
						<ele>198</ele>
						<time>2021-01-30T14:26:54Z</time>
					</trkpt>
					<trkpt lat="46.679510" lon="5.252330">
						<ele>198</ele>
						<time>2021-01-30T14:26:55Z</time>
					</trkpt>
					<trkpt lat="46.679340" lon="5.252280">
						<ele>198</ele>
						<time>2021-01-30T14:26:58Z</time>
					</trkpt>
					<trkpt lat="46.679220" lon="5.252250">
						<ele>197</ele>
						<time>2021-01-30T14:27:00Z</time>
					</trkpt>
					<trkpt lat="46.679020" lon="5.252200">
						<ele>197</ele>
						<time>2021-01-30T14:27:04Z</time>
					</trkpt>
					<trkpt lat="46.678750" lon="5.252140">
						<ele>197</ele>
						<time>2021-01-30T14:27:09Z</time>
					</trkpt>
					<trkpt lat="46.678520" lon="5.252050">
						<ele>197</ele>
						<time>2021-01-30T14:27:13Z</time>
					</trkpt>
					<trkpt lat="46.678400" lon="5.251960">
						<ele>197</ele>
						<time>2021-01-30T14:27:16Z</time>
					</trkpt>
					<trkpt lat="46.678340" lon="5.251900">
						<ele>197</ele>
						<time>2021-01-30T14:27:17Z</time>
					</trkpt>
					<trkpt lat="46.678290" lon="5.251810">
						<ele>198</ele>
						<time>2021-01-30T14:27:18Z</time>
					</trkpt>
					<trkpt lat="46.678270" lon="5.251740">
						<ele>199</ele>
						<time>2021-01-30T14:27:19Z</time>
					</trkpt>
					<trkpt lat="46.678270" lon="5.251650">
						<ele>199</ele>
						<time>2021-01-30T14:27:20Z</time>
					</trkpt>
					<trkpt lat="46.678290" lon="5.251480">
						<ele>199</ele>
						<time>2021-01-30T14:27:22Z</time>
					</trkpt>
					<trkpt lat="46.678340" lon="5.251200">
						<ele>200</ele>
						<time>2021-01-30T14:27:26Z</time>
					</trkpt>
					<trkpt lat="46.678390" lon="5.250970">
						<ele>200</ele>
						<time>2021-01-30T14:27:29Z</time>
					</trkpt>
					<trkpt lat="46.678390" lon="5.250970">
						<ele>200</ele>
						<time>2021-01-30T14:27:29Z</time>
					</trkpt>
					<trkpt lat="46.678150" lon="5.250840">
						<ele>200</ele>
						<time>2021-01-30T14:27:33Z</time>
					</trkpt>
					<trkpt lat="46.677830" lon="5.250670">
						<ele>200</ele>
						<time>2021-01-30T14:27:39Z</time>
					</trkpt>
					<trkpt lat="46.677550" lon="5.250530">
						<ele>201</ele>
						<time>2021-01-30T14:27:45Z</time>
					</trkpt>
					<trkpt lat="46.677400" lon="5.250460">
						<ele>200</ele>
						<time>2021-01-30T14:27:48Z</time>
					</trkpt>
					<trkpt lat="46.677260" lon="5.250390">
						<ele>200</ele>
						<time>2021-01-30T14:27:50Z</time>
					</trkpt>
					<trkpt lat="46.677160" lon="5.250320">
						<ele>200</ele>
						<time>2021-01-30T14:27:52Z</time>
					</trkpt>
					<trkpt lat="46.677090" lon="5.250270">
						<ele>200</ele>
						<time>2021-01-30T14:27:54Z</time>
					</trkpt>
					<trkpt lat="46.676910" lon="5.250130">
						<ele>199</ele>
						<time>2021-01-30T14:27:57Z</time>
					</trkpt>
					<trkpt lat="46.676910" lon="5.250130">
						<ele>199</ele>
						<time>2021-01-30T14:27:57Z</time>
					</trkpt>
					<trkpt lat="46.676870" lon="5.250290">
						<ele>199</ele>
						<time>2021-01-30T14:27:59Z</time>
					</trkpt>
					<trkpt lat="46.676810" lon="5.250500">
						<ele>199</ele>
						<time>2021-01-30T14:28:02Z</time>
					</trkpt>
					<trkpt lat="46.676720" lon="5.250830">
						<ele>198</ele>
						<time>2021-01-30T14:28:06Z</time>
					</trkpt>
					<trkpt lat="46.676610" lon="5.251040">
						<ele>197</ele>
						<time>2021-01-30T14:28:10Z</time>
					</trkpt>
					<trkpt lat="46.676530" lon="5.251160">
						<ele>196</ele>
						<time>2021-01-30T14:28:12Z</time>
					</trkpt>
					<trkpt lat="46.676460" lon="5.251220">
						<ele>195</ele>
						<time>2021-01-30T14:28:13Z</time>
					</trkpt>
					<trkpt lat="46.676390" lon="5.251270">
						<ele>195</ele>
						<time>2021-01-30T14:28:14Z</time>
					</trkpt>
					<trkpt lat="46.676300" lon="5.251310">
						<ele>194</ele>
						<time>2021-01-30T14:28:16Z</time>
					</trkpt>
					<trkpt lat="46.676240" lon="5.251320">
						<ele>194</ele>
						<time>2021-01-30T14:28:17Z</time>
					</trkpt>
					<trkpt lat="46.676180" lon="5.251330">
						<ele>193</ele>
						<time>2021-01-30T14:28:18Z</time>
					</trkpt>
					<trkpt lat="46.675890" lon="5.251370">
						<ele>192</ele>
						<time>2021-01-30T14:28:23Z</time>
					</trkpt>
					<trkpt lat="46.675500" lon="5.251410">
						<ele>191</ele>
						<time>2021-01-30T14:28:30Z</time>
					</trkpt>
					<trkpt lat="46.675410" lon="5.251430">
						<ele>190</ele>
						<time>2021-01-30T14:28:32Z</time>
					</trkpt>
					<trkpt lat="46.675340" lon="5.251460">
						<ele>190</ele>
						<time>2021-01-30T14:28:33Z</time>
					</trkpt>
					<trkpt lat="46.675300" lon="5.251480">
						<ele>189</ele>
						<time>2021-01-30T14:28:34Z</time>
					</trkpt>
					<trkpt lat="46.675250" lon="5.251510">
						<ele>189</ele>
						<time>2021-01-30T14:28:35Z</time>
					</trkpt>
					<trkpt lat="46.675170" lon="5.251580">
						<ele>188</ele>
						<time>2021-01-30T14:28:37Z</time>
					</trkpt>
					<trkpt lat="46.675110" lon="5.251640">
						<ele>187</ele>
						<time>2021-01-30T14:28:38Z</time>
					</trkpt>
					<trkpt lat="46.675070" lon="5.251710">
						<ele>187</ele>
						<time>2021-01-30T14:28:39Z</time>
					</trkpt>
					<trkpt lat="46.675020" lon="5.251790">
						<ele>186</ele>
						<time>2021-01-30T14:28:40Z</time>
					</trkpt>
					<trkpt lat="46.674980" lon="5.251880">
						<ele>186</ele>
						<time>2021-01-30T14:28:42Z</time>
					</trkpt>
					<trkpt lat="46.674930" lon="5.252040">
						<ele>185</ele>
						<time>2021-01-30T14:28:44Z</time>
					</trkpt>
					<trkpt lat="46.674890" lon="5.252210">
						<ele>184</ele>
						<time>2021-01-30T14:28:46Z</time>
					</trkpt>
					<trkpt lat="46.674840" lon="5.252540">
						<ele>182</ele>
						<time>2021-01-30T14:28:50Z</time>
					</trkpt>
					<trkpt lat="46.674640" lon="5.254020">
						<ele>179</ele>
						<time>2021-01-30T14:29:09Z</time>
					</trkpt>
					<trkpt lat="46.674520" lon="5.254970">
						<ele>179</ele>
						<time>2021-01-30T14:29:20Z</time>
					</trkpt>
					<trkpt lat="46.674450" lon="5.255480">
						<ele>179</ele>
						<time>2021-01-30T14:29:27Z</time>
					</trkpt>
					<trkpt lat="46.674290" lon="5.256720">
						<ele>180</ele>
						<time>2021-01-30T14:29:42Z</time>
					</trkpt>
					<trkpt lat="46.674250" lon="5.256960">
						<ele>179</ele>
						<time>2021-01-30T14:29:45Z</time>
					</trkpt>
					<trkpt lat="46.674240" lon="5.257030">
						<ele>179</ele>
						<time>2021-01-30T14:29:46Z</time>
					</trkpt>
					<trkpt lat="46.674230" lon="5.257090">
						<ele>178</ele>
						<time>2021-01-30T14:29:47Z</time>
					</trkpt>
					<trkpt lat="46.674160" lon="5.257620">
						<ele>177</ele>
						<time>2021-01-30T14:29:53Z</time>
					</trkpt>
					<trkpt lat="46.674110" lon="5.257990">
						<ele>178</ele>
						<time>2021-01-30T14:29:58Z</time>
					</trkpt>
					<trkpt lat="46.674110" lon="5.258150">
						<ele>178</ele>
						<time>2021-01-30T14:30:00Z</time>
					</trkpt>
					<trkpt lat="46.674140" lon="5.258560">
						<ele>178</ele>
						<time>2021-01-30T14:30:05Z</time>
					</trkpt>
					<trkpt lat="46.674180" lon="5.258970">
						<ele>177</ele>
						<time>2021-01-30T14:30:10Z</time>
					</trkpt>
					<trkpt lat="46.674170" lon="5.259090">
						<ele>177</ele>
						<time>2021-01-30T14:30:12Z</time>
					</trkpt>
					<trkpt lat="46.674170" lon="5.259150">
						<ele>177</ele>
						<time>2021-01-30T14:30:12Z</time>
					</trkpt>
					<trkpt lat="46.674160" lon="5.259230">
						<ele>177</ele>
						<time>2021-01-30T14:30:13Z</time>
					</trkpt>
					<trkpt lat="46.674140" lon="5.259290">
						<ele>177</ele>
						<time>2021-01-30T14:30:14Z</time>
					</trkpt>
					<trkpt lat="46.674120" lon="5.259410">
						<ele>177</ele>
						<time>2021-01-30T14:30:16Z</time>
					</trkpt>
					<trkpt lat="46.674090" lon="5.259470">
						<ele>177</ele>
						<time>2021-01-30T14:30:16Z</time>
					</trkpt>
					<trkpt lat="46.674070" lon="5.259530">
						<ele>178</ele>
						<time>2021-01-30T14:30:17Z</time>
					</trkpt>
					<trkpt lat="46.673960" lon="5.259800">
						<ele>178</ele>
						<time>2021-01-30T14:30:21Z</time>
					</trkpt>
					<trkpt lat="46.673920" lon="5.259880">
						<ele>178</ele>
						<time>2021-01-30T14:30:22Z</time>
					</trkpt>
					<trkpt lat="46.673810" lon="5.260130">
						<ele>179</ele>
						<time>2021-01-30T14:30:26Z</time>
					</trkpt>
					<trkpt lat="46.673490" lon="5.260840">
						<ele>181</ele>
						<time>2021-01-30T14:30:36Z</time>
					</trkpt>
					<trkpt lat="46.673120" lon="5.261720">
						<ele>185</ele>
						<time>2021-01-30T14:30:49Z</time>
					</trkpt>
					<trkpt lat="46.673050" lon="5.261900">
						<ele>186</ele>
						<time>2021-01-30T14:30:51Z</time>
					</trkpt>
					<trkpt lat="46.673010" lon="5.261990">
						<ele>186</ele>
						<time>2021-01-30T14:30:53Z</time>
					</trkpt>
					<trkpt lat="46.672990" lon="5.262070">
						<ele>187</ele>
						<time>2021-01-30T14:30:54Z</time>
					</trkpt>
					<trkpt lat="46.672870" lon="5.262430">
						<ele>187</ele>
						<time>2021-01-30T14:30:59Z</time>
					</trkpt>
					<trkpt lat="46.672690" lon="5.263240">
						<ele>189</ele>
						<time>2021-01-30T14:31:09Z</time>
					</trkpt>
					<trkpt lat="46.672480" lon="5.264180">
						<ele>190</ele>
						<time>2021-01-30T14:31:21Z</time>
					</trkpt>
					<trkpt lat="46.672360" lon="5.264720">
						<ele>190</ele>
						<time>2021-01-30T14:31:28Z</time>
					</trkpt>
					<trkpt lat="46.672180" lon="5.265450">
						<ele>189</ele>
						<time>2021-01-30T14:31:38Z</time>
					</trkpt>
					<trkpt lat="46.672140" lon="5.265720">
						<ele>188</ele>
						<time>2021-01-30T14:31:41Z</time>
					</trkpt>
					<trkpt lat="46.672120" lon="5.265910">
						<ele>188</ele>
						<time>2021-01-30T14:31:43Z</time>
					</trkpt>
					<trkpt lat="46.672110" lon="5.266110">
						<ele>189</ele>
						<time>2021-01-30T14:31:46Z</time>
					</trkpt>
					<trkpt lat="46.672110" lon="5.266340">
						<ele>189</ele>
						<time>2021-01-30T14:31:49Z</time>
					</trkpt>
					<trkpt lat="46.672120" lon="5.266640">
						<ele>190</ele>
						<time>2021-01-30T14:31:52Z</time>
					</trkpt>
					<trkpt lat="46.672130" lon="5.266950">
						<ele>190</ele>
						<time>2021-01-30T14:31:56Z</time>
					</trkpt>
					<trkpt lat="46.672140" lon="5.267140">
						<ele>189</ele>
						<time>2021-01-30T14:31:58Z</time>
					</trkpt>
					<trkpt lat="46.672140" lon="5.267210">
						<ele>189</ele>
						<time>2021-01-30T14:31:59Z</time>
					</trkpt>
					<trkpt lat="46.672130" lon="5.267290">
						<ele>189</ele>
						<time>2021-01-30T14:32:00Z</time>
					</trkpt>
					<trkpt lat="46.672120" lon="5.267420">
						<ele>189</ele>
						<time>2021-01-30T14:32:02Z</time>
					</trkpt>
					<trkpt lat="46.672030" lon="5.267700">
						<ele>188</ele>
						<time>2021-01-30T14:32:06Z</time>
					</trkpt>
					<trkpt lat="46.671990" lon="5.267830">
						<ele>187</ele>
						<time>2021-01-30T14:32:07Z</time>
					</trkpt>
					<trkpt lat="46.671800" lon="5.268340">
						<ele>184</ele>
						<time>2021-01-30T14:32:14Z</time>
					</trkpt>
					<trkpt lat="46.671750" lon="5.268480">
						<ele>184</ele>
						<time>2021-01-30T14:32:16Z</time>
					</trkpt>
					<trkpt lat="46.671470" lon="5.269180">
						<ele>183</ele>
						<time>2021-01-30T14:32:26Z</time>
					</trkpt>
					<trkpt lat="46.671450" lon="5.269240">
						<ele>183</ele>
						<time>2021-01-30T14:32:27Z</time>
					</trkpt>
					<trkpt lat="46.671420" lon="5.269290">
						<ele>182</ele>
						<time>2021-01-30T14:32:28Z</time>
					</trkpt>
					<trkpt lat="46.671360" lon="5.269460">
						<ele>182</ele>
						<time>2021-01-30T14:32:30Z</time>
					</trkpt>
					<trkpt lat="46.671110" lon="5.270080">
						<ele>183</ele>
						<time>2021-01-30T14:32:39Z</time>
					</trkpt>
					<trkpt lat="46.670790" lon="5.270870">
						<ele>184</ele>
						<time>2021-01-30T14:32:50Z</time>
					</trkpt>
					<trkpt lat="46.670570" lon="5.271440">
						<ele>188</ele>
						<time>2021-01-30T14:32:58Z</time>
					</trkpt>
					<trkpt lat="46.670400" lon="5.271880">
						<ele>190</ele>
						<time>2021-01-30T14:33:04Z</time>
					</trkpt>
					<trkpt lat="46.670290" lon="5.272250">
						<ele>192</ele>
						<time>2021-01-30T14:33:09Z</time>
					</trkpt>
					<trkpt lat="46.670270" lon="5.272340">
						<ele>192</ele>
						<time>2021-01-30T14:33:10Z</time>
					</trkpt>
					<trkpt lat="46.670180" lon="5.272800">
						<ele>194</ele>
						<time>2021-01-30T14:33:16Z</time>
					</trkpt>
					<trkpt lat="46.670150" lon="5.273010">
						<ele>194</ele>
						<time>2021-01-30T14:33:19Z</time>
					</trkpt>
					<trkpt lat="46.670120" lon="5.273200">
						<ele>195</ele>
						<time>2021-01-30T14:33:21Z</time>
					</trkpt>
					<trkpt lat="46.670090" lon="5.273410">
						<ele>196</ele>
						<time>2021-01-30T14:33:24Z</time>
					</trkpt>
					<trkpt lat="46.670060" lon="5.273640">
						<ele>197</ele>
						<time>2021-01-30T14:33:27Z</time>
					</trkpt>
					<trkpt lat="46.670040" lon="5.273840">
						<ele>198</ele>
						<time>2021-01-30T14:33:29Z</time>
					</trkpt>
					<trkpt lat="46.670020" lon="5.274080">
						<ele>199</ele>
						<time>2021-01-30T14:33:32Z</time>
					</trkpt>
					<trkpt lat="46.670010" lon="5.274250">
						<ele>199</ele>
						<time>2021-01-30T14:33:34Z</time>
					</trkpt>
					<trkpt lat="46.670020" lon="5.274320">
						<ele>199</ele>
						<time>2021-01-30T14:33:35Z</time>
					</trkpt>
					<trkpt lat="46.670020" lon="5.274400">
						<ele>200</ele>
						<time>2021-01-30T14:33:36Z</time>
					</trkpt>
					<trkpt lat="46.670020" lon="5.274560">
						<ele>200</ele>
						<time>2021-01-30T14:33:38Z</time>
					</trkpt>
					<trkpt lat="46.670060" lon="5.275620">
						<ele>201</ele>
						<time>2021-01-30T14:33:51Z</time>
					</trkpt>
					<trkpt lat="46.670070" lon="5.275730">
						<ele>201</ele>
						<time>2021-01-30T14:33:52Z</time>
					</trkpt>
					<trkpt lat="46.670110" lon="5.276560">
						<ele>201</ele>
						<time>2021-01-30T14:34:02Z</time>
					</trkpt>
					<trkpt lat="46.670110" lon="5.276710">
						<ele>201</ele>
						<time>2021-01-30T14:34:04Z</time>
					</trkpt>
					<trkpt lat="46.670110" lon="5.276830">
						<ele>201</ele>
						<time>2021-01-30T14:34:06Z</time>
					</trkpt>
					<trkpt lat="46.670050" lon="5.277140">
						<ele>202</ele>
						<time>2021-01-30T14:34:10Z</time>
					</trkpt>
					<trkpt lat="46.669970" lon="5.277490">
						<ele>203</ele>
						<time>2021-01-30T14:34:14Z</time>
					</trkpt>
					<trkpt lat="46.669850" lon="5.277880">
						<ele>202</ele>
						<time>2021-01-30T14:34:19Z</time>
					</trkpt>
					<trkpt lat="46.669680" lon="5.278320">
						<ele>202</ele>
						<time>2021-01-30T14:34:26Z</time>
					</trkpt>
					<trkpt lat="46.669510" lon="5.278730">
						<ele>202</ele>
						<time>2021-01-30T14:34:31Z</time>
					</trkpt>
					<trkpt lat="46.669310" lon="5.279160">
						<ele>202</ele>
						<time>2021-01-30T14:34:38Z</time>
					</trkpt>
					<trkpt lat="46.669220" lon="5.279270">
						<ele>202</ele>
						<time>2021-01-30T14:34:40Z</time>
					</trkpt>
					<trkpt lat="46.669170" lon="5.279350">
						<ele>202</ele>
						<time>2021-01-30T14:34:41Z</time>
					</trkpt>
					<trkpt lat="46.669130" lon="5.279380">
						<ele>202</ele>
						<time>2021-01-30T14:34:42Z</time>
					</trkpt>
					<trkpt lat="46.669100" lon="5.279410">
						<ele>202</ele>
						<time>2021-01-30T14:34:43Z</time>
					</trkpt>
					<trkpt lat="46.669040" lon="5.279460">
						<ele>202</ele>
						<time>2021-01-30T14:34:44Z</time>
					</trkpt>
					<trkpt lat="46.669000" lon="5.279500">
						<ele>202</ele>
						<time>2021-01-30T14:34:45Z</time>
					</trkpt>
					<trkpt lat="46.668900" lon="5.279540">
						<ele>202</ele>
						<time>2021-01-30T14:34:47Z</time>
					</trkpt>
					<trkpt lat="46.668830" lon="5.279560">
						<ele>202</ele>
						<time>2021-01-30T14:34:48Z</time>
					</trkpt>
					<trkpt lat="46.668750" lon="5.279580">
						<ele>201</ele>
						<time>2021-01-30T14:34:49Z</time>
					</trkpt>
					<trkpt lat="46.668680" lon="5.279590">
						<ele>201</ele>
						<time>2021-01-30T14:34:51Z</time>
					</trkpt>
					<trkpt lat="46.668460" lon="5.279610">
						<ele>201</ele>
						<time>2021-01-30T14:34:54Z</time>
					</trkpt>
					<trkpt lat="46.667770" lon="5.279640">
						<ele>202</ele>
						<time>2021-01-30T14:35:07Z</time>
					</trkpt>
					<trkpt lat="46.667500" lon="5.279660">
						<ele>202</ele>
						<time>2021-01-30T14:35:12Z</time>
					</trkpt>
					<trkpt lat="46.667340" lon="5.279690">
						<ele>202</ele>
						<time>2021-01-30T14:35:14Z</time>
					</trkpt>
					<trkpt lat="46.667210" lon="5.279740">
						<ele>202</ele>
						<time>2021-01-30T14:35:17Z</time>
					</trkpt>
					<trkpt lat="46.667140" lon="5.279780">
						<ele>202</ele>
						<time>2021-01-30T14:35:18Z</time>
					</trkpt>
					<trkpt lat="46.667060" lon="5.279820">
						<ele>203</ele>
						<time>2021-01-30T14:35:20Z</time>
					</trkpt>
					<trkpt lat="46.667000" lon="5.279860">
						<ele>203</ele>
						<time>2021-01-30T14:35:21Z</time>
					</trkpt>
					<trkpt lat="46.666930" lon="5.279910">
						<ele>203</ele>
						<time>2021-01-30T14:35:22Z</time>
					</trkpt>
					<trkpt lat="46.666390" lon="5.280360">
						<ele>202</ele>
						<time>2021-01-30T14:35:33Z</time>
					</trkpt>
					<trkpt lat="46.665590" lon="5.281090">
						<ele>203</ele>
						<time>2021-01-30T14:35:50Z</time>
					</trkpt>
					<trkpt lat="46.664440" lon="5.282150">
						<ele>202</ele>
						<time>2021-01-30T14:36:14Z</time>
					</trkpt>
					<trkpt lat="46.664060" lon="5.282490">
						<ele>203</ele>
						<time>2021-01-30T14:36:22Z</time>
					</trkpt>
					<trkpt lat="46.663950" lon="5.282580">
						<ele>203</ele>
						<time>2021-01-30T14:36:24Z</time>
					</trkpt>
					<trkpt lat="46.662820" lon="5.283600">
						<ele>207</ele>
						<time>2021-01-30T14:36:48Z</time>
					</trkpt>
					<trkpt lat="46.661840" lon="5.284500">
						<ele>206</ele>
						<time>2021-01-30T14:37:09Z</time>
					</trkpt>
					<trkpt lat="46.661540" lon="5.284800">
						<ele>203</ele>
						<time>2021-01-30T14:37:15Z</time>
					</trkpt>
					<trkpt lat="46.661400" lon="5.284990">
						<ele>202</ele>
						<time>2021-01-30T14:37:19Z</time>
					</trkpt>
					<trkpt lat="46.661370" lon="5.285040">
						<ele>202</ele>
						<time>2021-01-30T14:37:19Z</time>
					</trkpt>
					<trkpt lat="46.661310" lon="5.285130">
						<ele>201</ele>
						<time>2021-01-30T14:37:21Z</time>
					</trkpt>
					<trkpt lat="46.661290" lon="5.285190">
						<ele>201</ele>
						<time>2021-01-30T14:37:22Z</time>
					</trkpt>
					<trkpt lat="46.661270" lon="5.285250">
						<ele>200</ele>
						<time>2021-01-30T14:37:23Z</time>
					</trkpt>
					<trkpt lat="46.661220" lon="5.285460">
						<ele>199</ele>
						<time>2021-01-30T14:37:25Z</time>
					</trkpt>
					<trkpt lat="46.661190" lon="5.285630">
						<ele>198</ele>
						<time>2021-01-30T14:37:27Z</time>
					</trkpt>
					<trkpt lat="46.661160" lon="5.285940">
						<ele>197</ele>
						<time>2021-01-30T14:37:31Z</time>
					</trkpt>
					<trkpt lat="46.661070" lon="5.286760">
						<ele>191</ele>
						<time>2021-01-30T14:37:41Z</time>
					</trkpt>
					<trkpt lat="46.661020" lon="5.287210">
						<ele>189</ele>
						<time>2021-01-30T14:37:47Z</time>
					</trkpt>
					<trkpt lat="46.660990" lon="5.287470">
						<ele>188</ele>
						<time>2021-01-30T14:37:50Z</time>
					</trkpt>
					<trkpt lat="46.660970" lon="5.287610">
						<ele>188</ele>
						<time>2021-01-30T14:37:52Z</time>
					</trkpt>
					<trkpt lat="46.660930" lon="5.287730">
						<ele>188</ele>
						<time>2021-01-30T14:37:54Z</time>
					</trkpt>
					<trkpt lat="46.660900" lon="5.287860">
						<ele>188</ele>
						<time>2021-01-30T14:37:55Z</time>
					</trkpt>
					<trkpt lat="46.660850" lon="5.288040">
						<ele>187</ele>
						<time>2021-01-30T14:37:58Z</time>
					</trkpt>
					<trkpt lat="46.660790" lon="5.288210">
						<ele>187</ele>
						<time>2021-01-30T14:38:00Z</time>
					</trkpt>
					<trkpt lat="46.660770" lon="5.288270">
						<ele>187</ele>
						<time>2021-01-30T14:38:01Z</time>
					</trkpt>
					<trkpt lat="46.660750" lon="5.288320">
						<ele>187</ele>
						<time>2021-01-30T14:38:01Z</time>
					</trkpt>
					<trkpt lat="46.660650" lon="5.288560">
						<ele>188</ele>
						<time>2021-01-30T14:38:05Z</time>
					</trkpt>
					<trkpt lat="46.660360" lon="5.289360">
						<ele>192</ele>
						<time>2021-01-30T14:38:16Z</time>
					</trkpt>
					<trkpt lat="46.660140" lon="5.289960">
						<ele>195</ele>
						<time>2021-01-30T14:38:24Z</time>
					</trkpt>
					<trkpt lat="46.659930" lon="5.290510">
						<ele>199</ele>
						<time>2021-01-30T14:38:32Z</time>
					</trkpt>
					<trkpt lat="46.659770" lon="5.290940">
						<ele>201</ele>
						<time>2021-01-30T14:38:38Z</time>
					</trkpt>
					<trkpt lat="46.659690" lon="5.291150">
						<ele>202</ele>
						<time>2021-01-30T14:38:41Z</time>
					</trkpt>
					<trkpt lat="46.659590" lon="5.291430">
						<ele>202</ele>
						<time>2021-01-30T14:38:45Z</time>
					</trkpt>
					<trkpt lat="46.659590" lon="5.291430">
						<ele>202</ele>
						<time>2021-01-30T14:38:45Z</time>
					</trkpt>
					<trkpt lat="46.659500" lon="5.291370">
						<ele>202</ele>
						<time>2021-01-30T14:38:46Z</time>
					</trkpt>
					<trkpt lat="46.659430" lon="5.291330">
						<ele>202</ele>
						<time>2021-01-30T14:38:48Z</time>
					</trkpt>
					<trkpt lat="46.659410" lon="5.291310">
						<ele>202</ele>
						<time>2021-01-30T14:38:48Z</time>
					</trkpt>
					<trkpt lat="46.659380" lon="5.291270">
						<ele>202</ele>
						<time>2021-01-30T14:38:49Z</time>
					</trkpt>
					<trkpt lat="46.659310" lon="5.291190">
						<ele>202</ele>
						<time>2021-01-30T14:38:51Z</time>
					</trkpt>
					<trkpt lat="46.659170" lon="5.290970">
						<ele>202</ele>
						<time>2021-01-30T14:38:54Z</time>
					</trkpt>
					<trkpt lat="46.659060" lon="5.290800">
						<ele>201</ele>
						<time>2021-01-30T14:38:57Z</time>
					</trkpt>
					<trkpt lat="46.658960" lon="5.290650">
						<ele>200</ele>
						<time>2021-01-30T14:39:00Z</time>
					</trkpt>
					<trkpt lat="46.658840" lon="5.290500">
						<ele>199</ele>
						<time>2021-01-30T14:39:02Z</time>
					</trkpt>
					<trkpt lat="46.658640" lon="5.290300">
						<ele>197</ele>
						<time>2021-01-30T14:39:07Z</time>
					</trkpt>
					<trkpt lat="46.658390" lon="5.290040">
						<ele>196</ele>
						<time>2021-01-30T14:39:12Z</time>
					</trkpt>
					<trkpt lat="46.658080" lon="5.289740">
						<ele>194</ele>
						<time>2021-01-30T14:39:19Z</time>
					</trkpt>
					<trkpt lat="46.657460" lon="5.289090">
						<ele>191</ele>
						<time>2021-01-30T14:39:32Z</time>
					</trkpt>
					<trkpt lat="46.657280" lon="5.288910">
						<ele>190</ele>
						<time>2021-01-30T14:39:36Z</time>
					</trkpt>
					<trkpt lat="46.657170" lon="5.288830">
						<ele>190</ele>
						<time>2021-01-30T14:39:38Z</time>
					</trkpt>
					<trkpt lat="46.657090" lon="5.288770">
						<ele>190</ele>
						<time>2021-01-30T14:39:40Z</time>
					</trkpt>
					<trkpt lat="46.656980" lon="5.288700">
						<ele>190</ele>
						<time>2021-01-30T14:39:42Z</time>
					</trkpt>
					<trkpt lat="46.656910" lon="5.288670">
						<ele>189</ele>
						<time>2021-01-30T14:39:44Z</time>
					</trkpt>
					<trkpt lat="46.656860" lon="5.288660">
						<ele>189</ele>
						<time>2021-01-30T14:39:44Z</time>
					</trkpt>
					<trkpt lat="46.656830" lon="5.288650">
						<ele>189</ele>
						<time>2021-01-30T14:39:45Z</time>
					</trkpt>
					<trkpt lat="46.656800" lon="5.288640">
						<ele>189</ele>
						<time>2021-01-30T14:39:45Z</time>
					</trkpt>
					<trkpt lat="46.656780" lon="5.288630">
						<ele>189</ele>
						<time>2021-01-30T14:39:46Z</time>
					</trkpt>
					<trkpt lat="46.656280" lon="5.288510">
						<ele>190</ele>
						<time>2021-01-30T14:39:55Z</time>
					</trkpt>
					<trkpt lat="46.655810" lon="5.288410">
						<ele>192</ele>
						<time>2021-01-30T14:40:03Z</time>
					</trkpt>
					<trkpt lat="46.655570" lon="5.288340">
						<ele>193</ele>
						<time>2021-01-30T14:40:08Z</time>
					</trkpt>
					<trkpt lat="46.655380" lon="5.288300">
						<ele>194</ele>
						<time>2021-01-30T14:40:11Z</time>
					</trkpt>
					<trkpt lat="46.655240" lon="5.288280">
						<ele>194</ele>
						<time>2021-01-30T14:40:14Z</time>
					</trkpt>
					<trkpt lat="46.655140" lon="5.288270">
						<ele>194</ele>
						<time>2021-01-30T14:40:15Z</time>
					</trkpt>
					<trkpt lat="46.655050" lon="5.288270">
						<ele>195</ele>
						<time>2021-01-30T14:40:17Z</time>
					</trkpt>
					<trkpt lat="46.654930" lon="5.288280">
						<ele>195</ele>
						<time>2021-01-30T14:40:19Z</time>
					</trkpt>
					<trkpt lat="46.654820" lon="5.288320">
						<ele>196</ele>
						<time>2021-01-30T14:40:21Z</time>
					</trkpt>
					<trkpt lat="46.654680" lon="5.288390">
						<ele>196</ele>
						<time>2021-01-30T14:40:24Z</time>
					</trkpt>
					<trkpt lat="46.654580" lon="5.288460">
						<ele>197</ele>
						<time>2021-01-30T14:40:26Z</time>
					</trkpt>
					<trkpt lat="46.654500" lon="5.288530">
						<ele>197</ele>
						<time>2021-01-30T14:40:27Z</time>
					</trkpt>
					<trkpt lat="46.654380" lon="5.288680">
						<ele>198</ele>
						<time>2021-01-30T14:40:30Z</time>
					</trkpt>
					<trkpt lat="46.654220" lon="5.288960">
						<ele>199</ele>
						<time>2021-01-30T14:40:35Z</time>
					</trkpt>
					<trkpt lat="46.654060" lon="5.288870">
						<ele>199</ele>
						<time>2021-01-30T14:40:38Z</time>
					</trkpt>
					<trkpt lat="46.653880" lon="5.288770">
						<ele>199</ele>
						<time>2021-01-30T14:40:41Z</time>
					</trkpt>
					<trkpt lat="46.653640" lon="5.288630">
						<ele>198</ele>
						<time>2021-01-30T14:40:46Z</time>
					</trkpt>
					<trkpt lat="46.653340" lon="5.288460">
						<ele>197</ele>
						<time>2021-01-30T14:40:51Z</time>
					</trkpt>
					<trkpt lat="46.653290" lon="5.288430">
						<ele>197</ele>
						<time>2021-01-30T14:40:52Z</time>
					</trkpt>
					<trkpt lat="46.653070" lon="5.288330">
						<ele>198</ele>
						<time>2021-01-30T14:40:57Z</time>
					</trkpt>
					<trkpt lat="46.652960" lon="5.288310">
						<ele>198</ele>
						<time>2021-01-30T14:40:59Z</time>
					</trkpt>
					<trkpt lat="46.652860" lon="5.288310">
						<ele>199</ele>
						<time>2021-01-30T14:41:00Z</time>
					</trkpt>
					<trkpt lat="46.652760" lon="5.288310">
						<ele>199</ele>
						<time>2021-01-30T14:41:02Z</time>
					</trkpt>
					<trkpt lat="46.652650" lon="5.288300">
						<ele>199</ele>
						<time>2021-01-30T14:41:04Z</time>
					</trkpt>
					<trkpt lat="46.652490" lon="5.288260">
						<ele>200</ele>
						<time>2021-01-30T14:41:07Z</time>
					</trkpt>
					<trkpt lat="46.652350" lon="5.288240">
						<ele>200</ele>
						<time>2021-01-30T14:41:09Z</time>
					</trkpt>
					<trkpt lat="46.652260" lon="5.288230">
						<ele>200</ele>
						<time>2021-01-30T14:41:11Z</time>
					</trkpt>
					<trkpt lat="46.652180" lon="5.288260">
						<ele>200</ele>
						<time>2021-01-30T14:41:13Z</time>
					</trkpt>
					<trkpt lat="46.652080" lon="5.288340">
						<ele>200</ele>
						<time>2021-01-30T14:41:15Z</time>
					</trkpt>
					<trkpt lat="46.651940" lon="5.288440">
						<ele>200</ele>
						<time>2021-01-30T14:41:17Z</time>
					</trkpt>
					<trkpt lat="46.651820" lon="5.288550">
						<ele>200</ele>
						<time>2021-01-30T14:41:20Z</time>
					</trkpt>
					<trkpt lat="46.651760" lon="5.288610">
						<ele>200</ele>
						<time>2021-01-30T14:41:21Z</time>
					</trkpt>
					<trkpt lat="46.651660" lon="5.288740">
						<ele>200</ele>
						<time>2021-01-30T14:41:24Z</time>
					</trkpt>
					<trkpt lat="46.651480" lon="5.289000">
						<ele>199</ele>
						<time>2021-01-30T14:41:28Z</time>
					</trkpt>
					<trkpt lat="46.651300" lon="5.289260">
						<ele>199</ele>
						<time>2021-01-30T14:41:33Z</time>
					</trkpt>
					<trkpt lat="46.651190" lon="5.289460">
						<ele>198</ele>
						<time>2021-01-30T14:41:36Z</time>
					</trkpt>
					<trkpt lat="46.651100" lon="5.289550">
						<ele>198</ele>
						<time>2021-01-30T14:41:38Z</time>
					</trkpt>
					<trkpt lat="46.651030" lon="5.289610">
						<ele>198</ele>
						<time>2021-01-30T14:41:39Z</time>
					</trkpt>
					<trkpt lat="46.650870" lon="5.289710">
						<ele>198</ele>
						<time>2021-01-30T14:41:42Z</time>
					</trkpt>
					<trkpt lat="46.650700" lon="5.289800">
						<ele>198</ele>
						<time>2021-01-30T14:41:45Z</time>
					</trkpt>
					<trkpt lat="46.650520" lon="5.289840">
						<ele>197</ele>
						<time>2021-01-30T14:41:49Z</time>
					</trkpt>
					<trkpt lat="46.650410" lon="5.289850">
						<ele>197</ele>
						<time>2021-01-30T14:41:51Z</time>
					</trkpt>
					<trkpt lat="46.650350" lon="5.289820">
						<ele>198</ele>
						<time>2021-01-30T14:41:52Z</time>
					</trkpt>
					<trkpt lat="46.650280" lon="5.289770">
						<ele>198</ele>
						<time>2021-01-30T14:41:53Z</time>
					</trkpt>
					<trkpt lat="46.650180" lon="5.289660">
						<ele>198</ele>
						<time>2021-01-30T14:41:55Z</time>
					</trkpt>
					<trkpt lat="46.650050" lon="5.289500">
						<ele>199</ele>
						<time>2021-01-30T14:41:58Z</time>
					</trkpt>
					<trkpt lat="46.649980" lon="5.289400">
						<ele>199</ele>
						<time>2021-01-30T14:42:00Z</time>
					</trkpt>
					<trkpt lat="46.649870" lon="5.289340">
						<ele>200</ele>
						<time>2021-01-30T14:42:02Z</time>
					</trkpt>
					<trkpt lat="46.649810" lon="5.289310">
						<ele>200</ele>
						<time>2021-01-30T14:42:03Z</time>
					</trkpt>
					<trkpt lat="46.649740" lon="5.289300">
						<ele>200</ele>
						<time>2021-01-30T14:42:05Z</time>
					</trkpt>
					<trkpt lat="46.649580" lon="5.289330">
						<ele>201</ele>
						<time>2021-01-30T14:42:07Z</time>
					</trkpt>
					<trkpt lat="46.649330" lon="5.289420">
						<ele>201</ele>
						<time>2021-01-30T14:42:12Z</time>
					</trkpt>
					<trkpt lat="46.649030" lon="5.289540">
						<ele>202</ele>
						<time>2021-01-30T14:42:18Z</time>
					</trkpt>
					<trkpt lat="46.648660" lon="5.289700">
						<ele>203</ele>
						<time>2021-01-30T14:42:24Z</time>
					</trkpt>
					<trkpt lat="46.648320" lon="5.289840">
						<ele>204</ele>
						<time>2021-01-30T14:42:31Z</time>
					</trkpt>
					<trkpt lat="46.648170" lon="5.289900">
						<ele>203</ele>
						<time>2021-01-30T14:42:33Z</time>
					</trkpt>
					<trkpt lat="46.648030" lon="5.290010">
						<ele>203</ele>
						<time>2021-01-30T14:42:36Z</time>
					</trkpt>
					<trkpt lat="46.647860" lon="5.290130">
						<ele>203</ele>
						<time>2021-01-30T14:42:40Z</time>
					</trkpt>
					<trkpt lat="46.647620" lon="5.290330">
						<ele>203</ele>
						<time>2021-01-30T14:42:45Z</time>
					</trkpt>
					<trkpt lat="46.647420" lon="5.290500">
						<ele>203</ele>
						<time>2021-01-30T14:42:49Z</time>
					</trkpt>
					<trkpt lat="46.647290" lon="5.290600">
						<ele>203</ele>
						<time>2021-01-30T14:42:51Z</time>
					</trkpt>
					<trkpt lat="46.647210" lon="5.290650">
						<ele>203</ele>
						<time>2021-01-30T14:42:53Z</time>
					</trkpt>
					<trkpt lat="46.647070" lon="5.290710">
						<ele>203</ele>
						<time>2021-01-30T14:42:55Z</time>
					</trkpt>
					<trkpt lat="46.646880" lon="5.290780">
						<ele>203</ele>
						<time>2021-01-30T14:42:59Z</time>
					</trkpt>
					<trkpt lat="46.646710" lon="5.290830">
						<ele>203</ele>
						<time>2021-01-30T14:43:02Z</time>
					</trkpt>
					<trkpt lat="46.646710" lon="5.290830">
						<ele>203</ele>
						<time>2021-01-30T14:43:02Z</time>
					</trkpt>
					<trkpt lat="46.646640" lon="5.290860">
						<ele>203</ele>
						<time>2021-01-30T14:43:03Z</time>
					</trkpt>
					<trkpt lat="46.646360" lon="5.290960">
						<ele>202</ele>
						<time>2021-01-30T14:43:08Z</time>
					</trkpt>
					<trkpt lat="46.646030" lon="5.291080">
						<ele>201</ele>
						<time>2021-01-30T14:43:15Z</time>
					</trkpt>
					<trkpt lat="46.645760" lon="5.291170">
						<ele>200</ele>
						<time>2021-01-30T14:43:19Z</time>
					</trkpt>
					<trkpt lat="46.645440" lon="5.291280">
						<ele>199</ele>
						<time>2021-01-30T14:43:25Z</time>
					</trkpt>
					<trkpt lat="46.645190" lon="5.291360">
						<ele>198</ele>
						<time>2021-01-30T14:43:30Z</time>
					</trkpt>
					<trkpt lat="46.644990" lon="5.291440">
						<ele>197</ele>
						<time>2021-01-30T14:43:34Z</time>
					</trkpt>
					<trkpt lat="46.644790" lon="5.291560">
						<ele>198</ele>
						<time>2021-01-30T14:43:37Z</time>
					</trkpt>
					<trkpt lat="46.644630" lon="5.291670">
						<ele>198</ele>
						<time>2021-01-30T14:43:41Z</time>
					</trkpt>
					<trkpt lat="46.644490" lon="5.291780">
						<ele>199</ele>
						<time>2021-01-30T14:43:43Z</time>
					</trkpt>
					<trkpt lat="46.644230" lon="5.291980">
						<ele>200</ele>
						<time>2021-01-30T14:43:49Z</time>
					</trkpt>
					<trkpt lat="46.643940" lon="5.292210">
						<ele>201</ele>
						<time>2021-01-30T14:43:54Z</time>
					</trkpt>
					<trkpt lat="46.643670" lon="5.292440">
						<ele>201</ele>
						<time>2021-01-30T14:44:00Z</time>
					</trkpt>
					<trkpt lat="46.643430" lon="5.292620">
						<ele>201</ele>
						<time>2021-01-30T14:44:05Z</time>
					</trkpt>
					<trkpt lat="46.643130" lon="5.292850">
						<ele>201</ele>
						<time>2021-01-30T14:44:11Z</time>
					</trkpt>
					<trkpt lat="46.642820" lon="5.293040">
						<ele>201</ele>
						<time>2021-01-30T14:44:17Z</time>
					</trkpt>
					<trkpt lat="46.642550" lon="5.293210">
						<ele>200</ele>
						<time>2021-01-30T14:44:22Z</time>
					</trkpt>
					<trkpt lat="46.642240" lon="5.293400">
						<ele>199</ele>
						<time>2021-01-30T14:44:28Z</time>
					</trkpt>
					<trkpt lat="46.642190" lon="5.293430">
						<ele>199</ele>
						<time>2021-01-30T14:44:29Z</time>
					</trkpt>
					<trkpt lat="46.642180" lon="5.293430">
						<ele>199</ele>
						<time>2021-01-30T14:44:29Z</time>
					</trkpt>
					<trkpt lat="46.642120" lon="5.293470">
						<ele>199</ele>
						<time>2021-01-30T14:44:30Z</time>
					</trkpt>
					<trkpt lat="46.642120" lon="5.293470">
						<ele>199</ele>
						<time>2021-01-30T14:44:30Z</time>
					</trkpt>
					<trkpt lat="46.642320" lon="5.294100">
						<ele>200</ele>
						<time>2021-01-30T14:44:39Z</time>
					</trkpt>
					<trkpt lat="46.642520" lon="5.294780">
						<ele>202</ele>
						<time>2021-01-30T14:44:48Z</time>
					</trkpt>
					<trkpt lat="46.642630" lon="5.295120">
						<ele>202</ele>
						<time>2021-01-30T14:44:53Z</time>
					</trkpt>
					<trkpt lat="46.642940" lon="5.296180">
						<ele>200</ele>
						<time>2021-01-30T14:45:07Z</time>
					</trkpt>
					<trkpt lat="46.643200" lon="5.297100">
						<ele>199</ele>
						<time>2021-01-30T14:45:19Z</time>
					</trkpt>
					<trkpt lat="46.643200" lon="5.297100">
						<ele>199</ele>
						<time>2021-01-30T14:45:19Z</time>
					</trkpt>
					<trkpt lat="46.642900" lon="5.297110">
						<ele>198</ele>
						<time>2021-01-30T14:45:24Z</time>
					</trkpt>
					<trkpt lat="46.642850" lon="5.297110">
						<ele>198</ele>
						<time>2021-01-30T14:45:25Z</time>
					</trkpt>
					<trkpt lat="46.642550" lon="5.297110">
						<ele>198</ele>
						<time>2021-01-30T14:45:30Z</time>
					</trkpt>
					<trkpt lat="46.642300" lon="5.297130">
						<ele>198</ele>
						<time>2021-01-30T14:45:35Z</time>
					</trkpt>
					<trkpt lat="46.642150" lon="5.297170">
						<ele>198</ele>
						<time>2021-01-30T14:45:37Z</time>
					</trkpt>
					<trkpt lat="46.642020" lon="5.297230">
						<ele>198</ele>
						<time>2021-01-30T14:45:40Z</time>
					</trkpt>
					<trkpt lat="46.641880" lon="5.297320">
						<ele>198</ele>
						<time>2021-01-30T14:45:43Z</time>
					</trkpt>
					<trkpt lat="46.641810" lon="5.297360">
						<ele>198</ele>
						<time>2021-01-30T14:45:44Z</time>
					</trkpt>
					<trkpt lat="46.641730" lon="5.297420">
						<ele>198</ele>
						<time>2021-01-30T14:45:46Z</time>
					</trkpt>
					<trkpt lat="46.641590" lon="5.297520">
						<ele>198</ele>
						<time>2021-01-30T14:45:48Z</time>
					</trkpt>
					<trkpt lat="46.641330" lon="5.297660">
						<ele>196</ele>
						<time>2021-01-30T14:45:53Z</time>
					</trkpt>
					<trkpt lat="46.641080" lon="5.297860">
						<ele>194</ele>
						<time>2021-01-30T14:45:58Z</time>
					</trkpt>
					<trkpt lat="46.640730" lon="5.298100">
						<ele>192</ele>
						<time>2021-01-30T14:46:05Z</time>
					</trkpt>
					<trkpt lat="46.640490" lon="5.298270">
						<ele>190</ele>
						<time>2021-01-30T14:46:10Z</time>
					</trkpt>
					<trkpt lat="46.640340" lon="5.298370">
						<ele>190</ele>
						<time>2021-01-30T14:46:13Z</time>
					</trkpt>
					<trkpt lat="46.640140" lon="5.298420">
						<ele>189</ele>
						<time>2021-01-30T14:46:17Z</time>
					</trkpt>
					<trkpt lat="46.640060" lon="5.298420">
						<ele>188</ele>
						<time>2021-01-30T14:46:18Z</time>
					</trkpt>
					<trkpt lat="46.639980" lon="5.298400">
						<ele>188</ele>
						<time>2021-01-30T14:46:19Z</time>
					</trkpt>
					<trkpt lat="46.639920" lon="5.298380">
						<ele>188</ele>
						<time>2021-01-30T14:46:20Z</time>
					</trkpt>
					<trkpt lat="46.639880" lon="5.298370">
						<ele>187</ele>
						<time>2021-01-30T14:46:21Z</time>
					</trkpt>
					<trkpt lat="46.639860" lon="5.298360">
						<ele>187</ele>
						<time>2021-01-30T14:46:22Z</time>
					</trkpt>
					<trkpt lat="46.639840" lon="5.298350">
						<ele>187</ele>
						<time>2021-01-30T14:46:22Z</time>
					</trkpt>
					<trkpt lat="46.639730" lon="5.298270">
						<ele>187</ele>
						<time>2021-01-30T14:46:24Z</time>
					</trkpt>
					<trkpt lat="46.639660" lon="5.298210">
						<ele>186</ele>
						<time>2021-01-30T14:46:26Z</time>
					</trkpt>
					<trkpt lat="46.639590" lon="5.298160">
						<ele>186</ele>
						<time>2021-01-30T14:46:27Z</time>
					</trkpt>
					<trkpt lat="46.639550" lon="5.298130">
						<ele>186</ele>
						<time>2021-01-30T14:46:28Z</time>
					</trkpt>
					<trkpt lat="46.639390" lon="5.297990">
						<ele>185</ele>
						<time>2021-01-30T14:46:31Z</time>
					</trkpt>
					<trkpt lat="46.639250" lon="5.297880">
						<ele>184</ele>
						<time>2021-01-30T14:46:34Z</time>
					</trkpt>
					<trkpt lat="46.639210" lon="5.297860">
						<ele>184</ele>
						<time>2021-01-30T14:46:35Z</time>
					</trkpt>
					<trkpt lat="46.639070" lon="5.297780">
						<ele>184</ele>
						<time>2021-01-30T14:46:37Z</time>
					</trkpt>
					<trkpt lat="46.638910" lon="5.297730">
						<ele>184</ele>
						<time>2021-01-30T14:46:40Z</time>
					</trkpt>
					<trkpt lat="46.638780" lon="5.297720">
						<ele>184</ele>
						<time>2021-01-30T14:46:43Z</time>
					</trkpt>
					<trkpt lat="46.638670" lon="5.297740">
						<ele>185</ele>
						<time>2021-01-30T14:46:45Z</time>
					</trkpt>
					<trkpt lat="46.638520" lon="5.297770">
						<ele>185</ele>
						<time>2021-01-30T14:46:47Z</time>
					</trkpt>
					<trkpt lat="46.638390" lon="5.297840">
						<ele>185</ele>
						<time>2021-01-30T14:46:50Z</time>
					</trkpt>
					<trkpt lat="46.638330" lon="5.297890">
						<ele>185</ele>
						<time>2021-01-30T14:46:51Z</time>
					</trkpt>
					<trkpt lat="46.638280" lon="5.297930">
						<ele>186</ele>
						<time>2021-01-30T14:46:52Z</time>
					</trkpt>
					<trkpt lat="46.638270" lon="5.297930">
						<ele>186</ele>
						<time>2021-01-30T14:46:52Z</time>
					</trkpt>
					<trkpt lat="46.638100" lon="5.298080">
						<ele>188</ele>
						<time>2021-01-30T14:46:56Z</time>
					</trkpt>
					<trkpt lat="46.637930" lon="5.298250">
						<ele>189</ele>
						<time>2021-01-30T14:46:59Z</time>
					</trkpt>
					<trkpt lat="46.637820" lon="5.298360">
						<ele>190</ele>
						<time>2021-01-30T14:47:02Z</time>
					</trkpt>
					<trkpt lat="46.637650" lon="5.298540">
						<ele>192</ele>
						<time>2021-01-30T14:47:05Z</time>
					</trkpt>
					<trkpt lat="46.637450" lon="5.298730">
						<ele>193</ele>
						<time>2021-01-30T14:47:10Z</time>
					</trkpt>
					<trkpt lat="46.637320" lon="5.298830">
						<ele>194</ele>
						<time>2021-01-30T14:47:12Z</time>
					</trkpt>
					<trkpt lat="46.637180" lon="5.298940">
						<ele>194</ele>
						<time>2021-01-30T14:47:15Z</time>
					</trkpt>
					<trkpt lat="46.637060" lon="5.299010">
						<ele>194</ele>
						<time>2021-01-30T14:47:17Z</time>
					</trkpt>
					<trkpt lat="46.637040" lon="5.299020">
						<ele>194</ele>
						<time>2021-01-30T14:47:18Z</time>
					</trkpt>
					<trkpt lat="46.637020" lon="5.299040">
						<ele>194</ele>
						<time>2021-01-30T14:47:18Z</time>
					</trkpt>
					<trkpt lat="46.636880" lon="5.299110">
						<ele>195</ele>
						<time>2021-01-30T14:47:21Z</time>
					</trkpt>
					<trkpt lat="46.636530" lon="5.299280">
						<ele>195</ele>
						<time>2021-01-30T14:47:27Z</time>
					</trkpt>
					<trkpt lat="46.636450" lon="5.299320">
						<ele>195</ele>
						<time>2021-01-30T14:47:29Z</time>
					</trkpt>
					<trkpt lat="46.636170" lon="5.299460">
						<ele>194</ele>
						<time>2021-01-30T14:47:34Z</time>
					</trkpt>
					<trkpt lat="46.635860" lon="5.299620">
						<ele>195</ele>
						<time>2021-01-30T14:47:40Z</time>
					</trkpt>
					<trkpt lat="46.635800" lon="5.299650">
						<ele>195</ele>
						<time>2021-01-30T14:47:41Z</time>
					</trkpt>
					<trkpt lat="46.635300" lon="5.299910">
						<ele>196</ele>
						<time>2021-01-30T14:47:51Z</time>
					</trkpt>
					<trkpt lat="46.635160" lon="5.299980">
						<ele>197</ele>
						<time>2021-01-30T14:47:53Z</time>
					</trkpt>
					<trkpt lat="46.635090" lon="5.300010">
						<ele>197</ele>
						<time>2021-01-30T14:47:55Z</time>
					</trkpt>
					<trkpt lat="46.634960" lon="5.300080">
						<ele>197</ele>
						<time>2021-01-30T14:47:57Z</time>
					</trkpt>
					<trkpt lat="46.634880" lon="5.300110">
						<ele>198</ele>
						<time>2021-01-30T14:47:59Z</time>
					</trkpt>
					<trkpt lat="46.634820" lon="5.300130">
						<ele>198</ele>
						<time>2021-01-30T14:48:00Z</time>
					</trkpt>
					<trkpt lat="46.634730" lon="5.300120">
						<ele>198</ele>
						<time>2021-01-30T14:48:01Z</time>
					</trkpt>
					<trkpt lat="46.634600" lon="5.300080">
						<ele>199</ele>
						<time>2021-01-30T14:48:04Z</time>
					</trkpt>
					<trkpt lat="46.634260" lon="5.299930">
						<ele>201</ele>
						<time>2021-01-30T14:48:10Z</time>
					</trkpt>
					<trkpt lat="46.634090" lon="5.299850">
						<ele>201</ele>
						<time>2021-01-30T14:48:13Z</time>
					</trkpt>
					<trkpt lat="46.633920" lon="5.299790">
						<ele>201</ele>
						<time>2021-01-30T14:48:16Z</time>
					</trkpt>
					<trkpt lat="46.633820" lon="5.299760">
						<ele>201</ele>
						<time>2021-01-30T14:48:18Z</time>
					</trkpt>
					<trkpt lat="46.633670" lon="5.299750">
						<ele>202</ele>
						<time>2021-01-30T14:48:21Z</time>
					</trkpt>
					<trkpt lat="46.633330" lon="5.299750">
						<ele>203</ele>
						<time>2021-01-30T14:48:27Z</time>
					</trkpt>
					<trkpt lat="46.632980" lon="5.299750">
						<ele>202</ele>
						<time>2021-01-30T14:48:33Z</time>
					</trkpt>
					<trkpt lat="46.632660" lon="5.299750">
						<ele>201</ele>
						<time>2021-01-30T14:48:39Z</time>
					</trkpt>
					<trkpt lat="46.632310" lon="5.299770">
						<ele>201</ele>
						<time>2021-01-30T14:48:45Z</time>
					</trkpt>
					<trkpt lat="46.631930" lon="5.299810">
						<ele>202</ele>
						<time>2021-01-30T14:48:52Z</time>
					</trkpt>
					<trkpt lat="46.631700" lon="5.299850">
						<ele>203</ele>
						<time>2021-01-30T14:48:56Z</time>
					</trkpt>
					<trkpt lat="46.631500" lon="5.299870">
						<ele>202</ele>
						<time>2021-01-30T14:48:59Z</time>
					</trkpt>
					<trkpt lat="46.631360" lon="5.299900">
						<ele>202</ele>
						<time>2021-01-30T14:49:02Z</time>
					</trkpt>
					<trkpt lat="46.631250" lon="5.299890">
						<ele>202</ele>
						<time>2021-01-30T14:49:04Z</time>
					</trkpt>
					<trkpt lat="46.631160" lon="5.299890">
						<ele>202</ele>
						<time>2021-01-30T14:49:05Z</time>
					</trkpt>
					<trkpt lat="46.631060" lon="5.299860">
						<ele>202</ele>
						<time>2021-01-30T14:49:07Z</time>
					</trkpt>
					<trkpt lat="46.630930" lon="5.299820">
						<ele>202</ele>
						<time>2021-01-30T14:49:10Z</time>
					</trkpt>
					<trkpt lat="46.630760" lon="5.299730">
						<ele>202</ele>
						<time>2021-01-30T14:49:13Z</time>
					</trkpt>
					<trkpt lat="46.630440" lon="5.299520">
						<ele>200</ele>
						<time>2021-01-30T14:49:19Z</time>
					</trkpt>
					<trkpt lat="46.629970" lon="5.299170">
						<ele>198</ele>
						<time>2021-01-30T14:49:28Z</time>
					</trkpt>
					<trkpt lat="46.629490" lon="5.298850">
						<ele>196</ele>
						<time>2021-01-30T14:49:38Z</time>
					</trkpt>
					<trkpt lat="46.628650" lon="5.298300">
						<ele>194</ele>
						<time>2021-01-30T14:49:54Z</time>
					</trkpt>
					<trkpt lat="46.628620" lon="5.298280">
						<ele>193</ele>
						<time>2021-01-30T14:49:55Z</time>
					</trkpt>
					<trkpt lat="46.628360" lon="5.298080">
						<ele>191</ele>
						<time>2021-01-30T14:50:00Z</time>
					</trkpt>
					<trkpt lat="46.627550" lon="5.297550">
						<ele>186</ele>
						<time>2021-01-30T14:50:16Z</time>
					</trkpt>
					<trkpt lat="46.626690" lon="5.296990">
						<ele>186</ele>
						<time>2021-01-30T14:50:33Z</time>
					</trkpt>
					<trkpt lat="46.625360" lon="5.296090">
						<ele>185</ele>
						<time>2021-01-30T14:50:59Z</time>
					</trkpt>
					<trkpt lat="46.625000" lon="5.295850">
						<ele>185</ele>
						<time>2021-01-30T14:51:06Z</time>
					</trkpt>
					<trkpt lat="46.624940" lon="5.295810">
						<ele>185</ele>
						<time>2021-01-30T14:51:07Z</time>
					</trkpt>
					<trkpt lat="46.624810" lon="5.295710">
						<ele>185</ele>
						<time>2021-01-30T14:51:10Z</time>
					</trkpt>
					<trkpt lat="46.624780" lon="5.295700">
						<ele>185</ele>
						<time>2021-01-30T14:51:10Z</time>
					</trkpt>
					<trkpt lat="46.624630" lon="5.295590">
						<ele>186</ele>
						<time>2021-01-30T14:51:13Z</time>
					</trkpt>
					<trkpt lat="46.624240" lon="5.295330">
						<ele>187</ele>
						<time>2021-01-30T14:51:21Z</time>
					</trkpt>
					<trkpt lat="46.623760" lon="5.295020">
						<ele>188</ele>
						<time>2021-01-30T14:51:30Z</time>
					</trkpt>
					<trkpt lat="46.623310" lon="5.294710">
						<ele>189</ele>
						<time>2021-01-30T14:51:39Z</time>
					</trkpt>
					<trkpt lat="46.623270" lon="5.294690">
						<ele>190</ele>
						<time>2021-01-30T14:51:40Z</time>
					</trkpt>
					<trkpt lat="46.623150" lon="5.294640">
						<ele>190</ele>
						<time>2021-01-30T14:51:42Z</time>
					</trkpt>
					<trkpt lat="46.623060" lon="5.294620">
						<ele>190</ele>
						<time>2021-01-30T14:51:44Z</time>
					</trkpt>
					<trkpt lat="46.622990" lon="5.294600">
						<ele>190</ele>
						<time>2021-01-30T14:51:45Z</time>
					</trkpt>
					<trkpt lat="46.622990" lon="5.294600">
						<ele>190</ele>
						<time>2021-01-30T14:51:45Z</time>
					</trkpt>
					<trkpt lat="46.622910" lon="5.294620">
						<ele>191</ele>
						<time>2021-01-30T14:51:46Z</time>
					</trkpt>
					<trkpt lat="46.622710" lon="5.294700">
						<ele>191</ele>
						<time>2021-01-30T14:51:50Z</time>
					</trkpt>
					<trkpt lat="46.622420" lon="5.294820">
						<ele>192</ele>
						<time>2021-01-30T14:51:55Z</time>
					</trkpt>
					<trkpt lat="46.622120" lon="5.294930">
						<ele>192</ele>
						<time>2021-01-30T14:52:01Z</time>
					</trkpt>
					<trkpt lat="46.621920" lon="5.294970">
						<ele>193</ele>
						<time>2021-01-30T14:52:04Z</time>
					</trkpt>
					<trkpt lat="46.621670" lon="5.294970">
						<ele>193</ele>
						<time>2021-01-30T14:52:09Z</time>
					</trkpt>
					<trkpt lat="46.621470" lon="5.294960">
						<ele>193</ele>
						<time>2021-01-30T14:52:12Z</time>
					</trkpt>
					<trkpt lat="46.620930" lon="5.294920">
						<ele>193</ele>
						<time>2021-01-30T14:52:22Z</time>
					</trkpt>
					<trkpt lat="46.620500" lon="5.294910">
						<ele>192</ele>
						<time>2021-01-30T14:52:30Z</time>
					</trkpt>
					<trkpt lat="46.620380" lon="5.294910">
						<ele>191</ele>
						<time>2021-01-30T14:52:32Z</time>
					</trkpt>
					<trkpt lat="46.620320" lon="5.294930">
						<ele>191</ele>
						<time>2021-01-30T14:52:33Z</time>
					</trkpt>
					<trkpt lat="46.620240" lon="5.294940">
						<ele>191</ele>
						<time>2021-01-30T14:52:34Z</time>
					</trkpt>
					<trkpt lat="46.620010" lon="5.294980">
						<ele>191</ele>
						<time>2021-01-30T14:52:38Z</time>
					</trkpt>
					<trkpt lat="46.619940" lon="5.294990">
						<ele>191</ele>
						<time>2021-01-30T14:52:40Z</time>
					</trkpt>
					<trkpt lat="46.619490" lon="5.295080">
						<ele>191</ele>
						<time>2021-01-30T14:52:48Z</time>
					</trkpt>
					<trkpt lat="46.619340" lon="5.295100">
						<ele>191</ele>
						<time>2021-01-30T14:52:50Z</time>
					</trkpt>
					<trkpt lat="46.619250" lon="5.295090">
						<ele>191</ele>
						<time>2021-01-30T14:52:52Z</time>
					</trkpt>
					<trkpt lat="46.619140" lon="5.295080">
						<ele>190</ele>
						<time>2021-01-30T14:52:54Z</time>
					</trkpt>
					<trkpt lat="46.619000" lon="5.295070">
						<ele>190</ele>
						<time>2021-01-30T14:52:57Z</time>
					</trkpt>
					<trkpt lat="46.618870" lon="5.295070">
						<ele>189</ele>
						<time>2021-01-30T14:52:59Z</time>
					</trkpt>
					<trkpt lat="46.618620" lon="5.295130">
						<ele>188</ele>
						<time>2021-01-30T14:53:03Z</time>
					</trkpt>
					<trkpt lat="46.618460" lon="5.295220">
						<ele>188</ele>
						<time>2021-01-30T14:53:06Z</time>
					</trkpt>
					<trkpt lat="46.618330" lon="5.295320">
						<ele>188</ele>
						<time>2021-01-30T14:53:09Z</time>
					</trkpt>
					<trkpt lat="46.618190" lon="5.295470">
						<ele>188</ele>
						<time>2021-01-30T14:53:12Z</time>
					</trkpt>
					<trkpt lat="46.618010" lon="5.295660">
						<ele>189</ele>
						<time>2021-01-30T14:53:16Z</time>
					</trkpt>
					<trkpt lat="46.617880" lon="5.295790">
						<ele>189</ele>
						<time>2021-01-30T14:53:19Z</time>
					</trkpt>
					<trkpt lat="46.617750" lon="5.295920">
						<ele>190</ele>
						<time>2021-01-30T14:53:22Z</time>
					</trkpt>
					<trkpt lat="46.617710" lon="5.295940">
						<ele>190</ele>
						<time>2021-01-30T14:53:22Z</time>
					</trkpt>
					<trkpt lat="46.617690" lon="5.295990">
						<ele>190</ele>
						<time>2021-01-30T14:53:23Z</time>
					</trkpt>
					<trkpt lat="46.617690" lon="5.295990">
						<ele>190</ele>
						<time>2021-01-30T14:53:23Z</time>
					</trkpt>
					<trkpt lat="46.617640" lon="5.295990">
						<ele>190</ele>
						<time>2021-01-30T14:53:24Z</time>
					</trkpt>
					<trkpt lat="46.617340" lon="5.295970">
						<ele>190</ele>
						<time>2021-01-30T14:53:29Z</time>
					</trkpt>
					<trkpt lat="46.616930" lon="5.295950">
						<ele>189</ele>
						<time>2021-01-30T14:53:37Z</time>
					</trkpt>
					<trkpt lat="46.616840" lon="5.295950">
						<ele>189</ele>
						<time>2021-01-30T14:53:38Z</time>
					</trkpt>
					<trkpt lat="46.616780" lon="5.295910">
						<ele>189</ele>
						<time>2021-01-30T14:53:39Z</time>
					</trkpt>
					<trkpt lat="46.616750" lon="5.295880">
						<ele>189</ele>
						<time>2021-01-30T14:53:40Z</time>
					</trkpt>
					<trkpt lat="46.616700" lon="5.295810">
						<ele>189</ele>
						<time>2021-01-30T14:53:41Z</time>
					</trkpt>
					<trkpt lat="46.616680" lon="5.295750">
						<ele>189</ele>
						<time>2021-01-30T14:53:42Z</time>
					</trkpt>
					<trkpt lat="46.616660" lon="5.295650">
						<ele>189</ele>
						<time>2021-01-30T14:53:43Z</time>
					</trkpt>
					<trkpt lat="46.616620" lon="5.295470">
						<ele>189</ele>
						<time>2021-01-30T14:53:46Z</time>
					</trkpt>
					<trkpt lat="46.616570" lon="5.295320">
						<ele>189</ele>
						<time>2021-01-30T14:53:48Z</time>
					</trkpt>
					<trkpt lat="46.616520" lon="5.295230">
						<ele>189</ele>
						<time>2021-01-30T14:53:49Z</time>
					</trkpt>
					<trkpt lat="46.616460" lon="5.295160">
						<ele>189</ele>
						<time>2021-01-30T14:53:51Z</time>
					</trkpt>
					<trkpt lat="46.616260" lon="5.295030">
						<ele>188</ele>
						<time>2021-01-30T14:53:54Z</time>
					</trkpt>
					<trkpt lat="46.616010" lon="5.294880">
						<ele>187</ele>
						<time>2021-01-30T14:53:59Z</time>
					</trkpt>
					<trkpt lat="46.615740" lon="5.294730">
						<ele>187</ele>
						<time>2021-01-30T14:54:04Z</time>
					</trkpt>
					<trkpt lat="46.615670" lon="5.294690">
						<ele>187</ele>
						<time>2021-01-30T14:54:06Z</time>
					</trkpt>
					<trkpt lat="46.615640" lon="5.294670">
						<ele>187</ele>
						<time>2021-01-30T14:54:06Z</time>
					</trkpt>
					<trkpt lat="46.615360" lon="5.294500">
						<ele>188</ele>
						<time>2021-01-30T14:54:12Z</time>
					</trkpt>
					<trkpt lat="46.615240" lon="5.294420">
						<ele>189</ele>
						<time>2021-01-30T14:54:14Z</time>
					</trkpt>
					<trkpt lat="46.615110" lon="5.294340">
						<ele>189</ele>
						<time>2021-01-30T14:54:17Z</time>
					</trkpt>
					<trkpt lat="46.614950" lon="5.294230">
						<ele>190</ele>
						<time>2021-01-30T14:54:20Z</time>
					</trkpt>
					<trkpt lat="46.614580" lon="5.293950">
						<ele>191</ele>
						<time>2021-01-30T14:54:27Z</time>
					</trkpt>
					<trkpt lat="46.614460" lon="5.293870">
						<ele>191</ele>
						<time>2021-01-30T14:54:30Z</time>
					</trkpt>
					<trkpt lat="46.614360" lon="5.293810">
						<ele>191</ele>
						<time>2021-01-30T14:54:31Z</time>
					</trkpt>
					<trkpt lat="46.614210" lon="5.293730">
						<ele>192</ele>
						<time>2021-01-30T14:54:34Z</time>
					</trkpt>
					<trkpt lat="46.614210" lon="5.293730">
						<ele>192</ele>
						<time>2021-01-30T14:54:34Z</time>
					</trkpt>
					<trkpt lat="46.614180" lon="5.293840">
						<ele>191</ele>
						<time>2021-01-30T14:54:36Z</time>
					</trkpt>
					<trkpt lat="46.614120" lon="5.294010">
						<ele>190</ele>
						<time>2021-01-30T14:54:38Z</time>
					</trkpt>
					<trkpt lat="46.613910" lon="5.294480">
						<ele>188</ele>
						<time>2021-01-30T14:54:45Z</time>
					</trkpt>
					<trkpt lat="46.613780" lon="5.294780">
						<ele>187</ele>
						<time>2021-01-30T14:54:49Z</time>
					</trkpt>
					<trkpt lat="46.613710" lon="5.294950">
						<ele>187</ele>
						<time>2021-01-30T14:54:52Z</time>
					</trkpt>
					<trkpt lat="46.613640" lon="5.295090">
						<ele>187</ele>
						<time>2021-01-30T14:54:54Z</time>
					</trkpt>
					<trkpt lat="46.613380" lon="5.295650">
						<ele>188</ele>
						<time>2021-01-30T14:55:02Z</time>
					</trkpt>
					<trkpt lat="46.612770" lon="5.296960">
						<ele>185</ele>
						<time>2021-01-30T14:55:21Z</time>
					</trkpt>
					<trkpt lat="46.612080" lon="5.298460">
						<ele>186</ele>
						<time>2021-01-30T14:55:43Z</time>
					</trkpt>
					<trkpt lat="46.611900" lon="5.298860">
						<ele>186</ele>
						<time>2021-01-30T14:55:49Z</time>
					</trkpt>
					<trkpt lat="46.611700" lon="5.299270">
						<ele>186</ele>
						<time>2021-01-30T14:55:55Z</time>
					</trkpt>
					<trkpt lat="46.611580" lon="5.299490">
						<ele>187</ele>
						<time>2021-01-30T14:55:59Z</time>
					</trkpt>
					<trkpt lat="46.611400" lon="5.299770">
						<ele>187</ele>
						<time>2021-01-30T14:56:04Z</time>
					</trkpt>
					<trkpt lat="46.611200" lon="5.300030">
						<ele>186</ele>
						<time>2021-01-30T14:56:08Z</time>
					</trkpt>
					<trkpt lat="46.611020" lon="5.300230">
						<ele>187</ele>
						<time>2021-01-30T14:56:12Z</time>
					</trkpt>
					<trkpt lat="46.610930" lon="5.300330">
						<ele>187</ele>
						<time>2021-01-30T14:56:14Z</time>
					</trkpt>
					<trkpt lat="46.610730" lon="5.300480">
						<ele>188</ele>
						<time>2021-01-30T14:56:18Z</time>
					</trkpt>
					<trkpt lat="46.610410" lon="5.300760">
						<ele>188</ele>
						<time>2021-01-30T14:56:25Z</time>
					</trkpt>
					<trkpt lat="46.610260" lon="5.300880">
						<ele>188</ele>
						<time>2021-01-30T14:56:28Z</time>
					</trkpt>
					<trkpt lat="46.610050" lon="5.301060">
						<ele>187</ele>
						<time>2021-01-30T14:56:32Z</time>
					</trkpt>
					<trkpt lat="46.609590" lon="5.301440">
						<ele>187</ele>
						<time>2021-01-30T14:56:42Z</time>
					</trkpt>
					<trkpt lat="46.609150" lon="5.301810">
						<ele>188</ele>
						<time>2021-01-30T14:56:51Z</time>
					</trkpt>
					<trkpt lat="46.608650" lon="5.302210">
						<ele>189</ele>
						<time>2021-01-30T14:57:01Z</time>
					</trkpt>
					<trkpt lat="46.608360" lon="5.302460">
						<ele>189</ele>
						<time>2021-01-30T14:57:07Z</time>
					</trkpt>
					<trkpt lat="46.608040" lon="5.302720">
						<ele>191</ele>
						<time>2021-01-30T14:57:14Z</time>
					</trkpt>
					<trkpt lat="46.607770" lon="5.302950">
						<ele>193</ele>
						<time>2021-01-30T14:57:19Z</time>
					</trkpt>
					<trkpt lat="46.607440" lon="5.303220">
						<ele>195</ele>
						<time>2021-01-30T14:57:26Z</time>
					</trkpt>
					<trkpt lat="46.607220" lon="5.303400">
						<ele>196</ele>
						<time>2021-01-30T14:57:30Z</time>
					</trkpt>
					<trkpt lat="46.606960" lon="5.303620">
						<ele>197</ele>
						<time>2021-01-30T14:57:36Z</time>
					</trkpt>
					<trkpt lat="46.606920" lon="5.303660">
						<ele>197</ele>
						<time>2021-01-30T14:57:37Z</time>
					</trkpt>
					<trkpt lat="46.606690" lon="5.303850">
						<ele>198</ele>
						<time>2021-01-30T14:57:41Z</time>
					</trkpt>
					<trkpt lat="46.606620" lon="5.303900">
						<ele>198</ele>
						<time>2021-01-30T14:57:43Z</time>
					</trkpt>
					<trkpt lat="46.606330" lon="5.304140">
						<ele>199</ele>
						<time>2021-01-30T14:57:49Z</time>
					</trkpt>
					<trkpt lat="46.605940" lon="5.304460">
						<ele>199</ele>
						<time>2021-01-30T14:57:57Z</time>
					</trkpt>
					<trkpt lat="46.605580" lon="5.304760">
						<ele>200</ele>
						<time>2021-01-30T14:58:04Z</time>
					</trkpt>
					<trkpt lat="46.605180" lon="5.305080">
						<ele>201</ele>
						<time>2021-01-30T14:58:12Z</time>
					</trkpt>
					<trkpt lat="46.604750" lon="5.305450">
						<ele>201</ele>
						<time>2021-01-30T14:58:21Z</time>
					</trkpt>
					<trkpt lat="46.604280" lon="5.305840">
						<ele>203</ele>
						<time>2021-01-30T14:58:31Z</time>
					</trkpt>
					<trkpt lat="46.603800" lon="5.306240">
						<ele>203</ele>
						<time>2021-01-30T14:58:40Z</time>
					</trkpt>
					<trkpt lat="46.603290" lon="5.306670">
						<ele>204</ele>
						<time>2021-01-30T14:58:51Z</time>
					</trkpt>
					<trkpt lat="46.603250" lon="5.306700">
						<ele>204</ele>
						<time>2021-01-30T14:58:52Z</time>
					</trkpt>
					<trkpt lat="46.603070" lon="5.306840">
						<ele>203</ele>
						<time>2021-01-30T14:58:55Z</time>
					</trkpt>
					<trkpt lat="46.603010" lon="5.306900">
						<ele>203</ele>
						<time>2021-01-30T14:58:57Z</time>
					</trkpt>
					<trkpt lat="46.602900" lon="5.307000">
						<ele>203</ele>
						<time>2021-01-30T14:58:59Z</time>
					</trkpt>
					<trkpt lat="46.602750" lon="5.307180">
						<ele>203</ele>
						<time>2021-01-30T14:59:02Z</time>
					</trkpt>
					<trkpt lat="46.602660" lon="5.307320">
						<ele>202</ele>
						<time>2021-01-30T14:59:05Z</time>
					</trkpt>
					<trkpt lat="46.602580" lon="5.307440">
						<ele>202</ele>
						<time>2021-01-30T14:59:07Z</time>
					</trkpt>
					<trkpt lat="46.602500" lon="5.307580">
						<ele>202</ele>
						<time>2021-01-30T14:59:09Z</time>
					</trkpt>
					<trkpt lat="46.602390" lon="5.307770">
						<ele>202</ele>
						<time>2021-01-30T14:59:12Z</time>
					</trkpt>
					<trkpt lat="46.602250" lon="5.308040">
						<ele>202</ele>
						<time>2021-01-30T14:59:16Z</time>
					</trkpt>
					<trkpt lat="46.601940" lon="5.308570">
						<ele>203</ele>
						<time>2021-01-30T14:59:25Z</time>
					</trkpt>
					<trkpt lat="46.601850" lon="5.308740">
						<ele>203</ele>
						<time>2021-01-30T14:59:27Z</time>
					</trkpt>
					<trkpt lat="46.601790" lon="5.308850">
						<ele>202</ele>
						<time>2021-01-30T14:59:29Z</time>
					</trkpt>
					<trkpt lat="46.601560" lon="5.309270">
						<ele>202</ele>
						<time>2021-01-30T14:59:36Z</time>
					</trkpt>
					<trkpt lat="46.601400" lon="5.309560">
						<ele>202</ele>
						<time>2021-01-30T14:59:40Z</time>
					</trkpt>
					<trkpt lat="46.601130" lon="5.310040">
						<ele>202</ele>
						<time>2021-01-30T14:59:48Z</time>
					</trkpt>
					<trkpt lat="46.601130" lon="5.310040">
						<ele>202</ele>
						<time>2021-01-30T14:59:48Z</time>
					</trkpt>
					<trkpt lat="46.601120" lon="5.310070">
						<ele>202</ele>
						<time>2021-01-30T14:59:48Z</time>
					</trkpt>
					<trkpt lat="46.601080" lon="5.310010">
						<ele>202</ele>
						<time>2021-01-30T14:59:49Z</time>
					</trkpt>
					<trkpt lat="46.601010" lon="5.309930">
						<ele>203</ele>
						<time>2021-01-30T14:59:51Z</time>
					</trkpt>
					<trkpt lat="46.600670" lon="5.309560">
						<ele>203</ele>
						<time>2021-01-30T14:59:58Z</time>
					</trkpt>
					<trkpt lat="46.600530" lon="5.309410">
						<ele>203</ele>
						<time>2021-01-30T15:00:01Z</time>
					</trkpt>
					<trkpt lat="46.600340" lon="5.309180">
						<ele>203</ele>
						<time>2021-01-30T15:00:06Z</time>
					</trkpt>
					<trkpt lat="46.600240" lon="5.309070">
						<ele>202</ele>
						<time>2021-01-30T15:00:08Z</time>
					</trkpt>
					<trkpt lat="46.599880" lon="5.308640">
						<ele>199</ele>
						<time>2021-01-30T15:00:16Z</time>
					</trkpt>
					<trkpt lat="46.599740" lon="5.308500">
						<ele>198</ele>
						<time>2021-01-30T15:00:19Z</time>
					</trkpt>
					<trkpt lat="46.599670" lon="5.308430">
						<ele>198</ele>
						<time>2021-01-30T15:00:21Z</time>
					</trkpt>
					<trkpt lat="46.599610" lon="5.308390">
						<ele>198</ele>
						<time>2021-01-30T15:00:22Z</time>
					</trkpt>
					<trkpt lat="46.599530" lon="5.308350">
						<ele>198</ele>
						<time>2021-01-30T15:00:24Z</time>
					</trkpt>
					<trkpt lat="46.599200" lon="5.308290">
						<ele>197</ele>
						<time>2021-01-30T15:00:29Z</time>
					</trkpt>
					<trkpt lat="46.598830" lon="5.308220">
						<ele>197</ele>
						<time>2021-01-30T15:00:36Z</time>
					</trkpt>
					<trkpt lat="46.598700" lon="5.308190">
						<ele>197</ele>
						<time>2021-01-30T15:00:38Z</time>
					</trkpt>
					<trkpt lat="46.598510" lon="5.308150">
						<ele>197</ele>
						<time>2021-01-30T15:00:42Z</time>
					</trkpt>
					<trkpt lat="46.598300" lon="5.308080">
						<ele>196</ele>
						<time>2021-01-30T15:00:46Z</time>
					</trkpt>
					<trkpt lat="46.598070" lon="5.307990">
						<ele>194</ele>
						<time>2021-01-30T15:00:50Z</time>
					</trkpt>
					<trkpt lat="46.598070" lon="5.307990">
						<ele>194</ele>
						<time>2021-01-30T15:00:50Z</time>
					</trkpt>
					<trkpt lat="46.598100" lon="5.307840">
						<ele>194</ele>
						<time>2021-01-30T15:00:52Z</time>
					</trkpt>
					<trkpt lat="46.598120" lon="5.307640">
						<ele>194</ele>
						<time>2021-01-30T15:00:54Z</time>
					</trkpt>
					<trkpt lat="46.598170" lon="5.307360">
						<ele>194</ele>
						<time>2021-01-30T15:00:58Z</time>
					</trkpt>
					<trkpt lat="46.598200" lon="5.307180">
						<ele>193</ele>
						<time>2021-01-30T15:01:00Z</time>
					</trkpt>
					<trkpt lat="46.598250" lon="5.306890">
						<ele>192</ele>
						<time>2021-01-30T15:01:04Z</time>
					</trkpt>
					<trkpt lat="46.598290" lon="5.306620">
						<ele>192</ele>
						<time>2021-01-30T15:01:07Z</time>
					</trkpt>
					<trkpt lat="46.598330" lon="5.306470">
						<ele>192</ele>
						<time>2021-01-30T15:01:09Z</time>
					</trkpt>
					<trkpt lat="46.598350" lon="5.306390">
						<ele>192</ele>
						<time>2021-01-30T15:01:10Z</time>
					</trkpt>
					<trkpt lat="46.598410" lon="5.306250">
						<ele>191</ele>
						<time>2021-01-30T15:01:12Z</time>
					</trkpt>
					<trkpt lat="46.598480" lon="5.306100">
						<ele>191</ele>
						<time>2021-01-30T15:01:14Z</time>
					</trkpt>
					<trkpt lat="46.598500" lon="5.306000">
						<ele>191</ele>
						<time>2021-01-30T15:01:16Z</time>
					</trkpt>
					<trkpt lat="46.598510" lon="5.305910">
						<ele>191</ele>
						<time>2021-01-30T15:01:17Z</time>
					</trkpt>
					<trkpt lat="46.598500" lon="5.305750">
						<ele>190</ele>
						<time>2021-01-30T15:01:19Z</time>
					</trkpt>
					<trkpt lat="46.598480" lon="5.305670">
						<ele>190</ele>
						<time>2021-01-30T15:01:20Z</time>
					</trkpt>
					<trkpt lat="46.598480" lon="5.305670">
						<ele>190</ele>
						<time>2021-01-30T15:01:20Z</time>
					</trkpt>
					<trkpt lat="46.598460" lon="5.305580">
						<ele>190</ele>
						<time>2021-01-30T15:01:21Z</time>
					</trkpt>
					<trkpt lat="46.598360" lon="5.305190">
						<ele>188</ele>
						<time>2021-01-30T15:01:26Z</time>
					</trkpt>
					<trkpt lat="46.598210" lon="5.304760">
						<ele>186</ele>
						<time>2021-01-30T15:01:32Z</time>
					</trkpt>
					<trkpt lat="46.598110" lon="5.304420">
						<ele>185</ele>
						<time>2021-01-30T15:01:36Z</time>
					</trkpt>
					<trkpt lat="46.598030" lon="5.304160">
						<ele>184</ele>
						<time>2021-01-30T15:01:40Z</time>
					</trkpt>
					<trkpt lat="46.597930" lon="5.303960">
						<ele>184</ele>
						<time>2021-01-30T15:01:43Z</time>
					</trkpt>
					<trkpt lat="46.597830" lon="5.303780">
						<ele>183</ele>
						<time>2021-01-30T15:01:46Z</time>
					</trkpt>
					<trkpt lat="46.597710" lon="5.303580">
						<ele>183</ele>
						<time>2021-01-30T15:01:49Z</time>
					</trkpt>
					<trkpt lat="46.597620" lon="5.303400">
						<ele>182</ele>
						<time>2021-01-30T15:01:52Z</time>
					</trkpt>
					<trkpt lat="46.597560" lon="5.303220">
						<ele>182</ele>
						<time>2021-01-30T15:01:54Z</time>
					</trkpt>
					<trkpt lat="46.597510" lon="5.303040">
						<ele>182</ele>
						<time>2021-01-30T15:01:57Z</time>
					</trkpt>
					<trkpt lat="46.597480" lon="5.302840">
						<ele>182</ele>
						<time>2021-01-30T15:01:59Z</time>
					</trkpt>
					<trkpt lat="46.597480" lon="5.302650">
						<ele>182</ele>
						<time>2021-01-30T15:02:01Z</time>
					</trkpt>
					<trkpt lat="46.597480" lon="5.302440">
						<ele>182</ele>
						<time>2021-01-30T15:02:04Z</time>
					</trkpt>
					<trkpt lat="46.597530" lon="5.302140">
						<ele>182</ele>
						<time>2021-01-30T15:02:08Z</time>
					</trkpt>
					<trkpt lat="46.597620" lon="5.301750">
						<ele>182</ele>
						<time>2021-01-30T15:02:13Z</time>
					</trkpt>
					<trkpt lat="46.597720" lon="5.301350">
						<ele>183</ele>
						<time>2021-01-30T15:02:18Z</time>
					</trkpt>
					<trkpt lat="46.597750" lon="5.301240">
						<ele>183</ele>
						<time>2021-01-30T15:02:19Z</time>
					</trkpt>
					<trkpt lat="46.597760" lon="5.301190">
						<ele>183</ele>
						<time>2021-01-30T15:02:20Z</time>
					</trkpt>
					<trkpt lat="46.597760" lon="5.301140">
						<ele>183</ele>
						<time>2021-01-30T15:02:21Z</time>
					</trkpt>
					<trkpt lat="46.597820" lon="5.300620">
						<ele>184</ele>
						<time>2021-01-30T15:02:27Z</time>
					</trkpt>
					<trkpt lat="46.597890" lon="5.299780">
						<ele>184</ele>
						<time>2021-01-30T15:02:37Z</time>
					</trkpt>
					<trkpt lat="46.597910" lon="5.299610">
						<ele>184</ele>
						<time>2021-01-30T15:02:40Z</time>
					</trkpt>
					<trkpt lat="46.597910" lon="5.299510">
						<ele>184</ele>
						<time>2021-01-30T15:02:41Z</time>
					</trkpt>
					<trkpt lat="46.597940" lon="5.299190">
						<ele>184</ele>
						<time>2021-01-30T15:02:45Z</time>
					</trkpt>
					<trkpt lat="46.597950" lon="5.299110">
						<ele>184</ele>
						<time>2021-01-30T15:02:46Z</time>
					</trkpt>
					<trkpt lat="46.597960" lon="5.299030">
						<ele>184</ele>
						<time>2021-01-30T15:02:47Z</time>
					</trkpt>
					<trkpt lat="46.598010" lon="5.298790">
						<ele>184</ele>
						<time>2021-01-30T15:02:50Z</time>
					</trkpt>
					<trkpt lat="46.598120" lon="5.298350">
						<ele>184</ele>
						<time>2021-01-30T15:02:56Z</time>
					</trkpt>
					<trkpt lat="46.598210" lon="5.297990">
						<ele>184</ele>
						<time>2021-01-30T15:03:00Z</time>
					</trkpt>
					<trkpt lat="46.598240" lon="5.297900">
						<ele>184</ele>
						<time>2021-01-30T15:03:01Z</time>
					</trkpt>
					<trkpt lat="46.598270" lon="5.297810">
						<ele>184</ele>
						<time>2021-01-30T15:03:03Z</time>
					</trkpt>
					<trkpt lat="46.598270" lon="5.297810">
						<ele>184</ele>
						<time>2021-01-30T15:03:03Z</time>
					</trkpt>
					<trkpt lat="46.598360" lon="5.297480">
						<ele>184</ele>
						<time>2021-01-30T15:03:07Z</time>
					</trkpt>
					<trkpt lat="46.598430" lon="5.297210">
						<ele>185</ele>
						<time>2021-01-30T15:03:11Z</time>
					</trkpt>
					<trkpt lat="46.598490" lon="5.296970">
						<ele>186</ele>
						<time>2021-01-30T15:03:14Z</time>
					</trkpt>
					<trkpt lat="46.598530" lon="5.296700">
						<ele>187</ele>
						<time>2021-01-30T15:03:17Z</time>
					</trkpt>
					<trkpt lat="46.598550" lon="5.296550">
						<ele>188</ele>
						<time>2021-01-30T15:03:19Z</time>
					</trkpt>
					<trkpt lat="46.598560" lon="5.296480">
						<ele>189</ele>
						<time>2021-01-30T15:03:20Z</time>
					</trkpt>
					<trkpt lat="46.598560" lon="5.296310">
						<ele>190</ele>
						<time>2021-01-30T15:03:22Z</time>
					</trkpt>
					<trkpt lat="46.598560" lon="5.296130">
						<ele>191</ele>
						<time>2021-01-30T15:03:24Z</time>
					</trkpt>
					<trkpt lat="46.598550" lon="5.296080">
						<ele>191</ele>
						<time>2021-01-30T15:03:25Z</time>
					</trkpt>
					<trkpt lat="46.598540" lon="5.295920">
						<ele>192</ele>
						<time>2021-01-30T15:03:27Z</time>
					</trkpt>
					<trkpt lat="46.598500" lon="5.295430">
						<ele>193</ele>
						<time>2021-01-30T15:03:33Z</time>
					</trkpt>
					<trkpt lat="46.598430" lon="5.294650">
						<ele>194</ele>
						<time>2021-01-30T15:03:42Z</time>
					</trkpt>
					<trkpt lat="46.598360" lon="5.293910">
						<ele>196</ele>
						<time>2021-01-30T15:03:51Z</time>
					</trkpt>
					<trkpt lat="46.598330" lon="5.293590">
						<ele>196</ele>
						<time>2021-01-30T15:03:55Z</time>
					</trkpt>
					<trkpt lat="46.598320" lon="5.293520">
						<ele>197</ele>
						<time>2021-01-30T15:03:56Z</time>
					</trkpt>
					<trkpt lat="46.598310" lon="5.293410">
						<ele>197</ele>
						<time>2021-01-30T15:03:58Z</time>
					</trkpt>
					<trkpt lat="46.598280" lon="5.293310">
						<ele>197</ele>
						<time>2021-01-30T15:03:59Z</time>
					</trkpt>
					<trkpt lat="46.598260" lon="5.293230">
						<ele>197</ele>
						<time>2021-01-30T15:04:00Z</time>
					</trkpt>
					<trkpt lat="46.598230" lon="5.293200">
						<ele>198</ele>
						<time>2021-01-30T15:04:01Z</time>
					</trkpt>
					<trkpt lat="46.598160" lon="5.293130">
						<ele>198</ele>
						<time>2021-01-30T15:04:02Z</time>
					</trkpt>
					<trkpt lat="46.597990" lon="5.292970">
						<ele>199</ele>
						<time>2021-01-30T15:04:06Z</time>
					</trkpt>
					<trkpt lat="46.597760" lon="5.292740">
						<ele>199</ele>
						<time>2021-01-30T15:04:11Z</time>
					</trkpt>
					<trkpt lat="46.597570" lon="5.292600">
						<ele>200</ele>
						<time>2021-01-30T15:04:14Z</time>
					</trkpt>
					<trkpt lat="46.597460" lon="5.292550">
						<ele>200</ele>
						<time>2021-01-30T15:04:17Z</time>
					</trkpt>
					<trkpt lat="46.597380" lon="5.292500">
						<ele>200</ele>
						<time>2021-01-30T15:04:18Z</time>
					</trkpt>
					<trkpt lat="46.597000" lon="5.292420">
						<ele>200</ele>
						<time>2021-01-30T15:04:25Z</time>
					</trkpt>
					<trkpt lat="46.596560" lon="5.292340">
						<ele>200</ele>
						<time>2021-01-30T15:04:33Z</time>
					</trkpt>
					<trkpt lat="46.596220" lon="5.292270">
						<ele>200</ele>
						<time>2021-01-30T15:04:39Z</time>
					</trkpt>
					<trkpt lat="46.596160" lon="5.292260">
						<ele>200</ele>
						<time>2021-01-30T15:04:40Z</time>
					</trkpt>
					<trkpt lat="46.596110" lon="5.292250">
						<ele>200</ele>
						<time>2021-01-30T15:04:41Z</time>
					</trkpt>
					<trkpt lat="46.595960" lon="5.292190">
						<ele>200</ele>
						<time>2021-01-30T15:04:44Z</time>
					</trkpt>
					<trkpt lat="46.595850" lon="5.292110">
						<ele>200</ele>
						<time>2021-01-30T15:04:46Z</time>
					</trkpt>
					<trkpt lat="46.595740" lon="5.292030">
						<ele>200</ele>
						<time>2021-01-30T15:04:48Z</time>
					</trkpt>
					<trkpt lat="46.595580" lon="5.291880">
						<ele>200</ele>
						<time>2021-01-30T15:04:51Z</time>
					</trkpt>
					<trkpt lat="46.595380" lon="5.291640">
						<ele>200</ele>
						<time>2021-01-30T15:04:56Z</time>
					</trkpt>
					<trkpt lat="46.595140" lon="5.291370">
						<ele>200</ele>
						<time>2021-01-30T15:05:01Z</time>
					</trkpt>
					<trkpt lat="46.594960" lon="5.291170">
						<ele>200</ele>
						<time>2021-01-30T15:05:05Z</time>
					</trkpt>
					<trkpt lat="46.594960" lon="5.291160">
						<ele>200</ele>
						<time>2021-01-30T15:05:06Z</time>
					</trkpt>
					<trkpt lat="46.594720" lon="5.290890">
						<ele>201</ele>
						<time>2021-01-30T15:05:11Z</time>
					</trkpt>
					<trkpt lat="46.594510" lon="5.290650">
						<ele>201</ele>
						<time>2021-01-30T15:05:16Z</time>
					</trkpt>
					<trkpt lat="46.594290" lon="5.290440">
						<ele>201</ele>
						<time>2021-01-30T15:05:20Z</time>
					</trkpt>
					<trkpt lat="46.594090" lon="5.290300">
						<ele>202</ele>
						<time>2021-01-30T15:05:24Z</time>
					</trkpt>
					<trkpt lat="46.594010" lon="5.290240">
						<ele>201</ele>
						<time>2021-01-30T15:05:26Z</time>
					</trkpt>
					<trkpt lat="46.593970" lon="5.290210">
						<ele>201</ele>
						<time>2021-01-30T15:05:27Z</time>
					</trkpt>
					<trkpt lat="46.593810" lon="5.290120">
						<ele>201</ele>
						<time>2021-01-30T15:05:30Z</time>
					</trkpt>
					<trkpt lat="46.593570" lon="5.289980">
						<ele>201</ele>
						<time>2021-01-30T15:05:34Z</time>
					</trkpt>
					<trkpt lat="46.593280" lon="5.289800">
						<ele>200</ele>
						<time>2021-01-30T15:05:40Z</time>
					</trkpt>
					<trkpt lat="46.592740" lon="5.289490">
						<ele>198</ele>
						<time>2021-01-30T15:05:50Z</time>
					</trkpt>
					<trkpt lat="46.592440" lon="5.289330">
						<ele>197</ele>
						<time>2021-01-30T15:05:56Z</time>
					</trkpt>
					<trkpt lat="46.592220" lon="5.289190">
						<ele>198</ele>
						<time>2021-01-30T15:06:00Z</time>
					</trkpt>
					<trkpt lat="46.592060" lon="5.289110">
						<ele>198</ele>
						<time>2021-01-30T15:06:03Z</time>
					</trkpt>
					<trkpt lat="46.591870" lon="5.289000">
						<ele>198</ele>
						<time>2021-01-30T15:06:07Z</time>
					</trkpt>
					<trkpt lat="46.591620" lon="5.288840">
						<ele>199</ele>
						<time>2021-01-30T15:06:12Z</time>
					</trkpt>
					<trkpt lat="46.591540" lon="5.288790">
						<ele>199</ele>
						<time>2021-01-30T15:06:13Z</time>
					</trkpt>
					<trkpt lat="46.591290" lon="5.288680">
						<ele>200</ele>
						<time>2021-01-30T15:06:18Z</time>
					</trkpt>
					<trkpt lat="46.591120" lon="5.288580">
						<ele>200</ele>
						<time>2021-01-30T15:06:21Z</time>
					</trkpt>
					<trkpt lat="46.591010" lon="5.288540">
						<ele>200</ele>
						<time>2021-01-30T15:06:23Z</time>
					</trkpt>
					<trkpt lat="46.590800" lon="5.288470">
						<ele>201</ele>
						<time>2021-01-30T15:06:27Z</time>
					</trkpt>
					<trkpt lat="46.590760" lon="5.288460">
						<ele>201</ele>
						<time>2021-01-30T15:06:28Z</time>
					</trkpt>
					<trkpt lat="46.590410" lon="5.288370">
						<ele>200</ele>
						<time>2021-01-30T15:06:34Z</time>
					</trkpt>
					<trkpt lat="46.590110" lon="5.288280">
						<ele>200</ele>
						<time>2021-01-30T15:06:40Z</time>
					</trkpt>
					<trkpt lat="46.589890" lon="5.288200">
						<ele>200</ele>
						<time>2021-01-30T15:06:44Z</time>
					</trkpt>
					<trkpt lat="46.589750" lon="5.288130">
						<ele>200</ele>
						<time>2021-01-30T15:06:46Z</time>
					</trkpt>
					<trkpt lat="46.589710" lon="5.288090">
						<ele>200</ele>
						<time>2021-01-30T15:06:47Z</time>
					</trkpt>
					<trkpt lat="46.589660" lon="5.288050">
						<ele>200</ele>
						<time>2021-01-30T15:06:48Z</time>
					</trkpt>
					<trkpt lat="46.589580" lon="5.287950">
						<ele>201</ele>
						<time>2021-01-30T15:06:50Z</time>
					</trkpt>
					<trkpt lat="46.589470" lon="5.287790">
						<ele>202</ele>
						<time>2021-01-30T15:06:53Z</time>
					</trkpt>
					<trkpt lat="46.589380" lon="5.287610">
						<ele>202</ele>
						<time>2021-01-30T15:06:56Z</time>
					</trkpt>
					<trkpt lat="46.589330" lon="5.287510">
						<ele>203</ele>
						<time>2021-01-30T15:06:57Z</time>
					</trkpt>
					<trkpt lat="46.589290" lon="5.287440">
						<ele>204</ele>
						<time>2021-01-30T15:06:58Z</time>
					</trkpt>
					<trkpt lat="46.589270" lon="5.287420">
						<ele>204</ele>
						<time>2021-01-30T15:06:59Z</time>
					</trkpt>
					<trkpt lat="46.589240" lon="5.287370">
						<ele>204</ele>
						<time>2021-01-30T15:06:59Z</time>
					</trkpt>
					<trkpt lat="46.589130" lon="5.287250">
						<ele>206</ele>
						<time>2021-01-30T15:07:02Z</time>
					</trkpt>
					<trkpt lat="46.589000" lon="5.287160">
						<ele>206</ele>
						<time>2021-01-30T15:07:04Z</time>
					</trkpt>
					<trkpt lat="46.588780" lon="5.287040">
						<ele>206</ele>
						<time>2021-01-30T15:07:09Z</time>
					</trkpt>
					<trkpt lat="46.588520" lon="5.286890">
						<ele>205</ele>
						<time>2021-01-30T15:07:14Z</time>
					</trkpt>
					<trkpt lat="46.588310" lon="5.286780">
						<ele>204</ele>
						<time>2021-01-30T15:07:18Z</time>
					</trkpt>
					<trkpt lat="46.588290" lon="5.286760">
						<ele>204</ele>
						<time>2021-01-30T15:07:18Z</time>
					</trkpt>
					<trkpt lat="46.588180" lon="5.286690">
						<ele>204</ele>
						<time>2021-01-30T15:07:20Z</time>
					</trkpt>
					<trkpt lat="46.588130" lon="5.286640">
						<ele>204</ele>
						<time>2021-01-30T15:07:21Z</time>
					</trkpt>
					<trkpt lat="46.588090" lon="5.286590">
						<ele>204</ele>
						<time>2021-01-30T15:07:22Z</time>
					</trkpt>
					<trkpt lat="46.588090" lon="5.286590">
						<ele>204</ele>
						<time>2021-01-30T15:07:22Z</time>
					</trkpt>
					<trkpt lat="46.587990" lon="5.286460">
						<ele>203</ele>
						<time>2021-01-30T15:07:25Z</time>
					</trkpt>
					<trkpt lat="46.587760" lon="5.286050">
						<ele>201</ele>
						<time>2021-01-30T15:07:31Z</time>
					</trkpt>
					<trkpt lat="46.587470" lon="5.285550">
						<ele>198</ele>
						<time>2021-01-30T15:07:39Z</time>
					</trkpt>
					<trkpt lat="46.587150" lon="5.285030">
						<ele>196</ele>
						<time>2021-01-30T15:07:48Z</time>
					</trkpt>
					<trkpt lat="46.586940" lon="5.284660">
						<ele>194</ele>
						<time>2021-01-30T15:07:53Z</time>
					</trkpt>
					<trkpt lat="46.586700" lon="5.284240">
						<ele>193</ele>
						<time>2021-01-30T15:08:00Z</time>
					</trkpt>
					<trkpt lat="46.586450" lon="5.283850">
						<ele>192</ele>
						<time>2021-01-30T15:08:07Z</time>
					</trkpt>
					<trkpt lat="46.586200" lon="5.283410">
						<ele>191</ele>
						<time>2021-01-30T15:08:14Z</time>
					</trkpt>
					<trkpt lat="46.585890" lon="5.282880">
						<ele>189</ele>
						<time>2021-01-30T15:08:22Z</time>
					</trkpt>
					<trkpt lat="46.585570" lon="5.282340">
						<ele>188</ele>
						<time>2021-01-30T15:08:31Z</time>
					</trkpt>
					<trkpt lat="46.585270" lon="5.281850">
						<ele>188</ele>
						<time>2021-01-30T15:08:39Z</time>
					</trkpt>
					<trkpt lat="46.585030" lon="5.281440">
						<ele>189</ele>
						<time>2021-01-30T15:08:45Z</time>
					</trkpt>
					<trkpt lat="46.584880" lon="5.281180">
						<ele>190</ele>
						<time>2021-01-30T15:08:50Z</time>
					</trkpt>
					<trkpt lat="46.584730" lon="5.280910">
						<ele>190</ele>
						<time>2021-01-30T15:08:54Z</time>
					</trkpt>
					<trkpt lat="46.584660" lon="5.280750">
						<ele>191</ele>
						<time>2021-01-30T15:08:56Z</time>
					</trkpt>
					<trkpt lat="46.584600" lon="5.280600">
						<ele>193</ele>
						<time>2021-01-30T15:08:58Z</time>
					</trkpt>
					<trkpt lat="46.584560" lon="5.280440">
						<ele>194</ele>
						<time>2021-01-30T15:09:00Z</time>
					</trkpt>
					<trkpt lat="46.584550" lon="5.280370">
						<ele>195</ele>
						<time>2021-01-30T15:09:01Z</time>
					</trkpt>
					<trkpt lat="46.584540" lon="5.280240">
						<ele>196</ele>
						<time>2021-01-30T15:09:03Z</time>
					</trkpt>
					<trkpt lat="46.584540" lon="5.280150">
						<ele>197</ele>
						<time>2021-01-30T15:09:04Z</time>
					</trkpt>
					<trkpt lat="46.584540" lon="5.280030">
						<ele>199</ele>
						<time>2021-01-30T15:09:05Z</time>
					</trkpt>
					<trkpt lat="46.584560" lon="5.279860">
						<ele>200</ele>
						<time>2021-01-30T15:09:07Z</time>
					</trkpt>
					<trkpt lat="46.584590" lon="5.279690">
						<ele>200</ele>
						<time>2021-01-30T15:09:10Z</time>
					</trkpt>
					<trkpt lat="46.584620" lon="5.279550">
						<ele>201</ele>
						<time>2021-01-30T15:09:11Z</time>
					</trkpt>
					<trkpt lat="46.584660" lon="5.279410">
						<ele>202</ele>
						<time>2021-01-30T15:09:13Z</time>
					</trkpt>
					<trkpt lat="46.584680" lon="5.279300">
						<ele>202</ele>
						<time>2021-01-30T15:09:15Z</time>
					</trkpt>
					<trkpt lat="46.584820" lon="5.278720">
						<ele>202</ele>
						<time>2021-01-30T15:09:22Z</time>
					</trkpt>
					<trkpt lat="46.584980" lon="5.278020">
						<ele>201</ele>
						<time>2021-01-30T15:09:31Z</time>
					</trkpt>
					<trkpt lat="46.585100" lon="5.277510">
						<ele>203</ele>
						<time>2021-01-30T15:09:38Z</time>
					</trkpt>
					<trkpt lat="46.585120" lon="5.277380">
						<ele>203</ele>
						<time>2021-01-30T15:09:39Z</time>
					</trkpt>
					<trkpt lat="46.585170" lon="5.277180">
						<ele>203</ele>
						<time>2021-01-30T15:09:42Z</time>
					</trkpt>
					<trkpt lat="46.585230" lon="5.276850">
						<ele>204</ele>
						<time>2021-01-30T15:09:46Z</time>
					</trkpt>
					<trkpt lat="46.585310" lon="5.276440">
						<ele>204</ele>
						<time>2021-01-30T15:09:51Z</time>
					</trkpt>
					<trkpt lat="46.585400" lon="5.275830">
						<ele>204</ele>
						<time>2021-01-30T15:09:59Z</time>
					</trkpt>
					<trkpt lat="46.585420" lon="5.275690">
						<ele>204</ele>
						<time>2021-01-30T15:10:01Z</time>
					</trkpt>
					<trkpt lat="46.585430" lon="5.275550">
						<ele>204</ele>
						<time>2021-01-30T15:10:03Z</time>
					</trkpt>
					<trkpt lat="46.585440" lon="5.275420">
						<ele>204</ele>
						<time>2021-01-30T15:10:04Z</time>
					</trkpt>
					<trkpt lat="46.585440" lon="5.275330">
						<ele>204</ele>
						<time>2021-01-30T15:10:05Z</time>
					</trkpt>
					<trkpt lat="46.585420" lon="5.275210">
						<ele>204</ele>
						<time>2021-01-30T15:10:07Z</time>
					</trkpt>
					<trkpt lat="46.585400" lon="5.275170">
						<ele>204</ele>
						<time>2021-01-30T15:10:07Z</time>
					</trkpt>
					<trkpt lat="46.585370" lon="5.275090">
						<ele>204</ele>
						<time>2021-01-30T15:10:08Z</time>
					</trkpt>
					<trkpt lat="46.585250" lon="5.274870">
						<ele>204</ele>
						<time>2021-01-30T15:10:12Z</time>
					</trkpt>
					<trkpt lat="46.585160" lon="5.274670">
						<ele>205</ele>
						<time>2021-01-30T15:10:15Z</time>
					</trkpt>
					<trkpt lat="46.584970" lon="5.274220">
						<ele>205</ele>
						<time>2021-01-30T15:10:21Z</time>
					</trkpt>
					<trkpt lat="46.584880" lon="5.274020">
						<ele>205</ele>
						<time>2021-01-30T15:10:24Z</time>
					</trkpt>
					<trkpt lat="46.584760" lon="5.273800">
						<ele>204</ele>
						<time>2021-01-30T15:10:28Z</time>
					</trkpt>
					<trkpt lat="46.584620" lon="5.273570">
						<ele>204</ele>
						<time>2021-01-30T15:10:31Z</time>
					</trkpt>
					<trkpt lat="46.584490" lon="5.273390">
						<ele>204</ele>
						<time>2021-01-30T15:10:35Z</time>
					</trkpt>
					<trkpt lat="46.584380" lon="5.273230">
						<ele>204</ele>
						<time>2021-01-30T15:10:37Z</time>
					</trkpt>
					<trkpt lat="46.584310" lon="5.273130">
						<ele>204</ele>
						<time>2021-01-30T15:10:39Z</time>
					</trkpt>
					<trkpt lat="46.584180" lon="5.272980">
						<ele>204</ele>
						<time>2021-01-30T15:10:42Z</time>
					</trkpt>
					<trkpt lat="46.583840" lon="5.272650">
						<ele>205</ele>
						<time>2021-01-30T15:10:49Z</time>
					</trkpt>
					<trkpt lat="46.583520" lon="5.272340">
						<ele>204</ele>
						<time>2021-01-30T15:10:56Z</time>
					</trkpt>
					<trkpt lat="46.583420" lon="5.272240">
						<ele>204</ele>
						<time>2021-01-30T15:10:58Z</time>
					</trkpt>
					<trkpt lat="46.583200" lon="5.272010">
						<ele>204</ele>
						<time>2021-01-30T15:11:03Z</time>
					</trkpt>
					<trkpt lat="46.583090" lon="5.271890">
						<ele>204</ele>
						<time>2021-01-30T15:11:06Z</time>
					</trkpt>
					<trkpt lat="46.582950" lon="5.271710">
						<ele>204</ele>
						<time>2021-01-30T15:11:09Z</time>
					</trkpt>
					<trkpt lat="46.582830" lon="5.271570">
						<ele>204</ele>
						<time>2021-01-30T15:11:12Z</time>
					</trkpt>
					<trkpt lat="46.582700" lon="5.271380">
						<ele>204</ele>
						<time>2021-01-30T15:11:15Z</time>
					</trkpt>
					<trkpt lat="46.582510" lon="5.271070">
						<ele>204</ele>
						<time>2021-01-30T15:11:20Z</time>
					</trkpt>
					<trkpt lat="46.582510" lon="5.271070">
						<ele>204</ele>
						<time>2021-01-30T15:11:20Z</time>
					</trkpt>
					<trkpt lat="46.582390" lon="5.270880">
						<ele>204</ele>
						<time>2021-01-30T15:11:23Z</time>
					</trkpt>
					<trkpt lat="46.582010" lon="5.270290">
						<ele>204</ele>
						<time>2021-01-30T15:11:33Z</time>
					</trkpt>
					<trkpt lat="46.581760" lon="5.269900">
						<ele>204</ele>
						<time>2021-01-30T15:11:40Z</time>
					</trkpt>
					<trkpt lat="46.581330" lon="5.269220">
						<ele>204</ele>
						<time>2021-01-30T15:11:51Z</time>
					</trkpt>
					<trkpt lat="46.581270" lon="5.269140">
						<ele>204</ele>
						<time>2021-01-30T15:11:52Z</time>
					</trkpt>
					<trkpt lat="46.581050" lon="5.268790">
						<ele>205</ele>
						<time>2021-01-30T15:11:58Z</time>
					</trkpt>
					<trkpt lat="46.580750" lon="5.268320">
						<ele>208</ele>
						<time>2021-01-30T15:12:06Z</time>
					</trkpt>
					<trkpt lat="46.580450" lon="5.267870">
						<ele>207</ele>
						<time>2021-01-30T15:12:14Z</time>
					</trkpt>
					<trkpt lat="46.580180" lon="5.267450">
						<ele>207</ele>
						<time>2021-01-30T15:12:21Z</time>
					</trkpt>
					<trkpt lat="46.579870" lon="5.266970">
						<ele>207</ele>
						<time>2021-01-30T15:12:29Z</time>
					</trkpt>
					<trkpt lat="46.579650" lon="5.266650">
						<ele>207</ele>
						<time>2021-01-30T15:12:34Z</time>
					</trkpt>
					<trkpt lat="46.579540" lon="5.266470">
						<ele>206</ele>
						<time>2021-01-30T15:12:37Z</time>
					</trkpt>
					<trkpt lat="46.579380" lon="5.266170">
						<ele>205</ele>
						<time>2021-01-30T15:12:42Z</time>
					</trkpt>
					<trkpt lat="46.579330" lon="5.266060">
						<ele>205</ele>
						<time>2021-01-30T15:12:43Z</time>
					</trkpt>
					<trkpt lat="46.579240" lon="5.265850">
						<ele>205</ele>
						<time>2021-01-30T15:12:46Z</time>
					</trkpt>
					<trkpt lat="46.579170" lon="5.265670">
						<ele>205</ele>
						<time>2021-01-30T15:12:49Z</time>
					</trkpt>
					<trkpt lat="46.578960" lon="5.265150">
						<ele>205</ele>
						<time>2021-01-30T15:12:56Z</time>
					</trkpt>
					<trkpt lat="46.578880" lon="5.264920">
						<ele>205</ele>
						<time>2021-01-30T15:13:00Z</time>
					</trkpt>
					<trkpt lat="46.578670" lon="5.264360">
						<ele>204</ele>
						<time>2021-01-30T15:13:07Z</time>
					</trkpt>
					<trkpt lat="46.578590" lon="5.264140">
						<ele>203</ele>
						<time>2021-01-30T15:13:10Z</time>
					</trkpt>
					<trkpt lat="46.578480" lon="5.263860">
						<ele>202</ele>
						<time>2021-01-30T15:13:14Z</time>
					</trkpt>
					<trkpt lat="46.578370" lon="5.263550">
						<ele>202</ele>
						<time>2021-01-30T15:13:19Z</time>
					</trkpt>
					<trkpt lat="46.578130" lon="5.262900">
						<ele>199</ele>
						<time>2021-01-30T15:13:28Z</time>
					</trkpt>
					<trkpt lat="46.578020" lon="5.262620">
						<ele>199</ele>
						<time>2021-01-30T15:13:32Z</time>
					</trkpt>
					<trkpt lat="46.577740" lon="5.261880">
						<ele>198</ele>
						<time>2021-01-30T15:13:42Z</time>
					</trkpt>
					<trkpt lat="46.577390" lon="5.260960">
						<ele>200</ele>
						<time>2021-01-30T15:13:55Z</time>
					</trkpt>
					<trkpt lat="46.577030" lon="5.259940">
						<ele>203</ele>
						<time>2021-01-30T15:14:09Z</time>
					</trkpt>
					<trkpt lat="46.576710" lon="5.258910">
						<ele>205</ele>
						<time>2021-01-30T15:14:23Z</time>
					</trkpt>
					<trkpt lat="46.576610" lon="5.258570">
						<ele>206</ele>
						<time>2021-01-30T15:14:27Z</time>
					</trkpt>
					<trkpt lat="46.576320" lon="5.257630">
						<ele>203</ele>
						<time>2021-01-30T15:14:40Z</time>
					</trkpt>
					<trkpt lat="46.576290" lon="5.257510">
						<ele>203</ele>
						<time>2021-01-30T15:14:41Z</time>
					</trkpt>
					<trkpt lat="46.576130" lon="5.257000">
						<ele>201</ele>
						<time>2021-01-30T15:14:48Z</time>
					</trkpt>
					<trkpt lat="46.575980" lon="5.256500">
						<ele>199</ele>
						<time>2021-01-30T15:14:55Z</time>
					</trkpt>
					<trkpt lat="46.575830" lon="5.255970">
						<ele>196</ele>
						<time>2021-01-30T15:15:02Z</time>
					</trkpt>
					<trkpt lat="46.575800" lon="5.255770">
						<ele>196</ele>
						<time>2021-01-30T15:15:04Z</time>
					</trkpt>
					<trkpt lat="46.575800" lon="5.255740">
						<ele>196</ele>
						<time>2021-01-30T15:15:05Z</time>
					</trkpt>
					<trkpt lat="46.575780" lon="5.255600">
						<ele>195</ele>
						<time>2021-01-30T15:15:06Z</time>
					</trkpt>
					<trkpt lat="46.575750" lon="5.255240">
						<ele>194</ele>
						<time>2021-01-30T15:15:11Z</time>
					</trkpt>
					<trkpt lat="46.575750" lon="5.255160">
						<ele>194</ele>
						<time>2021-01-30T15:15:12Z</time>
					</trkpt>
					<trkpt lat="46.575710" lon="5.254540">
						<ele>190</ele>
						<time>2021-01-30T15:15:19Z</time>
					</trkpt>
					<trkpt lat="46.575670" lon="5.253940">
						<ele>187</ele>
						<time>2021-01-30T15:15:27Z</time>
					</trkpt>
					<trkpt lat="46.575670" lon="5.253780">
						<ele>187</ele>
						<time>2021-01-30T15:15:29Z</time>
					</trkpt>
					<trkpt lat="46.575670" lon="5.253740">
						<ele>186</ele>
						<time>2021-01-30T15:15:29Z</time>
					</trkpt>
					<trkpt lat="46.575670" lon="5.253740">
						<ele>186</ele>
						<time>2021-01-30T15:15:29Z</time>
					</trkpt>
					<trkpt lat="46.575680" lon="5.253650">
						<ele>186</ele>
						<time>2021-01-30T15:15:30Z</time>
					</trkpt>
					<trkpt lat="46.575710" lon="5.253550">
						<ele>186</ele>
						<time>2021-01-30T15:15:32Z</time>
					</trkpt>
					<trkpt lat="46.575740" lon="5.253460">
						<ele>185</ele>
						<time>2021-01-30T15:15:33Z</time>
					</trkpt>
					<trkpt lat="46.575780" lon="5.253390">
						<ele>185</ele>
						<time>2021-01-30T15:15:34Z</time>
					</trkpt>
					<trkpt lat="46.575850" lon="5.253300">
						<ele>185</ele>
						<time>2021-01-30T15:15:36Z</time>
					</trkpt>
					<trkpt lat="46.576040" lon="5.253130">
						<ele>185</ele>
						<time>2021-01-30T15:15:40Z</time>
					</trkpt>
					<trkpt lat="46.576840" lon="5.252450">
						<ele>184</ele>
						<time>2021-01-30T15:15:56Z</time>
					</trkpt>
					<trkpt lat="46.577100" lon="5.252220">
						<ele>183</ele>
						<time>2021-01-30T15:16:02Z</time>
					</trkpt>
					<trkpt lat="46.577230" lon="5.252100">
						<ele>183</ele>
						<time>2021-01-30T15:16:04Z</time>
					</trkpt>
					<trkpt lat="46.577930" lon="5.251510">
						<ele>183</ele>
						<time>2021-01-30T15:16:19Z</time>
					</trkpt>
					<trkpt lat="46.578050" lon="5.251430">
						<ele>183</ele>
						<time>2021-01-30T15:16:21Z</time>
					</trkpt>
					<trkpt lat="46.578120" lon="5.251390">
						<ele>183</ele>
						<time>2021-01-30T15:16:22Z</time>
					</trkpt>
					<trkpt lat="46.578130" lon="5.251380">
						<ele>183</ele>
						<time>2021-01-30T15:16:23Z</time>
					</trkpt>
					<trkpt lat="46.578190" lon="5.251350">
						<ele>183</ele>
						<time>2021-01-30T15:16:24Z</time>
					</trkpt>
					<trkpt lat="46.578370" lon="5.251290">
						<ele>183</ele>
						<time>2021-01-30T15:16:27Z</time>
					</trkpt>
					<trkpt lat="46.578520" lon="5.251280">
						<ele>183</ele>
						<time>2021-01-30T15:16:30Z</time>
					</trkpt>
					<trkpt lat="46.578690" lon="5.251280">
						<ele>183</ele>
						<time>2021-01-30T15:16:33Z</time>
					</trkpt>
					<trkpt lat="46.578750" lon="5.251300">
						<ele>183</ele>
						<time>2021-01-30T15:16:34Z</time>
					</trkpt>
					<trkpt lat="46.578980" lon="5.251330">
						<ele>182</ele>
						<time>2021-01-30T15:16:38Z</time>
					</trkpt>
					<trkpt lat="46.579270" lon="5.251390">
						<ele>182</ele>
						<time>2021-01-30T15:16:43Z</time>
					</trkpt>
					<trkpt lat="46.579360" lon="5.251400">
						<ele>182</ele>
						<time>2021-01-30T15:16:45Z</time>
					</trkpt>
					<trkpt lat="46.579430" lon="5.251410">
						<ele>182</ele>
						<time>2021-01-30T15:16:46Z</time>
					</trkpt>
					<trkpt lat="46.579500" lon="5.251420">
						<ele>182</ele>
						<time>2021-01-30T15:16:47Z</time>
					</trkpt>
					<trkpt lat="46.579560" lon="5.251400">
						<ele>182</ele>
						<time>2021-01-30T15:16:48Z</time>
					</trkpt>
					<trkpt lat="46.579610" lon="5.251380">
						<ele>182</ele>
						<time>2021-01-30T15:16:49Z</time>
					</trkpt>
					<trkpt lat="46.579640" lon="5.251360">
						<ele>182</ele>
						<time>2021-01-30T15:16:50Z</time>
					</trkpt>
					<trkpt lat="46.579650" lon="5.251350">
						<ele>182</ele>
						<time>2021-01-30T15:16:50Z</time>
					</trkpt>
					<trkpt lat="46.579670" lon="5.251320">
						<ele>182</ele>
						<time>2021-01-30T15:16:51Z</time>
					</trkpt>
					<trkpt lat="46.579670" lon="5.251300">
						<ele>182</ele>
						<time>2021-01-30T15:16:51Z</time>
					</trkpt>
					<trkpt lat="46.579680" lon="5.251260">
						<ele>182</ele>
						<time>2021-01-30T15:16:51Z</time>
					</trkpt>
					<trkpt lat="46.579690" lon="5.251210">
						<ele>182</ele>
						<time>2021-01-30T15:16:52Z</time>
					</trkpt>
					<trkpt lat="46.579690" lon="5.251150">
						<ele>182</ele>
						<time>2021-01-30T15:16:53Z</time>
					</trkpt>
					<trkpt lat="46.579690" lon="5.251100">
						<ele>182</ele>
						<time>2021-01-30T15:16:53Z</time>
					</trkpt>
					<trkpt lat="46.579700" lon="5.250960">
						<ele>182</ele>
						<time>2021-01-30T15:16:55Z</time>
					</trkpt>
					<trkpt lat="46.579700" lon="5.250960">
						<ele>182</ele>
						<time>2021-01-30T15:16:55Z</time>
					</trkpt>
					<trkpt lat="46.579490" lon="5.250980">
						<ele>182</ele>
						<time>2021-01-30T15:16:59Z</time>
					</trkpt>
					<trkpt lat="46.579200" lon="5.250990">
						<ele>182</ele>
						<time>2021-01-30T15:17:04Z</time>
					</trkpt>
					<trkpt lat="46.578400" lon="5.250990">
						<ele>182</ele>
						<time>2021-01-30T15:17:18Z</time>
					</trkpt>
					<trkpt lat="46.577840" lon="5.250980">
						<ele>182</ele>
						<time>2021-01-30T15:17:28Z</time>
					</trkpt>
					<trkpt lat="46.577800" lon="5.250980">
						<ele>182</ele>
						<time>2021-01-30T15:17:29Z</time>
					</trkpt>
					<trkpt lat="46.577670" lon="5.250970">
						<ele>181</ele>
						<time>2021-01-30T15:17:31Z</time>
					</trkpt>
					<trkpt lat="46.577570" lon="5.250960">
						<ele>181</ele>
						<time>2021-01-30T15:17:33Z</time>
					</trkpt>
					<trkpt lat="46.577520" lon="5.250960">
						<ele>181</ele>
						<time>2021-01-30T15:17:34Z</time>
					</trkpt>
					<trkpt lat="46.577460" lon="5.250960">
						<ele>181</ele>
						<time>2021-01-30T15:17:35Z</time>
					</trkpt>
					<trkpt lat="46.577180" lon="5.250970">
						<ele>182</ele>
						<time>2021-01-30T15:17:40Z</time>
					</trkpt>
					<trkpt lat="46.577000" lon="5.251000">
						<ele>182</ele>
						<time>2021-01-30T15:17:43Z</time>
					</trkpt>
					<trkpt lat="46.576860" lon="5.251040">
						<ele>182</ele>
						<time>2021-01-30T15:17:46Z</time>
					</trkpt>
					<trkpt lat="46.576720" lon="5.251100">
						<ele>182</ele>
						<time>2021-01-30T15:17:48Z</time>
					</trkpt>
					<trkpt lat="46.576530" lon="5.251220">
						<ele>182</ele>
						<time>2021-01-30T15:17:52Z</time>
					</trkpt>
					<trkpt lat="46.576360" lon="5.251320">
						<ele>183</ele>
						<time>2021-01-30T15:17:55Z</time>
					</trkpt>
					<trkpt lat="46.576270" lon="5.251370">
						<ele>183</ele>
						<time>2021-01-30T15:17:57Z</time>
					</trkpt>
					<trkpt lat="46.576190" lon="5.251410">
						<ele>183</ele>
						<time>2021-01-30T15:17:58Z</time>
					</trkpt>
					<trkpt lat="46.576120" lon="5.251430">
						<ele>183</ele>
						<time>2021-01-30T15:18:00Z</time>
					</trkpt>
					<trkpt lat="46.576040" lon="5.251440">
						<ele>183</ele>
						<time>2021-01-30T15:18:01Z</time>
					</trkpt>
					<trkpt lat="46.575920" lon="5.251440">
						<ele>183</ele>
						<time>2021-01-30T15:18:03Z</time>
					</trkpt>
					<trkpt lat="46.575800" lon="5.251430">
						<ele>183</ele>
						<time>2021-01-30T15:18:05Z</time>
					</trkpt>
					<trkpt lat="46.575730" lon="5.251410">
						<ele>183</ele>
						<time>2021-01-30T15:18:07Z</time>
					</trkpt>
					<trkpt lat="46.575640" lon="5.251380">
						<ele>183</ele>
						<time>2021-01-30T15:18:08Z</time>
					</trkpt>
					<trkpt lat="46.575520" lon="5.251320">
						<ele>182</ele>
						<time>2021-01-30T15:18:11Z</time>
					</trkpt>
					<trkpt lat="46.575480" lon="5.251300">
						<ele>182</ele>
						<time>2021-01-30T15:18:11Z</time>
					</trkpt>
					<trkpt lat="46.575430" lon="5.251260">
						<ele>182</ele>
						<time>2021-01-30T15:18:12Z</time>
					</trkpt>
					<trkpt lat="46.575320" lon="5.251170">
						<ele>182</ele>
						<time>2021-01-30T15:18:15Z</time>
					</trkpt>
					<trkpt lat="46.575270" lon="5.251110">
						<ele>182</ele>
						<time>2021-01-30T15:18:16Z</time>
					</trkpt>
					<trkpt lat="46.575210" lon="5.251040">
						<ele>182</ele>
						<time>2021-01-30T15:18:17Z</time>
					</trkpt>
					<trkpt lat="46.575160" lon="5.250970">
						<ele>181</ele>
						<time>2021-01-30T15:18:18Z</time>
					</trkpt>
					<trkpt lat="46.575090" lon="5.250850">
						<ele>181</ele>
						<time>2021-01-30T15:18:20Z</time>
					</trkpt>
					<trkpt lat="46.575000" lon="5.250690">
						<ele>181</ele>
						<time>2021-01-30T15:18:23Z</time>
					</trkpt>
					<trkpt lat="46.574910" lon="5.250490">
						<ele>181</ele>
						<time>2021-01-30T15:18:26Z</time>
					</trkpt>
					<trkpt lat="46.574800" lon="5.250240">
						<ele>181</ele>
						<time>2021-01-30T15:18:29Z</time>
					</trkpt>
					<trkpt lat="46.574600" lon="5.249740">
						<ele>181</ele>
						<time>2021-01-30T15:18:36Z</time>
					</trkpt>
					<trkpt lat="46.574550" lon="5.249630">
						<ele>181</ele>
						<time>2021-01-30T15:18:38Z</time>
					</trkpt>
					<trkpt lat="46.574500" lon="5.249510">
						<ele>181</ele>
						<time>2021-01-30T15:18:40Z</time>
					</trkpt>
					<trkpt lat="46.574280" lon="5.249060">
						<ele>181</ele>
						<time>2021-01-30T15:18:47Z</time>
					</trkpt>
					<trkpt lat="46.574180" lon="5.248840">
						<ele>181</ele>
						<time>2021-01-30T15:18:50Z</time>
					</trkpt>
					<trkpt lat="46.573950" lon="5.248330">
						<ele>181</ele>
						<time>2021-01-30T15:18:57Z</time>
					</trkpt>
					<trkpt lat="46.573840" lon="5.248040">
						<ele>181</ele>
						<time>2021-01-30T15:19:01Z</time>
					</trkpt>
					<trkpt lat="46.573740" lon="5.247870">
						<ele>180</ele>
						<time>2021-01-30T15:19:04Z</time>
					</trkpt>
					<trkpt lat="46.573640" lon="5.247770">
						<ele>180</ele>
						<time>2021-01-30T15:19:06Z</time>
					</trkpt>
					<trkpt lat="46.573560" lon="5.247690">
						<ele>180</ele>
						<time>2021-01-30T15:19:08Z</time>
					</trkpt>
					<trkpt lat="46.573510" lon="5.247640">
						<ele>180</ele>
						<time>2021-01-30T15:19:09Z</time>
					</trkpt>
					<trkpt lat="46.573440" lon="5.247580">
						<ele>180</ele>
						<time>2021-01-30T15:19:10Z</time>
					</trkpt>
					<trkpt lat="46.573420" lon="5.247550">
						<ele>180</ele>
						<time>2021-01-30T15:19:11Z</time>
					</trkpt>
					<trkpt lat="46.573130" lon="5.247280">
						<ele>181</ele>
						<time>2021-01-30T15:19:17Z</time>
					</trkpt>
					<trkpt lat="46.573060" lon="5.247210">
						<ele>182</ele>
						<time>2021-01-30T15:19:19Z</time>
					</trkpt>
					<trkpt lat="46.573010" lon="5.247140">
						<ele>182</ele>
						<time>2021-01-30T15:19:20Z</time>
					</trkpt>
					<trkpt lat="46.572980" lon="5.247090">
						<ele>182</ele>
						<time>2021-01-30T15:19:21Z</time>
					</trkpt>
					<trkpt lat="46.572950" lon="5.247010">
						<ele>182</ele>
						<time>2021-01-30T15:19:22Z</time>
					</trkpt>
					<trkpt lat="46.572920" lon="5.246910">
						<ele>182</ele>
						<time>2021-01-30T15:19:23Z</time>
					</trkpt>
					<trkpt lat="46.572880" lon="5.246780">
						<ele>182</ele>
						<time>2021-01-30T15:19:25Z</time>
					</trkpt>
					<trkpt lat="46.572870" lon="5.246760">
						<ele>182</ele>
						<time>2021-01-30T15:19:25Z</time>
					</trkpt>
					<trkpt lat="46.572840" lon="5.246660">
						<ele>182</ele>
						<time>2021-01-30T15:19:26Z</time>
					</trkpt>
					<trkpt lat="46.572790" lon="5.246570">
						<ele>182</ele>
						<time>2021-01-30T15:19:28Z</time>
					</trkpt>
					<trkpt lat="46.572790" lon="5.246570">
						<ele>182</ele>
						<time>2021-01-30T15:19:28Z</time>
					</trkpt>
					<trkpt lat="46.572810" lon="5.246390">
						<ele>182</ele>
						<time>2021-01-30T15:19:30Z</time>
					</trkpt>
					<trkpt lat="46.572800" lon="5.246220">
						<ele>182</ele>
						<time>2021-01-30T15:19:32Z</time>
					</trkpt>
					<trkpt lat="46.572780" lon="5.245990">
						<ele>183</ele>
						<time>2021-01-30T15:19:35Z</time>
					</trkpt>
					<trkpt lat="46.572780" lon="5.245790">
						<ele>183</ele>
						<time>2021-01-30T15:19:37Z</time>
					</trkpt>
					<trkpt lat="46.572780" lon="5.245720">
						<ele>183</ele>
						<time>2021-01-30T15:19:38Z</time>
					</trkpt>
					<trkpt lat="46.572770" lon="5.245620">
						<ele>183</ele>
						<time>2021-01-30T15:19:40Z</time>
					</trkpt>
					<trkpt lat="46.572780" lon="5.245540">
						<ele>183</ele>
						<time>2021-01-30T15:19:41Z</time>
					</trkpt>
					<trkpt lat="46.572790" lon="5.245470">
						<ele>183</ele>
						<time>2021-01-30T15:19:41Z</time>
					</trkpt>
					<trkpt lat="46.572830" lon="5.245240">
						<ele>183</ele>
						<time>2021-01-30T15:19:44Z</time>
					</trkpt>
					<trkpt lat="46.572850" lon="5.245140">
						<ele>183</ele>
						<time>2021-01-30T15:19:46Z</time>
					</trkpt>
					<trkpt lat="46.572890" lon="5.244950">
						<ele>184</ele>
						<time>2021-01-30T15:19:48Z</time>
					</trkpt>
					<trkpt lat="46.572930" lon="5.244840">
						<ele>183</ele>
						<time>2021-01-30T15:19:50Z</time>
					</trkpt>
					<trkpt lat="46.573040" lon="5.244440">
						<ele>183</ele>
						<time>2021-01-30T15:19:55Z</time>
					</trkpt>
					<trkpt lat="46.573050" lon="5.244400">
						<ele>183</ele>
						<time>2021-01-30T15:19:55Z</time>
					</trkpt>
					<trkpt lat="46.573070" lon="5.244310">
						<ele>183</ele>
						<time>2021-01-30T15:19:57Z</time>
					</trkpt>
					<trkpt lat="46.573100" lon="5.244200">
						<ele>183</ele>
						<time>2021-01-30T15:19:58Z</time>
					</trkpt>
					<trkpt lat="46.573110" lon="5.244100">
						<ele>183</ele>
						<time>2021-01-30T15:19:59Z</time>
					</trkpt>
					<trkpt lat="46.573120" lon="5.243980">
						<ele>183</ele>
						<time>2021-01-30T15:20:01Z</time>
					</trkpt>
					<trkpt lat="46.573110" lon="5.243810">
						<ele>183</ele>
						<time>2021-01-30T15:20:03Z</time>
					</trkpt>
					<trkpt lat="46.573110" lon="5.243660">
						<ele>183</ele>
						<time>2021-01-30T15:20:05Z</time>
					</trkpt>
					<trkpt lat="46.573080" lon="5.243440">
						<ele>183</ele>
						<time>2021-01-30T15:20:07Z</time>
					</trkpt>
					<trkpt lat="46.573040" lon="5.243030">
						<ele>185</ele>
						<time>2021-01-30T15:20:12Z</time>
					</trkpt>
					<trkpt lat="46.573000" lon="5.242830">
						<ele>186</ele>
						<time>2021-01-30T15:20:15Z</time>
					</trkpt>
					<trkpt lat="46.572960" lon="5.242610">
						<ele>187</ele>
						<time>2021-01-30T15:20:18Z</time>
					</trkpt>
					<trkpt lat="46.572920" lon="5.242490">
						<ele>188</ele>
						<time>2021-01-30T15:20:19Z</time>
					</trkpt>
					<trkpt lat="46.572870" lon="5.242360">
						<ele>189</ele>
						<time>2021-01-30T15:20:21Z</time>
					</trkpt>
					<trkpt lat="46.572840" lon="5.242300">
						<ele>189</ele>
						<time>2021-01-30T15:20:22Z</time>
					</trkpt>
					<trkpt lat="46.572780" lon="5.242200">
						<ele>190</ele>
						<time>2021-01-30T15:20:24Z</time>
					</trkpt>
					<trkpt lat="46.572730" lon="5.242120">
						<ele>191</ele>
						<time>2021-01-30T15:20:25Z</time>
					</trkpt>
					<trkpt lat="46.572690" lon="5.242060">
						<ele>192</ele>
						<time>2021-01-30T15:20:26Z</time>
					</trkpt>
					<trkpt lat="46.572610" lon="5.241980">
						<ele>193</ele>
						<time>2021-01-30T15:20:28Z</time>
					</trkpt>
					<trkpt lat="46.572530" lon="5.241930">
						<ele>194</ele>
						<time>2021-01-30T15:20:29Z</time>
					</trkpt>
					<trkpt lat="46.572480" lon="5.241890">
						<ele>194</ele>
						<time>2021-01-30T15:20:30Z</time>
					</trkpt>
					<trkpt lat="46.572430" lon="5.241860">
						<ele>194</ele>
						<time>2021-01-30T15:20:31Z</time>
					</trkpt>
					<trkpt lat="46.572360" lon="5.241820">
						<ele>195</ele>
						<time>2021-01-30T15:20:33Z</time>
					</trkpt>
					<trkpt lat="46.572300" lon="5.241790">
						<ele>195</ele>
						<time>2021-01-30T15:20:34Z</time>
					</trkpt>
					<trkpt lat="46.572240" lon="5.241760">
						<ele>195</ele>
						<time>2021-01-30T15:20:35Z</time>
					</trkpt>
					<trkpt lat="46.572190" lon="5.241720">
						<ele>196</ele>
						<time>2021-01-30T15:20:36Z</time>
					</trkpt>
					<trkpt lat="46.572140" lon="5.241690">
						<ele>196</ele>
						<time>2021-01-30T15:20:37Z</time>
					</trkpt>
					<trkpt lat="46.572100" lon="5.241640">
						<ele>197</ele>
						<time>2021-01-30T15:20:38Z</time>
					</trkpt>
					<trkpt lat="46.572060" lon="5.241580">
						<ele>197</ele>
						<time>2021-01-30T15:20:39Z</time>
					</trkpt>
					<trkpt lat="46.571990" lon="5.241470">
						<ele>198</ele>
						<time>2021-01-30T15:20:41Z</time>
					</trkpt>
					<trkpt lat="46.571920" lon="5.241330">
						<ele>199</ele>
						<time>2021-01-30T15:20:43Z</time>
					</trkpt>
					<trkpt lat="46.571850" lon="5.241140">
						<ele>201</ele>
						<time>2021-01-30T15:20:45Z</time>
					</trkpt>
					<trkpt lat="46.571750" lon="5.240910">
						<ele>202</ele>
						<time>2021-01-30T15:20:49Z</time>
					</trkpt>
					<trkpt lat="46.571670" lon="5.240730">
						<ele>203</ele>
						<time>2021-01-30T15:20:51Z</time>
					</trkpt>
					<trkpt lat="46.571560" lon="5.240510">
						<ele>203</ele>
						<time>2021-01-30T15:20:55Z</time>
					</trkpt>
					<trkpt lat="46.571450" lon="5.240330">
						<ele>204</ele>
						<time>2021-01-30T15:20:58Z</time>
					</trkpt>
					<trkpt lat="46.571370" lon="5.240210">
						<ele>204</ele>
						<time>2021-01-30T15:21:00Z</time>
					</trkpt>
					<trkpt lat="46.571300" lon="5.240130">
						<ele>204</ele>
						<time>2021-01-30T15:21:01Z</time>
					</trkpt>
					<trkpt lat="46.571210" lon="5.240040">
						<ele>204</ele>
						<time>2021-01-30T15:21:03Z</time>
					</trkpt>
					<trkpt lat="46.571140" lon="5.239980">
						<ele>204</ele>
						<time>2021-01-30T15:21:05Z</time>
					</trkpt>
					<trkpt lat="46.571070" lon="5.239940">
						<ele>204</ele>
						<time>2021-01-30T15:21:06Z</time>
					</trkpt>
					<trkpt lat="46.571000" lon="5.239900">
						<ele>204</ele>
						<time>2021-01-30T15:21:07Z</time>
					</trkpt>
					<trkpt lat="46.570930" lon="5.239880">
						<ele>204</ele>
						<time>2021-01-30T15:21:09Z</time>
					</trkpt>
					<trkpt lat="46.570870" lon="5.239860">
						<ele>204</ele>
						<time>2021-01-30T15:21:10Z</time>
					</trkpt>
					<trkpt lat="46.570730" lon="5.239820">
						<ele>204</ele>
						<time>2021-01-30T15:21:12Z</time>
					</trkpt>
					<trkpt lat="46.570280" lon="5.239700">
						<ele>203</ele>
						<time>2021-01-30T15:21:20Z</time>
					</trkpt>
					<trkpt lat="46.569690" lon="5.239520">
						<ele>203</ele>
						<time>2021-01-30T15:21:31Z</time>
					</trkpt>
					<trkpt lat="46.569550" lon="5.239480">
						<ele>203</ele>
						<time>2021-01-30T15:21:34Z</time>
					</trkpt>
					<trkpt lat="46.569450" lon="5.239440">
						<ele>203</ele>
						<time>2021-01-30T15:21:36Z</time>
					</trkpt>
					<trkpt lat="46.569380" lon="5.239420">
						<ele>203</ele>
						<time>2021-01-30T15:21:37Z</time>
					</trkpt>
					<trkpt lat="46.569230" lon="5.239350">
						<ele>203</ele>
						<time>2021-01-30T15:21:40Z</time>
					</trkpt>
					<trkpt lat="46.569050" lon="5.239240">
						<ele>203</ele>
						<time>2021-01-30T15:21:43Z</time>
					</trkpt>
					<trkpt lat="46.568750" lon="5.239070">
						<ele>202</ele>
						<time>2021-01-30T15:21:49Z</time>
					</trkpt>
					<trkpt lat="46.568280" lon="5.238770">
						<ele>201</ele>
						<time>2021-01-30T15:21:58Z</time>
					</trkpt>
					<trkpt lat="46.568150" lon="5.238680">
						<ele>200</ele>
						<time>2021-01-30T15:22:00Z</time>
					</trkpt>
					<trkpt lat="46.568020" lon="5.238580">
						<ele>200</ele>
						<time>2021-01-30T15:22:03Z</time>
					</trkpt>
					<trkpt lat="46.567880" lon="5.238440">
						<ele>199</ele>
						<time>2021-01-30T15:22:06Z</time>
					</trkpt>
					<trkpt lat="46.567820" lon="5.238360">
						<ele>199</ele>
						<time>2021-01-30T15:22:08Z</time>
					</trkpt>
					<trkpt lat="46.567740" lon="5.238220">
						<ele>199</ele>
						<time>2021-01-30T15:22:10Z</time>
					</trkpt>
					<trkpt lat="46.567650" lon="5.238050">
						<ele>199</ele>
						<time>2021-01-30T15:22:12Z</time>
					</trkpt>
					<trkpt lat="46.567550" lon="5.237850">
						<ele>199</ele>
						<time>2021-01-30T15:22:15Z</time>
					</trkpt>
					<trkpt lat="46.567470" lon="5.237680">
						<ele>199</ele>
						<time>2021-01-30T15:22:18Z</time>
					</trkpt>
					<trkpt lat="46.567390" lon="5.237540">
						<ele>199</ele>
						<time>2021-01-30T15:22:20Z</time>
					</trkpt>
					<trkpt lat="46.567150" lon="5.237150">
						<ele>200</ele>
						<time>2021-01-30T15:22:27Z</time>
					</trkpt>
					<trkpt lat="46.567130" lon="5.237120">
						<ele>200</ele>
						<time>2021-01-30T15:22:27Z</time>
					</trkpt>
					<trkpt lat="46.567020" lon="5.236950">
						<ele>201</ele>
						<time>2021-01-30T15:22:30Z</time>
					</trkpt>
					<trkpt lat="46.566870" lon="5.236740">
						<ele>202</ele>
						<time>2021-01-30T15:22:34Z</time>
					</trkpt>
					<trkpt lat="46.566780" lon="5.236620">
						<ele>202</ele>
						<time>2021-01-30T15:22:36Z</time>
					</trkpt>
					<trkpt lat="46.566680" lon="5.236490">
						<ele>202</ele>
						<time>2021-01-30T15:22:38Z</time>
					</trkpt>
					<trkpt lat="46.566580" lon="5.236400">
						<ele>202</ele>
						<time>2021-01-30T15:22:40Z</time>
					</trkpt>
					<trkpt lat="46.566450" lon="5.236280">
						<ele>203</ele>
						<time>2021-01-30T15:22:43Z</time>
					</trkpt>
					<trkpt lat="46.566360" lon="5.236200">
						<ele>203</ele>
						<time>2021-01-30T15:22:45Z</time>
					</trkpt>
					<trkpt lat="46.566250" lon="5.236130">
						<ele>204</ele>
						<time>2021-01-30T15:22:47Z</time>
					</trkpt>
					<trkpt lat="46.566180" lon="5.236090">
						<ele>204</ele>
						<time>2021-01-30T15:22:48Z</time>
					</trkpt>
					<trkpt lat="46.566100" lon="5.236040">
						<ele>204</ele>
						<time>2021-01-30T15:22:50Z</time>
					</trkpt>
					<trkpt lat="46.565940" lon="5.235940">
						<ele>205</ele>
						<time>2021-01-30T15:22:53Z</time>
					</trkpt>
					<trkpt lat="46.565910" lon="5.235920">
						<ele>205</ele>
						<time>2021-01-30T15:22:54Z</time>
					</trkpt>
					<trkpt lat="46.565780" lon="5.235830">
						<ele>206</ele>
						<time>2021-01-30T15:22:56Z</time>
					</trkpt>
					<trkpt lat="46.565660" lon="5.235740">
						<ele>206</ele>
						<time>2021-01-30T15:22:59Z</time>
					</trkpt>
					<trkpt lat="46.565570" lon="5.235660">
						<ele>207</ele>
						<time>2021-01-30T15:23:00Z</time>
					</trkpt>
					<trkpt lat="46.565420" lon="5.235490">
						<ele>207</ele>
						<time>2021-01-30T15:23:04Z</time>
					</trkpt>
					<trkpt lat="46.565280" lon="5.235320">
						<ele>207</ele>
						<time>2021-01-30T15:23:07Z</time>
					</trkpt>
					<trkpt lat="46.564940" lon="5.234840">
						<ele>208</ele>
						<time>2021-01-30T15:23:16Z</time>
					</trkpt>
					<trkpt lat="46.564680" lon="5.234450">
						<ele>209</ele>
						<time>2021-01-30T15:23:22Z</time>
					</trkpt>
					<trkpt lat="46.564550" lon="5.234230">
						<ele>210</ele>
						<time>2021-01-30T15:23:26Z</time>
					</trkpt>
					<trkpt lat="46.564420" lon="5.233960">
						<ele>210</ele>
						<time>2021-01-30T15:23:30Z</time>
					</trkpt>
					<trkpt lat="46.564380" lon="5.233860">
						<ele>211</ele>
						<time>2021-01-30T15:23:31Z</time>
					</trkpt>
					<trkpt lat="46.564300" lon="5.233670">
						<ele>211</ele>
						<time>2021-01-30T15:23:34Z</time>
					</trkpt>
					<trkpt lat="46.564100" lon="5.233160">
						<ele>212</ele>
						<time>2021-01-30T15:23:41Z</time>
					</trkpt>
					<trkpt lat="46.563890" lon="5.232570">
						<ele>212</ele>
						<time>2021-01-30T15:23:49Z</time>
					</trkpt>
					<trkpt lat="46.563720" lon="5.232090">
						<ele>212</ele>
						<time>2021-01-30T15:23:56Z</time>
					</trkpt>
					<trkpt lat="46.563640" lon="5.231900">
						<ele>211</ele>
						<time>2021-01-30T15:23:59Z</time>
					</trkpt>
					<trkpt lat="46.563540" lon="5.231600">
						<ele>211</ele>
						<time>2021-01-30T15:24:03Z</time>
					</trkpt>
					<trkpt lat="46.563500" lon="5.231480">
						<ele>211</ele>
						<time>2021-01-30T15:24:04Z</time>
					</trkpt>
					<trkpt lat="46.563460" lon="5.231390">
						<ele>211</ele>
						<time>2021-01-30T15:24:06Z</time>
					</trkpt>
					<trkpt lat="46.563410" lon="5.231250">
						<ele>212</ele>
						<time>2021-01-30T15:24:07Z</time>
					</trkpt>
					<trkpt lat="46.562960" lon="5.230070">
						<ele>211</ele>
						<time>2021-01-30T15:24:24Z</time>
					</trkpt>
					<trkpt lat="46.562320" lon="5.228390">
						<ele>197</ele>
						<time>2021-01-30T15:24:47Z</time>
					</trkpt>
					<trkpt lat="46.562000" lon="5.227570">
						<ele>191</ele>
						<time>2021-01-30T15:24:59Z</time>
					</trkpt>
					<trkpt lat="46.561620" lon="5.226560">
						<ele>188</ele>
						<time>2021-01-30T15:25:13Z</time>
					</trkpt>
					<trkpt lat="46.561610" lon="5.226520">
						<ele>188</ele>
						<time>2021-01-30T15:25:14Z</time>
					</trkpt>
					<trkpt lat="46.561450" lon="5.226100">
						<ele>187</ele>
						<time>2021-01-30T15:25:20Z</time>
					</trkpt>
					<trkpt lat="46.561330" lon="5.225730">
						<ele>186</ele>
						<time>2021-01-30T15:25:25Z</time>
					</trkpt>
					<trkpt lat="46.561020" lon="5.224730">
						<ele>186</ele>
						<time>2021-01-30T15:25:38Z</time>
					</trkpt>
					<trkpt lat="46.560600" lon="5.223330">
						<ele>186</ele>
						<time>2021-01-30T15:25:57Z</time>
					</trkpt>
					<trkpt lat="46.560230" lon="5.222100">
						<ele>186</ele>
						<time>2021-01-30T15:26:13Z</time>
					</trkpt>
					<trkpt lat="46.560200" lon="5.222000">
						<ele>186</ele>
						<time>2021-01-30T15:26:14Z</time>
					</trkpt>
					<trkpt lat="46.560160" lon="5.221910">
						<ele>186</ele>
						<time>2021-01-30T15:26:16Z</time>
					</trkpt>
					<trkpt lat="46.560120" lon="5.221740">
						<ele>187</ele>
						<time>2021-01-30T15:26:18Z</time>
					</trkpt>
					<trkpt lat="46.560060" lon="5.221530">
						<ele>187</ele>
						<time>2021-01-30T15:26:21Z</time>
					</trkpt>
					<trkpt lat="46.559720" lon="5.220440">
						<ele>186</ele>
						<time>2021-01-30T15:26:35Z</time>
					</trkpt>
					<trkpt lat="46.559320" lon="5.219100">
						<ele>188</ele>
						<time>2021-01-30T15:26:53Z</time>
					</trkpt>
					<trkpt lat="46.559290" lon="5.219000">
						<ele>188</ele>
						<time>2021-01-30T15:26:55Z</time>
					</trkpt>
					<trkpt lat="46.559260" lon="5.218910">
						<ele>188</ele>
						<time>2021-01-30T15:26:56Z</time>
					</trkpt>
					<trkpt lat="46.559040" lon="5.218230">
						<ele>188</ele>
						<time>2021-01-30T15:27:05Z</time>
					</trkpt>
					<trkpt lat="46.558960" lon="5.217940">
						<ele>188</ele>
						<time>2021-01-30T15:27:09Z</time>
					</trkpt>
					<trkpt lat="46.558900" lon="5.217690">
						<ele>189</ele>
						<time>2021-01-30T15:27:12Z</time>
					</trkpt>
					<trkpt lat="46.558860" lon="5.217500">
						<ele>189</ele>
						<time>2021-01-30T15:27:14Z</time>
					</trkpt>
					<trkpt lat="46.558820" lon="5.217210">
						<ele>191</ele>
						<time>2021-01-30T15:27:18Z</time>
					</trkpt>
					<trkpt lat="46.558740" lon="5.216470">
						<ele>196</ele>
						<time>2021-01-30T15:27:27Z</time>
					</trkpt>
					<trkpt lat="46.558650" lon="5.215640">
						<ele>201</ele>
						<time>2021-01-30T15:27:37Z</time>
					</trkpt>
					<trkpt lat="46.558620" lon="5.215320">
						<ele>201</ele>
						<time>2021-01-30T15:27:41Z</time>
					</trkpt>
					<trkpt lat="46.558610" lon="5.215120">
						<ele>202</ele>
						<time>2021-01-30T15:27:44Z</time>
					</trkpt>
					<trkpt lat="46.558610" lon="5.214840">
						<ele>202</ele>
						<time>2021-01-30T15:27:47Z</time>
					</trkpt>
					<trkpt lat="46.558600" lon="5.214440">
						<ele>202</ele>
						<time>2021-01-30T15:27:52Z</time>
					</trkpt>
					<trkpt lat="46.558610" lon="5.214240">
						<ele>202</ele>
						<time>2021-01-30T15:27:55Z</time>
					</trkpt>
					<trkpt lat="46.558610" lon="5.213960">
						<ele>202</ele>
						<time>2021-01-30T15:27:58Z</time>
					</trkpt>
					<trkpt lat="46.558600" lon="5.213540">
						<ele>202</ele>
						<time>2021-01-30T15:28:03Z</time>
					</trkpt>
					<trkpt lat="46.558610" lon="5.213390">
						<ele>202</ele>
						<time>2021-01-30T15:28:05Z</time>
					</trkpt>
					<trkpt lat="46.558610" lon="5.212780">
						<ele>201</ele>
						<time>2021-01-30T15:28:13Z</time>
					</trkpt>
					<trkpt lat="46.558620" lon="5.211490">
						<ele>202</ele>
						<time>2021-01-30T15:28:28Z</time>
					</trkpt>
					<trkpt lat="46.558620" lon="5.211330">
						<ele>202</ele>
						<time>2021-01-30T15:28:30Z</time>
					</trkpt>
					<trkpt lat="46.558610" lon="5.211130">
						<ele>202</ele>
						<time>2021-01-30T15:28:33Z</time>
					</trkpt>
					<trkpt lat="46.558600" lon="5.211000">
						<ele>202</ele>
						<time>2021-01-30T15:28:34Z</time>
					</trkpt>
					<trkpt lat="46.558590" lon="5.210790">
						<ele>202</ele>
						<time>2021-01-30T15:28:37Z</time>
					</trkpt>
					<trkpt lat="46.558590" lon="5.210740">
						<ele>202</ele>
						<time>2021-01-30T15:28:38Z</time>
					</trkpt>
					<trkpt lat="46.558560" lon="5.210380">
						<ele>202</ele>
						<time>2021-01-30T15:28:42Z</time>
					</trkpt>
					<trkpt lat="46.558540" lon="5.210090">
						<ele>202</ele>
						<time>2021-01-30T15:28:46Z</time>
					</trkpt>
					<trkpt lat="46.558420" lon="5.208800">
						<ele>202</ele>
						<time>2021-01-30T15:29:01Z</time>
					</trkpt>
					<trkpt lat="46.558350" lon="5.208000">
						<ele>201</ele>
						<time>2021-01-30T15:29:11Z</time>
					</trkpt>
					<trkpt lat="46.558350" lon="5.207880">
						<ele>201</ele>
						<time>2021-01-30T15:29:13Z</time>
					</trkpt>
					<trkpt lat="46.558350" lon="5.207710">
						<ele>201</ele>
						<time>2021-01-30T15:29:15Z</time>
					</trkpt>
					<trkpt lat="46.558360" lon="5.207570">
						<ele>201</ele>
						<time>2021-01-30T15:29:17Z</time>
					</trkpt>
					<trkpt lat="46.558380" lon="5.207430">
						<ele>201</ele>
						<time>2021-01-30T15:29:18Z</time>
					</trkpt>
					<trkpt lat="46.558420" lon="5.207290">
						<ele>201</ele>
						<time>2021-01-30T15:29:20Z</time>
					</trkpt>
					<trkpt lat="46.558470" lon="5.207130">
						<ele>201</ele>
						<time>2021-01-30T15:29:22Z</time>
					</trkpt>
					<trkpt lat="46.558550" lon="5.206950">
						<ele>201</ele>
						<time>2021-01-30T15:29:25Z</time>
					</trkpt>
					<trkpt lat="46.558720" lon="5.206610">
						<ele>201</ele>
						<time>2021-01-30T15:29:30Z</time>
					</trkpt>
					<trkpt lat="46.558900" lon="5.206280">
						<ele>201</ele>
						<time>2021-01-30T15:29:35Z</time>
					</trkpt>
					<trkpt lat="46.559000" lon="5.206070">
						<ele>201</ele>
						<time>2021-01-30T15:29:38Z</time>
					</trkpt>
					<trkpt lat="46.559020" lon="5.206010">
						<ele>201</ele>
						<time>2021-01-30T15:29:39Z</time>
					</trkpt>
					<trkpt lat="46.559070" lon="5.205890">
						<ele>201</ele>
						<time>2021-01-30T15:29:41Z</time>
					</trkpt>
					<trkpt lat="46.559110" lon="5.205750">
						<ele>201</ele>
						<time>2021-01-30T15:29:43Z</time>
					</trkpt>
					<trkpt lat="46.559140" lon="5.205590">
						<ele>202</ele>
						<time>2021-01-30T15:29:45Z</time>
					</trkpt>
					<trkpt lat="46.559160" lon="5.205470">
						<ele>202</ele>
						<time>2021-01-30T15:29:46Z</time>
					</trkpt>
					<trkpt lat="46.559170" lon="5.205350">
						<ele>202</ele>
						<time>2021-01-30T15:29:48Z</time>
					</trkpt>
					<trkpt lat="46.559160" lon="5.205190">
						<ele>203</ele>
						<time>2021-01-30T15:29:50Z</time>
					</trkpt>
					<trkpt lat="46.559140" lon="5.204870">
						<ele>203</ele>
						<time>2021-01-30T15:29:54Z</time>
					</trkpt>
					<trkpt lat="46.559080" lon="5.204470">
						<ele>204</ele>
						<time>2021-01-30T15:29:59Z</time>
					</trkpt>
					<trkpt lat="46.559000" lon="5.203980">
						<ele>204</ele>
						<time>2021-01-30T15:30:05Z</time>
					</trkpt>
					<trkpt lat="46.558900" lon="5.203320">
						<ele>203</ele>
						<time>2021-01-30T15:30:13Z</time>
					</trkpt>
					<trkpt lat="46.558800" lon="5.202680">
						<ele>202</ele>
						<time>2021-01-30T15:30:21Z</time>
					</trkpt>
					<trkpt lat="46.558770" lon="5.202460">
						<ele>202</ele>
						<time>2021-01-30T15:30:24Z</time>
					</trkpt>
					<trkpt lat="46.558750" lon="5.202360">
						<ele>203</ele>
						<time>2021-01-30T15:30:25Z</time>
					</trkpt>
					<trkpt lat="46.558730" lon="5.202270">
						<ele>203</ele>
						<time>2021-01-30T15:30:26Z</time>
					</trkpt>
					<trkpt lat="46.558710" lon="5.202120">
						<ele>203</ele>
						<time>2021-01-30T15:30:28Z</time>
					</trkpt>
					<trkpt lat="46.558650" lon="5.201730">
						<ele>203</ele>
						<time>2021-01-30T15:30:33Z</time>
					</trkpt>
					<trkpt lat="46.558620" lon="5.201520">
						<ele>203</ele>
						<time>2021-01-30T15:30:36Z</time>
					</trkpt>
					<trkpt lat="46.558290" lon="5.199350">
						<ele>203</ele>
						<time>2021-01-30T15:31:03Z</time>
					</trkpt>
					<trkpt lat="46.558170" lon="5.198510">
						<ele>203</ele>
						<time>2021-01-30T15:31:13Z</time>
					</trkpt>
					<trkpt lat="46.558150" lon="5.198350">
						<ele>203</ele>
						<time>2021-01-30T15:31:15Z</time>
					</trkpt>
					<trkpt lat="46.558120" lon="5.198150">
						<ele>203</ele>
						<time>2021-01-30T15:31:18Z</time>
					</trkpt>
					<trkpt lat="46.558110" lon="5.198080">
						<ele>203</ele>
						<time>2021-01-30T15:31:19Z</time>
					</trkpt>
					<trkpt lat="46.558100" lon="5.197960">
						<ele>203</ele>
						<time>2021-01-30T15:31:20Z</time>
					</trkpt>
					<trkpt lat="46.558070" lon="5.197810">
						<ele>203</ele>
						<time>2021-01-30T15:31:22Z</time>
					</trkpt>
					<trkpt lat="46.558070" lon="5.197790">
						<ele>203</ele>
						<time>2021-01-30T15:31:22Z</time>
					</trkpt>
					<trkpt lat="46.558040" lon="5.197620">
						<ele>203</ele>
						<time>2021-01-30T15:31:25Z</time>
					</trkpt>
					<trkpt lat="46.558000" lon="5.197490">
						<ele>204</ele>
						<time>2021-01-30T15:31:26Z</time>
					</trkpt>
					<trkpt lat="46.557940" lon="5.197330">
						<ele>203</ele>
						<time>2021-01-30T15:31:29Z</time>
					</trkpt>
					<trkpt lat="46.557920" lon="5.197260">
						<ele>203</ele>
						<time>2021-01-30T15:31:29Z</time>
					</trkpt>
					<trkpt lat="46.557870" lon="5.197160">
						<ele>203</ele>
						<time>2021-01-30T15:31:31Z</time>
					</trkpt>
					<trkpt lat="46.557800" lon="5.197030">
						<ele>203</ele>
						<time>2021-01-30T15:31:33Z</time>
					</trkpt>
					<trkpt lat="46.557690" lon="5.196870">
						<ele>203</ele>
						<time>2021-01-30T15:31:36Z</time>
					</trkpt>
					<trkpt lat="46.557600" lon="5.196710">
						<ele>202</ele>
						<time>2021-01-30T15:31:38Z</time>
					</trkpt>
					<trkpt lat="46.557560" lon="5.196620">
						<ele>202</ele>
						<time>2021-01-30T15:31:40Z</time>
					</trkpt>
					<trkpt lat="46.557520" lon="5.196540">
						<ele>202</ele>
						<time>2021-01-30T15:31:41Z</time>
					</trkpt>
					<trkpt lat="46.557480" lon="5.196420">
						<ele>202</ele>
						<time>2021-01-30T15:31:42Z</time>
					</trkpt>
					<trkpt lat="46.557460" lon="5.196350">
						<ele>202</ele>
						<time>2021-01-30T15:31:43Z</time>
					</trkpt>
					<trkpt lat="46.557440" lon="5.196250">
						<ele>203</ele>
						<time>2021-01-30T15:31:45Z</time>
					</trkpt>
					<trkpt lat="46.557420" lon="5.196140">
						<ele>203</ele>
						<time>2021-01-30T15:31:46Z</time>
					</trkpt>
					<trkpt lat="46.557410" lon="5.196060">
						<ele>203</ele>
						<time>2021-01-30T15:31:47Z</time>
					</trkpt>
					<trkpt lat="46.557380" lon="5.195810">
						<ele>203</ele>
						<time>2021-01-30T15:31:50Z</time>
					</trkpt>
					<trkpt lat="46.557370" lon="5.195550">
						<ele>204</ele>
						<time>2021-01-30T15:31:53Z</time>
					</trkpt>
					<trkpt lat="46.557330" lon="5.194780">
						<ele>204</ele>
						<time>2021-01-30T15:32:03Z</time>
					</trkpt>
					<trkpt lat="46.557250" lon="5.193220">
						<ele>205</ele>
						<time>2021-01-30T15:32:22Z</time>
					</trkpt>
					<trkpt lat="46.557200" lon="5.192210">
						<ele>203</ele>
						<time>2021-01-30T15:32:34Z</time>
					</trkpt>
					<trkpt lat="46.557170" lon="5.191630">
						<ele>203</ele>
						<time>2021-01-30T15:32:41Z</time>
					</trkpt>
					<trkpt lat="46.557170" lon="5.191560">
						<ele>203</ele>
						<time>2021-01-30T15:32:42Z</time>
					</trkpt>
					<trkpt lat="46.557160" lon="5.191470">
						<ele>203</ele>
						<time>2021-01-30T15:32:43Z</time>
					</trkpt>
					<trkpt lat="46.557140" lon="5.191330">
						<ele>203</ele>
						<time>2021-01-30T15:32:45Z</time>
					</trkpt>
					<trkpt lat="46.557050" lon="5.190720">
						<ele>203</ele>
						<time>2021-01-30T15:32:53Z</time>
					</trkpt>
					<trkpt lat="46.556780" lon="5.189240">
						<ele>202</ele>
						<time>2021-01-30T15:33:12Z</time>
					</trkpt>
					<trkpt lat="46.556700" lon="5.188760">
						<ele>202</ele>
						<time>2021-01-30T15:33:18Z</time>
					</trkpt>
					<trkpt lat="46.556580" lon="5.188060">
						<ele>202</ele>
						<time>2021-01-30T15:33:26Z</time>
					</trkpt>
					<trkpt lat="46.556430" lon="5.187210">
						<ele>203</ele>
						<time>2021-01-30T15:33:37Z</time>
					</trkpt>
					<trkpt lat="46.556040" lon="5.184930">
						<ele>202</ele>
						<time>2021-01-30T15:34:06Z</time>
					</trkpt>
					<trkpt lat="46.555810" lon="5.183600">
						<ele>202</ele>
						<time>2021-01-30T15:34:23Z</time>
					</trkpt>
					<trkpt lat="46.555690" lon="5.182920">
						<ele>202</ele>
						<time>2021-01-30T15:34:31Z</time>
					</trkpt>
					<trkpt lat="46.555650" lon="5.182730">
						<ele>202</ele>
						<time>2021-01-30T15:34:34Z</time>
					</trkpt>
					<trkpt lat="46.555570" lon="5.182440">
						<ele>203</ele>
						<time>2021-01-30T15:34:37Z</time>
					</trkpt>
					<trkpt lat="46.555500" lon="5.182260">
						<ele>203</ele>
						<time>2021-01-30T15:34:40Z</time>
					</trkpt>
					<trkpt lat="46.555420" lon="5.182070">
						<ele>203</ele>
						<time>2021-01-30T15:34:43Z</time>
					</trkpt>
					<trkpt lat="46.555290" lon="5.181840">
						<ele>204</ele>
						<time>2021-01-30T15:34:46Z</time>
					</trkpt>
					<trkpt lat="46.555010" lon="5.181440">
						<ele>203</ele>
						<time>2021-01-30T15:34:53Z</time>
					</trkpt>
					<trkpt lat="46.554510" lon="5.180770">
						<ele>202</ele>
						<time>2021-01-30T15:35:05Z</time>
					</trkpt>
					<trkpt lat="46.554190" lon="5.180320">
						<ele>201</ele>
						<time>2021-01-30T15:35:13Z</time>
					</trkpt>
					<trkpt lat="46.554140" lon="5.180240">
						<ele>201</ele>
						<time>2021-01-30T15:35:15Z</time>
					</trkpt>
					<trkpt lat="46.554110" lon="5.180170">
						<ele>200</ele>
						<time>2021-01-30T15:35:16Z</time>
					</trkpt>
					<trkpt lat="46.554100" lon="5.180150">
						<ele>200</ele>
						<time>2021-01-30T15:35:16Z</time>
					</trkpt>
					<trkpt lat="46.554060" lon="5.180020">
						<ele>200</ele>
						<time>2021-01-30T15:35:18Z</time>
					</trkpt>
					<trkpt lat="46.554020" lon="5.179880">
						<ele>200</ele>
						<time>2021-01-30T15:35:20Z</time>
					</trkpt>
					<trkpt lat="46.553980" lon="5.179670">
						<ele>200</ele>
						<time>2021-01-30T15:35:22Z</time>
					</trkpt>
					<trkpt lat="46.553950" lon="5.179450">
						<ele>200</ele>
						<time>2021-01-30T15:35:25Z</time>
					</trkpt>
					<trkpt lat="46.553940" lon="5.179300">
						<ele>200</ele>
						<time>2021-01-30T15:35:27Z</time>
					</trkpt>
					<trkpt lat="46.553930" lon="5.178990">
						<ele>200</ele>
						<time>2021-01-30T15:35:31Z</time>
					</trkpt>
					<trkpt lat="46.553920" lon="5.178490">
						<ele>201</ele>
						<time>2021-01-30T15:35:37Z</time>
					</trkpt>
					<trkpt lat="46.553910" lon="5.177930">
						<ele>203</ele>
						<time>2021-01-30T15:35:44Z</time>
					</trkpt>
					<trkpt lat="46.553920" lon="5.177740">
						<ele>203</ele>
						<time>2021-01-30T15:35:46Z</time>
					</trkpt>
					<trkpt lat="46.553920" lon="5.177600">
						<ele>203</ele>
						<time>2021-01-30T15:35:48Z</time>
					</trkpt>
					<trkpt lat="46.553930" lon="5.177410">
						<ele>203</ele>
						<time>2021-01-30T15:35:50Z</time>
					</trkpt>
					<trkpt lat="46.553940" lon="5.177260">
						<ele>203</ele>
						<time>2021-01-30T15:35:52Z</time>
					</trkpt>
					<trkpt lat="46.553980" lon="5.176770">
						<ele>203</ele>
						<time>2021-01-30T15:35:58Z</time>
					</trkpt>
					<trkpt lat="46.554060" lon="5.175860">
						<ele>203</ele>
						<time>2021-01-30T15:36:09Z</time>
					</trkpt>
					<trkpt lat="46.554120" lon="5.175150">
						<ele>204</ele>
						<time>2021-01-30T15:36:18Z</time>
					</trkpt>
					<trkpt lat="46.554150" lon="5.174780">
						<ele>203</ele>
						<time>2021-01-30T15:36:22Z</time>
					</trkpt>
					<trkpt lat="46.554220" lon="5.173840">
						<ele>202</ele>
						<time>2021-01-30T15:36:34Z</time>
					</trkpt>
					<trkpt lat="46.554250" lon="5.173660">
						<ele>202</ele>
						<time>2021-01-30T15:36:36Z</time>
					</trkpt>
					<trkpt lat="46.554260" lon="5.173550">
						<ele>202</ele>
						<time>2021-01-30T15:36:38Z</time>
					</trkpt>
					<trkpt lat="46.554300" lon="5.173330">
						<ele>202</ele>
						<time>2021-01-30T15:36:40Z</time>
					</trkpt>
					<trkpt lat="46.554420" lon="5.172820">
						<ele>203</ele>
						<time>2021-01-30T15:36:47Z</time>
					</trkpt>
					<trkpt lat="46.554490" lon="5.172570">
						<ele>203</ele>
						<time>2021-01-30T15:36:50Z</time>
					</trkpt>
					<trkpt lat="46.554550" lon="5.172410">
						<ele>203</ele>
						<time>2021-01-30T15:36:53Z</time>
					</trkpt>
					<trkpt lat="46.554610" lon="5.172290">
						<ele>204</ele>
						<time>2021-01-30T15:36:54Z</time>
					</trkpt>
					<trkpt lat="46.554890" lon="5.171800">
						<ele>204</ele>
						<time>2021-01-30T15:37:02Z</time>
					</trkpt>
					<trkpt lat="46.555010" lon="5.171580">
						<ele>204</ele>
						<time>2021-01-30T15:37:06Z</time>
					</trkpt>
					<trkpt lat="46.555130" lon="5.171340">
						<ele>204</ele>
						<time>2021-01-30T15:37:09Z</time>
					</trkpt>
					<trkpt lat="46.555200" lon="5.171170">
						<ele>204</ele>
						<time>2021-01-30T15:37:12Z</time>
					</trkpt>
					<trkpt lat="46.555320" lon="5.170880">
						<ele>204</ele>
						<time>2021-01-30T15:37:16Z</time>
					</trkpt>
					<trkpt lat="46.555420" lon="5.170650">
						<ele>203</ele>
						<time>2021-01-30T15:37:19Z</time>
					</trkpt>
					<trkpt lat="46.555540" lon="5.170350">
						<ele>203</ele>
						<time>2021-01-30T15:37:23Z</time>
					</trkpt>
					<trkpt lat="46.555750" lon="5.169820">
						<ele>203</ele>
						<time>2021-01-30T15:37:31Z</time>
					</trkpt>
					<trkpt lat="46.555810" lon="5.169680">
						<ele>203</ele>
						<time>2021-01-30T15:37:33Z</time>
					</trkpt>
					<trkpt lat="46.555860" lon="5.169530">
						<ele>202</ele>
						<time>2021-01-30T15:37:35Z</time>
					</trkpt>
					<trkpt lat="46.555910" lon="5.169360">
						<ele>202</ele>
						<time>2021-01-30T15:37:37Z</time>
					</trkpt>
					<trkpt lat="46.555960" lon="5.169090">
						<ele>202</ele>
						<time>2021-01-30T15:37:41Z</time>
					</trkpt>
					<trkpt lat="46.556010" lon="5.168840">
						<ele>201</ele>
						<time>2021-01-30T15:37:44Z</time>
					</trkpt>
					<trkpt lat="46.556290" lon="5.167670">
						<ele>197</ele>
						<time>2021-01-30T15:37:59Z</time>
					</trkpt>
					<trkpt lat="46.556340" lon="5.167480">
						<ele>197</ele>
						<time>2021-01-30T15:38:01Z</time>
					</trkpt>
					<trkpt lat="46.556370" lon="5.167340">
						<ele>197</ele>
						<time>2021-01-30T15:38:03Z</time>
					</trkpt>
					<trkpt lat="46.556440" lon="5.167020">
						<ele>197</ele>
						<time>2021-01-30T15:38:07Z</time>
					</trkpt>
					<trkpt lat="46.556540" lon="5.166630">
						<ele>197</ele>
						<time>2021-01-30T15:38:12Z</time>
					</trkpt>
					<trkpt lat="46.556810" lon="5.165500">
						<ele>201</ele>
						<time>2021-01-30T15:38:27Z</time>
					</trkpt>
					<trkpt lat="46.556990" lon="5.164810">
						<ele>202</ele>
						<time>2021-01-30T15:38:36Z</time>
					</trkpt>
					<trkpt lat="46.557040" lon="5.164620">
						<ele>202</ele>
						<time>2021-01-30T15:38:39Z</time>
					</trkpt>
					<trkpt lat="46.557040" lon="5.164620">
						<ele>202</ele>
						<time>2021-01-30T15:38:39Z</time>
					</trkpt>
					<trkpt lat="46.556920" lon="5.164470">
						<ele>202</ele>
						<time>2021-01-30T15:38:41Z</time>
					</trkpt>
					<trkpt lat="46.556920" lon="5.164470">
						<ele>202</ele>
						<time>2021-01-30T15:38:41Z</time>
					</trkpt>
					<trkpt lat="46.556990" lon="5.163980">
						<ele>202</ele>
						<time>2021-01-30T15:38:48Z</time>
					</trkpt>
					<trkpt lat="46.557080" lon="5.163460">
						<ele>201</ele>
						<time>2021-01-30T15:38:54Z</time>
					</trkpt>
					<trkpt lat="46.557120" lon="5.163180">
						<ele>200</ele>
						<time>2021-01-30T15:38:58Z</time>
					</trkpt>
					<trkpt lat="46.557150" lon="5.162960">
						<ele>199</ele>
						<time>2021-01-30T15:39:00Z</time>
					</trkpt>
					<trkpt lat="46.557150" lon="5.162840">
						<ele>198</ele>
						<time>2021-01-30T15:39:02Z</time>
					</trkpt>
					<trkpt lat="46.557140" lon="5.162720">
						<ele>198</ele>
						<time>2021-01-30T15:39:03Z</time>
					</trkpt>
					<trkpt lat="46.557120" lon="5.162630">
						<ele>198</ele>
						<time>2021-01-30T15:39:04Z</time>
					</trkpt>
					<trkpt lat="46.557090" lon="5.162510">
						<ele>197</ele>
						<time>2021-01-30T15:39:06Z</time>
					</trkpt>
					<trkpt lat="46.557060" lon="5.162380">
						<ele>196</ele>
						<time>2021-01-30T15:39:08Z</time>
					</trkpt>
					<trkpt lat="46.557060" lon="5.162320">
						<ele>196</ele>
						<time>2021-01-30T15:39:08Z</time>
					</trkpt>
					<trkpt lat="46.557060" lon="5.162260">
						<ele>195</ele>
						<time>2021-01-30T15:39:09Z</time>
					</trkpt>
					<trkpt lat="46.557070" lon="5.162170">
						<ele>195</ele>
						<time>2021-01-30T15:39:10Z</time>
					</trkpt>
					<trkpt lat="46.557100" lon="5.162050">
						<ele>194</ele>
						<time>2021-01-30T15:39:12Z</time>
					</trkpt>
					<trkpt lat="46.557150" lon="5.161910">
						<ele>193</ele>
						<time>2021-01-30T15:39:14Z</time>
					</trkpt>
					<trkpt lat="46.557260" lon="5.161660">
						<ele>192</ele>
						<time>2021-01-30T15:39:17Z</time>
					</trkpt>
					<trkpt lat="46.557370" lon="5.161380">
						<ele>191</ele>
						<time>2021-01-30T15:39:21Z</time>
					</trkpt>
					<trkpt lat="46.557500" lon="5.161090">
						<ele>191</ele>
						<time>2021-01-30T15:39:26Z</time>
					</trkpt>
					<trkpt lat="46.557610" lon="5.160820">
						<ele>190</ele>
						<time>2021-01-30T15:39:29Z</time>
					</trkpt>
					<trkpt lat="46.557730" lon="5.160540">
						<ele>191</ele>
						<time>2021-01-30T15:39:33Z</time>
					</trkpt>
					<trkpt lat="46.557880" lon="5.160190">
						<ele>192</ele>
						<time>2021-01-30T15:39:38Z</time>
					</trkpt>
					<trkpt lat="46.557980" lon="5.159970">
						<ele>193</ele>
						<time>2021-01-30T15:39:42Z</time>
					</trkpt>
					<trkpt lat="46.558130" lon="5.159650">
						<ele>194</ele>
						<time>2021-01-30T15:39:46Z</time>
					</trkpt>
					<trkpt lat="46.558430" lon="5.158930">
						<ele>196</ele>
						<time>2021-01-30T15:39:57Z</time>
					</trkpt>
					<trkpt lat="46.558690" lon="5.158320">
						<ele>198</ele>
						<time>2021-01-30T15:40:06Z</time>
					</trkpt>
					<trkpt lat="46.559080" lon="5.157390">
						<ele>202</ele>
						<time>2021-01-30T15:40:19Z</time>
					</trkpt>
					<trkpt lat="46.559310" lon="5.156860">
						<ele>202</ele>
						<time>2021-01-30T15:40:27Z</time>
					</trkpt>
					<trkpt lat="46.559410" lon="5.156640">
						<ele>202</ele>
						<time>2021-01-30T15:40:30Z</time>
					</trkpt>
					<trkpt lat="46.559530" lon="5.156370">
						<ele>202</ele>
						<time>2021-01-30T15:40:34Z</time>
					</trkpt>
					<trkpt lat="46.559630" lon="5.156140">
						<ele>202</ele>
						<time>2021-01-30T15:40:37Z</time>
					</trkpt>
					<trkpt lat="46.559810" lon="5.155740">
						<ele>201</ele>
						<time>2021-01-30T15:40:43Z</time>
					</trkpt>
					<trkpt lat="46.560090" lon="5.155050">
						<ele>200</ele>
						<time>2021-01-30T15:40:53Z</time>
					</trkpt>
					<trkpt lat="46.560260" lon="5.154640">
						<ele>201</ele>
						<time>2021-01-30T15:40:59Z</time>
					</trkpt>
					<trkpt lat="46.560450" lon="5.154210">
						<ele>202</ele>
						<time>2021-01-30T15:41:05Z</time>
					</trkpt>
					<trkpt lat="46.560590" lon="5.153940">
						<ele>202</ele>
						<time>2021-01-30T15:41:09Z</time>
					</trkpt>
					<trkpt lat="46.560670" lon="5.153780">
						<ele>202</ele>
						<time>2021-01-30T15:41:11Z</time>
					</trkpt>
					<trkpt lat="46.560770" lon="5.153590">
						<ele>201</ele>
						<time>2021-01-30T15:41:14Z</time>
					</trkpt>
					<trkpt lat="46.560880" lon="5.153430">
						<ele>201</ele>
						<time>2021-01-30T15:41:17Z</time>
					</trkpt>
					<trkpt lat="46.561000" lon="5.153270">
						<ele>201</ele>
						<time>2021-01-30T15:41:20Z</time>
					</trkpt>
					<trkpt lat="46.561090" lon="5.153160">
						<ele>201</ele>
						<time>2021-01-30T15:41:22Z</time>
					</trkpt>
					<trkpt lat="46.561240" lon="5.152980">
						<ele>201</ele>
						<time>2021-01-30T15:41:25Z</time>
					</trkpt>
					<trkpt lat="46.561300" lon="5.152910">
						<ele>201</ele>
						<time>2021-01-30T15:41:27Z</time>
					</trkpt>
					<trkpt lat="46.561480" lon="5.152720">
						<ele>201</ele>
						<time>2021-01-30T15:41:31Z</time>
					</trkpt>
					<trkpt lat="46.561770" lon="5.152420">
						<ele>201</ele>
						<time>2021-01-30T15:41:37Z</time>
					</trkpt>
					<trkpt lat="46.561790" lon="5.152400">
						<ele>201</ele>
						<time>2021-01-30T15:41:38Z</time>
					</trkpt>
					<trkpt lat="46.562000" lon="5.152190">
						<ele>202</ele>
						<time>2021-01-30T15:41:42Z</time>
					</trkpt>
					<trkpt lat="46.562010" lon="5.152180">
						<ele>202</ele>
						<time>2021-01-30T15:41:42Z</time>
					</trkpt>
					<trkpt lat="46.562280" lon="5.151900">
						<ele>202</ele>
						<time>2021-01-30T15:41:48Z</time>
					</trkpt>
					<trkpt lat="46.562400" lon="5.151780">
						<ele>203</ele>
						<time>2021-01-30T15:41:51Z</time>
					</trkpt>
					<trkpt lat="46.562410" lon="5.151770">
						<ele>203</ele>
						<time>2021-01-30T15:41:51Z</time>
					</trkpt>
					<trkpt lat="46.562660" lon="5.151510">
						<ele>203</ele>
						<time>2021-01-30T15:41:56Z</time>
					</trkpt>
					<trkpt lat="46.562800" lon="5.151380">
						<ele>204</ele>
						<time>2021-01-30T15:41:59Z</time>
					</trkpt>
					<trkpt lat="46.562930" lon="5.151290">
						<ele>204</ele>
						<time>2021-01-30T15:42:02Z</time>
					</trkpt>
					<trkpt lat="46.563130" lon="5.151180">
						<ele>204</ele>
						<time>2021-01-30T15:42:06Z</time>
					</trkpt>
					<trkpt lat="46.563510" lon="5.151060">
						<ele>203</ele>
						<time>2021-01-30T15:42:13Z</time>
					</trkpt>
					<trkpt lat="46.563900" lon="5.150940">
						<ele>203</ele>
						<time>2021-01-30T15:42:20Z</time>
					</trkpt>
					<trkpt lat="46.564200" lon="5.150840">
						<ele>202</ele>
						<time>2021-01-30T15:42:25Z</time>
					</trkpt>
					<trkpt lat="46.565120" lon="5.150550">
						<ele>202</ele>
						<time>2021-01-30T15:42:42Z</time>
					</trkpt>
					<trkpt lat="46.565250" lon="5.150510">
						<ele>202</ele>
						<time>2021-01-30T15:42:44Z</time>
					</trkpt>
					<trkpt lat="46.565770" lon="5.150370">
						<ele>201</ele>
						<time>2021-01-30T15:42:54Z</time>
					</trkpt>
					<trkpt lat="46.565820" lon="5.150350">
						<ele>201</ele>
						<time>2021-01-30T15:42:55Z</time>
					</trkpt>
					<trkpt lat="46.565880" lon="5.150330">
						<ele>201</ele>
						<time>2021-01-30T15:42:56Z</time>
					</trkpt>
					<trkpt lat="46.565940" lon="5.150300">
						<ele>201</ele>
						<time>2021-01-30T15:42:57Z</time>
					</trkpt>
					<trkpt lat="46.565990" lon="5.150270">
						<ele>201</ele>
						<time>2021-01-30T15:42:58Z</time>
					</trkpt>
					<trkpt lat="46.566040" lon="5.150220">
						<ele>201</ele>
						<time>2021-01-30T15:42:59Z</time>
					</trkpt>
					<trkpt lat="46.566090" lon="5.150160">
						<ele>201</ele>
						<time>2021-01-30T15:43:00Z</time>
					</trkpt>
					<trkpt lat="46.566140" lon="5.150100">
						<ele>201</ele>
						<time>2021-01-30T15:43:01Z</time>
					</trkpt>
					<trkpt lat="46.566170" lon="5.150030">
						<ele>201</ele>
						<time>2021-01-30T15:43:02Z</time>
					</trkpt>
					<trkpt lat="46.566250" lon="5.149830">
						<ele>200</ele>
						<time>2021-01-30T15:43:05Z</time>
					</trkpt>
					<trkpt lat="46.566340" lon="5.149580">
						<ele>200</ele>
						<time>2021-01-30T15:43:09Z</time>
					</trkpt>
					<trkpt lat="46.566400" lon="5.149380">
						<ele>200</ele>
						<time>2021-01-30T15:43:11Z</time>
					</trkpt>
					<trkpt lat="46.566540" lon="5.148960">
						<ele>199</ele>
						<time>2021-01-30T15:43:17Z</time>
					</trkpt>
					<trkpt lat="46.566800" lon="5.148230">
						<ele>200</ele>
						<time>2021-01-30T15:43:27Z</time>
					</trkpt>
					<trkpt lat="46.566970" lon="5.147700">
						<ele>201</ele>
						<time>2021-01-30T15:43:34Z</time>
					</trkpt>
					<trkpt lat="46.567060" lon="5.147360">
						<ele>201</ele>
						<time>2021-01-30T15:43:39Z</time>
					</trkpt>
					<trkpt lat="46.567100" lon="5.147170">
						<ele>202</ele>
						<time>2021-01-30T15:43:41Z</time>
					</trkpt>
					<trkpt lat="46.567140" lon="5.146930">
						<ele>202</ele>
						<time>2021-01-30T15:43:44Z</time>
					</trkpt>
					<trkpt lat="46.567170" lon="5.146650">
						<ele>202</ele>
						<time>2021-01-30T15:43:48Z</time>
					</trkpt>
					<trkpt lat="46.567200" lon="5.146400">
						<ele>202</ele>
						<time>2021-01-30T15:43:51Z</time>
					</trkpt>
					<trkpt lat="46.567300" lon="5.145640">
						<ele>203</ele>
						<time>2021-01-30T15:44:00Z</time>
					</trkpt>
					<trkpt lat="46.567340" lon="5.145250">
						<ele>203</ele>
						<time>2021-01-30T15:44:05Z</time>
					</trkpt>
					<trkpt lat="46.567370" lon="5.145070">
						<ele>202</ele>
						<time>2021-01-30T15:44:07Z</time>
					</trkpt>
					<trkpt lat="46.567400" lon="5.144860">
						<ele>202</ele>
						<time>2021-01-30T15:44:10Z</time>
					</trkpt>
					<trkpt lat="46.567450" lon="5.144390">
						<ele>201</ele>
						<time>2021-01-30T15:44:16Z</time>
					</trkpt>
					<trkpt lat="46.567480" lon="5.144110">
						<ele>201</ele>
						<time>2021-01-30T15:44:19Z</time>
					</trkpt>
					<trkpt lat="46.567550" lon="5.143570">
						<ele>202</ele>
						<time>2021-01-30T15:44:26Z</time>
					</trkpt>
					<trkpt lat="46.567610" lon="5.143170">
						<ele>203</ele>
						<time>2021-01-30T15:44:31Z</time>
					</trkpt>
					<trkpt lat="46.567660" lon="5.142790">
						<ele>204</ele>
						<time>2021-01-30T15:44:36Z</time>
					</trkpt>
					<trkpt lat="46.567690" lon="5.142550">
						<ele>205</ele>
						<time>2021-01-30T15:44:39Z</time>
					</trkpt>
					<trkpt lat="46.567740" lon="5.142150">
						<ele>205</ele>
						<time>2021-01-30T15:44:44Z</time>
					</trkpt>
					<trkpt lat="46.567810" lon="5.141650">
						<ele>204</ele>
						<time>2021-01-30T15:44:50Z</time>
					</trkpt>
					<trkpt lat="46.567880" lon="5.141130">
						<ele>203</ele>
						<time>2021-01-30T15:44:56Z</time>
					</trkpt>
					<trkpt lat="46.567890" lon="5.141010">
						<ele>203</ele>
						<time>2021-01-30T15:44:58Z</time>
					</trkpt>
					<trkpt lat="46.567930" lon="5.140750">
						<ele>203</ele>
						<time>2021-01-30T15:45:01Z</time>
					</trkpt>
					<trkpt lat="46.567980" lon="5.140350">
						<ele>203</ele>
						<time>2021-01-30T15:45:06Z</time>
					</trkpt>
					<trkpt lat="46.568020" lon="5.140090">
						<ele>203</ele>
						<time>2021-01-30T15:45:09Z</time>
					</trkpt>
					<trkpt lat="46.568050" lon="5.139830">
						<ele>203</ele>
						<time>2021-01-30T15:45:12Z</time>
					</trkpt>
					<trkpt lat="46.568100" lon="5.139450">
						<ele>202</ele>
						<time>2021-01-30T15:45:17Z</time>
					</trkpt>
					<trkpt lat="46.568130" lon="5.139290">
						<ele>202</ele>
						<time>2021-01-30T15:45:19Z</time>
					</trkpt>
					<trkpt lat="46.568170" lon="5.139080">
						<ele>202</ele>
						<time>2021-01-30T15:45:22Z</time>
					</trkpt>
					<trkpt lat="46.568210" lon="5.138890">
						<ele>202</ele>
						<time>2021-01-30T15:45:24Z</time>
					</trkpt>
					<trkpt lat="46.568250" lon="5.138720">
						<ele>201</ele>
						<time>2021-01-30T15:45:27Z</time>
					</trkpt>
					<trkpt lat="46.568290" lon="5.138550">
						<ele>201</ele>
						<time>2021-01-30T15:45:29Z</time>
					</trkpt>
					<trkpt lat="46.568340" lon="5.138370">
						<ele>201</ele>
						<time>2021-01-30T15:45:31Z</time>
					</trkpt>
					<trkpt lat="46.568370" lon="5.138260">
						<ele>201</ele>
						<time>2021-01-30T15:45:33Z</time>
					</trkpt>
					<trkpt lat="46.568420" lon="5.138110">
						<ele>200</ele>
						<time>2021-01-30T15:45:35Z</time>
					</trkpt>
					<trkpt lat="46.568420" lon="5.138110">
						<ele>200</ele>
						<time>2021-01-30T15:45:35Z</time>
					</trkpt>
					<trkpt lat="46.568190" lon="5.137960">
						<ele>200</ele>
						<time>2021-01-30T15:45:39Z</time>
					</trkpt>
					<trkpt lat="46.568160" lon="5.137930">
						<ele>200</ele>
						<time>2021-01-30T15:45:40Z</time>
					</trkpt>
					<trkpt lat="46.568110" lon="5.137890">
						<ele>200</ele>
						<time>2021-01-30T15:45:41Z</time>
					</trkpt>
					<trkpt lat="46.568080" lon="5.137830">
						<ele>200</ele>
						<time>2021-01-30T15:45:42Z</time>
					</trkpt>
					<trkpt lat="46.568060" lon="5.137760">
						<ele>200</ele>
						<time>2021-01-30T15:45:43Z</time>
					</trkpt>
					<trkpt lat="46.568030" lon="5.137600">
						<ele>199</ele>
						<time>2021-01-30T15:45:45Z</time>
					</trkpt>
					<trkpt lat="46.568010" lon="5.137380">
						<ele>199</ele>
						<time>2021-01-30T15:45:47Z</time>
					</trkpt>
					<trkpt lat="46.567990" lon="5.137060">
						<ele>198</ele>
						<time>2021-01-30T15:45:51Z</time>
					</trkpt>
					<trkpt lat="46.567960" lon="5.136800">
						<ele>198</ele>
						<time>2021-01-30T15:45:54Z</time>
					</trkpt>
					<trkpt lat="46.567950" lon="5.136770">
						<ele>198</ele>
						<time>2021-01-30T15:45:55Z</time>
					</trkpt>
					<trkpt lat="46.567910" lon="5.136590">
						<ele>198</ele>
						<time>2021-01-30T15:45:57Z</time>
					</trkpt>
					<trkpt lat="46.567840" lon="5.136390">
						<ele>198</ele>
						<time>2021-01-30T15:46:00Z</time>
					</trkpt>
					<trkpt lat="46.567800" lon="5.136240">
						<ele>198</ele>
						<time>2021-01-30T15:46:02Z</time>
					</trkpt>
					<trkpt lat="46.567770" lon="5.136070">
						<ele>198</ele>
						<time>2021-01-30T15:46:04Z</time>
					</trkpt>
					<trkpt lat="46.567740" lon="5.135890">
						<ele>198</ele>
						<time>2021-01-30T15:46:06Z</time>
					</trkpt>
					<trkpt lat="46.567700" lon="5.135780">
						<ele>198</ele>
						<time>2021-01-30T15:46:08Z</time>
					</trkpt>
					<trkpt lat="46.567640" lon="5.135710">
						<ele>198</ele>
						<time>2021-01-30T15:46:09Z</time>
					</trkpt>
					<trkpt lat="46.567530" lon="5.135610">
						<ele>198</ele>
						<time>2021-01-30T15:46:12Z</time>
					</trkpt>
					<trkpt lat="46.567440" lon="5.135490">
						<ele>198</ele>
						<time>2021-01-30T15:46:14Z</time>
					</trkpt>
					<trkpt lat="46.567380" lon="5.135360">
						<ele>198</ele>
						<time>2021-01-30T15:46:16Z</time>
					</trkpt>
					<trkpt lat="46.567280" lon="5.135140">
						<ele>197</ele>
						<time>2021-01-30T15:46:19Z</time>
					</trkpt>
					<trkpt lat="46.567230" lon="5.134940">
						<ele>197</ele>
						<time>2021-01-30T15:46:21Z</time>
					</trkpt>
					<trkpt lat="46.567230" lon="5.134820">
						<ele>197</ele>
						<time>2021-01-30T15:46:23Z</time>
					</trkpt>
					<trkpt lat="46.567260" lon="5.134630">
						<ele>197</ele>
						<time>2021-01-30T15:46:25Z</time>
					</trkpt>
					<trkpt lat="46.567280" lon="5.134480">
						<ele>197</ele>
						<time>2021-01-30T15:46:27Z</time>
					</trkpt>
					<trkpt lat="46.567300" lon="5.134310">
						<ele>197</ele>
						<time>2021-01-30T15:46:29Z</time>
					</trkpt>
					<trkpt lat="46.567300" lon="5.134090">
						<ele>197</ele>
						<time>2021-01-30T15:46:32Z</time>
					</trkpt>
					<trkpt lat="46.567310" lon="5.133890">
						<ele>197</ele>
						<time>2021-01-30T15:46:34Z</time>
					</trkpt>
					<trkpt lat="46.567350" lon="5.133710">
						<ele>198</ele>
						<time>2021-01-30T15:46:37Z</time>
					</trkpt>
					<trkpt lat="46.567430" lon="5.133400">
						<ele>198</ele>
						<time>2021-01-30T15:46:41Z</time>
					</trkpt>
					<trkpt lat="46.567480" lon="5.133040">
						<ele>198</ele>
						<time>2021-01-30T15:46:45Z</time>
					</trkpt>
					<trkpt lat="46.567550" lon="5.132630">
						<ele>197</ele>
						<time>2021-01-30T15:46:50Z</time>
					</trkpt>
					<trkpt lat="46.567610" lon="5.132300">
						<ele>197</ele>
						<time>2021-01-30T15:46:55Z</time>
					</trkpt>
					<trkpt lat="46.567700" lon="5.131990">
						<ele>198</ele>
						<time>2021-01-30T15:46:59Z</time>
					</trkpt>
					<trkpt lat="46.567790" lon="5.131730">
						<ele>199</ele>
						<time>2021-01-30T15:47:02Z</time>
					</trkpt>
					<trkpt lat="46.567900" lon="5.131530">
						<ele>199</ele>
						<time>2021-01-30T15:47:05Z</time>
					</trkpt>
					<trkpt lat="46.568040" lon="5.131320">
						<ele>200</ele>
						<time>2021-01-30T15:47:09Z</time>
					</trkpt>
					<trkpt lat="46.568040" lon="5.131320">
						<ele>200</ele>
						<time>2021-01-30T15:47:09Z</time>
					</trkpt>
					<trkpt lat="46.568180" lon="5.131100">
						<ele>201</ele>
						<time>2021-01-30T15:47:13Z</time>
					</trkpt>
					<trkpt lat="46.568270" lon="5.130930">
						<ele>202</ele>
						<time>2021-01-30T15:47:15Z</time>
					</trkpt>
					<trkpt lat="46.568300" lon="5.130810">
						<ele>202</ele>
						<time>2021-01-30T15:47:17Z</time>
					</trkpt>
					<trkpt lat="46.568330" lon="5.130650">
						<ele>201</ele>
						<time>2021-01-30T15:47:19Z</time>
					</trkpt>
					<trkpt lat="46.568340" lon="5.130460">
						<ele>201</ele>
						<time>2021-01-30T15:47:21Z</time>
					</trkpt>
					<trkpt lat="46.568320" lon="5.130150">
						<ele>199</ele>
						<time>2021-01-30T15:47:25Z</time>
					</trkpt>
					<trkpt lat="46.568300" lon="5.129790">
						<ele>198</ele>
						<time>2021-01-30T15:47:29Z</time>
					</trkpt>
					<trkpt lat="46.568280" lon="5.129530">
						<ele>196</ele>
						<time>2021-01-30T15:47:33Z</time>
					</trkpt>
					<trkpt lat="46.568240" lon="5.129270">
						<ele>195</ele>
						<time>2021-01-30T15:47:36Z</time>
					</trkpt>
					<trkpt lat="46.568160" lon="5.128970">
						<ele>194</ele>
						<time>2021-01-30T15:47:40Z</time>
					</trkpt>
					<trkpt lat="46.568070" lon="5.128670">
						<ele>194</ele>
						<time>2021-01-30T15:47:44Z</time>
					</trkpt>
					<trkpt lat="46.568000" lon="5.128400">
						<ele>193</ele>
						<time>2021-01-30T15:47:47Z</time>
					</trkpt>
					<trkpt lat="46.567970" lon="5.128200">
						<ele>193</ele>
						<time>2021-01-30T15:47:50Z</time>
					</trkpt>
					<trkpt lat="46.567950" lon="5.127820">
						<ele>194</ele>
						<time>2021-01-30T15:47:55Z</time>
					</trkpt>
					<trkpt lat="46.567930" lon="5.127430">
						<ele>195</ele>
						<time>2021-01-30T15:47:59Z</time>
					</trkpt>
					<trkpt lat="46.567920" lon="5.127040">
						<ele>196</ele>
						<time>2021-01-30T15:48:04Z</time>
					</trkpt>
					<trkpt lat="46.567940" lon="5.126680">
						<ele>197</ele>
						<time>2021-01-30T15:48:09Z</time>
					</trkpt>
					<trkpt lat="46.567990" lon="5.126210">
						<ele>198</ele>
						<time>2021-01-30T15:48:14Z</time>
					</trkpt>
					<trkpt lat="46.568070" lon="5.125680">
						<ele>199</ele>
						<time>2021-01-30T15:48:21Z</time>
					</trkpt>
					<trkpt lat="46.568110" lon="5.125490">
						<ele>199</ele>
						<time>2021-01-30T15:48:23Z</time>
					</trkpt>
					<trkpt lat="46.568110" lon="5.125490">
						<ele>199</ele>
						<time>2021-01-30T15:48:23Z</time>
					</trkpt>
					<trkpt lat="46.568030" lon="5.125410">
						<ele>198</ele>
						<time>2021-01-30T15:48:25Z</time>
					</trkpt>
					<trkpt lat="46.567950" lon="5.125280">
						<ele>198</ele>
						<time>2021-01-30T15:48:27Z</time>
					</trkpt>
					<trkpt lat="46.567890" lon="5.125140">
						<ele>199</ele>
						<time>2021-01-30T15:48:29Z</time>
					</trkpt>
					<trkpt lat="46.567810" lon="5.124940">
						<ele>199</ele>
						<time>2021-01-30T15:48:32Z</time>
					</trkpt>
					<trkpt lat="46.567740" lon="5.124750">
						<ele>199</ele>
						<time>2021-01-30T15:48:35Z</time>
					</trkpt>
					<trkpt lat="46.567640" lon="5.124490">
						<ele>199</ele>
						<time>2021-01-30T15:48:38Z</time>
					</trkpt>
					<trkpt lat="46.567510" lon="5.124260">
						<ele>199</ele>
						<time>2021-01-30T15:48:42Z</time>
					</trkpt>
					<trkpt lat="46.567370" lon="5.124070">
						<ele>199</ele>
						<time>2021-01-30T15:48:45Z</time>
					</trkpt>
					<trkpt lat="46.567220" lon="5.123920">
						<ele>198</ele>
						<time>2021-01-30T15:48:49Z</time>
					</trkpt>
					<trkpt lat="46.567140" lon="5.123860">
						<ele>198</ele>
						<time>2021-01-30T15:48:50Z</time>
					</trkpt>
					<trkpt lat="46.567040" lon="5.123790">
						<ele>198</ele>
						<time>2021-01-30T15:48:52Z</time>
					</trkpt>
					<trkpt lat="46.567040" lon="5.123790">
						<ele>198</ele>
						<time>2021-01-30T15:48:52Z</time>
					</trkpt>
					<trkpt lat="46.567170" lon="5.123610">
						<ele>198</ele>
						<time>2021-01-30T15:48:55Z</time>
					</trkpt>
					<trkpt lat="46.567320" lon="5.123380">
						<ele>197</ele>
						<time>2021-01-30T15:48:59Z</time>
					</trkpt>
					<trkpt lat="46.567450" lon="5.123150">
						<ele>197</ele>
						<time>2021-01-30T15:49:03Z</time>
					</trkpt>
					<trkpt lat="46.567570" lon="5.122930">
						<ele>197</ele>
						<time>2021-01-30T15:49:06Z</time>
					</trkpt>
					<trkpt lat="46.567670" lon="5.122710">
						<ele>198</ele>
						<time>2021-01-30T15:49:10Z</time>
					</trkpt>
					<trkpt lat="46.567720" lon="5.122590">
						<ele>198</ele>
						<time>2021-01-30T15:49:11Z</time>
					</trkpt>
					<trkpt lat="46.567810" lon="5.122400">
						<ele>197</ele>
						<time>2021-01-30T15:49:14Z</time>
					</trkpt>
					<trkpt lat="46.567930" lon="5.122130">
						<ele>197</ele>
						<time>2021-01-30T15:49:18Z</time>
					</trkpt>
					<trkpt lat="46.568030" lon="5.121960">
						<ele>196</ele>
						<time>2021-01-30T15:49:21Z</time>
					</trkpt>
					<trkpt lat="46.568140" lon="5.121820">
						<ele>196</ele>
						<time>2021-01-30T15:49:23Z</time>
					</trkpt>
					<trkpt lat="46.568270" lon="5.121680">
						<ele>195</ele>
						<time>2021-01-30T15:49:26Z</time>
					</trkpt>
					<trkpt lat="46.568460" lon="5.121520">
						<ele>195</ele>
						<time>2021-01-30T15:49:30Z</time>
					</trkpt>
					<trkpt lat="46.568660" lon="5.121370">
						<ele>195</ele>
						<time>2021-01-30T15:49:34Z</time>
					</trkpt>
					<trkpt lat="46.568750" lon="5.121330">
						<ele>195</ele>
						<time>2021-01-30T15:49:36Z</time>
					</trkpt>
					<trkpt lat="46.568860" lon="5.121290">
						<ele>195</ele>
						<time>2021-01-30T15:49:38Z</time>
					</trkpt>
					<trkpt lat="46.569040" lon="5.121240">
						<ele>195</ele>
						<time>2021-01-30T15:49:41Z</time>
					</trkpt>
					<trkpt lat="46.569170" lon="5.121180">
						<ele>196</ele>
						<time>2021-01-30T15:49:44Z</time>
					</trkpt>
					<trkpt lat="46.569300" lon="5.121080">
						<ele>196</ele>
						<time>2021-01-30T15:49:46Z</time>
					</trkpt>
					<trkpt lat="46.569440" lon="5.120940">
						<ele>196</ele>
						<time>2021-01-30T15:49:49Z</time>
					</trkpt>
					<trkpt lat="46.569630" lon="5.120710">
						<ele>195</ele>
						<time>2021-01-30T15:49:54Z</time>
					</trkpt>
					<trkpt lat="46.569830" lon="5.120420">
						<ele>195</ele>
						<time>2021-01-30T15:49:59Z</time>
					</trkpt>
					<trkpt lat="46.569830" lon="5.120420">
						<ele>195</ele>
						<time>2021-01-30T15:49:59Z</time>
					</trkpt>
					<trkpt lat="46.570000" lon="5.120180">
						<ele>196</ele>
						<time>2021-01-30T15:50:03Z</time>
					</trkpt>
					<trkpt lat="46.570350" lon="5.119680">
						<ele>196</ele>
						<time>2021-01-30T15:50:12Z</time>
					</trkpt>
					<trkpt lat="46.570680" lon="5.119200">
						<ele>196</ele>
						<time>2021-01-30T15:50:20Z</time>
					</trkpt>
					<trkpt lat="46.570790" lon="5.119020">
						<ele>196</ele>
						<time>2021-01-30T15:50:23Z</time>
					</trkpt>
					<trkpt lat="46.570980" lon="5.118670">
						<ele>195</ele>
						<time>2021-01-30T15:50:28Z</time>
					</trkpt>
					<trkpt lat="46.571100" lon="5.118400">
						<ele>194</ele>
						<time>2021-01-30T15:50:32Z</time>
					</trkpt>
					<trkpt lat="46.571170" lon="5.118190">
						<ele>193</ele>
						<time>2021-01-30T15:50:35Z</time>
					</trkpt>
					<trkpt lat="46.571240" lon="5.117990">
						<ele>193</ele>
						<time>2021-01-30T15:50:38Z</time>
					</trkpt>
					<trkpt lat="46.571360" lon="5.117650">
						<ele>192</ele>
						<time>2021-01-30T15:50:43Z</time>
					</trkpt>
					<trkpt lat="46.571430" lon="5.117460">
						<ele>191</ele>
						<time>2021-01-30T15:50:45Z</time>
					</trkpt>
					<trkpt lat="46.571470" lon="5.117360">
						<ele>191</ele>
						<time>2021-01-30T15:50:47Z</time>
					</trkpt>
					<trkpt lat="46.571510" lon="5.117290">
						<ele>191</ele>
						<time>2021-01-30T15:50:48Z</time>
					</trkpt>
					<trkpt lat="46.571550" lon="5.117210">
						<ele>190</ele>
						<time>2021-01-30T15:50:49Z</time>
					</trkpt>
					<trkpt lat="46.571590" lon="5.117160">
						<ele>190</ele>
						<time>2021-01-30T15:50:50Z</time>
					</trkpt>
					<trkpt lat="46.571640" lon="5.117110">
						<ele>190</ele>
						<time>2021-01-30T15:50:51Z</time>
					</trkpt>
					<trkpt lat="46.571700" lon="5.117060">
						<ele>190</ele>
						<time>2021-01-30T15:50:52Z</time>
					</trkpt>
					<trkpt lat="46.571750" lon="5.117030">
						<ele>189</ele>
						<time>2021-01-30T15:50:53Z</time>
					</trkpt>
					<trkpt lat="46.571810" lon="5.117010">
						<ele>189</ele>
						<time>2021-01-30T15:50:54Z</time>
					</trkpt>
					<trkpt lat="46.571960" lon="5.116960">
						<ele>188</ele>
						<time>2021-01-30T15:50:57Z</time>
					</trkpt>
					<trkpt lat="46.572210" lon="5.116890">
						<ele>186</ele>
						<time>2021-01-30T15:51:01Z</time>
					</trkpt>
					<trkpt lat="46.572380" lon="5.116820">
						<ele>185</ele>
						<time>2021-01-30T15:51:05Z</time>
					</trkpt>
					<trkpt lat="46.572470" lon="5.116740">
						<ele>184</ele>
						<time>2021-01-30T15:51:07Z</time>
					</trkpt>
					<trkpt lat="46.572550" lon="5.116650">
						<ele>184</ele>
						<time>2021-01-30T15:51:08Z</time>
					</trkpt>
					<trkpt lat="46.572610" lon="5.116540">
						<ele>184</ele>
						<time>2021-01-30T15:51:10Z</time>
					</trkpt>
					<trkpt lat="46.572680" lon="5.116390">
						<ele>183</ele>
						<time>2021-01-30T15:51:12Z</time>
					</trkpt>
					<trkpt lat="46.572720" lon="5.116320">
						<ele>183</ele>
						<time>2021-01-30T15:51:13Z</time>
					</trkpt>
					<trkpt lat="46.572790" lon="5.116240">
						<ele>183</ele>
						<time>2021-01-30T15:51:15Z</time>
					</trkpt>
					<trkpt lat="46.572850" lon="5.116190">
						<ele>183</ele>
						<time>2021-01-30T15:51:16Z</time>
					</trkpt>
					<trkpt lat="46.572940" lon="5.116150">
						<ele>183</ele>
						<time>2021-01-30T15:51:18Z</time>
					</trkpt>
					<trkpt lat="46.573010" lon="5.116140">
						<ele>184</ele>
						<time>2021-01-30T15:51:19Z</time>
					</trkpt>
					<trkpt lat="46.573120" lon="5.116140">
						<ele>184</ele>
						<time>2021-01-30T15:51:21Z</time>
					</trkpt>
					<trkpt lat="46.573230" lon="5.116150">
						<ele>184</ele>
						<time>2021-01-30T15:51:23Z</time>
					</trkpt>
					<trkpt lat="46.573300" lon="5.116170">
						<ele>184</ele>
						<time>2021-01-30T15:51:24Z</time>
					</trkpt>
					<trkpt lat="46.573470" lon="5.116260">
						<ele>184</ele>
						<time>2021-01-30T15:51:27Z</time>
					</trkpt>
					<trkpt lat="46.573570" lon="5.116340">
						<ele>185</ele>
						<time>2021-01-30T15:51:30Z</time>
					</trkpt>
					<trkpt lat="46.573580" lon="5.116350">
						<ele>185</ele>
						<time>2021-01-30T15:51:30Z</time>
					</trkpt>
					<trkpt lat="46.573600" lon="5.116370">
						<ele>185</ele>
						<time>2021-01-30T15:51:30Z</time>
					</trkpt>
					<trkpt lat="46.573810" lon="5.116490">
						<ele>185</ele>
						<time>2021-01-30T15:51:34Z</time>
					</trkpt>
					<trkpt lat="46.573920" lon="5.116530">
						<ele>186</ele>
						<time>2021-01-30T15:51:36Z</time>
					</trkpt>
					<trkpt lat="46.574030" lon="5.116540">
						<ele>186</ele>
						<time>2021-01-30T15:51:38Z</time>
					</trkpt>
					<trkpt lat="46.574030" lon="5.116540">
						<ele>186</ele>
						<time>2021-01-30T15:51:38Z</time>
					</trkpt>
					<trkpt lat="46.574110" lon="5.116510">
						<ele>186</ele>
						<time>2021-01-30T15:51:40Z</time>
					</trkpt>
					<trkpt lat="46.574150" lon="5.116470">
						<ele>186</ele>
						<time>2021-01-30T15:51:41Z</time>
					</trkpt>
					<trkpt lat="46.574210" lon="5.116370">
						<ele>187</ele>
						<time>2021-01-30T15:51:42Z</time>
					</trkpt>
					<trkpt lat="46.574240" lon="5.116260">
						<ele>187</ele>
						<time>2021-01-30T15:51:44Z</time>
					</trkpt>
					<trkpt lat="46.574270" lon="5.116070">
						<ele>187</ele>
						<time>2021-01-30T15:51:46Z</time>
					</trkpt>
					<trkpt lat="46.574310" lon="5.115840">
						<ele>188</ele>
						<time>2021-01-30T15:51:49Z</time>
					</trkpt>
					<trkpt lat="46.574330" lon="5.115590">
						<ele>188</ele>
						<time>2021-01-30T15:51:52Z</time>
					</trkpt>
					<trkpt lat="46.574360" lon="5.115340">
						<ele>189</ele>
						<time>2021-01-30T15:51:55Z</time>
					</trkpt>
					<trkpt lat="46.574390" lon="5.115140">
						<ele>189</ele>
						<time>2021-01-30T15:51:58Z</time>
					</trkpt>
					<trkpt lat="46.574430" lon="5.114920">
						<ele>189</ele>
						<time>2021-01-30T15:52:00Z</time>
					</trkpt>
					<trkpt lat="46.574490" lon="5.114660">
						<ele>189</ele>
						<time>2021-01-30T15:52:04Z</time>
					</trkpt>
					<trkpt lat="46.574580" lon="5.114370">
						<ele>190</ele>
						<time>2021-01-30T15:52:08Z</time>
					</trkpt>
					<trkpt lat="46.574650" lon="5.114080">
						<ele>190</ele>
						<time>2021-01-30T15:52:11Z</time>
					</trkpt>
					<trkpt lat="46.574690" lon="5.113870">
						<ele>189</ele>
						<time>2021-01-30T15:52:14Z</time>
					</trkpt>
					<trkpt lat="46.574700" lon="5.113730">
						<ele>189</ele>
						<time>2021-01-30T15:52:16Z</time>
					</trkpt>
					<trkpt lat="46.574720" lon="5.113560">
						<ele>189</ele>
						<time>2021-01-30T15:52:18Z</time>
					</trkpt>
					<trkpt lat="46.574730" lon="5.113350">
						<ele>188</ele>
						<time>2021-01-30T15:52:20Z</time>
					</trkpt>
					<trkpt lat="46.574750" lon="5.113130">
						<ele>188</ele>
						<time>2021-01-30T15:52:23Z</time>
					</trkpt>
					<trkpt lat="46.574760" lon="5.112910">
						<ele>188</ele>
						<time>2021-01-30T15:52:26Z</time>
					</trkpt>
					<trkpt lat="46.574770" lon="5.112670">
						<ele>187</ele>
						<time>2021-01-30T15:52:29Z</time>
					</trkpt>
					<trkpt lat="46.574770" lon="5.112520">
						<ele>187</ele>
						<time>2021-01-30T15:52:31Z</time>
					</trkpt>
					<trkpt lat="46.574780" lon="5.112370">
						<ele>187</ele>
						<time>2021-01-30T15:52:32Z</time>
					</trkpt>
					<trkpt lat="46.574810" lon="5.112120">
						<ele>187</ele>
						<time>2021-01-30T15:52:36Z</time>
					</trkpt>
					<trkpt lat="46.574860" lon="5.111840">
						<ele>186</ele>
						<time>2021-01-30T15:52:39Z</time>
					</trkpt>
					<trkpt lat="46.574910" lon="5.111700">
						<ele>186</ele>
						<time>2021-01-30T15:52:41Z</time>
					</trkpt>
					<trkpt lat="46.574960" lon="5.111560">
						<ele>186</ele>
						<time>2021-01-30T15:52:43Z</time>
					</trkpt>
					<trkpt lat="46.575060" lon="5.111370">
						<ele>186</ele>
						<time>2021-01-30T15:52:46Z</time>
					</trkpt>
					<trkpt lat="46.575160" lon="5.111200">
						<ele>186</ele>
						<time>2021-01-30T15:52:49Z</time>
					</trkpt>
					<trkpt lat="46.575230" lon="5.111110">
						<ele>187</ele>
						<time>2021-01-30T15:52:50Z</time>
					</trkpt>
					<trkpt lat="46.575380" lon="5.110880">
						<ele>187</ele>
						<time>2021-01-30T15:52:54Z</time>
					</trkpt>
					<trkpt lat="46.575480" lon="5.110700">
						<ele>188</ele>
						<time>2021-01-30T15:52:57Z</time>
					</trkpt>
					<trkpt lat="46.575640" lon="5.110440">
						<ele>190</ele>
						<time>2021-01-30T15:53:01Z</time>
					</trkpt>
					<trkpt lat="46.575780" lon="5.110170">
						<ele>191</ele>
						<time>2021-01-30T15:53:05Z</time>
					</trkpt>
					<trkpt lat="46.575860" lon="5.109990">
						<ele>192</ele>
						<time>2021-01-30T15:53:08Z</time>
					</trkpt>
					<trkpt lat="46.575880" lon="5.109960">
						<ele>192</ele>
						<time>2021-01-30T15:53:09Z</time>
					</trkpt>
					<trkpt lat="46.575960" lon="5.109820">
						<ele>193</ele>
						<time>2021-01-30T15:53:11Z</time>
					</trkpt>
					<trkpt lat="46.576070" lon="5.109630">
						<ele>194</ele>
						<time>2021-01-30T15:53:14Z</time>
					</trkpt>
					<trkpt lat="46.576170" lon="5.109440">
						<ele>194</ele>
						<time>2021-01-30T15:53:17Z</time>
					</trkpt>
					<trkpt lat="46.576230" lon="5.109350">
						<ele>194</ele>
						<time>2021-01-30T15:53:18Z</time>
					</trkpt>
					<trkpt lat="46.576290" lon="5.109190">
						<ele>195</ele>
						<time>2021-01-30T15:53:20Z</time>
					</trkpt>
					<trkpt lat="46.576290" lon="5.109190">
						<ele>195</ele>
						<time>2021-01-30T15:53:20Z</time>
					</trkpt>
					<trkpt lat="46.576270" lon="5.109050">
						<ele>194</ele>
						<time>2021-01-30T15:53:22Z</time>
					</trkpt>
					<trkpt lat="46.576210" lon="5.108820">
						<ele>194</ele>
						<time>2021-01-30T15:53:25Z</time>
					</trkpt>
					<trkpt lat="46.576160" lon="5.108600">
						<ele>194</ele>
						<time>2021-01-30T15:53:28Z</time>
					</trkpt>
					<trkpt lat="46.576130" lon="5.108470">
						<ele>194</ele>
						<time>2021-01-30T15:53:30Z</time>
					</trkpt>
					<trkpt lat="46.576100" lon="5.108290">
						<ele>193</ele>
						<time>2021-01-30T15:53:32Z</time>
					</trkpt>
					<trkpt lat="46.576080" lon="5.108030">
						<ele>193</ele>
						<time>2021-01-30T15:53:35Z</time>
					</trkpt>
					<trkpt lat="46.576070" lon="5.107850">
						<ele>193</ele>
						<time>2021-01-30T15:53:37Z</time>
					</trkpt>
					<trkpt lat="46.576070" lon="5.107690">
						<ele>192</ele>
						<time>2021-01-30T15:53:39Z</time>
					</trkpt>
					<trkpt lat="46.576070" lon="5.107600">
						<ele>192</ele>
						<time>2021-01-30T15:53:40Z</time>
					</trkpt>
					<trkpt lat="46.576080" lon="5.107530">
						<ele>192</ele>
						<time>2021-01-30T15:53:41Z</time>
					</trkpt>
					<trkpt lat="46.576100" lon="5.107440">
						<ele>192</ele>
						<time>2021-01-30T15:53:43Z</time>
					</trkpt>
					<trkpt lat="46.576130" lon="5.107300">
						<ele>192</ele>
						<time>2021-01-30T15:53:44Z</time>
					</trkpt>
					<trkpt lat="46.576220" lon="5.107120">
						<ele>192</ele>
						<time>2021-01-30T15:53:47Z</time>
					</trkpt>
					<trkpt lat="46.576310" lon="5.106970">
						<ele>192</ele>
						<time>2021-01-30T15:53:49Z</time>
					</trkpt>
					<trkpt lat="46.576460" lon="5.106820">
						<ele>193</ele>
						<time>2021-01-30T15:53:53Z</time>
					</trkpt>
					<trkpt lat="46.576550" lon="5.106720">
						<ele>193</ele>
						<time>2021-01-30T15:53:55Z</time>
					</trkpt>
					<trkpt lat="46.576620" lon="5.106600">
						<ele>193</ele>
						<time>2021-01-30T15:53:57Z</time>
					</trkpt>
					<trkpt lat="46.576690" lon="5.106460">
						<ele>193</ele>
						<time>2021-01-30T15:53:59Z</time>
					</trkpt>
					<trkpt lat="46.576730" lon="5.106350">
						<ele>193</ele>
						<time>2021-01-30T15:54:00Z</time>
					</trkpt>
					<trkpt lat="46.576770" lon="5.106190">
						<ele>193</ele>
						<time>2021-01-30T15:54:02Z</time>
					</trkpt>
					<trkpt lat="46.576800" lon="5.105920">
						<ele>193</ele>
						<time>2021-01-30T15:54:06Z</time>
					</trkpt>
					<trkpt lat="46.576830" lon="5.105730">
						<ele>192</ele>
						<time>2021-01-30T15:54:08Z</time>
					</trkpt>
					<trkpt lat="46.576850" lon="5.105480">
						<ele>192</ele>
						<time>2021-01-30T15:54:11Z</time>
					</trkpt>
					<trkpt lat="46.576870" lon="5.105330">
						<ele>192</ele>
						<time>2021-01-30T15:54:13Z</time>
					</trkpt>
					<trkpt lat="46.576880" lon="5.105250">
						<ele>191</ele>
						<time>2021-01-30T15:54:14Z</time>
					</trkpt>
					<trkpt lat="46.576930" lon="5.105010">
						<ele>191</ele>
						<time>2021-01-30T15:54:17Z</time>
					</trkpt>
					<trkpt lat="46.577010" lon="5.104800">
						<ele>191</ele>
						<time>2021-01-30T15:54:20Z</time>
					</trkpt>
					<trkpt lat="46.577130" lon="5.104520">
						<ele>190</ele>
						<time>2021-01-30T15:54:24Z</time>
					</trkpt>
					<trkpt lat="46.577230" lon="5.104340">
						<ele>190</ele>
						<time>2021-01-30T15:54:27Z</time>
					</trkpt>
					<trkpt lat="46.577370" lon="5.104140">
						<ele>191</ele>
						<time>2021-01-30T15:54:30Z</time>
					</trkpt>
					<trkpt lat="46.577410" lon="5.104030">
						<ele>191</ele>
						<time>2021-01-30T15:54:32Z</time>
					</trkpt>
					<trkpt lat="46.577480" lon="5.103840">
						<ele>191</ele>
						<time>2021-01-30T15:54:35Z</time>
					</trkpt>
					<trkpt lat="46.577530" lon="5.103720">
						<ele>191</ele>
						<time>2021-01-30T15:54:36Z</time>
					</trkpt>
					<trkpt lat="46.577560" lon="5.103650">
						<ele>191</ele>
						<time>2021-01-30T15:54:37Z</time>
					</trkpt>
					<trkpt lat="46.577590" lon="5.103570">
						<ele>191</ele>
						<time>2021-01-30T15:54:38Z</time>
					</trkpt>
					<trkpt lat="46.577660" lon="5.103470">
						<ele>191</ele>
						<time>2021-01-30T15:54:40Z</time>
					</trkpt>
					<trkpt lat="46.577720" lon="5.103380">
						<ele>191</ele>
						<time>2021-01-30T15:54:42Z</time>
					</trkpt>
					<trkpt lat="46.577800" lon="5.103280">
						<ele>191</ele>
						<time>2021-01-30T15:54:44Z</time>
					</trkpt>
					<trkpt lat="46.577900" lon="5.103140">
						<ele>192</ele>
						<time>2021-01-30T15:54:46Z</time>
					</trkpt>
					<trkpt lat="46.577960" lon="5.103060">
						<ele>192</ele>
						<time>2021-01-30T15:54:47Z</time>
					</trkpt>
					<trkpt lat="46.578020" lon="5.102960">
						<ele>192</ele>
						<time>2021-01-30T15:54:49Z</time>
					</trkpt>
					<trkpt lat="46.578100" lon="5.102780">
						<ele>192</ele>
						<time>2021-01-30T15:54:52Z</time>
					</trkpt>
					<trkpt lat="46.578160" lon="5.102640">
						<ele>192</ele>
						<time>2021-01-30T15:54:54Z</time>
					</trkpt>
					<trkpt lat="46.578270" lon="5.102390">
						<ele>193</ele>
						<time>2021-01-30T15:54:57Z</time>
					</trkpt>
					<trkpt lat="46.578380" lon="5.102190">
						<ele>193</ele>
						<time>2021-01-30T15:55:00Z</time>
					</trkpt>
					<trkpt lat="46.578470" lon="5.102020">
						<ele>192</ele>
						<time>2021-01-30T15:55:03Z</time>
					</trkpt>
					<trkpt lat="46.578550" lon="5.101890">
						<ele>192</ele>
						<time>2021-01-30T15:55:05Z</time>
					</trkpt>
					<trkpt lat="46.578600" lon="5.101790">
						<ele>192</ele>
						<time>2021-01-30T15:55:07Z</time>
					</trkpt>
					<trkpt lat="46.578630" lon="5.101720">
						<ele>192</ele>
						<time>2021-01-30T15:55:08Z</time>
					</trkpt>
					<trkpt lat="46.578650" lon="5.101660">
						<ele>192</ele>
						<time>2021-01-30T15:55:09Z</time>
					</trkpt>
					<trkpt lat="46.578670" lon="5.101590">
						<ele>192</ele>
						<time>2021-01-30T15:55:10Z</time>
					</trkpt>
					<trkpt lat="46.578710" lon="5.101420">
						<ele>191</ele>
						<time>2021-01-30T15:55:12Z</time>
					</trkpt>
					<trkpt lat="46.578760" lon="5.101120">
						<ele>190</ele>
						<time>2021-01-30T15:55:15Z</time>
					</trkpt>
					<trkpt lat="46.578800" lon="5.100920">
						<ele>190</ele>
						<time>2021-01-30T15:55:18Z</time>
					</trkpt>
					<trkpt lat="46.578820" lon="5.100820">
						<ele>190</ele>
						<time>2021-01-30T15:55:19Z</time>
					</trkpt>
					<trkpt lat="46.578870" lon="5.100620">
						<ele>188</ele>
						<time>2021-01-30T15:55:22Z</time>
					</trkpt>
					<trkpt lat="46.578920" lon="5.100470">
						<ele>187</ele>
						<time>2021-01-30T15:55:24Z</time>
					</trkpt>
					<trkpt lat="46.578980" lon="5.100300">
						<ele>186</ele>
						<time>2021-01-30T15:55:26Z</time>
					</trkpt>
					<trkpt lat="46.579060" lon="5.100090">
						<ele>184</ele>
						<time>2021-01-30T15:55:29Z</time>
					</trkpt>
					<trkpt lat="46.579200" lon="5.099710">
						<ele>182</ele>
						<time>2021-01-30T15:55:34Z</time>
					</trkpt>
					<trkpt lat="46.579330" lon="5.099380">
						<ele>180</ele>
						<time>2021-01-30T15:55:39Z</time>
					</trkpt>
					<trkpt lat="46.579430" lon="5.099100">
						<ele>179</ele>
						<time>2021-01-30T15:55:43Z</time>
					</trkpt>
					<trkpt lat="46.579510" lon="5.098840">
						<ele>178</ele>
						<time>2021-01-30T15:55:46Z</time>
					</trkpt>
					<trkpt lat="46.579580" lon="5.098620">
						<ele>178</ele>
						<time>2021-01-30T15:55:49Z</time>
					</trkpt>
					<trkpt lat="46.579610" lon="5.098480">
						<ele>178</ele>
						<time>2021-01-30T15:55:51Z</time>
					</trkpt>
					<trkpt lat="46.579630" lon="5.098380">
						<ele>178</ele>
						<time>2021-01-30T15:55:53Z</time>
					</trkpt>
					<trkpt lat="46.579640" lon="5.098310">
						<ele>178</ele>
						<time>2021-01-30T15:55:53Z</time>
					</trkpt>
					<trkpt lat="46.579660" lon="5.098250">
						<ele>178</ele>
						<time>2021-01-30T15:55:54Z</time>
					</trkpt>
					<trkpt lat="46.579670" lon="5.098160">
						<ele>177</ele>
						<time>2021-01-30T15:55:55Z</time>
					</trkpt>
					<trkpt lat="46.579690" lon="5.097930">
						<ele>177</ele>
						<time>2021-01-30T15:55:58Z</time>
					</trkpt>
					<trkpt lat="46.579720" lon="5.097390">
						<ele>177</ele>
						<time>2021-01-30T15:56:05Z</time>
					</trkpt>
					<trkpt lat="46.579750" lon="5.096800">
						<ele>176</ele>
						<time>2021-01-30T15:56:12Z</time>
					</trkpt>
					<trkpt lat="46.579790" lon="5.096100">
						<ele>177</ele>
						<time>2021-01-30T15:56:21Z</time>
					</trkpt>
					<trkpt lat="46.579790" lon="5.096000">
						<ele>177</ele>
						<time>2021-01-30T15:56:22Z</time>
					</trkpt>
					<trkpt lat="46.579810" lon="5.095880">
						<ele>177</ele>
						<time>2021-01-30T15:56:23Z</time>
					</trkpt>
					<trkpt lat="46.579830" lon="5.095740">
						<ele>177</ele>
						<time>2021-01-30T15:56:25Z</time>
					</trkpt>
					<trkpt lat="46.579860" lon="5.095630">
						<ele>177</ele>
						<time>2021-01-30T15:56:27Z</time>
					</trkpt>
					<trkpt lat="46.579900" lon="5.095540">
						<ele>177</ele>
						<time>2021-01-30T15:56:28Z</time>
					</trkpt>
					<trkpt lat="46.579940" lon="5.095440">
						<ele>177</ele>
						<time>2021-01-30T15:56:29Z</time>
					</trkpt>
					<trkpt lat="46.580090" lon="5.095160">
						<ele>178</ele>
						<time>2021-01-30T15:56:34Z</time>
					</trkpt>
					<trkpt lat="46.580410" lon="5.094550">
						<ele>177</ele>
						<time>2021-01-30T15:56:43Z</time>
					</trkpt>
					<trkpt lat="46.580530" lon="5.094330">
						<ele>177</ele>
						<time>2021-01-30T15:56:46Z</time>
					</trkpt>
					<trkpt lat="46.580600" lon="5.094170">
						<ele>177</ele>
						<time>2021-01-30T15:56:49Z</time>
					</trkpt>
					<trkpt lat="46.580630" lon="5.094080">
						<ele>177</ele>
						<time>2021-01-30T15:56:50Z</time>
					</trkpt>
					<trkpt lat="46.580650" lon="5.093990">
						<ele>177</ele>
						<time>2021-01-30T15:56:51Z</time>
					</trkpt>
					<trkpt lat="46.580670" lon="5.093720">
						<ele>177</ele>
						<time>2021-01-30T15:56:54Z</time>
					</trkpt>
					<trkpt lat="46.580680" lon="5.093360">
						<ele>177</ele>
						<time>2021-01-30T15:56:59Z</time>
					</trkpt>
					<trkpt lat="46.580690" lon="5.092940">
						<ele>177</ele>
						<time>2021-01-30T15:57:04Z</time>
					</trkpt>
					<trkpt lat="46.580690" lon="5.092820">
						<ele>177</ele>
						<time>2021-01-30T15:57:05Z</time>
					</trkpt>
					<trkpt lat="46.580680" lon="5.092530">
						<ele>177</ele>
						<time>2021-01-30T15:57:09Z</time>
					</trkpt>
					<trkpt lat="46.580680" lon="5.092050">
						<ele>177</ele>
						<time>2021-01-30T15:57:15Z</time>
					</trkpt>
					<trkpt lat="46.580680" lon="5.091810">
						<ele>178</ele>
						<time>2021-01-30T15:57:18Z</time>
					</trkpt>
					<trkpt lat="46.580680" lon="5.091760">
						<ele>178</ele>
						<time>2021-01-30T15:57:18Z</time>
					</trkpt>
					<trkpt lat="46.580680" lon="5.091360">
						<ele>178</ele>
						<time>2021-01-30T15:57:23Z</time>
					</trkpt>
					<trkpt lat="46.580690" lon="5.091040">
						<ele>178</ele>
						<time>2021-01-30T15:57:27Z</time>
					</trkpt>
					<trkpt lat="46.580710" lon="5.090600">
						<ele>178</ele>
						<time>2021-01-30T15:57:33Z</time>
					</trkpt>
					<trkpt lat="46.580740" lon="5.090290">
						<ele>179</ele>
						<time>2021-01-30T15:57:36Z</time>
					</trkpt>
					<trkpt lat="46.580770" lon="5.089700">
						<ele>181</ele>
						<time>2021-01-30T15:57:44Z</time>
					</trkpt>
					<trkpt lat="46.580790" lon="5.089250">
						<ele>184</ele>
						<time>2021-01-30T15:57:49Z</time>
					</trkpt>
					<trkpt lat="46.580800" lon="5.089000">
						<ele>184</ele>
						<time>2021-01-30T15:57:52Z</time>
					</trkpt>
					<trkpt lat="46.580820" lon="5.088750">
						<ele>185</ele>
						<time>2021-01-30T15:57:55Z</time>
					</trkpt>
					<trkpt lat="46.580840" lon="5.088500">
						<ele>186</ele>
						<time>2021-01-30T15:57:58Z</time>
					</trkpt>
					<trkpt lat="46.580840" lon="5.088500">
						<ele>186</ele>
						<time>2021-01-30T15:57:58Z</time>
					</trkpt>
					<trkpt lat="46.580590" lon="5.088490">
						<ele>186</ele>
						<time>2021-01-30T15:58:03Z</time>
					</trkpt>
					<trkpt lat="46.580380" lon="5.088490">
						<ele>186</ele>
						<time>2021-01-30T15:58:07Z</time>
					</trkpt>
					<trkpt lat="46.580170" lon="5.088480">
						<ele>186</ele>
						<time>2021-01-30T15:58:10Z</time>
					</trkpt>
					<trkpt lat="46.579980" lon="5.088480">
						<ele>186</ele>
						<time>2021-01-30T15:58:14Z</time>
					</trkpt>
					<trkpt lat="46.579770" lon="5.088480">
						<ele>185</ele>
						<time>2021-01-30T15:58:17Z</time>
					</trkpt>
					<trkpt lat="46.579320" lon="5.088470">
						<ele>183</ele>
						<time>2021-01-30T15:58:25Z</time>
					</trkpt>
					<trkpt lat="46.579290" lon="5.088470">
						<ele>183</ele>
						<time>2021-01-30T15:58:26Z</time>
					</trkpt>
					<trkpt lat="46.579240" lon="5.088470">
						<ele>183</ele>
						<time>2021-01-30T15:58:27Z</time>
					</trkpt>
					<trkpt lat="46.578960" lon="5.088470">
						<ele>182</ele>
						<time>2021-01-30T15:58:32Z</time>
					</trkpt>
					<trkpt lat="46.578730" lon="5.088470">
						<ele>182</ele>
						<time>2021-01-30T15:58:36Z</time>
					</trkpt>
					<trkpt lat="46.578640" lon="5.088470">
						<ele>182</ele>
						<time>2021-01-30T15:58:38Z</time>
					</trkpt>
					<trkpt lat="46.578570" lon="5.088480">
						<ele>182</ele>
						<time>2021-01-30T15:58:39Z</time>
					</trkpt>
					<trkpt lat="46.578430" lon="5.088500">
						<ele>182</ele>
						<time>2021-01-30T15:58:41Z</time>
					</trkpt>
					<trkpt lat="46.578300" lon="5.088540">
						<ele>181</ele>
						<time>2021-01-30T15:58:44Z</time>
					</trkpt>
					<trkpt lat="46.577760" lon="5.088730">
						<ele>180</ele>
						<time>2021-01-30T15:58:54Z</time>
					</trkpt>
					<trkpt lat="46.576980" lon="5.089010">
						<ele>180</ele>
						<time>2021-01-30T15:59:08Z</time>
					</trkpt>
					<trkpt lat="46.576770" lon="5.089090">
						<ele>181</ele>
						<time>2021-01-30T15:59:12Z</time>
					</trkpt>
					<trkpt lat="46.576670" lon="5.089160">
						<ele>181</ele>
						<time>2021-01-30T15:59:14Z</time>
					</trkpt>
					<trkpt lat="46.576640" lon="5.089180">
						<ele>181</ele>
						<time>2021-01-30T15:59:14Z</time>
					</trkpt>
					<trkpt lat="46.576350" lon="5.089410">
						<ele>181</ele>
						<time>2021-01-30T15:59:20Z</time>
					</trkpt>
					<trkpt lat="46.575600" lon="5.090110">
						<ele>182</ele>
						<time>2021-01-30T15:59:36Z</time>
					</trkpt>
					<trkpt lat="46.575150" lon="5.090510">
						<ele>182</ele>
						<time>2021-01-30T15:59:45Z</time>
					</trkpt>
					<trkpt lat="46.574950" lon="5.090690">
						<ele>182</ele>
						<time>2021-01-30T15:59:50Z</time>
					</trkpt>
					<trkpt lat="46.574860" lon="5.090760">
						<ele>182</ele>
						<time>2021-01-30T15:59:51Z</time>
					</trkpt>
					<trkpt lat="46.574590" lon="5.091030">
						<ele>182</ele>
						<time>2021-01-30T15:59:57Z</time>
					</trkpt>
					<trkpt lat="46.574430" lon="5.091180">
						<ele>182</ele>
						<time>2021-01-30T16:00:01Z</time>
					</trkpt>
					<trkpt lat="46.574220" lon="5.091450">
						<ele>182</ele>
						<time>2021-01-30T16:00:06Z</time>
					</trkpt>
					<trkpt lat="46.574140" lon="5.091540">
						<ele>182</ele>
						<time>2021-01-30T16:00:07Z</time>
					</trkpt>
					<trkpt lat="46.574030" lon="5.091610">
						<ele>181</ele>
						<time>2021-01-30T16:00:10Z</time>
					</trkpt>
					<trkpt lat="46.573870" lon="5.091710">
						<ele>181</ele>
						<time>2021-01-30T16:00:13Z</time>
					</trkpt>
					<trkpt lat="46.573760" lon="5.091770">
						<ele>181</ele>
						<time>2021-01-30T16:00:15Z</time>
					</trkpt>
					<trkpt lat="46.573720" lon="5.091790">
						<ele>180</ele>
						<time>2021-01-30T16:00:16Z</time>
					</trkpt>
					<trkpt lat="46.573540" lon="5.091910">
						<ele>180</ele>
						<time>2021-01-30T16:00:19Z</time>
					</trkpt>
					<trkpt lat="46.573310" lon="5.092070">
						<ele>179</ele>
						<time>2021-01-30T16:00:24Z</time>
					</trkpt>
					<trkpt lat="46.573150" lon="5.092160">
						<ele>178</ele>
						<time>2021-01-30T16:00:27Z</time>
					</trkpt>
					<trkpt lat="46.572940" lon="5.092240">
						<ele>177</ele>
						<time>2021-01-30T16:00:30Z</time>
					</trkpt>
					<trkpt lat="46.572650" lon="5.092340">
						<ele>176</ele>
						<time>2021-01-30T16:00:36Z</time>
					</trkpt>
					<trkpt lat="46.572540" lon="5.092410">
						<ele>175</ele>
						<time>2021-01-30T16:00:38Z</time>
					</trkpt>
					<trkpt lat="46.572500" lon="5.092470">
						<ele>175</ele>
						<time>2021-01-30T16:00:39Z</time>
					</trkpt>
					<trkpt lat="46.572480" lon="5.092520">
						<ele>175</ele>
						<time>2021-01-30T16:00:40Z</time>
					</trkpt>
					<trkpt lat="46.572470" lon="5.092570">
						<ele>175</ele>
						<time>2021-01-30T16:00:40Z</time>
					</trkpt>
					<trkpt lat="46.572470" lon="5.092610">
						<ele>175</ele>
						<time>2021-01-30T16:00:41Z</time>
					</trkpt>
					<trkpt lat="46.572460" lon="5.092670">
						<ele>175</ele>
						<time>2021-01-30T16:00:42Z</time>
					</trkpt>
					<trkpt lat="46.572470" lon="5.092840">
						<ele>175</ele>
						<time>2021-01-30T16:00:44Z</time>
					</trkpt>
					<trkpt lat="46.572470" lon="5.092910">
						<ele>175</ele>
						<time>2021-01-30T16:00:44Z</time>
					</trkpt>
					<trkpt lat="46.572470" lon="5.092990">
						<ele>176</ele>
						<time>2021-01-30T16:00:45Z</time>
					</trkpt>
					<trkpt lat="46.572470" lon="5.093030">
						<ele>176</ele>
						<time>2021-01-30T16:00:46Z</time>
					</trkpt>
					<trkpt lat="46.572470" lon="5.093060">
						<ele>176</ele>
						<time>2021-01-30T16:00:46Z</time>
					</trkpt>
					<trkpt lat="46.572470" lon="5.093120">
						<ele>176</ele>
						<time>2021-01-30T16:00:47Z</time>
					</trkpt>
					<trkpt lat="46.572460" lon="5.093210">
						<ele>176</ele>
						<time>2021-01-30T16:00:48Z</time>
					</trkpt>
					<trkpt lat="46.572450" lon="5.093360">
						<ele>176</ele>
						<time>2021-01-30T16:00:50Z</time>
					</trkpt>
					<trkpt lat="46.572460" lon="5.093430">
						<ele>176</ele>
						<time>2021-01-30T16:00:51Z</time>
					</trkpt>
					<trkpt lat="46.572490" lon="5.093470">
						<ele>176</ele>
						<time>2021-01-30T16:00:52Z</time>
					</trkpt>
					<trkpt lat="46.572650" lon="5.093730">
						<ele>177</ele>
						<time>2021-01-30T16:00:56Z</time>
					</trkpt>
					<trkpt lat="46.572780" lon="5.094010">
						<ele>177</ele>
						<time>2021-01-30T16:01:00Z</time>
					</trkpt>
					<trkpt lat="46.572880" lon="5.094190">
						<ele>178</ele>
						<time>2021-01-30T16:01:03Z</time>
					</trkpt>
					<trkpt lat="46.572930" lon="5.094260">
						<ele>178</ele>
						<time>2021-01-30T16:01:04Z</time>
					</trkpt>
					<trkpt lat="46.573020" lon="5.094370">
						<ele>178</ele>
						<time>2021-01-30T16:01:06Z</time>
					</trkpt>
					<trkpt lat="46.573150" lon="5.094470">
						<ele>178</ele>
						<time>2021-01-30T16:01:09Z</time>
					</trkpt>
					<trkpt lat="46.573310" lon="5.094560">
						<ele>178</ele>
						<time>2021-01-30T16:01:12Z</time>
					</trkpt>
					<trkpt lat="46.573540" lon="5.094710">
						<ele>178</ele>
						<time>2021-01-30T16:01:16Z</time>
					</trkpt>
					<trkpt lat="46.573570" lon="5.094730">
						<ele>177</ele>
						<time>2021-01-30T16:01:17Z</time>
					</trkpt>
					<trkpt lat="46.573660" lon="5.094790">
						<ele>177</ele>
						<time>2021-01-30T16:01:19Z</time>
					</trkpt>
					<trkpt lat="46.573710" lon="5.094820">
						<ele>177</ele>
						<time>2021-01-30T16:01:20Z</time>
					</trkpt>
					<trkpt lat="46.573750" lon="5.094860">
						<ele>177</ele>
						<time>2021-01-30T16:01:20Z</time>
					</trkpt>
					<trkpt lat="46.573770" lon="5.094900">
						<ele>177</ele>
						<time>2021-01-30T16:01:21Z</time>
					</trkpt>
					<trkpt lat="46.573780" lon="5.094960">
						<ele>177</ele>
						<time>2021-01-30T16:01:22Z</time>
					</trkpt>
					<trkpt lat="46.573800" lon="5.095020">
						<ele>177</ele>
						<time>2021-01-30T16:01:23Z</time>
					</trkpt>
					<trkpt lat="46.573800" lon="5.095090">
						<ele>176</ele>
						<time>2021-01-30T16:01:24Z</time>
					</trkpt>
					<trkpt lat="46.573800" lon="5.095110">
						<ele>176</ele>
						<time>2021-01-30T16:01:24Z</time>
					</trkpt>
					<trkpt lat="46.573800" lon="5.095250">
						<ele>176</ele>
						<time>2021-01-30T16:01:25Z</time>
					</trkpt>
					<trkpt lat="46.573780" lon="5.095340">
						<ele>176</ele>
						<time>2021-01-30T16:01:27Z</time>
					</trkpt>
					<trkpt lat="46.573740" lon="5.095470">
						<ele>176</ele>
						<time>2021-01-30T16:01:28Z</time>
					</trkpt>
					<trkpt lat="46.573720" lon="5.095590">
						<ele>176</ele>
						<time>2021-01-30T16:01:30Z</time>
					</trkpt>
					<trkpt lat="46.573680" lon="5.095910">
						<ele>176</ele>
						<time>2021-01-30T16:01:34Z</time>
					</trkpt>
					<trkpt lat="46.573680" lon="5.095910">
						<ele>176</ele>
						<time>2021-01-30T16:01:34Z</time>
					</trkpt>
					<trkpt lat="46.573670" lon="5.096050">
						<ele>176</ele>
						<time>2021-01-30T16:01:36Z</time>
					</trkpt>
					<trkpt lat="46.573670" lon="5.096370">
						<ele>176</ele>
						<time>2021-01-30T16:01:40Z</time>
					</trkpt>
					<trkpt lat="46.573670" lon="5.096660">
						<ele>176</ele>
						<time>2021-01-30T16:01:43Z</time>
					</trkpt>
					<trkpt lat="46.573670" lon="5.096770">
						<ele>176</ele>
						<time>2021-01-30T16:01:44Z</time>
					</trkpt>
					<trkpt lat="46.573700" lon="5.096900">
						<ele>176</ele>
						<time>2021-01-30T16:01:46Z</time>
					</trkpt>
					<trkpt lat="46.573730" lon="5.097000">
						<ele>176</ele>
						<time>2021-01-30T16:01:47Z</time>
					</trkpt>
					<trkpt lat="46.573780" lon="5.097090">
						<ele>176</ele>
						<time>2021-01-30T16:01:49Z</time>
					</trkpt>
					<trkpt lat="46.573890" lon="5.097270">
						<ele>176</ele>
						<time>2021-01-30T16:01:52Z</time>
					</trkpt>
					<trkpt lat="46.574150" lon="5.097670">
						<ele>178</ele>
						<time>2021-01-30T16:01:59Z</time>
					</trkpt>
					<trkpt lat="46.574400" lon="5.098030">
						<ele>178</ele>
						<time>2021-01-30T16:02:05Z</time>
					</trkpt>
					<trkpt lat="46.574600" lon="5.098260">
						<ele>178</ele>
						<time>2021-01-30T16:02:09Z</time>
					</trkpt>
					<trkpt lat="46.574790" lon="5.098490">
						<ele>178</ele>
						<time>2021-01-30T16:02:14Z</time>
					</trkpt>
					<trkpt lat="46.574820" lon="5.098560">
						<ele>178</ele>
						<time>2021-01-30T16:02:15Z</time>
					</trkpt>
					<trkpt lat="46.574830" lon="5.098620">
						<ele>178</ele>
						<time>2021-01-30T16:02:15Z</time>
					</trkpt>
					<trkpt lat="46.574820" lon="5.098690">
						<ele>178</ele>
						<time>2021-01-30T16:02:16Z</time>
					</trkpt>
					<trkpt lat="46.574800" lon="5.098750">
						<ele>178</ele>
						<time>2021-01-30T16:02:17Z</time>
					</trkpt>
					<trkpt lat="46.574700" lon="5.098970">
						<ele>179</ele>
						<time>2021-01-30T16:02:20Z</time>
					</trkpt>
					<trkpt lat="46.574670" lon="5.099030">
						<ele>180</ele>
						<time>2021-01-30T16:02:21Z</time>
					</trkpt>
					<trkpt lat="46.574660" lon="5.099150">
						<ele>180</ele>
						<time>2021-01-30T16:02:23Z</time>
					</trkpt>
					<trkpt lat="46.574640" lon="5.099730">
						<ele>178</ele>
						<time>2021-01-30T16:02:30Z</time>
					</trkpt>
					<trkpt lat="46.574630" lon="5.100320">
						<ele>177</ele>
						<time>2021-01-30T16:02:37Z</time>
					</trkpt>
					<trkpt lat="46.574630" lon="5.100450">
						<ele>177</ele>
						<time>2021-01-30T16:02:39Z</time>
					</trkpt>
					<trkpt lat="46.574640" lon="5.100530">
						<ele>177</ele>
						<time>2021-01-30T16:02:40Z</time>
					</trkpt>
					<trkpt lat="46.574660" lon="5.100620">
						<ele>177</ele>
						<time>2021-01-30T16:02:41Z</time>
					</trkpt>
					<trkpt lat="46.574690" lon="5.100700">
						<ele>177</ele>
						<time>2021-01-30T16:02:42Z</time>
					</trkpt>
					<trkpt lat="46.574790" lon="5.100830">
						<ele>177</ele>
						<time>2021-01-30T16:02:44Z</time>
					</trkpt>
					<trkpt lat="46.574880" lon="5.100940">
						<ele>177</ele>
						<time>2021-01-30T16:02:46Z</time>
					</trkpt>
					<trkpt lat="46.575020" lon="5.101160">
						<ele>177</ele>
						<time>2021-01-30T16:02:50Z</time>
					</trkpt>
					<trkpt lat="46.575110" lon="5.101310">
						<ele>177</ele>
						<time>2021-01-30T16:02:53Z</time>
					</trkpt>
					<trkpt lat="46.575160" lon="5.101440">
						<ele>177</ele>
						<time>2021-01-30T16:02:54Z</time>
					</trkpt>
					<trkpt lat="46.575160" lon="5.101440">
						<ele>177</ele>
						<time>2021-01-30T16:02:54Z</time>
					</trkpt>
					<trkpt lat="46.575210" lon="5.101460">
						<ele>177</ele>
						<time>2021-01-30T16:02:55Z</time>
					</trkpt>
					<trkpt lat="46.575250" lon="5.101480">
						<ele>177</ele>
						<time>2021-01-30T16:02:56Z</time>
					</trkpt>
					<trkpt lat="46.575330" lon="5.101570">
						<ele>177</ele>
						<time>2021-01-30T16:02:58Z</time>
					</trkpt>
					<trkpt lat="46.575400" lon="5.101710">
						<ele>177</ele>
						<time>2021-01-30T16:03:00Z</time>
					</trkpt>
					<trkpt lat="46.575500" lon="5.101970">
						<ele>177</ele>
						<time>2021-01-30T16:03:04Z</time>
					</trkpt>
					<trkpt lat="46.575550" lon="5.102080">
						<ele>178</ele>
						<time>2021-01-30T16:03:05Z</time>
					</trkpt>
					<trkpt lat="46.575590" lon="5.102190">
						<ele>178</ele>
						<time>2021-01-30T16:03:07Z</time>
					</trkpt>
					<trkpt lat="46.575670" lon="5.102360">
						<ele>178</ele>
						<time>2021-01-30T16:03:09Z</time>
					</trkpt>
					<trkpt lat="46.575760" lon="5.102540">
						<ele>179</ele>
						<time>2021-01-30T16:03:12Z</time>
					</trkpt>
					<trkpt lat="46.575850" lon="5.102660">
						<ele>180</ele>
						<time>2021-01-30T16:03:14Z</time>
					</trkpt>
					<trkpt lat="46.575950" lon="5.102790">
						<ele>181</ele>
						<time>2021-01-30T16:03:17Z</time>
					</trkpt>
					<trkpt lat="46.576100" lon="5.102910">
						<ele>182</ele>
						<time>2021-01-30T16:03:20Z</time>
					</trkpt>
					<trkpt lat="46.576290" lon="5.103040">
						<ele>184</ele>
						<time>2021-01-30T16:03:23Z</time>
					</trkpt>
					<trkpt lat="46.576560" lon="5.103190">
						<ele>186</ele>
						<time>2021-01-30T16:03:28Z</time>
					</trkpt>
					<trkpt lat="46.576920" lon="5.103450">
						<ele>188</ele>
						<time>2021-01-30T16:03:36Z</time>
					</trkpt>
					<trkpt lat="46.577180" lon="5.103640">
						<ele>190</ele>
						<time>2021-01-30T16:03:41Z</time>
					</trkpt>
					<trkpt lat="46.577280" lon="5.103710">
						<ele>190</ele>
						<time>2021-01-30T16:03:43Z</time>
					</trkpt>
					<trkpt lat="46.577360" lon="5.103760">
						<ele>191</ele>
						<time>2021-01-30T16:03:44Z</time>
					</trkpt>
					<trkpt lat="46.577480" lon="5.103840">
						<ele>191</ele>
						<time>2021-01-30T16:03:47Z</time>
					</trkpt>
					<trkpt lat="46.577480" lon="5.103840">
						<ele>191</ele>
						<time>2021-01-30T16:03:47Z</time>
					</trkpt>
					<trkpt lat="46.577410" lon="5.104030">
						<ele>191</ele>
						<time>2021-01-30T16:03:49Z</time>
					</trkpt>
					<trkpt lat="46.577370" lon="5.104140">
						<ele>191</ele>
						<time>2021-01-30T16:03:51Z</time>
					</trkpt>
					<trkpt lat="46.577230" lon="5.104340">
						<ele>190</ele>
						<time>2021-01-30T16:03:54Z</time>
					</trkpt>
					<trkpt lat="46.577130" lon="5.104520">
						<ele>190</ele>
						<time>2021-01-30T16:03:57Z</time>
					</trkpt>
					<trkpt lat="46.577010" lon="5.104800">
						<ele>191</ele>
						<time>2021-01-30T16:04:01Z</time>
					</trkpt>
					<trkpt lat="46.576930" lon="5.105010">
						<ele>191</ele>
						<time>2021-01-30T16:04:04Z</time>
					</trkpt>
					<trkpt lat="46.576880" lon="5.105250">
						<ele>191</ele>
						<time>2021-01-30T16:04:07Z</time>
					</trkpt>
					<trkpt lat="46.576870" lon="5.105330">
						<ele>192</ele>
						<time>2021-01-30T16:04:08Z</time>
					</trkpt>
					<trkpt lat="46.576850" lon="5.105480">
						<ele>192</ele>
						<time>2021-01-30T16:04:10Z</time>
					</trkpt>
					<trkpt lat="46.576830" lon="5.105730">
						<ele>192</ele>
						<time>2021-01-30T16:04:13Z</time>
					</trkpt>
					<trkpt lat="46.576800" lon="5.105920">
						<ele>193</ele>
						<time>2021-01-30T16:04:15Z</time>
					</trkpt>
					<trkpt lat="46.576770" lon="5.106190">
						<ele>193</ele>
						<time>2021-01-30T16:04:19Z</time>
					</trkpt>
					<trkpt lat="46.576730" lon="5.106350">
						<ele>193</ele>
						<time>2021-01-30T16:04:21Z</time>
					</trkpt>
					<trkpt lat="46.576690" lon="5.106460">
						<ele>193</ele>
						<time>2021-01-30T16:04:22Z</time>
					</trkpt>
					<trkpt lat="46.576620" lon="5.106600">
						<ele>193</ele>
						<time>2021-01-30T16:04:25Z</time>
					</trkpt>
					<trkpt lat="46.576550" lon="5.106720">
						<ele>193</ele>
						<time>2021-01-30T16:04:26Z</time>
					</trkpt>
					<trkpt lat="46.576460" lon="5.106820">
						<ele>193</ele>
						<time>2021-01-30T16:04:28Z</time>
					</trkpt>
					<trkpt lat="46.576310" lon="5.106970">
						<ele>192</ele>
						<time>2021-01-30T16:04:32Z</time>
					</trkpt>
					<trkpt lat="46.576220" lon="5.107120">
						<ele>192</ele>
						<time>2021-01-30T16:04:34Z</time>
					</trkpt>
					<trkpt lat="46.576130" lon="5.107300">
						<ele>192</ele>
						<time>2021-01-30T16:04:37Z</time>
					</trkpt>
					<trkpt lat="46.576100" lon="5.107440">
						<ele>192</ele>
						<time>2021-01-30T16:04:39Z</time>
					</trkpt>
					<trkpt lat="46.576080" lon="5.107530">
						<ele>192</ele>
						<time>2021-01-30T16:04:40Z</time>
					</trkpt>
					<trkpt lat="46.576070" lon="5.107600">
						<ele>192</ele>
						<time>2021-01-30T16:04:41Z</time>
					</trkpt>
					<trkpt lat="46.576070" lon="5.107690">
						<ele>192</ele>
						<time>2021-01-30T16:04:42Z</time>
					</trkpt>
					<trkpt lat="46.576070" lon="5.107850">
						<ele>193</ele>
						<time>2021-01-30T16:04:44Z</time>
					</trkpt>
					<trkpt lat="46.576080" lon="5.108030">
						<ele>193</ele>
						<time>2021-01-30T16:04:46Z</time>
					</trkpt>
					<trkpt lat="46.576100" lon="5.108290">
						<ele>193</ele>
						<time>2021-01-30T16:04:49Z</time>
					</trkpt>
					<trkpt lat="46.576130" lon="5.108470">
						<ele>194</ele>
						<time>2021-01-30T16:04:51Z</time>
					</trkpt>
					<trkpt lat="46.576160" lon="5.108600">
						<ele>194</ele>
						<time>2021-01-30T16:04:53Z</time>
					</trkpt>
					<trkpt lat="46.576210" lon="5.108820">
						<ele>194</ele>
						<time>2021-01-30T16:04:56Z</time>
					</trkpt>
					<trkpt lat="46.576270" lon="5.109050">
						<ele>194</ele>
						<time>2021-01-30T16:04:59Z</time>
					</trkpt>
					<trkpt lat="46.576290" lon="5.109190">
						<ele>195</ele>
						<time>2021-01-30T16:05:01Z</time>
					</trkpt>
					<trkpt lat="46.576410" lon="5.109300">
						<ele>195</ele>
						<time>2021-01-30T16:05:03Z</time>
					</trkpt>
					<trkpt lat="46.576590" lon="5.109400">
						<ele>195</ele>
						<time>2021-01-30T16:05:07Z</time>
					</trkpt>
					<trkpt lat="46.576960" lon="5.109540">
						<ele>195</ele>
						<time>2021-01-30T16:05:13Z</time>
					</trkpt>
					<trkpt lat="46.577230" lon="5.109680">
						<ele>195</ele>
						<time>2021-01-30T16:05:19Z</time>
					</trkpt>
					<trkpt lat="46.577460" lon="5.109780">
						<ele>195</ele>
						<time>2021-01-30T16:05:23Z</time>
					</trkpt>
					<trkpt lat="46.577680" lon="5.109840">
						<ele>194</ele>
						<time>2021-01-30T16:05:27Z</time>
					</trkpt>
					<trkpt lat="46.577980" lon="5.109900">
						<ele>194</ele>
						<time>2021-01-30T16:05:32Z</time>
					</trkpt>
					<trkpt lat="46.578300" lon="5.109960">
						<ele>193</ele>
						<time>2021-01-30T16:05:38Z</time>
					</trkpt>
					<trkpt lat="46.578660" lon="5.110040">
						<ele>192</ele>
						<time>2021-01-30T16:05:44Z</time>
					</trkpt>
					<trkpt lat="46.579030" lon="5.110120">
						<ele>191</ele>
						<time>2021-01-30T16:05:51Z</time>
					</trkpt>
					<trkpt lat="46.579310" lon="5.110180">
						<ele>191</ele>
						<time>2021-01-30T16:05:56Z</time>
					</trkpt>
					<trkpt lat="46.579480" lon="5.110230">
						<ele>191</ele>
						<time>2021-01-30T16:05:59Z</time>
					</trkpt>
					<trkpt lat="46.579670" lon="5.110290">
						<ele>191</ele>
						<time>2021-01-30T16:06:03Z</time>
					</trkpt>
					<trkpt lat="46.579920" lon="5.110420">
						<ele>192</ele>
						<time>2021-01-30T16:06:07Z</time>
					</trkpt>
					<trkpt lat="46.580220" lon="5.110580">
						<ele>193</ele>
						<time>2021-01-30T16:06:13Z</time>
					</trkpt>
					<trkpt lat="46.580500" lon="5.110750">
						<ele>194</ele>
						<time>2021-01-30T16:06:18Z</time>
					</trkpt>
					<trkpt lat="46.580610" lon="5.110810">
						<ele>194</ele>
						<time>2021-01-30T16:06:21Z</time>
					</trkpt>
					<trkpt lat="46.580920" lon="5.110990">
						<ele>195</ele>
						<time>2021-01-30T16:06:27Z</time>
					</trkpt>
					<trkpt lat="46.581250" lon="5.111170">
						<ele>194</ele>
						<time>2021-01-30T16:06:33Z</time>
					</trkpt>
					<trkpt lat="46.581280" lon="5.111180">
						<ele>194</ele>
						<time>2021-01-30T16:06:33Z</time>
					</trkpt>
					<trkpt lat="46.581510" lon="5.111320">
						<ele>194</ele>
						<time>2021-01-30T16:06:38Z</time>
					</trkpt>
					<trkpt lat="46.581680" lon="5.111400">
						<ele>194</ele>
						<time>2021-01-30T16:06:41Z</time>
					</trkpt>
					<trkpt lat="46.581780" lon="5.111440">
						<ele>194</ele>
						<time>2021-01-30T16:06:43Z</time>
					</trkpt>
					<trkpt lat="46.581860" lon="5.111460">
						<ele>193</ele>
						<time>2021-01-30T16:06:44Z</time>
					</trkpt>
					<trkpt lat="46.581920" lon="5.111470">
						<ele>193</ele>
						<time>2021-01-30T16:06:45Z</time>
					</trkpt>
					<trkpt lat="46.582130" lon="5.111480">
						<ele>192</ele>
						<time>2021-01-30T16:06:49Z</time>
					</trkpt>
					<trkpt lat="46.582460" lon="5.111490">
						<ele>191</ele>
						<time>2021-01-30T16:06:55Z</time>
					</trkpt>
					<trkpt lat="46.582680" lon="5.111500">
						<ele>190</ele>
						<time>2021-01-30T16:06:59Z</time>
					</trkpt>
					<trkpt lat="46.582790" lon="5.111510">
						<ele>189</ele>
						<time>2021-01-30T16:07:01Z</time>
					</trkpt>
					<trkpt lat="46.582880" lon="5.111530">
						<ele>189</ele>
						<time>2021-01-30T16:07:02Z</time>
					</trkpt>
					<trkpt lat="46.583130" lon="5.111640">
						<ele>188</ele>
						<time>2021-01-30T16:07:07Z</time>
					</trkpt>
					<trkpt lat="46.583240" lon="5.111710">
						<ele>187</ele>
						<time>2021-01-30T16:07:09Z</time>
					</trkpt>
					<trkpt lat="46.583240" lon="5.111710">
						<ele>187</ele>
						<time>2021-01-30T16:07:09Z</time>
					</trkpt>
					<trkpt lat="46.583230" lon="5.111770">
						<ele>187</ele>
						<time>2021-01-30T16:07:10Z</time>
					</trkpt>
					<trkpt lat="46.583190" lon="5.111970">
						<ele>187</ele>
						<time>2021-01-30T16:07:13Z</time>
					</trkpt>
					<trkpt lat="46.583150" lon="5.112330">
						<ele>187</ele>
						<time>2021-01-30T16:07:17Z</time>
					</trkpt>
					<trkpt lat="46.583090" lon="5.112800">
						<ele>187</ele>
						<time>2021-01-30T16:07:23Z</time>
					</trkpt>
					<trkpt lat="46.583070" lon="5.113220">
						<ele>187</ele>
						<time>2021-01-30T16:07:28Z</time>
					</trkpt>
					<trkpt lat="46.583060" lon="5.113600">
						<ele>187</ele>
						<time>2021-01-30T16:07:33Z</time>
					</trkpt>
					<trkpt lat="46.583060" lon="5.114010">
						<ele>188</ele>
						<time>2021-01-30T16:07:38Z</time>
					</trkpt>
					<trkpt lat="46.583080" lon="5.114520">
						<ele>189</ele>
						<time>2021-01-30T16:07:44Z</time>
					</trkpt>
					<trkpt lat="46.583130" lon="5.115520">
						<ele>192</ele>
						<time>2021-01-30T16:07:56Z</time>
					</trkpt>
					<trkpt lat="46.583140" lon="5.115930">
						<ele>192</ele>
						<time>2021-01-30T16:08:01Z</time>
					</trkpt>
					<trkpt lat="46.583150" lon="5.116270">
						<ele>193</ele>
						<time>2021-01-30T16:08:05Z</time>
					</trkpt>
					<trkpt lat="46.583150" lon="5.116380">
						<ele>193</ele>
						<time>2021-01-30T16:08:07Z</time>
					</trkpt>
					<trkpt lat="46.583160" lon="5.116460">
						<ele>193</ele>
						<time>2021-01-30T16:08:08Z</time>
					</trkpt>
					<trkpt lat="46.583150" lon="5.116570">
						<ele>193</ele>
						<time>2021-01-30T16:08:09Z</time>
					</trkpt>
					<trkpt lat="46.583130" lon="5.116810">
						<ele>193</ele>
						<time>2021-01-30T16:08:12Z</time>
					</trkpt>
					<trkpt lat="46.583110" lon="5.117070">
						<ele>193</ele>
						<time>2021-01-30T16:08:15Z</time>
					</trkpt>
					<trkpt lat="46.583050" lon="5.117370">
						<ele>192</ele>
						<time>2021-01-30T16:08:19Z</time>
					</trkpt>
					<trkpt lat="46.582940" lon="5.117830">
						<ele>192</ele>
						<time>2021-01-30T16:08:25Z</time>
					</trkpt>
					<trkpt lat="46.582720" lon="5.118710">
						<ele>193</ele>
						<time>2021-01-30T16:08:36Z</time>
					</trkpt>
					<trkpt lat="46.582560" lon="5.119340">
						<ele>195</ele>
						<time>2021-01-30T16:08:45Z</time>
					</trkpt>
					<trkpt lat="46.582520" lon="5.119500">
						<ele>195</ele>
						<time>2021-01-30T16:08:47Z</time>
					</trkpt>
					<trkpt lat="46.582510" lon="5.119650">
						<ele>195</ele>
						<time>2021-01-30T16:08:49Z</time>
					</trkpt>
					<trkpt lat="46.582510" lon="5.119760">
						<ele>195</ele>
						<time>2021-01-30T16:08:50Z</time>
					</trkpt>
					<trkpt lat="46.582510" lon="5.119840">
						<ele>195</ele>
						<time>2021-01-30T16:08:51Z</time>
					</trkpt>
					<trkpt lat="46.582520" lon="5.119910">
						<ele>195</ele>
						<time>2021-01-30T16:08:52Z</time>
					</trkpt>
					<trkpt lat="46.582530" lon="5.120090">
						<ele>195</ele>
						<time>2021-01-30T16:08:54Z</time>
					</trkpt>
					<trkpt lat="46.582540" lon="5.120250">
						<ele>194</ele>
						<time>2021-01-30T16:08:56Z</time>
					</trkpt>
					<trkpt lat="46.582560" lon="5.120420">
						<ele>194</ele>
						<time>2021-01-30T16:08:58Z</time>
					</trkpt>
					<trkpt lat="46.582550" lon="5.120580">
						<ele>193</ele>
						<time>2021-01-30T16:09:00Z</time>
					</trkpt>
					<trkpt lat="46.582550" lon="5.120670">
						<ele>193</ele>
						<time>2021-01-30T16:09:01Z</time>
					</trkpt>
					<trkpt lat="46.582530" lon="5.120800">
						<ele>193</ele>
						<time>2021-01-30T16:09:03Z</time>
					</trkpt>
					<trkpt lat="46.582510" lon="5.120880">
						<ele>193</ele>
						<time>2021-01-30T16:09:04Z</time>
					</trkpt>
					<trkpt lat="46.582480" lon="5.120950">
						<ele>192</ele>
						<time>2021-01-30T16:09:05Z</time>
					</trkpt>
					<trkpt lat="46.582430" lon="5.121070">
						<ele>192</ele>
						<time>2021-01-30T16:09:06Z</time>
					</trkpt>
					<trkpt lat="46.582390" lon="5.121170">
						<ele>191</ele>
						<time>2021-01-30T16:09:08Z</time>
					</trkpt>
					<trkpt lat="46.582360" lon="5.121250">
						<ele>191</ele>
						<time>2021-01-30T16:09:09Z</time>
					</trkpt>
					<trkpt lat="46.582310" lon="5.121390">
						<ele>190</ele>
						<time>2021-01-30T16:09:11Z</time>
					</trkpt>
					<trkpt lat="46.582260" lon="5.121520">
						<ele>189</ele>
						<time>2021-01-30T16:09:13Z</time>
					</trkpt>
					<trkpt lat="46.582200" lon="5.121660">
						<ele>189</ele>
						<time>2021-01-30T16:09:15Z</time>
					</trkpt>
					<trkpt lat="46.582050" lon="5.121960">
						<ele>189</ele>
						<time>2021-01-30T16:09:19Z</time>
					</trkpt>
					<trkpt lat="46.581990" lon="5.122060">
						<ele>189</ele>
						<time>2021-01-30T16:09:21Z</time>
					</trkpt>
					<trkpt lat="46.581900" lon="5.122230">
						<ele>189</ele>
						<time>2021-01-30T16:09:24Z</time>
					</trkpt>
					<trkpt lat="46.581850" lon="5.122340">
						<ele>189</ele>
						<time>2021-01-30T16:09:25Z</time>
					</trkpt>
					<trkpt lat="46.581810" lon="5.122440">
						<ele>189</ele>
						<time>2021-01-30T16:09:27Z</time>
					</trkpt>
					<trkpt lat="46.581770" lon="5.122590">
						<ele>190</ele>
						<time>2021-01-30T16:09:29Z</time>
					</trkpt>
					<trkpt lat="46.581710" lon="5.122870">
						<ele>190</ele>
						<time>2021-01-30T16:09:32Z</time>
					</trkpt>
					<trkpt lat="46.581670" lon="5.123160">
						<ele>191</ele>
						<time>2021-01-30T16:09:36Z</time>
					</trkpt>
					<trkpt lat="46.581610" lon="5.123540">
						<ele>192</ele>
						<time>2021-01-30T16:09:41Z</time>
					</trkpt>
					<trkpt lat="46.581560" lon="5.123840">
						<ele>192</ele>
						<time>2021-01-30T16:09:44Z</time>
					</trkpt>
					<trkpt lat="46.581480" lon="5.124140">
						<ele>193</ele>
						<time>2021-01-30T16:09:48Z</time>
					</trkpt>
					<trkpt lat="46.581370" lon="5.124740">
						<ele>191</ele>
						<time>2021-01-30T16:09:56Z</time>
					</trkpt>
					<trkpt lat="46.581330" lon="5.125040">
						<ele>190</ele>
						<time>2021-01-30T16:10:00Z</time>
					</trkpt>
					<trkpt lat="46.581310" lon="5.125210">
						<ele>190</ele>
						<time>2021-01-30T16:10:02Z</time>
					</trkpt>
					<trkpt lat="46.581310" lon="5.125330">
						<ele>190</ele>
						<time>2021-01-30T16:10:03Z</time>
					</trkpt>
					<trkpt lat="46.581320" lon="5.125560">
						<ele>189</ele>
						<time>2021-01-30T16:10:06Z</time>
					</trkpt>
					<trkpt lat="46.581340" lon="5.125790">
						<ele>189</ele>
						<time>2021-01-30T16:10:09Z</time>
					</trkpt>
					<trkpt lat="46.581420" lon="5.126600">
						<ele>191</ele>
						<time>2021-01-30T16:10:19Z</time>
					</trkpt>
					<trkpt lat="46.581490" lon="5.127260">
						<ele>194</ele>
						<time>2021-01-30T16:10:27Z</time>
					</trkpt>
					<trkpt lat="46.581500" lon="5.127420">
						<ele>195</ele>
						<time>2021-01-30T16:10:29Z</time>
					</trkpt>
					<trkpt lat="46.581500" lon="5.127550">
						<ele>195</ele>
						<time>2021-01-30T16:10:31Z</time>
					</trkpt>
					<trkpt lat="46.581490" lon="5.127680">
						<ele>195</ele>
						<time>2021-01-30T16:10:32Z</time>
					</trkpt>
					<trkpt lat="46.581470" lon="5.127820">
						<ele>196</ele>
						<time>2021-01-30T16:10:34Z</time>
					</trkpt>
					<trkpt lat="46.581270" lon="5.128490">
						<ele>197</ele>
						<time>2021-01-30T16:10:43Z</time>
					</trkpt>
					<trkpt lat="46.581120" lon="5.129020">
						<ele>196</ele>
						<time>2021-01-30T16:10:50Z</time>
					</trkpt>
					<trkpt lat="46.580980" lon="5.129510">
						<ele>196</ele>
						<time>2021-01-30T16:10:56Z</time>
					</trkpt>
					<trkpt lat="46.580930" lon="5.129690">
						<ele>196</ele>
						<time>2021-01-30T16:10:59Z</time>
					</trkpt>
					<trkpt lat="46.580830" lon="5.130050">
						<ele>196</ele>
						<time>2021-01-30T16:11:03Z</time>
					</trkpt>
					<trkpt lat="46.580740" lon="5.130450">
						<ele>196</ele>
						<time>2021-01-30T16:11:09Z</time>
					</trkpt>
					<trkpt lat="46.580680" lon="5.130720">
						<ele>196</ele>
						<time>2021-01-30T16:11:12Z</time>
					</trkpt>
					<trkpt lat="46.580590" lon="5.131070">
						<ele>196</ele>
						<time>2021-01-30T16:11:17Z</time>
					</trkpt>
					<trkpt lat="46.580470" lon="5.131560">
						<ele>196</ele>
						<time>2021-01-30T16:11:23Z</time>
					</trkpt>
					<trkpt lat="46.580350" lon="5.132040">
						<ele>196</ele>
						<time>2021-01-30T16:11:29Z</time>
					</trkpt>
					<trkpt lat="46.580230" lon="5.132520">
						<ele>197</ele>
						<time>2021-01-30T16:11:35Z</time>
					</trkpt>
					<trkpt lat="46.580110" lon="5.132980">
						<ele>197</ele>
						<time>2021-01-30T16:11:41Z</time>
					</trkpt>
					<trkpt lat="46.580110" lon="5.132980">
						<ele>197</ele>
						<time>2021-01-30T16:11:41Z</time>
					</trkpt>
					<trkpt lat="46.580280" lon="5.133130">
						<ele>197</ele>
						<time>2021-01-30T16:11:45Z</time>
					</trkpt>
					<trkpt lat="46.580660" lon="5.133450">
						<ele>197</ele>
						<time>2021-01-30T16:11:53Z</time>
					</trkpt>
					<trkpt lat="46.581150" lon="5.133860">
						<ele>196</ele>
						<time>2021-01-30T16:12:03Z</time>
					</trkpt>
					<trkpt lat="46.581270" lon="5.133950">
						<ele>196</ele>
						<time>2021-01-30T16:12:05Z</time>
					</trkpt>
					<trkpt lat="46.581430" lon="5.134050">
						<ele>196</ele>
						<time>2021-01-30T16:12:08Z</time>
					</trkpt>
					<trkpt lat="46.581520" lon="5.134070">
						<ele>196</ele>
						<time>2021-01-30T16:12:10Z</time>
					</trkpt>
					<trkpt lat="46.581630" lon="5.134080">
						<ele>196</ele>
						<time>2021-01-30T16:12:12Z</time>
					</trkpt>
					<trkpt lat="46.581840" lon="5.134060">
						<ele>196</ele>
						<time>2021-01-30T16:12:16Z</time>
					</trkpt>
					<trkpt lat="46.582040" lon="5.134010">
						<ele>195</ele>
						<time>2021-01-30T16:12:19Z</time>
					</trkpt>
					<trkpt lat="46.582310" lon="5.133960">
						<ele>195</ele>
						<time>2021-01-30T16:12:24Z</time>
					</trkpt>
					<trkpt lat="46.582500" lon="5.133930">
						<ele>194</ele>
						<time>2021-01-30T16:12:28Z</time>
					</trkpt>
					<trkpt lat="46.582670" lon="5.133920">
						<ele>194</ele>
						<time>2021-01-30T16:12:31Z</time>
					</trkpt>
					<trkpt lat="46.582770" lon="5.133930">
						<ele>194</ele>
						<time>2021-01-30T16:12:32Z</time>
					</trkpt>
					<trkpt lat="46.582880" lon="5.133950">
						<ele>194</ele>
						<time>2021-01-30T16:12:34Z</time>
					</trkpt>
					<trkpt lat="46.582990" lon="5.133990">
						<ele>194</ele>
						<time>2021-01-30T16:12:36Z</time>
					</trkpt>
					<trkpt lat="46.583170" lon="5.134060">
						<ele>194</ele>
						<time>2021-01-30T16:12:40Z</time>
					</trkpt>
					<trkpt lat="46.583320" lon="5.134130">
						<ele>194</ele>
						<time>2021-01-30T16:12:42Z</time>
					</trkpt>
					<trkpt lat="46.583530" lon="5.134210">
						<ele>194</ele>
						<time>2021-01-30T16:12:46Z</time>
					</trkpt>
					<trkpt lat="46.583560" lon="5.134220">
						<ele>194</ele>
						<time>2021-01-30T16:12:47Z</time>
					</trkpt>
					<trkpt lat="46.583840" lon="5.134340">
						<ele>193</ele>
						<time>2021-01-30T16:12:52Z</time>
					</trkpt>
					<trkpt lat="46.584160" lon="5.134460">
						<ele>193</ele>
						<time>2021-01-30T16:12:58Z</time>
					</trkpt>
					<trkpt lat="46.584470" lon="5.134580">
						<ele>192</ele>
						<time>2021-01-30T16:13:04Z</time>
					</trkpt>
					<trkpt lat="46.584670" lon="5.134660">
						<ele>192</ele>
						<time>2021-01-30T16:13:07Z</time>
					</trkpt>
					<trkpt lat="46.584800" lon="5.134700">
						<ele>192</ele>
						<time>2021-01-30T16:13:10Z</time>
					</trkpt>
					<trkpt lat="46.584940" lon="5.134720">
						<ele>191</ele>
						<time>2021-01-30T16:13:12Z</time>
					</trkpt>
					<trkpt lat="46.584940" lon="5.134720">
						<ele>191</ele>
						<time>2021-01-30T16:13:12Z</time>
					</trkpt>
					<trkpt lat="46.584960" lon="5.134790">
						<ele>192</ele>
						<time>2021-01-30T16:13:13Z</time>
					</trkpt>
					<trkpt lat="46.584970" lon="5.134840">
						<ele>192</ele>
						<time>2021-01-30T16:13:14Z</time>
					</trkpt>
					<trkpt lat="46.585030" lon="5.134950">
						<ele>192</ele>
						<time>2021-01-30T16:13:16Z</time>
					</trkpt>
					<trkpt lat="46.585210" lon="5.135280">
						<ele>192</ele>
						<time>2021-01-30T16:13:21Z</time>
					</trkpt>
					<trkpt lat="46.585480" lon="5.135800">
						<ele>191</ele>
						<time>2021-01-30T16:13:29Z</time>
					</trkpt>
					<trkpt lat="46.585670" lon="5.136150">
						<ele>192</ele>
						<time>2021-01-30T16:13:34Z</time>
					</trkpt>
					<trkpt lat="46.585960" lon="5.136690">
						<ele>192</ele>
						<time>2021-01-30T16:13:42Z</time>
					</trkpt>
					<trkpt lat="46.586440" lon="5.137580">
						<ele>192</ele>
						<time>2021-01-30T16:13:56Z</time>
					</trkpt>
					<trkpt lat="46.586780" lon="5.138200">
						<ele>192</ele>
						<time>2021-01-30T16:14:06Z</time>
					</trkpt>
					<trkpt lat="46.587000" lon="5.138600">
						<ele>193</ele>
						<time>2021-01-30T16:14:12Z</time>
					</trkpt>
					<trkpt lat="46.587300" lon="5.139150">
						<ele>194</ele>
						<time>2021-01-30T16:14:21Z</time>
					</trkpt>
					<trkpt lat="46.587400" lon="5.139340">
						<ele>194</ele>
						<time>2021-01-30T16:14:24Z</time>
					</trkpt>
					<trkpt lat="46.587570" lon="5.139650">
						<ele>193</ele>
						<time>2021-01-30T16:14:29Z</time>
					</trkpt>
					<trkpt lat="46.587670" lon="5.139830">
						<ele>191</ele>
						<time>2021-01-30T16:14:31Z</time>
					</trkpt>
					<trkpt lat="46.587860" lon="5.140200">
						<ele>189</ele>
						<time>2021-01-30T16:14:37Z</time>
					</trkpt>
					<trkpt lat="46.587930" lon="5.140330">
						<ele>188</ele>
						<time>2021-01-30T16:14:39Z</time>
					</trkpt>
					<trkpt lat="46.588040" lon="5.140490">
						<ele>187</ele>
						<time>2021-01-30T16:14:42Z</time>
					</trkpt>
					<trkpt lat="46.588110" lon="5.140580">
						<ele>187</ele>
						<time>2021-01-30T16:14:44Z</time>
					</trkpt>
					<trkpt lat="46.588170" lon="5.140640">
						<ele>186</ele>
						<time>2021-01-30T16:14:45Z</time>
					</trkpt>
					<trkpt lat="46.588220" lon="5.140690">
						<ele>186</ele>
						<time>2021-01-30T16:14:46Z</time>
					</trkpt>
					<trkpt lat="46.588280" lon="5.140740">
						<ele>186</ele>
						<time>2021-01-30T16:14:47Z</time>
					</trkpt>
					<trkpt lat="46.588410" lon="5.140820">
						<ele>186</ele>
						<time>2021-01-30T16:14:50Z</time>
					</trkpt>
					<trkpt lat="46.588460" lon="5.140850">
						<ele>186</ele>
						<time>2021-01-30T16:14:51Z</time>
					</trkpt>
					<trkpt lat="46.588540" lon="5.140880">
						<ele>186</ele>
						<time>2021-01-30T16:14:52Z</time>
					</trkpt>
					<trkpt lat="46.588900" lon="5.141080">
						<ele>185</ele>
						<time>2021-01-30T16:14:59Z</time>
					</trkpt>
					<trkpt lat="46.589540" lon="5.141420">
						<ele>184</ele>
						<time>2021-01-30T16:15:11Z</time>
					</trkpt>
					<trkpt lat="46.589710" lon="5.141510">
						<ele>184</ele>
						<time>2021-01-30T16:15:14Z</time>
					</trkpt>
					<trkpt lat="46.589820" lon="5.141600">
						<ele>183</ele>
						<time>2021-01-30T16:15:17Z</time>
					</trkpt>
					<trkpt lat="46.589930" lon="5.141700">
						<ele>183</ele>
						<time>2021-01-30T16:15:19Z</time>
					</trkpt>
					<trkpt lat="46.590000" lon="5.141800">
						<ele>183</ele>
						<time>2021-01-30T16:15:21Z</time>
					</trkpt>
					<trkpt lat="46.590060" lon="5.141890">
						<ele>182</ele>
						<time>2021-01-30T16:15:22Z</time>
					</trkpt>
					<trkpt lat="46.590180" lon="5.142080">
						<ele>182</ele>
						<time>2021-01-30T16:15:25Z</time>
					</trkpt>
					<trkpt lat="46.590340" lon="5.142370">
						<ele>181</ele>
						<time>2021-01-30T16:15:30Z</time>
					</trkpt>
					<trkpt lat="46.590430" lon="5.142510">
						<ele>180</ele>
						<time>2021-01-30T16:15:32Z</time>
					</trkpt>
					<trkpt lat="46.590480" lon="5.142590">
						<ele>180</ele>
						<time>2021-01-30T16:15:34Z</time>
					</trkpt>
					<trkpt lat="46.590530" lon="5.142660">
						<ele>180</ele>
						<time>2021-01-30T16:15:35Z</time>
					</trkpt>
					<trkpt lat="46.590590" lon="5.142730">
						<ele>180</ele>
						<time>2021-01-30T16:15:36Z</time>
					</trkpt>
					<trkpt lat="46.590670" lon="5.142810">
						<ele>180</ele>
						<time>2021-01-30T16:15:38Z</time>
					</trkpt>
					<trkpt lat="46.590800" lon="5.142890">
						<ele>180</ele>
						<time>2021-01-30T16:15:40Z</time>
					</trkpt>
					<trkpt lat="46.591070" lon="5.143010">
						<ele>181</ele>
						<time>2021-01-30T16:15:45Z</time>
					</trkpt>
					<trkpt lat="46.591440" lon="5.143160">
						<ele>182</ele>
						<time>2021-01-30T16:15:52Z</time>
					</trkpt>
					<trkpt lat="46.591720" lon="5.143290">
						<ele>183</ele>
						<time>2021-01-30T16:15:57Z</time>
					</trkpt>
					<trkpt lat="46.592080" lon="5.143490">
						<ele>184</ele>
						<time>2021-01-30T16:16:04Z</time>
					</trkpt>
					<trkpt lat="46.592430" lon="5.143670">
						<ele>185</ele>
						<time>2021-01-30T16:16:11Z</time>
					</trkpt>
					<trkpt lat="46.592820" lon="5.143890">
						<ele>186</ele>
						<time>2021-01-30T16:16:18Z</time>
					</trkpt>
					<trkpt lat="46.593160" lon="5.144090">
						<ele>188</ele>
						<time>2021-01-30T16:16:25Z</time>
					</trkpt>
					<trkpt lat="46.593560" lon="5.144320">
						<ele>189</ele>
						<time>2021-01-30T16:16:33Z</time>
					</trkpt>
					<trkpt lat="46.593860" lon="5.144510">
						<ele>188</ele>
						<time>2021-01-30T16:16:38Z</time>
					</trkpt>
					<trkpt lat="46.594090" lon="5.144650">
						<ele>188</ele>
						<time>2021-01-30T16:16:43Z</time>
					</trkpt>
					<trkpt lat="46.594280" lon="5.144760">
						<ele>187</ele>
						<time>2021-01-30T16:16:46Z</time>
					</trkpt>
					<trkpt lat="46.594480" lon="5.144840">
						<ele>187</ele>
						<time>2021-01-30T16:16:50Z</time>
					</trkpt>
					<trkpt lat="46.594680" lon="5.144900">
						<ele>186</ele>
						<time>2021-01-30T16:16:54Z</time>
					</trkpt>
					<trkpt lat="46.594880" lon="5.144930">
						<ele>186</ele>
						<time>2021-01-30T16:16:57Z</time>
					</trkpt>
					<trkpt lat="46.595120" lon="5.144950">
						<ele>185</ele>
						<time>2021-01-30T16:17:02Z</time>
					</trkpt>
					<trkpt lat="46.595320" lon="5.144960">
						<ele>184</ele>
						<time>2021-01-30T16:17:05Z</time>
					</trkpt>
					<trkpt lat="46.595430" lon="5.144970">
						<ele>184</ele>
						<time>2021-01-30T16:17:07Z</time>
					</trkpt>
					<trkpt lat="46.595570" lon="5.145000">
						<ele>184</ele>
						<time>2021-01-30T16:17:10Z</time>
					</trkpt>
					<trkpt lat="46.595670" lon="5.145030">
						<ele>183</ele>
						<time>2021-01-30T16:17:11Z</time>
					</trkpt>
					<trkpt lat="46.595770" lon="5.145070">
						<ele>183</ele>
						<time>2021-01-30T16:17:13Z</time>
					</trkpt>
					<trkpt lat="46.595900" lon="5.145140">
						<ele>183</ele>
						<time>2021-01-30T16:17:16Z</time>
					</trkpt>
					<trkpt lat="46.596010" lon="5.145230">
						<ele>182</ele>
						<time>2021-01-30T16:17:18Z</time>
					</trkpt>
					<trkpt lat="46.596130" lon="5.145340">
						<ele>182</ele>
						<time>2021-01-30T16:17:21Z</time>
					</trkpt>
					<trkpt lat="46.596270" lon="5.145480">
						<ele>181</ele>
						<time>2021-01-30T16:17:24Z</time>
					</trkpt>
					<trkpt lat="46.596400" lon="5.145620">
						<ele>180</ele>
						<time>2021-01-30T16:17:26Z</time>
					</trkpt>
					<trkpt lat="46.596610" lon="5.145830">
						<ele>179</ele>
						<time>2021-01-30T16:17:31Z</time>
					</trkpt>
					<trkpt lat="46.596670" lon="5.145890">
						<ele>179</ele>
						<time>2021-01-30T16:17:32Z</time>
					</trkpt>
					<trkpt lat="46.596870" lon="5.146060">
						<ele>179</ele>
						<time>2021-01-30T16:17:36Z</time>
					</trkpt>
					<trkpt lat="46.597100" lon="5.146200">
						<ele>180</ele>
						<time>2021-01-30T16:17:41Z</time>
					</trkpt>
					<trkpt lat="46.597260" lon="5.146290">
						<ele>180</ele>
						<time>2021-01-30T16:17:44Z</time>
					</trkpt>
					<trkpt lat="46.597360" lon="5.146350">
						<ele>181</ele>
						<time>2021-01-30T16:17:46Z</time>
					</trkpt>
					<trkpt lat="46.597620" lon="5.146490">
						<ele>181</ele>
						<time>2021-01-30T16:17:51Z</time>
					</trkpt>
					<trkpt lat="46.597810" lon="5.146590">
						<ele>181</ele>
						<time>2021-01-30T16:17:54Z</time>
					</trkpt>
					<trkpt lat="46.598020" lon="5.146690">
						<ele>180</ele>
						<time>2021-01-30T16:17:58Z</time>
					</trkpt>
					<trkpt lat="46.598150" lon="5.146740">
						<ele>180</ele>
						<time>2021-01-30T16:18:01Z</time>
					</trkpt>
					<trkpt lat="46.598240" lon="5.146770">
						<ele>180</ele>
						<time>2021-01-30T16:18:02Z</time>
					</trkpt>
					<trkpt lat="46.598350" lon="5.146780">
						<ele>180</ele>
						<time>2021-01-30T16:18:04Z</time>
					</trkpt>
					<trkpt lat="46.598430" lon="5.146790">
						<ele>180</ele>
						<time>2021-01-30T16:18:06Z</time>
					</trkpt>
					<trkpt lat="46.598580" lon="5.146780">
						<ele>180</ele>
						<time>2021-01-30T16:18:08Z</time>
					</trkpt>
					<trkpt lat="46.598720" lon="5.146790">
						<ele>180</ele>
						<time>2021-01-30T16:18:11Z</time>
					</trkpt>
					<trkpt lat="46.598810" lon="5.146800">
						<ele>181</ele>
						<time>2021-01-30T16:18:12Z</time>
					</trkpt>
					<trkpt lat="46.598920" lon="5.146850">
						<ele>181</ele>
						<time>2021-01-30T16:18:15Z</time>
					</trkpt>
					<trkpt lat="46.598990" lon="5.146900">
						<ele>181</ele>
						<time>2021-01-30T16:18:16Z</time>
					</trkpt>
					<trkpt lat="46.599080" lon="5.146980">
						<ele>181</ele>
						<time>2021-01-30T16:18:18Z</time>
					</trkpt>
					<trkpt lat="46.599190" lon="5.147110">
						<ele>182</ele>
						<time>2021-01-30T16:18:20Z</time>
					</trkpt>
					<trkpt lat="46.599280" lon="5.147250">
						<ele>182</ele>
						<time>2021-01-30T16:18:23Z</time>
					</trkpt>
					<trkpt lat="46.599340" lon="5.147340">
						<ele>182</ele>
						<time>2021-01-30T16:18:24Z</time>
					</trkpt>
					<trkpt lat="46.599430" lon="5.147480">
						<ele>182</ele>
						<time>2021-01-30T16:18:27Z</time>
					</trkpt>
					<trkpt lat="46.599680" lon="5.147810">
						<ele>181</ele>
						<time>2021-01-30T16:18:33Z</time>
					</trkpt>
					<trkpt lat="46.599740" lon="5.147880">
						<ele>181</ele>
						<time>2021-01-30T16:18:34Z</time>
					</trkpt>
					<trkpt lat="46.599810" lon="5.147940">
						<ele>181</ele>
						<time>2021-01-30T16:18:35Z</time>
					</trkpt>
					<trkpt lat="46.599880" lon="5.147980">
						<ele>181</ele>
						<time>2021-01-30T16:18:37Z</time>
					</trkpt>
					<trkpt lat="46.599940" lon="5.148000">
						<ele>181</ele>
						<time>2021-01-30T16:18:38Z</time>
					</trkpt>
					<trkpt lat="46.600070" lon="5.148010">
						<ele>180</ele>
						<time>2021-01-30T16:18:40Z</time>
					</trkpt>
					<trkpt lat="46.600260" lon="5.147970">
						<ele>180</ele>
						<time>2021-01-30T16:18:43Z</time>
					</trkpt>
					<trkpt lat="46.600540" lon="5.147900">
						<ele>180</ele>
						<time>2021-01-30T16:18:49Z</time>
					</trkpt>
					<trkpt lat="46.600700" lon="5.147860">
						<ele>180</ele>
						<time>2021-01-30T16:18:51Z</time>
					</trkpt>
					<trkpt lat="46.600810" lon="5.147820">
						<ele>180</ele>
						<time>2021-01-30T16:18:53Z</time>
					</trkpt>
					<trkpt lat="46.600860" lon="5.147810">
						<ele>180</ele>
						<time>2021-01-30T16:18:54Z</time>
					</trkpt>
					<trkpt lat="46.600910" lon="5.147790">
						<ele>180</ele>
						<time>2021-01-30T16:18:55Z</time>
					</trkpt>
					<trkpt lat="46.600970" lon="5.147790">
						<ele>180</ele>
						<time>2021-01-30T16:18:56Z</time>
					</trkpt>
					<trkpt lat="46.601010" lon="5.147790">
						<ele>180</ele>
						<time>2021-01-30T16:18:57Z</time>
					</trkpt>
					<trkpt lat="46.601080" lon="5.147810">
						<ele>180</ele>
						<time>2021-01-30T16:18:58Z</time>
					</trkpt>
					<trkpt lat="46.601120" lon="5.147840">
						<ele>180</ele>
						<time>2021-01-30T16:18:59Z</time>
					</trkpt>
					<trkpt lat="46.601160" lon="5.147870">
						<ele>180</ele>
						<time>2021-01-30T16:19:00Z</time>
					</trkpt>
					<trkpt lat="46.601180" lon="5.147880">
						<ele>180</ele>
						<time>2021-01-30T16:19:00Z</time>
					</trkpt>
					<trkpt lat="46.601190" lon="5.147900">
						<ele>180</ele>
						<time>2021-01-30T16:19:01Z</time>
					</trkpt>
					<trkpt lat="46.601260" lon="5.147980">
						<ele>180</ele>
						<time>2021-01-30T16:19:02Z</time>
					</trkpt>
					<trkpt lat="46.601450" lon="5.148190">
						<ele>180</ele>
						<time>2021-01-30T16:19:06Z</time>
					</trkpt>
					<trkpt lat="46.601640" lon="5.148410">
						<ele>181</ele>
						<time>2021-01-30T16:19:11Z</time>
					</trkpt>
					<trkpt lat="46.601850" lon="5.148640">
						<ele>181</ele>
						<time>2021-01-30T16:19:15Z</time>
					</trkpt>
					<trkpt lat="46.602070" lon="5.148900">
						<ele>182</ele>
						<time>2021-01-30T16:19:20Z</time>
					</trkpt>
					<trkpt lat="46.602320" lon="5.149190">
						<ele>183</ele>
						<time>2021-01-30T16:19:26Z</time>
					</trkpt>
					<trkpt lat="46.602550" lon="5.149450">
						<ele>184</ele>
						<time>2021-01-30T16:19:31Z</time>
					</trkpt>
					<trkpt lat="46.602830" lon="5.149770">
						<ele>187</ele>
						<time>2021-01-30T16:19:38Z</time>
					</trkpt>
					<trkpt lat="46.603160" lon="5.150150">
						<ele>188</ele>
						<time>2021-01-30T16:19:45Z</time>
					</trkpt>
					<trkpt lat="46.603530" lon="5.150570">
						<ele>190</ele>
						<time>2021-01-30T16:19:54Z</time>
					</trkpt>
					<trkpt lat="46.603750" lon="5.150830">
						<ele>191</ele>
						<time>2021-01-30T16:19:59Z</time>
					</trkpt>
					<trkpt lat="46.603810" lon="5.150890">
						<ele>191</ele>
						<time>2021-01-30T16:20:00Z</time>
					</trkpt>
					<trkpt lat="46.603980" lon="5.151100">
						<ele>192</ele>
						<time>2021-01-30T16:20:04Z</time>
					</trkpt>
					<trkpt lat="46.604150" lon="5.151340">
						<ele>193</ele>
						<time>2021-01-30T16:20:08Z</time>
					</trkpt>
					<trkpt lat="46.604340" lon="5.151620">
						<ele>194</ele>
						<time>2021-01-30T16:20:13Z</time>
					</trkpt>
					<trkpt lat="46.604660" lon="5.152110">
						<ele>195</ele>
						<time>2021-01-30T16:20:21Z</time>
					</trkpt>
					<trkpt lat="46.604940" lon="5.152530">
						<ele>196</ele>
						<time>2021-01-30T16:20:28Z</time>
					</trkpt>
					<trkpt lat="46.605170" lon="5.152870">
						<ele>198</ele>
						<time>2021-01-30T16:20:34Z</time>
					</trkpt>
					<trkpt lat="46.605640" lon="5.153560">
						<ele>199</ele>
						<time>2021-01-30T16:20:46Z</time>
					</trkpt>
					<trkpt lat="46.606300" lon="5.154500">
						<ele>200</ele>
						<time>2021-01-30T16:21:02Z</time>
					</trkpt>
					<trkpt lat="46.606780" lon="5.155210">
						<ele>200</ele>
						<time>2021-01-30T16:21:15Z</time>
					</trkpt>
					<trkpt lat="46.607110" lon="5.155670">
						<ele>199</ele>
						<time>2021-01-30T16:21:23Z</time>
					</trkpt>
					<trkpt lat="46.607720" lon="5.156520">
						<ele>198</ele>
						<time>2021-01-30T16:21:38Z</time>
					</trkpt>
					<trkpt lat="46.607850" lon="5.156690">
						<ele>198</ele>
						<time>2021-01-30T16:21:41Z</time>
					</trkpt>
					<trkpt lat="46.608060" lon="5.157000">
						<ele>196</ele>
						<time>2021-01-30T16:21:46Z</time>
					</trkpt>
					<trkpt lat="46.608270" lon="5.157300">
						<ele>195</ele>
						<time>2021-01-30T16:21:51Z</time>
					</trkpt>
					<trkpt lat="46.608660" lon="5.157870">
						<ele>191</ele>
						<time>2021-01-30T16:22:01Z</time>
					</trkpt>
					<trkpt lat="46.608870" lon="5.158180">
						<ele>189</ele>
						<time>2021-01-30T16:22:07Z</time>
					</trkpt>
					<trkpt lat="46.609040" lon="5.158430">
						<ele>187</ele>
						<time>2021-01-30T16:22:11Z</time>
					</trkpt>
					<trkpt lat="46.609250" lon="5.158730">
						<ele>185</ele>
						<time>2021-01-30T16:22:16Z</time>
					</trkpt>
					<trkpt lat="46.609360" lon="5.158890">
						<ele>184</ele>
						<time>2021-01-30T16:22:19Z</time>
					</trkpt>
					<trkpt lat="46.609640" lon="5.159280">
						<ele>182</ele>
						<time>2021-01-30T16:22:26Z</time>
					</trkpt>
					<trkpt lat="46.610290" lon="5.160220">
						<ele>184</ele>
						<time>2021-01-30T16:22:42Z</time>
					</trkpt>
					<trkpt lat="46.610580" lon="5.160660">
						<ele>186</ele>
						<time>2021-01-30T16:22:50Z</time>
					</trkpt>
					<trkpt lat="46.611420" lon="5.161870">
						<ele>188</ele>
						<time>2021-01-30T16:23:11Z</time>
					</trkpt>
					<trkpt lat="46.611840" lon="5.162490">
						<ele>189</ele>
						<time>2021-01-30T16:23:21Z</time>
					</trkpt>
					<trkpt lat="46.612140" lon="5.162930">
						<ele>189</ele>
						<time>2021-01-30T16:23:29Z</time>
					</trkpt>
					<trkpt lat="46.612270" lon="5.163120">
						<ele>188</ele>
						<time>2021-01-30T16:23:32Z</time>
					</trkpt>
					<trkpt lat="46.612420" lon="5.163330">
						<ele>188</ele>
						<time>2021-01-30T16:23:36Z</time>
					</trkpt>
					<trkpt lat="46.612530" lon="5.163470">
						<ele>188</ele>
						<time>2021-01-30T16:23:38Z</time>
					</trkpt>
					<trkpt lat="46.612700" lon="5.163690">
						<ele>187</ele>
						<time>2021-01-30T16:23:42Z</time>
					</trkpt>
					<trkpt lat="46.613030" lon="5.164030">
						<ele>186</ele>
						<time>2021-01-30T16:23:50Z</time>
					</trkpt>
					<trkpt lat="46.613230" lon="5.164240">
						<ele>186</ele>
						<time>2021-01-30T16:23:54Z</time>
					</trkpt>
					<trkpt lat="46.613440" lon="5.164470">
						<ele>186</ele>
						<time>2021-01-30T16:23:59Z</time>
					</trkpt>
					<trkpt lat="46.613590" lon="5.164640">
						<ele>186</ele>
						<time>2021-01-30T16:24:02Z</time>
					</trkpt>
					<trkpt lat="46.613890" lon="5.165020">
						<ele>188</ele>
						<time>2021-01-30T16:24:09Z</time>
					</trkpt>
					<trkpt lat="46.614290" lon="5.165540">
						<ele>190</ele>
						<time>2021-01-30T16:24:19Z</time>
					</trkpt>
					<trkpt lat="46.614410" lon="5.165680">
						<ele>190</ele>
						<time>2021-01-30T16:24:21Z</time>
					</trkpt>
					<trkpt lat="46.614530" lon="5.165810">
						<ele>191</ele>
						<time>2021-01-30T16:24:24Z</time>
					</trkpt>
					<trkpt lat="46.614650" lon="5.165930">
						<ele>191</ele>
						<time>2021-01-30T16:24:27Z</time>
					</trkpt>
					<trkpt lat="46.614780" lon="5.166030">
						<ele>192</ele>
						<time>2021-01-30T16:24:29Z</time>
					</trkpt>
					<trkpt lat="46.614950" lon="5.166150">
						<ele>193</ele>
						<time>2021-01-30T16:24:33Z</time>
					</trkpt>
					<trkpt lat="46.615200" lon="5.166320">
						<ele>193</ele>
						<time>2021-01-30T16:24:38Z</time>
					</trkpt>
					<trkpt lat="46.615290" lon="5.166390">
						<ele>193</ele>
						<time>2021-01-30T16:24:39Z</time>
					</trkpt>
					<trkpt lat="46.615350" lon="5.166450">
						<ele>193</ele>
						<time>2021-01-30T16:24:41Z</time>
					</trkpt>
					<trkpt lat="46.615430" lon="5.166520">
						<ele>193</ele>
						<time>2021-01-30T16:24:42Z</time>
					</trkpt>
					<trkpt lat="46.615510" lon="5.166630">
						<ele>192</ele>
						<time>2021-01-30T16:24:44Z</time>
					</trkpt>
					<trkpt lat="46.615650" lon="5.166840">
						<ele>192</ele>
						<time>2021-01-30T16:24:48Z</time>
					</trkpt>
					<trkpt lat="46.615730" lon="5.166940">
						<ele>192</ele>
						<time>2021-01-30T16:24:50Z</time>
					</trkpt>
					<trkpt lat="46.615830" lon="5.167070">
						<ele>192</ele>
						<time>2021-01-30T16:24:52Z</time>
					</trkpt>
					<trkpt lat="46.615990" lon="5.167240">
						<ele>192</ele>
						<time>2021-01-30T16:24:56Z</time>
					</trkpt>
					<trkpt lat="46.616340" lon="5.167630">
						<ele>193</ele>
						<time>2021-01-30T16:25:03Z</time>
					</trkpt>
					<trkpt lat="46.616630" lon="5.167970">
						<ele>193</ele>
						<time>2021-01-30T16:25:10Z</time>
					</trkpt>
					<trkpt lat="46.616850" lon="5.168250">
						<ele>193</ele>
						<time>2021-01-30T16:25:15Z</time>
					</trkpt>
					<trkpt lat="46.617010" lon="5.168410">
						<ele>193</ele>
						<time>2021-01-30T16:25:19Z</time>
					</trkpt>
					<trkpt lat="46.617110" lon="5.168490">
						<ele>193</ele>
						<time>2021-01-30T16:25:21Z</time>
					</trkpt>
					<trkpt lat="46.617240" lon="5.168570">
						<ele>192</ele>
						<time>2021-01-30T16:25:23Z</time>
					</trkpt>
					<trkpt lat="46.617390" lon="5.168650">
						<ele>192</ele>
						<time>2021-01-30T16:25:26Z</time>
					</trkpt>
					<trkpt lat="46.617700" lon="5.168790">
						<ele>192</ele>
						<time>2021-01-30T16:25:32Z</time>
					</trkpt>
					<trkpt lat="46.617930" lon="5.168930">
						<ele>193</ele>
						<time>2021-01-30T16:25:36Z</time>
					</trkpt>
					<trkpt lat="46.618000" lon="5.168980">
						<ele>193</ele>
						<time>2021-01-30T16:25:38Z</time>
					</trkpt>
					<trkpt lat="46.618060" lon="5.169030">
						<ele>193</ele>
						<time>2021-01-30T16:25:39Z</time>
					</trkpt>
					<trkpt lat="46.618100" lon="5.169090">
						<ele>193</ele>
						<time>2021-01-30T16:25:40Z</time>
					</trkpt>
					<trkpt lat="46.618130" lon="5.169160">
						<ele>193</ele>
						<time>2021-01-30T16:25:41Z</time>
					</trkpt>
					<trkpt lat="46.618140" lon="5.169240">
						<ele>193</ele>
						<time>2021-01-30T16:25:42Z</time>
					</trkpt>
					<trkpt lat="46.618140" lon="5.169360">
						<ele>193</ele>
						<time>2021-01-30T16:25:43Z</time>
					</trkpt>
					<trkpt lat="46.618130" lon="5.169560">
						<ele>193</ele>
						<time>2021-01-30T16:25:46Z</time>
					</trkpt>
					<trkpt lat="46.618140" lon="5.169660">
						<ele>193</ele>
						<time>2021-01-30T16:25:47Z</time>
					</trkpt>
					<trkpt lat="46.618140" lon="5.169710">
						<ele>193</ele>
						<time>2021-01-30T16:25:48Z</time>
					</trkpt>
					<trkpt lat="46.618160" lon="5.169770">
						<ele>193</ele>
						<time>2021-01-30T16:25:49Z</time>
					</trkpt>
					<trkpt lat="46.618190" lon="5.169860">
						<ele>193</ele>
						<time>2021-01-30T16:25:50Z</time>
					</trkpt>
					<trkpt lat="46.618220" lon="5.169910">
						<ele>193</ele>
						<time>2021-01-30T16:25:51Z</time>
					</trkpt>
					<trkpt lat="46.618260" lon="5.169960">
						<ele>193</ele>
						<time>2021-01-30T16:25:52Z</time>
					</trkpt>
					<trkpt lat="46.618340" lon="5.170050">
						<ele>193</ele>
						<time>2021-01-30T16:25:53Z</time>
					</trkpt>
					<trkpt lat="46.618400" lon="5.170110">
						<ele>193</ele>
						<time>2021-01-30T16:25:55Z</time>
					</trkpt>
					<trkpt lat="46.618610" lon="5.170290">
						<ele>194</ele>
						<time>2021-01-30T16:25:59Z</time>
					</trkpt>
					<trkpt lat="46.618760" lon="5.170400">
						<ele>193</ele>
						<time>2021-01-30T16:26:02Z</time>
					</trkpt>
					<trkpt lat="46.618820" lon="5.170430">
						<ele>193</ele>
						<time>2021-01-30T16:26:03Z</time>
					</trkpt>
					<trkpt lat="46.618910" lon="5.170470">
						<ele>193</ele>
						<time>2021-01-30T16:26:05Z</time>
					</trkpt>
					<trkpt lat="46.619000" lon="5.170490">
						<ele>193</ele>
						<time>2021-01-30T16:26:06Z</time>
					</trkpt>
					<trkpt lat="46.619120" lon="5.170500">
						<ele>193</ele>
						<time>2021-01-30T16:26:08Z</time>
					</trkpt>
					<trkpt lat="46.619250" lon="5.170530">
						<ele>192</ele>
						<time>2021-01-30T16:26:11Z</time>
					</trkpt>
					<trkpt lat="46.619340" lon="5.170540">
						<ele>192</ele>
						<time>2021-01-30T16:26:12Z</time>
					</trkpt>
					<trkpt lat="46.619460" lon="5.170590">
						<ele>191</ele>
						<time>2021-01-30T16:26:15Z</time>
					</trkpt>
					<trkpt lat="46.619610" lon="5.170670">
						<ele>191</ele>
						<time>2021-01-30T16:26:17Z</time>
					</trkpt>
					<trkpt lat="46.619790" lon="5.170800">
						<ele>190</ele>
						<time>2021-01-30T16:26:21Z</time>
					</trkpt>
					<trkpt lat="46.620000" lon="5.170960">
						<ele>189</ele>
						<time>2021-01-30T16:26:25Z</time>
					</trkpt>
					<trkpt lat="46.620130" lon="5.171040">
						<ele>188</ele>
						<time>2021-01-30T16:26:28Z</time>
					</trkpt>
					<trkpt lat="46.620400" lon="5.171180">
						<ele>187</ele>
						<time>2021-01-30T16:26:33Z</time>
					</trkpt>
					<trkpt lat="46.620560" lon="5.171250">
						<ele>187</ele>
						<time>2021-01-30T16:26:36Z</time>
					</trkpt>
					<trkpt lat="46.620940" lon="5.171570">
						<ele>186</ele>
						<time>2021-01-30T16:26:44Z</time>
					</trkpt>
					<trkpt lat="46.621310" lon="5.171890">
						<ele>186</ele>
						<time>2021-01-30T16:26:51Z</time>
					</trkpt>
					<trkpt lat="46.621430" lon="5.172000">
						<ele>186</ele>
						<time>2021-01-30T16:26:54Z</time>
					</trkpt>
					<trkpt lat="46.621520" lon="5.172090">
						<ele>186</ele>
						<time>2021-01-30T16:26:56Z</time>
					</trkpt>
					<trkpt lat="46.621590" lon="5.172180">
						<ele>186</ele>
						<time>2021-01-30T16:26:57Z</time>
					</trkpt>
					<trkpt lat="46.621640" lon="5.172260">
						<ele>186</ele>
						<time>2021-01-30T16:26:59Z</time>
					</trkpt>
					<trkpt lat="46.621700" lon="5.172390">
						<ele>185</ele>
						<time>2021-01-30T16:27:01Z</time>
					</trkpt>
					<trkpt lat="46.621850" lon="5.172790">
						<ele>184</ele>
						<time>2021-01-30T16:27:06Z</time>
					</trkpt>
					<trkpt lat="46.621910" lon="5.172950">
						<ele>184</ele>
						<time>2021-01-30T16:27:09Z</time>
					</trkpt>
					<trkpt lat="46.621960" lon="5.173050">
						<ele>183</ele>
						<time>2021-01-30T16:27:10Z</time>
					</trkpt>
					<trkpt lat="46.622030" lon="5.173170">
						<ele>183</ele>
						<time>2021-01-30T16:27:12Z</time>
					</trkpt>
					<trkpt lat="46.622160" lon="5.173330">
						<ele>182</ele>
						<time>2021-01-30T16:27:15Z</time>
					</trkpt>
					<trkpt lat="46.622290" lon="5.173470">
						<ele>182</ele>
						<time>2021-01-30T16:27:18Z</time>
					</trkpt>
					<trkpt lat="46.622450" lon="5.173610">
						<ele>181</ele>
						<time>2021-01-30T16:27:21Z</time>
					</trkpt>
					<trkpt lat="46.622620" lon="5.173760">
						<ele>180</ele>
						<time>2021-01-30T16:27:25Z</time>
					</trkpt>
					<trkpt lat="46.622880" lon="5.173930">
						<ele>180</ele>
						<time>2021-01-30T16:27:30Z</time>
					</trkpt>
					<trkpt lat="46.623020" lon="5.174010">
						<ele>180</ele>
						<time>2021-01-30T16:27:32Z</time>
					</trkpt>
					<trkpt lat="46.623240" lon="5.174120">
						<ele>179</ele>
						<time>2021-01-30T16:27:37Z</time>
					</trkpt>
					<trkpt lat="46.623550" lon="5.174230">
						<ele>180</ele>
						<time>2021-01-30T16:27:42Z</time>
					</trkpt>
					<trkpt lat="46.623850" lon="5.174360">
						<ele>181</ele>
						<time>2021-01-30T16:27:48Z</time>
					</trkpt>
					<trkpt lat="46.623980" lon="5.174420">
						<ele>181</ele>
						<time>2021-01-30T16:27:50Z</time>
					</trkpt>
					<trkpt lat="46.624180" lon="5.174510">
						<ele>182</ele>
						<time>2021-01-30T16:27:54Z</time>
					</trkpt>
					<trkpt lat="46.624260" lon="5.174550">
						<ele>182</ele>
						<time>2021-01-30T16:27:55Z</time>
					</trkpt>
					<trkpt lat="46.624390" lon="5.174580">
						<ele>182</ele>
						<time>2021-01-30T16:27:58Z</time>
					</trkpt>
					<trkpt lat="46.624520" lon="5.174610">
						<ele>182</ele>
						<time>2021-01-30T16:28:00Z</time>
					</trkpt>
					<trkpt lat="46.624660" lon="5.174620">
						<ele>182</ele>
						<time>2021-01-30T16:28:03Z</time>
					</trkpt>
					<trkpt lat="46.624850" lon="5.174650">
						<ele>182</ele>
						<time>2021-01-30T16:28:06Z</time>
					</trkpt>
					<trkpt lat="46.625000" lon="5.174690">
						<ele>182</ele>
						<time>2021-01-30T16:28:09Z</time>
					</trkpt>
					<trkpt lat="46.625090" lon="5.174720">
						<ele>182</ele>
						<time>2021-01-30T16:28:10Z</time>
					</trkpt>
					<trkpt lat="46.625190" lon="5.174760">
						<ele>181</ele>
						<time>2021-01-30T16:28:12Z</time>
					</trkpt>
					<trkpt lat="46.625320" lon="5.174820">
						<ele>181</ele>
						<time>2021-01-30T16:28:15Z</time>
					</trkpt>
					<trkpt lat="46.625460" lon="5.174900">
						<ele>181</ele>
						<time>2021-01-30T16:28:17Z</time>
					</trkpt>
					<trkpt lat="46.625590" lon="5.174970">
						<ele>181</ele>
						<time>2021-01-30T16:28:20Z</time>
					</trkpt>
					<trkpt lat="46.625710" lon="5.175040">
						<ele>181</ele>
						<time>2021-01-30T16:28:22Z</time>
					</trkpt>
					<trkpt lat="46.625770" lon="5.175070">
						<ele>181</ele>
						<time>2021-01-30T16:28:23Z</time>
					</trkpt>
					<trkpt lat="46.625830" lon="5.175080">
						<ele>181</ele>
						<time>2021-01-30T16:28:24Z</time>
					</trkpt>
					<trkpt lat="46.625910" lon="5.175110">
						<ele>181</ele>
						<time>2021-01-30T16:28:26Z</time>
					</trkpt>
					<trkpt lat="46.626020" lon="5.175130">
						<ele>181</ele>
						<time>2021-01-30T16:28:28Z</time>
					</trkpt>
					<trkpt lat="46.626040" lon="5.175130">
						<ele>181</ele>
						<time>2021-01-30T16:28:28Z</time>
					</trkpt>
					<trkpt lat="46.626080" lon="5.175120">
						<ele>181</ele>
						<time>2021-01-30T16:28:29Z</time>
					</trkpt>
					<trkpt lat="46.626110" lon="5.175120">
						<ele>181</ele>
						<time>2021-01-30T16:28:29Z</time>
					</trkpt>
					<trkpt lat="46.626130" lon="5.175110">
						<ele>181</ele>
						<time>2021-01-30T16:28:30Z</time>
					</trkpt>
					<trkpt lat="46.626170" lon="5.175090">
						<ele>181</ele>
						<time>2021-01-30T16:28:31Z</time>
					</trkpt>
					<trkpt lat="46.626200" lon="5.175070">
						<ele>181</ele>
						<time>2021-01-30T16:28:31Z</time>
					</trkpt>
					<trkpt lat="46.626220" lon="5.175060">
						<ele>181</ele>
						<time>2021-01-30T16:28:31Z</time>
					</trkpt>
					<trkpt lat="46.626270" lon="5.175060">
						<ele>181</ele>
						<time>2021-01-30T16:28:32Z</time>
					</trkpt>
					<trkpt lat="46.626590" lon="5.175070">
						<ele>181</ele>
						<time>2021-01-30T16:28:38Z</time>
					</trkpt>
					<trkpt lat="46.627020" lon="5.175130">
						<ele>180</ele>
						<time>2021-01-30T16:28:46Z</time>
					</trkpt>
					<trkpt lat="46.627520" lon="5.175220">
						<ele>179</ele>
						<time>2021-01-30T16:28:55Z</time>
					</trkpt>
					<trkpt lat="46.627890" lon="5.175270">
						<ele>179</ele>
						<time>2021-01-30T16:29:01Z</time>
					</trkpt>
					<trkpt lat="46.628070" lon="5.175290">
						<ele>178</ele>
						<time>2021-01-30T16:29:05Z</time>
					</trkpt>
					<trkpt lat="46.628430" lon="5.175380">
						<ele>178</ele>
						<time>2021-01-30T16:29:11Z</time>
					</trkpt>
					<trkpt lat="46.628790" lon="5.175480">
						<ele>178</ele>
						<time>2021-01-30T16:29:18Z</time>
					</trkpt>
					<trkpt lat="46.629250" lon="5.175630">
						<ele>178</ele>
						<time>2021-01-30T16:29:26Z</time>
					</trkpt>
					<trkpt lat="46.629710" lon="5.175790">
						<ele>177</ele>
						<time>2021-01-30T16:29:34Z</time>
					</trkpt>
					<trkpt lat="46.629920" lon="5.175850">
						<ele>177</ele>
						<time>2021-01-30T16:29:38Z</time>
					</trkpt>
					<trkpt lat="46.630080" lon="5.175890">
						<ele>177</ele>
						<time>2021-01-30T16:29:41Z</time>
					</trkpt>
					<trkpt lat="46.630260" lon="5.175910">
						<ele>177</ele>
						<time>2021-01-30T16:29:44Z</time>
					</trkpt>
					<trkpt lat="46.630500" lon="5.175920">
						<ele>177</ele>
						<time>2021-01-30T16:29:49Z</time>
					</trkpt>
					<trkpt lat="46.630910" lon="5.175960">
						<ele>177</ele>
						<time>2021-01-30T16:29:56Z</time>
					</trkpt>
					<trkpt lat="46.631200" lon="5.175980">
						<ele>177</ele>
						<time>2021-01-30T16:30:01Z</time>
					</trkpt>
					<trkpt lat="46.631380" lon="5.176000">
						<ele>177</ele>
						<time>2021-01-30T16:30:04Z</time>
					</trkpt>
					<trkpt lat="46.631630" lon="5.176030">
						<ele>176</ele>
						<time>2021-01-30T16:30:09Z</time>
					</trkpt>
					<trkpt lat="46.631830" lon="5.176080">
						<ele>176</ele>
						<time>2021-01-30T16:30:12Z</time>
					</trkpt>
					<trkpt lat="46.632020" lon="5.176140">
						<ele>176</ele>
						<time>2021-01-30T16:30:16Z</time>
					</trkpt>
					<trkpt lat="46.632360" lon="5.176260">
						<ele>176</ele>
						<time>2021-01-30T16:30:22Z</time>
					</trkpt>
					<trkpt lat="46.632990" lon="5.176510">
						<ele>175</ele>
						<time>2021-01-30T16:30:34Z</time>
					</trkpt>
					<trkpt lat="46.633690" lon="5.176760">
						<ele>174</ele>
						<time>2021-01-30T16:30:46Z</time>
					</trkpt>
					<trkpt lat="46.634250" lon="5.176960">
						<ele>173</ele>
						<time>2021-01-30T16:30:57Z</time>
					</trkpt>
					<trkpt lat="46.634440" lon="5.177020">
						<ele>173</ele>
						<time>2021-01-30T16:31:00Z</time>
					</trkpt>
					<trkpt lat="46.634730" lon="5.177120">
						<ele>173</ele>
						<time>2021-01-30T16:31:05Z</time>
					</trkpt>
					<trkpt lat="46.635050" lon="5.177200">
						<ele>173</ele>
						<time>2021-01-30T16:31:11Z</time>
					</trkpt>
					<trkpt lat="46.635470" lon="5.177300">
						<ele>174</ele>
						<time>2021-01-30T16:31:19Z</time>
					</trkpt>
					<trkpt lat="46.636070" lon="5.177430">
						<ele>174</ele>
						<time>2021-01-30T16:31:30Z</time>
					</trkpt>
					<trkpt lat="46.636670" lon="5.177550">
						<ele>173</ele>
						<time>2021-01-30T16:31:40Z</time>
					</trkpt>
					<trkpt lat="46.636790" lon="5.177580">
						<ele>174</ele>
						<time>2021-01-30T16:31:43Z</time>
					</trkpt>
					<trkpt lat="46.637010" lon="5.177630">
						<ele>174</ele>
						<time>2021-01-30T16:31:47Z</time>
					</trkpt>
					<trkpt lat="46.637120" lon="5.177640">
						<ele>175</ele>
						<time>2021-01-30T16:31:48Z</time>
					</trkpt>
					<trkpt lat="46.637210" lon="5.177650">
						<ele>175</ele>
						<time>2021-01-30T16:31:50Z</time>
					</trkpt>
					<trkpt lat="46.637330" lon="5.177660">
						<ele>175</ele>
						<time>2021-01-30T16:31:52Z</time>
					</trkpt>
					<trkpt lat="46.637520" lon="5.177650">
						<ele>176</ele>
						<time>2021-01-30T16:31:56Z</time>
					</trkpt>
					<trkpt lat="46.637590" lon="5.177640">
						<ele>176</ele>
						<time>2021-01-30T16:31:57Z</time>
					</trkpt>
					<trkpt lat="46.637650" lon="5.177630">
						<ele>176</ele>
						<time>2021-01-30T16:31:58Z</time>
					</trkpt>
					<trkpt lat="46.637700" lon="5.177620">
						<ele>176</ele>
						<time>2021-01-30T16:31:59Z</time>
					</trkpt>
					<trkpt lat="46.637740" lon="5.177620">
						<ele>176</ele>
						<time>2021-01-30T16:32:00Z</time>
					</trkpt>
					<trkpt lat="46.637890" lon="5.177600">
						<ele>176</ele>
						<time>2021-01-30T16:32:02Z</time>
					</trkpt>
					<trkpt lat="46.638470" lon="5.177530">
						<ele>176</ele>
						<time>2021-01-30T16:32:13Z</time>
					</trkpt>
					<trkpt lat="46.638620" lon="5.177520">
						<ele>176</ele>
						<time>2021-01-30T16:32:15Z</time>
					</trkpt>
					<trkpt lat="46.638800" lon="5.177520">
						<ele>175</ele>
						<time>2021-01-30T16:32:18Z</time>
					</trkpt>
					<trkpt lat="46.638940" lon="5.177540">
						<ele>175</ele>
						<time>2021-01-30T16:32:21Z</time>
					</trkpt>
					<trkpt lat="46.639200" lon="5.177610">
						<ele>175</ele>
						<time>2021-01-30T16:32:26Z</time>
					</trkpt>
					<trkpt lat="46.639680" lon="5.177710">
						<ele>177</ele>
						<time>2021-01-30T16:32:34Z</time>
					</trkpt>
					<trkpt lat="46.639950" lon="5.177770">
						<ele>178</ele>
						<time>2021-01-30T16:32:39Z</time>
					</trkpt>
					<trkpt lat="46.640190" lon="5.177820">
						<ele>178</ele>
						<time>2021-01-30T16:32:43Z</time>
					</trkpt>
					<trkpt lat="46.640260" lon="5.177830">
						<ele>178</ele>
						<time>2021-01-30T16:32:45Z</time>
					</trkpt>
					<trkpt lat="46.641300" lon="5.178050">
						<ele>179</ele>
						<time>2021-01-30T16:33:03Z</time>
					</trkpt>
					<trkpt lat="46.641530" lon="5.178140">
						<ele>178</ele>
						<time>2021-01-30T16:33:08Z</time>
					</trkpt>
					<trkpt lat="46.641640" lon="5.178200">
						<ele>178</ele>
						<time>2021-01-30T16:33:10Z</time>
					</trkpt>
					<trkpt lat="46.641690" lon="5.178280">
						<ele>178</ele>
						<time>2021-01-30T16:33:11Z</time>
					</trkpt>
					<trkpt lat="46.641780" lon="5.178430">
						<ele>178</ele>
						<time>2021-01-30T16:33:13Z</time>
					</trkpt>
					<trkpt lat="46.641910" lon="5.178680">
						<ele>178</ele>
						<time>2021-01-30T16:33:17Z</time>
					</trkpt>
					<trkpt lat="46.642080" lon="5.179000">
						<ele>178</ele>
						<time>2021-01-30T16:33:22Z</time>
					</trkpt>
					<trkpt lat="46.642290" lon="5.179420">
						<ele>178</ele>
						<time>2021-01-30T16:33:29Z</time>
					</trkpt>
					<trkpt lat="46.642350" lon="5.179540">
						<ele>178</ele>
						<time>2021-01-30T16:33:30Z</time>
					</trkpt>
					<trkpt lat="46.642370" lon="5.179570">
						<ele>179</ele>
						<time>2021-01-30T16:33:31Z</time>
					</trkpt>
					<trkpt lat="46.642410" lon="5.179620">
						<ele>179</ele>
						<time>2021-01-30T16:33:32Z</time>
					</trkpt>
					<trkpt lat="46.642490" lon="5.179670">
						<ele>179</ele>
						<time>2021-01-30T16:33:33Z</time>
					</trkpt>
					<trkpt lat="46.642620" lon="5.179730">
						<ele>180</ele>
						<time>2021-01-30T16:33:36Z</time>
					</trkpt>
					<trkpt lat="46.642760" lon="5.179750">
						<ele>180</ele>
						<time>2021-01-30T16:33:38Z</time>
					</trkpt>
					<trkpt lat="46.642890" lon="5.179780">
						<ele>181</ele>
						<time>2021-01-30T16:33:41Z</time>
					</trkpt>
					<trkpt lat="46.643360" lon="5.179820">
						<ele>183</ele>
						<time>2021-01-30T16:33:49Z</time>
					</trkpt>
					<trkpt lat="46.643360" lon="5.179820">
						<ele>183</ele>
						<time>2021-01-30T16:33:49Z</time>
					</trkpt>
					<trkpt lat="46.643350" lon="5.180250">
						<ele>183</ele>
						<time>2021-01-30T16:33:54Z</time>
					</trkpt>
					<trkpt lat="46.643350" lon="5.180330">
						<ele>183</ele>
						<time>2021-01-30T16:33:55Z</time>
					</trkpt>
					<trkpt lat="46.643340" lon="5.180430">
						<ele>183</ele>
						<time>2021-01-30T16:33:57Z</time>
					</trkpt>
					<trkpt lat="46.643330" lon="5.180600">
						<ele>182</ele>
						<time>2021-01-30T16:33:59Z</time>
					</trkpt>
					<trkpt lat="46.643330" lon="5.180850">
						<ele>182</ele>
						<time>2021-01-30T16:34:02Z</time>
					</trkpt>
					<trkpt lat="46.643320" lon="5.181100">
						<ele>182</ele>
						<time>2021-01-30T16:34:05Z</time>
					</trkpt>
					<trkpt lat="46.643290" lon="5.181510">
						<ele>181</ele>
						<time>2021-01-30T16:34:10Z</time>
					</trkpt>
					<trkpt lat="46.643260" lon="5.181800">
						<ele>181</ele>
						<time>2021-01-30T16:34:13Z</time>
					</trkpt>
					<trkpt lat="46.643250" lon="5.181900">
						<ele>181</ele>
						<time>2021-01-30T16:34:15Z</time>
					</trkpt>
					<trkpt lat="46.643230" lon="5.182020">
						<ele>181</ele>
						<time>2021-01-30T16:34:16Z</time>
					</trkpt>
					<trkpt lat="46.643230" lon="5.182150">
						<ele>181</ele>
						<time>2021-01-30T16:34:18Z</time>
					</trkpt>
					<trkpt lat="46.643210" lon="5.182380">
						<ele>181</ele>
						<time>2021-01-30T16:34:21Z</time>
					</trkpt>
					<trkpt lat="46.643200" lon="5.182570">
						<ele>181</ele>
						<time>2021-01-30T16:34:23Z</time>
					</trkpt>
					<trkpt lat="46.643190" lon="5.182800">
						<ele>181</ele>
						<time>2021-01-30T16:34:26Z</time>
					</trkpt>
					<trkpt lat="46.643200" lon="5.183020">
						<ele>181</ele>
						<time>2021-01-30T16:34:28Z</time>
					</trkpt>
					<trkpt lat="46.643210" lon="5.183270">
						<ele>181</ele>
						<time>2021-01-30T16:34:31Z</time>
					</trkpt>
					<trkpt lat="46.643210" lon="5.183300">
						<ele>181</ele>
						<time>2021-01-30T16:34:32Z</time>
					</trkpt>
					<trkpt lat="46.643230" lon="5.183510">
						<ele>181</ele>
						<time>2021-01-30T16:34:34Z</time>
					</trkpt>
					<trkpt lat="46.643230" lon="5.183730">
						<ele>181</ele>
						<time>2021-01-30T16:34:37Z</time>
					</trkpt>
					<trkpt lat="46.643220" lon="5.184050">
						<ele>181</ele>
						<time>2021-01-30T16:34:41Z</time>
					</trkpt>
					<trkpt lat="46.643200" lon="5.184670">
						<ele>181</ele>
						<time>2021-01-30T16:34:49Z</time>
					</trkpt>
					<trkpt lat="46.643170" lon="5.185270">
						<ele>181</ele>
						<time>2021-01-30T16:34:56Z</time>
					</trkpt>
					<trkpt lat="46.643150" lon="5.185800">
						<ele>180</ele>
						<time>2021-01-30T16:35:02Z</time>
					</trkpt>
					<trkpt lat="46.643130" lon="5.186140">
						<ele>180</ele>
						<time>2021-01-30T16:35:07Z</time>
					</trkpt>
					<trkpt lat="46.643090" lon="5.186840">
						<ele>180</ele>
						<time>2021-01-30T16:35:15Z</time>
					</trkpt>
					<trkpt lat="46.643070" lon="5.187250">
						<ele>180</ele>
						<time>2021-01-30T16:35:20Z</time>
					</trkpt>
					<trkpt lat="46.643050" lon="5.187480">
						<ele>180</ele>
						<time>2021-01-30T16:35:23Z</time>
					</trkpt>
					<trkpt lat="46.643050" lon="5.187660">
						<ele>180</ele>
						<time>2021-01-30T16:35:25Z</time>
					</trkpt>
					<trkpt lat="46.642990" lon="5.188510">
						<ele>179</ele>
						<time>2021-01-30T16:35:36Z</time>
					</trkpt>
					<trkpt lat="46.642950" lon="5.189100">
						<ele>179</ele>
						<time>2021-01-30T16:35:43Z</time>
					</trkpt>
					<trkpt lat="46.642930" lon="5.189420">
						<ele>179</ele>
						<time>2021-01-30T16:35:47Z</time>
					</trkpt>
					<trkpt lat="46.642920" lon="5.189520">
						<ele>180</ele>
						<time>2021-01-30T16:35:48Z</time>
					</trkpt>
					<trkpt lat="46.642770" lon="5.191070">
						<ele>180</ele>
						<time>2021-01-30T16:36:07Z</time>
					</trkpt>
					<trkpt lat="46.642730" lon="5.191650">
						<ele>179</ele>
						<time>2021-01-30T16:36:14Z</time>
					</trkpt>
					<trkpt lat="46.642650" lon="5.192310">
						<ele>178</ele>
						<time>2021-01-30T16:36:22Z</time>
					</trkpt>
					<trkpt lat="46.642530" lon="5.192870">
						<ele>179</ele>
						<time>2021-01-30T16:36:30Z</time>
					</trkpt>
					<trkpt lat="46.642230" lon="5.193880">
						<ele>179</ele>
						<time>2021-01-30T16:36:43Z</time>
					</trkpt>
					<trkpt lat="46.642160" lon="5.194100">
						<ele>179</ele>
						<time>2021-01-30T16:36:46Z</time>
					</trkpt>
					<trkpt lat="46.642020" lon="5.194640">
						<ele>178</ele>
						<time>2021-01-30T16:36:53Z</time>
					</trkpt>
					<trkpt lat="46.641950" lon="5.194890">
						<ele>178</ele>
						<time>2021-01-30T16:36:56Z</time>
					</trkpt>
					<trkpt lat="46.641890" lon="5.195150">
						<ele>178</ele>
						<time>2021-01-30T16:37:00Z</time>
					</trkpt>
					<trkpt lat="46.641840" lon="5.195350">
						<ele>178</ele>
						<time>2021-01-30T16:37:02Z</time>
					</trkpt>
					<trkpt lat="46.641600" lon="5.196730">
						<ele>179</ele>
						<time>2021-01-30T16:37:20Z</time>
					</trkpt>
					<trkpt lat="46.641480" lon="5.197390">
						<ele>179</ele>
						<time>2021-01-30T16:37:28Z</time>
					</trkpt>
					<trkpt lat="46.641470" lon="5.197470">
						<ele>179</ele>
						<time>2021-01-30T16:37:29Z</time>
					</trkpt>
					<trkpt lat="46.641380" lon="5.198220">
						<ele>178</ele>
						<time>2021-01-30T16:37:38Z</time>
					</trkpt>
					<trkpt lat="46.641320" lon="5.198750">
						<ele>179</ele>
						<time>2021-01-30T16:37:45Z</time>
					</trkpt>
					<trkpt lat="46.641280" lon="5.199220">
						<ele>180</ele>
						<time>2021-01-30T16:37:51Z</time>
					</trkpt>
					<trkpt lat="46.641210" lon="5.199640">
						<ele>180</ele>
						<time>2021-01-30T16:37:56Z</time>
					</trkpt>
					<trkpt lat="46.641070" lon="5.200090">
						<ele>180</ele>
						<time>2021-01-30T16:38:02Z</time>
					</trkpt>
					<trkpt lat="46.640970" lon="5.200380">
						<ele>179</ele>
						<time>2021-01-30T16:38:06Z</time>
					</trkpt>
					<trkpt lat="46.640800" lon="5.200830">
						<ele>179</ele>
						<time>2021-01-30T16:38:12Z</time>
					</trkpt>
					<trkpt lat="46.640410" lon="5.201840">
						<ele>179</ele>
						<time>2021-01-30T16:38:26Z</time>
					</trkpt>
					<trkpt lat="46.640260" lon="5.202200">
						<ele>180</ele>
						<time>2021-01-30T16:38:32Z</time>
					</trkpt>
					<trkpt lat="46.640220" lon="5.202310">
						<ele>180</ele>
						<time>2021-01-30T16:38:33Z</time>
					</trkpt>
					<trkpt lat="46.640200" lon="5.202370">
						<ele>180</ele>
						<time>2021-01-30T16:38:34Z</time>
					</trkpt>
					<trkpt lat="46.640170" lon="5.202430">
						<ele>180</ele>
						<time>2021-01-30T16:38:35Z</time>
					</trkpt>
					<trkpt lat="46.640130" lon="5.202520">
						<ele>180</ele>
						<time>2021-01-30T16:38:36Z</time>
					</trkpt>
					<trkpt lat="46.640010" lon="5.202730">
						<ele>180</ele>
						<time>2021-01-30T16:38:39Z</time>
					</trkpt>
					<trkpt lat="46.639830" lon="5.203040">
						<ele>179</ele>
						<time>2021-01-30T16:38:44Z</time>
					</trkpt>
					<trkpt lat="46.639390" lon="5.203800">
						<ele>178</ele>
						<time>2021-01-30T16:38:57Z</time>
					</trkpt>
					<trkpt lat="46.639000" lon="5.204470">
						<ele>177</ele>
						<time>2021-01-30T16:39:07Z</time>
					</trkpt>
					<trkpt lat="46.638830" lon="5.204780">
						<ele>178</ele>
						<time>2021-01-30T16:39:12Z</time>
					</trkpt>
					<trkpt lat="46.638620" lon="5.205170">
						<ele>178</ele>
						<time>2021-01-30T16:39:18Z</time>
					</trkpt>
					<trkpt lat="46.638580" lon="5.205260">
						<ele>178</ele>
						<time>2021-01-30T16:39:19Z</time>
					</trkpt>
					<trkpt lat="46.638510" lon="5.205420">
						<ele>178</ele>
						<time>2021-01-30T16:39:22Z</time>
					</trkpt>
					<trkpt lat="46.638430" lon="5.205640">
						<ele>178</ele>
						<time>2021-01-30T16:39:25Z</time>
					</trkpt>
					<trkpt lat="46.638300" lon="5.205980">
						<ele>178</ele>
						<time>2021-01-30T16:39:30Z</time>
					</trkpt>
					<trkpt lat="46.638260" lon="5.206090">
						<ele>178</ele>
						<time>2021-01-30T16:39:31Z</time>
					</trkpt>
					<trkpt lat="46.638180" lon="5.206310">
						<ele>178</ele>
						<time>2021-01-30T16:39:34Z</time>
					</trkpt>
					<trkpt lat="46.638120" lon="5.206520">
						<ele>179</ele>
						<time>2021-01-30T16:39:37Z</time>
					</trkpt>
					<trkpt lat="46.638030" lon="5.206760">
						<ele>179</ele>
						<time>2021-01-30T16:39:40Z</time>
					</trkpt>
					<trkpt lat="46.637940" lon="5.206950">
						<ele>179</ele>
						<time>2021-01-30T16:39:43Z</time>
					</trkpt>
					<trkpt lat="46.637900" lon="5.207040">
						<ele>179</ele>
						<time>2021-01-30T16:39:44Z</time>
					</trkpt>
					<trkpt lat="46.637800" lon="5.207220">
						<ele>179</ele>
						<time>2021-01-30T16:39:47Z</time>
					</trkpt>
					<trkpt lat="46.637520" lon="5.207690">
						<ele>179</ele>
						<time>2021-01-30T16:39:55Z</time>
					</trkpt>
					<trkpt lat="46.637410" lon="5.207860">
						<ele>178</ele>
						<time>2021-01-30T16:39:58Z</time>
					</trkpt>
					<trkpt lat="46.636620" lon="5.209240">
						<ele>179</ele>
						<time>2021-01-30T16:40:20Z</time>
					</trkpt>
					<trkpt lat="46.636420" lon="5.209600">
						<ele>179</ele>
						<time>2021-01-30T16:40:25Z</time>
					</trkpt>
					<trkpt lat="46.636360" lon="5.209710">
						<ele>179</ele>
						<time>2021-01-30T16:40:27Z</time>
					</trkpt>
					<trkpt lat="46.636320" lon="5.209800">
						<ele>179</ele>
						<time>2021-01-30T16:40:28Z</time>
					</trkpt>
					<trkpt lat="46.636280" lon="5.209880">
						<ele>179</ele>
						<time>2021-01-30T16:40:30Z</time>
					</trkpt>
					<trkpt lat="46.636220" lon="5.210020">
						<ele>179</ele>
						<time>2021-01-30T16:40:32Z</time>
					</trkpt>
					<trkpt lat="46.636160" lon="5.210190">
						<ele>179</ele>
						<time>2021-01-30T16:40:34Z</time>
					</trkpt>
					<trkpt lat="46.636110" lon="5.210360">
						<ele>179</ele>
						<time>2021-01-30T16:40:36Z</time>
					</trkpt>
					<trkpt lat="46.636060" lon="5.210560">
						<ele>179</ele>
						<time>2021-01-30T16:40:39Z</time>
					</trkpt>
					<trkpt lat="46.636020" lon="5.210750">
						<ele>179</ele>
						<time>2021-01-30T16:40:41Z</time>
					</trkpt>
					<trkpt lat="46.635910" lon="5.211330">
						<ele>180</ele>
						<time>2021-01-30T16:40:49Z</time>
					</trkpt>
					<trkpt lat="46.635890" lon="5.211400">
						<ele>180</ele>
						<time>2021-01-30T16:40:49Z</time>
					</trkpt>
					<trkpt lat="46.635730" lon="5.212280">
						<ele>179</ele>
						<time>2021-01-30T16:41:01Z</time>
					</trkpt>
					<trkpt lat="46.635680" lon="5.212480">
						<ele>179</ele>
						<time>2021-01-30T16:41:03Z</time>
					</trkpt>
					<trkpt lat="46.635620" lon="5.212850">
						<ele>179</ele>
						<time>2021-01-30T16:41:08Z</time>
					</trkpt>
					<trkpt lat="46.635330" lon="5.214350">
						<ele>181</ele>
						<time>2021-01-30T16:41:27Z</time>
					</trkpt>
					<trkpt lat="46.635240" lon="5.214730">
						<ele>182</ele>
						<time>2021-01-30T16:41:32Z</time>
					</trkpt>
					<trkpt lat="46.635200" lon="5.214860">
						<ele>182</ele>
						<time>2021-01-30T16:41:34Z</time>
					</trkpt>
					<trkpt lat="46.635160" lon="5.214990">
						<ele>182</ele>
						<time>2021-01-30T16:41:35Z</time>
					</trkpt>
					<trkpt lat="46.635110" lon="5.215130">
						<ele>182</ele>
						<time>2021-01-30T16:41:37Z</time>
					</trkpt>
					<trkpt lat="46.635080" lon="5.215230">
						<ele>182</ele>
						<time>2021-01-30T16:41:39Z</time>
					</trkpt>
					<trkpt lat="46.635070" lon="5.215270">
						<ele>182</ele>
						<time>2021-01-30T16:41:39Z</time>
					</trkpt>
					<trkpt lat="46.635070" lon="5.215310">
						<ele>182</ele>
						<time>2021-01-30T16:41:40Z</time>
					</trkpt>
					<trkpt lat="46.635070" lon="5.215340">
						<ele>182</ele>
						<time>2021-01-30T16:41:40Z</time>
					</trkpt>
					<trkpt lat="46.635080" lon="5.215390">
						<ele>183</ele>
						<time>2021-01-30T16:41:41Z</time>
					</trkpt>
					<trkpt lat="46.635080" lon="5.215390">
						<ele>183</ele>
						<time>2021-01-30T16:41:41Z</time>
					</trkpt>
					<trkpt lat="46.634890" lon="5.215530">
						<ele>183</ele>
						<time>2021-01-30T16:41:44Z</time>
					</trkpt>
					<trkpt lat="46.634710" lon="5.215680">
						<ele>183</ele>
						<time>2021-01-30T16:41:48Z</time>
					</trkpt>
					<trkpt lat="46.634610" lon="5.215790">
						<ele>183</ele>
						<time>2021-01-30T16:41:50Z</time>
					</trkpt>
					<trkpt lat="46.634400" lon="5.216010">
						<ele>183</ele>
						<time>2021-01-30T16:41:55Z</time>
					</trkpt>
					<trkpt lat="46.634180" lon="5.216250">
						<ele>183</ele>
						<time>2021-01-30T16:42:00Z</time>
					</trkpt>
					<trkpt lat="46.634000" lon="5.216460">
						<ele>183</ele>
						<time>2021-01-30T16:42:04Z</time>
					</trkpt>
					<trkpt lat="46.633890" lon="5.216590">
						<ele>183</ele>
						<time>2021-01-30T16:42:06Z</time>
					</trkpt>
					<trkpt lat="46.633830" lon="5.216650">
						<ele>183</ele>
						<time>2021-01-30T16:42:08Z</time>
					</trkpt>
					<trkpt lat="46.633750" lon="5.216760">
						<ele>183</ele>
						<time>2021-01-30T16:42:10Z</time>
					</trkpt>
					<trkpt lat="46.633670" lon="5.216900">
						<ele>183</ele>
						<time>2021-01-30T16:42:12Z</time>
					</trkpt>
					<trkpt lat="46.633480" lon="5.217210">
						<ele>182</ele>
						<time>2021-01-30T16:42:17Z</time>
					</trkpt>
					<trkpt lat="46.633340" lon="5.217400">
						<ele>182</ele>
						<time>2021-01-30T16:42:20Z</time>
					</trkpt>
					<trkpt lat="46.633170" lon="5.217620">
						<ele>182</ele>
						<time>2021-01-30T16:42:24Z</time>
					</trkpt>
					<trkpt lat="46.632990" lon="5.217850">
						<ele>181</ele>
						<time>2021-01-30T16:42:29Z</time>
					</trkpt>
					<trkpt lat="46.632850" lon="5.218000">
						<ele>181</ele>
						<time>2021-01-30T16:42:32Z</time>
					</trkpt>
					<trkpt lat="46.632560" lon="5.218310">
						<ele>180</ele>
						<time>2021-01-30T16:42:38Z</time>
					</trkpt>
					<trkpt lat="46.632420" lon="5.218470">
						<ele>180</ele>
						<time>2021-01-30T16:42:41Z</time>
					</trkpt>
					<trkpt lat="46.632390" lon="5.218510">
						<ele>180</ele>
						<time>2021-01-30T16:42:42Z</time>
					</trkpt>
					<trkpt lat="46.632340" lon="5.218550">
						<ele>180</ele>
						<time>2021-01-30T16:42:43Z</time>
					</trkpt>
					<trkpt lat="46.632300" lon="5.218580">
						<ele>180</ele>
						<time>2021-01-30T16:42:44Z</time>
					</trkpt>
					<trkpt lat="46.632240" lon="5.218610">
						<ele>180</ele>
						<time>2021-01-30T16:42:45Z</time>
					</trkpt>
					<trkpt lat="46.632190" lon="5.218640">
						<ele>180</ele>
						<time>2021-01-30T16:42:46Z</time>
					</trkpt>
					<trkpt lat="46.632150" lon="5.218660">
						<ele>180</ele>
						<time>2021-01-30T16:42:47Z</time>
					</trkpt>
					<trkpt lat="46.632110" lon="5.218670">
						<ele>180</ele>
						<time>2021-01-30T16:42:47Z</time>
					</trkpt>
					<trkpt lat="46.632010" lon="5.218700">
						<ele>180</ele>
						<time>2021-01-30T16:42:49Z</time>
					</trkpt>
					<trkpt lat="46.631860" lon="5.218720">
						<ele>180</ele>
						<time>2021-01-30T16:42:52Z</time>
					</trkpt>
					<trkpt lat="46.631270" lon="5.218820">
						<ele>179</ele>
						<time>2021-01-30T16:43:02Z</time>
					</trkpt>
					<trkpt lat="46.631170" lon="5.218830">
						<ele>179</ele>
						<time>2021-01-30T16:43:04Z</time>
					</trkpt>
					<trkpt lat="46.630620" lon="5.218900">
						<ele>178</ele>
						<time>2021-01-30T16:43:14Z</time>
					</trkpt>
					<trkpt lat="46.630620" lon="5.218900">
						<ele>178</ele>
						<time>2021-01-30T16:43:14Z</time>
					</trkpt>
					<trkpt lat="46.630530" lon="5.218910">
						<ele>178</ele>
						<time>2021-01-30T16:43:16Z</time>
					</trkpt>
					<trkpt lat="46.630330" lon="5.218940">
						<ele>178</ele>
						<time>2021-01-30T16:43:19Z</time>
					</trkpt>
					<trkpt lat="46.630250" lon="5.218970">
						<ele>178</ele>
						<time>2021-01-30T16:43:21Z</time>
					</trkpt>
					<trkpt lat="46.630200" lon="5.219000">
						<ele>177</ele>
						<time>2021-01-30T16:43:22Z</time>
					</trkpt>
					<trkpt lat="46.630140" lon="5.219030">
						<ele>177</ele>
						<time>2021-01-30T16:43:23Z</time>
					</trkpt>
					<trkpt lat="46.630090" lon="5.219060">
						<ele>177</ele>
						<time>2021-01-30T16:43:24Z</time>
					</trkpt>
					<trkpt lat="46.629900" lon="5.219250">
						<ele>177</ele>
						<time>2021-01-30T16:43:28Z</time>
					</trkpt>
					<trkpt lat="46.629720" lon="5.219430">
						<ele>178</ele>
						<time>2021-01-30T16:43:32Z</time>
					</trkpt>
					<trkpt lat="46.629690" lon="5.219480">
						<ele>178</ele>
						<time>2021-01-30T16:43:33Z</time>
					</trkpt>
					<trkpt lat="46.629650" lon="5.219520">
						<ele>178</ele>
						<time>2021-01-30T16:43:33Z</time>
					</trkpt>
					<trkpt lat="46.629520" lon="5.219700">
						<ele>179</ele>
						<time>2021-01-30T16:43:37Z</time>
					</trkpt>
					<trkpt lat="46.629520" lon="5.219700">
						<ele>179</ele>
						<time>2021-01-30T16:43:37Z</time>
					</trkpt>
					<trkpt lat="46.629510" lon="5.219690">
						<ele>179</ele>
						<time>2021-01-30T16:43:37Z</time>
					</trkpt>
					<trkpt lat="46.629510" lon="5.219680">
						<ele>179</ele>
						<time>2021-01-30T16:43:37Z</time>
					</trkpt>
					<trkpt lat="46.629500" lon="5.219680">
						<ele>179</ele>
						<time>2021-01-30T16:43:37Z</time>
					</trkpt>
					<trkpt lat="46.629500" lon="5.219670">
						<ele>179</ele>
						<time>2021-01-30T16:43:37Z</time>
					</trkpt>
					<trkpt lat="46.629490" lon="5.219670">
						<ele>179</ele>
						<time>2021-01-30T16:43:37Z</time>
					</trkpt>
					<trkpt lat="46.629490" lon="5.219660">
						<ele>179</ele>
						<time>2021-01-30T16:43:38Z</time>
					</trkpt>
					<trkpt lat="46.629480" lon="5.219660">
						<ele>179</ele>
						<time>2021-01-30T16:43:38Z</time>
					</trkpt>
					<trkpt lat="46.629470" lon="5.219650">
						<ele>179</ele>
						<time>2021-01-30T16:43:38Z</time>
					</trkpt>
					<trkpt lat="46.629460" lon="5.219650">
						<ele>179</ele>
						<time>2021-01-30T16:43:38Z</time>
					</trkpt>
					<trkpt lat="46.629450" lon="5.219650">
						<ele>179</ele>
						<time>2021-01-30T16:43:38Z</time>
					</trkpt>
					<trkpt lat="46.629440" lon="5.219650">
						<ele>179</ele>
						<time>2021-01-30T16:43:38Z</time>
					</trkpt>
					<trkpt lat="46.629430" lon="5.219650">
						<ele>179</ele>
						<time>2021-01-30T16:43:39Z</time>
					</trkpt>
					<trkpt lat="46.629420" lon="5.219650">
						<ele>179</ele>
						<time>2021-01-30T16:43:39Z</time>
					</trkpt>
					<trkpt lat="46.629410" lon="5.219650">
						<ele>179</ele>
						<time>2021-01-30T16:43:39Z</time>
					</trkpt>
					<trkpt lat="46.629400" lon="5.219650">
						<ele>179</ele>
						<time>2021-01-30T16:43:39Z</time>
					</trkpt>
					<trkpt lat="46.629400" lon="5.219660">
						<ele>179</ele>
						<time>2021-01-30T16:43:39Z</time>
					</trkpt>
					<trkpt lat="46.629390" lon="5.219660">
						<ele>179</ele>
						<time>2021-01-30T16:43:39Z</time>
					</trkpt>
					<trkpt lat="46.629380" lon="5.219670">
						<ele>179</ele>
						<time>2021-01-30T16:43:40Z</time>
					</trkpt>
					<trkpt lat="46.629370" lon="5.219670">
						<ele>179</ele>
						<time>2021-01-30T16:43:40Z</time>
					</trkpt>
					<trkpt lat="46.629370" lon="5.219680">
						<ele>179</ele>
						<time>2021-01-30T16:43:40Z</time>
					</trkpt>
					<trkpt lat="46.629360" lon="5.219690">
						<ele>179</ele>
						<time>2021-01-30T16:43:40Z</time>
					</trkpt>
					<trkpt lat="46.629350" lon="5.219700">
						<ele>179</ele>
						<time>2021-01-30T16:43:40Z</time>
					</trkpt>
					<trkpt lat="46.629350" lon="5.219710">
						<ele>179</ele>
						<time>2021-01-30T16:43:41Z</time>
					</trkpt>
					<trkpt lat="46.629340" lon="5.219710">
						<ele>179</ele>
						<time>2021-01-30T16:43:41Z</time>
					</trkpt>
					<trkpt lat="46.629340" lon="5.219720">
						<ele>179</ele>
						<time>2021-01-30T16:43:41Z</time>
					</trkpt>
					<trkpt lat="46.629340" lon="5.219730">
						<ele>179</ele>
						<time>2021-01-30T16:43:41Z</time>
					</trkpt>
					<trkpt lat="46.629330" lon="5.219740">
						<ele>179</ele>
						<time>2021-01-30T16:43:41Z</time>
					</trkpt>
					<trkpt lat="46.629330" lon="5.219750">
						<ele>179</ele>
						<time>2021-01-30T16:43:41Z</time>
					</trkpt>
					<trkpt lat="46.629330" lon="5.219760">
						<ele>179</ele>
						<time>2021-01-30T16:43:41Z</time>
					</trkpt>
					<trkpt lat="46.629330" lon="5.219770">
						<ele>179</ele>
						<time>2021-01-30T16:43:42Z</time>
					</trkpt>
					<trkpt lat="46.629320" lon="5.219780">
						<ele>179</ele>
						<time>2021-01-30T16:43:42Z</time>
					</trkpt>
					<trkpt lat="46.629320" lon="5.219790">
						<ele>179</ele>
						<time>2021-01-30T16:43:42Z</time>
					</trkpt>
					<trkpt lat="46.629320" lon="5.219800">
						<ele>179</ele>
						<time>2021-01-30T16:43:42Z</time>
					</trkpt>
					<trkpt lat="46.629320" lon="5.219810">
						<ele>179</ele>
						<time>2021-01-30T16:43:42Z</time>
					</trkpt>
					<trkpt lat="46.629320" lon="5.219820">
						<ele>179</ele>
						<time>2021-01-30T16:43:42Z</time>
					</trkpt>
					<trkpt lat="46.629320" lon="5.219830">
						<ele>179</ele>
						<time>2021-01-30T16:43:42Z</time>
					</trkpt>
					<trkpt lat="46.629320" lon="5.219840">
						<ele>179</ele>
						<time>2021-01-30T16:43:42Z</time>
					</trkpt>
					<trkpt lat="46.629320" lon="5.219850">
						<ele>179</ele>
						<time>2021-01-30T16:43:43Z</time>
					</trkpt>
					<trkpt lat="46.629330" lon="5.219860">
						<ele>179</ele>
						<time>2021-01-30T16:43:43Z</time>
					</trkpt>
					<trkpt lat="46.629330" lon="5.219870">
						<ele>179</ele>
						<time>2021-01-30T16:43:43Z</time>
					</trkpt>
					<trkpt lat="46.629330" lon="5.219880">
						<ele>179</ele>
						<time>2021-01-30T16:43:43Z</time>
					</trkpt>
					<trkpt lat="46.629330" lon="5.219890">
						<ele>179</ele>
						<time>2021-01-30T16:43:43Z</time>
					</trkpt>
					<trkpt lat="46.629340" lon="5.219900">
						<ele>179</ele>
						<time>2021-01-30T16:43:43Z</time>
					</trkpt>
					<trkpt lat="46.629340" lon="5.219910">
						<ele>179</ele>
						<time>2021-01-30T16:43:44Z</time>
					</trkpt>
					<trkpt lat="46.629340" lon="5.219920">
						<ele>179</ele>
						<time>2021-01-30T16:43:44Z</time>
					</trkpt>
					<trkpt lat="46.629350" lon="5.219920">
						<ele>179</ele>
						<time>2021-01-30T16:43:44Z</time>
					</trkpt>
					<trkpt lat="46.629350" lon="5.219930">
						<ele>179</ele>
						<time>2021-01-30T16:43:44Z</time>
					</trkpt>
					<trkpt lat="46.629360" lon="5.219940">
						<ele>179</ele>
						<time>2021-01-30T16:43:44Z</time>
					</trkpt>
					<trkpt lat="46.629370" lon="5.219950">
						<ele>179</ele>
						<time>2021-01-30T16:43:44Z</time>
					</trkpt>
					<trkpt lat="46.629380" lon="5.219960">
						<ele>179</ele>
						<time>2021-01-30T16:43:45Z</time>
					</trkpt>
					<trkpt lat="46.629390" lon="5.219970">
						<ele>179</ele>
						<time>2021-01-30T16:43:45Z</time>
					</trkpt>
					<trkpt lat="46.629400" lon="5.219970">
						<ele>179</ele>
						<time>2021-01-30T16:43:45Z</time>
					</trkpt>
					<trkpt lat="46.629400" lon="5.219980">
						<ele>179</ele>
						<time>2021-01-30T16:43:45Z</time>
					</trkpt>
					<trkpt lat="46.629410" lon="5.219980">
						<ele>179</ele>
						<time>2021-01-30T16:43:45Z</time>
					</trkpt>
					<trkpt lat="46.629420" lon="5.219980">
						<ele>179</ele>
						<time>2021-01-30T16:43:45Z</time>
					</trkpt>
					<trkpt lat="46.629430" lon="5.219980">
						<ele>179</ele>
						<time>2021-01-30T16:43:46Z</time>
					</trkpt>
					<trkpt lat="46.629440" lon="5.219980">
						<ele>179</ele>
						<time>2021-01-30T16:43:46Z</time>
					</trkpt>
					<trkpt lat="46.629450" lon="5.219980">
						<ele>179</ele>
						<time>2021-01-30T16:43:46Z</time>
					</trkpt>
					<trkpt lat="46.629460" lon="5.219980">
						<ele>179</ele>
						<time>2021-01-30T16:43:46Z</time>
					</trkpt>
					<trkpt lat="46.629460" lon="5.220160">
						<ele>180</ele>
						<time>2021-01-30T16:43:48Z</time>
					</trkpt>
					<trkpt lat="46.629430" lon="5.220260">
						<ele>180</ele>
						<time>2021-01-30T16:43:50Z</time>
					</trkpt>
					<trkpt lat="46.629400" lon="5.220380">
						<ele>181</ele>
						<time>2021-01-30T16:43:51Z</time>
					</trkpt>
					<trkpt lat="46.629380" lon="5.220460">
						<ele>181</ele>
						<time>2021-01-30T16:43:52Z</time>
					</trkpt>
					<trkpt lat="46.629360" lon="5.220540">
						<ele>182</ele>
						<time>2021-01-30T16:43:53Z</time>
					</trkpt>
					<trkpt lat="46.629320" lon="5.220630">
						<ele>182</ele>
						<time>2021-01-30T16:43:55Z</time>
					</trkpt>
					<trkpt lat="46.629270" lon="5.220760">
						<ele>183</ele>
						<time>2021-01-30T16:43:56Z</time>
					</trkpt>
					<trkpt lat="46.629260" lon="5.220810">
						<ele>183</ele>
						<time>2021-01-30T16:43:57Z</time>
					</trkpt>
					<trkpt lat="46.629250" lon="5.220880">
						<ele>184</ele>
						<time>2021-01-30T16:43:58Z</time>
					</trkpt>
					<trkpt lat="46.629240" lon="5.220970">
						<ele>184</ele>
						<time>2021-01-30T16:43:59Z</time>
					</trkpt>
					<trkpt lat="46.629240" lon="5.221120">
						<ele>184</ele>
						<time>2021-01-30T16:44:01Z</time>
					</trkpt>
					<trkpt lat="46.629250" lon="5.221230">
						<ele>184</ele>
						<time>2021-01-30T16:44:02Z</time>
					</trkpt>
					<trkpt lat="46.629250" lon="5.221290">
						<ele>184</ele>
						<time>2021-01-30T16:44:03Z</time>
					</trkpt>
					<trkpt lat="46.629250" lon="5.221350">
						<ele>184</ele>
						<time>2021-01-30T16:44:04Z</time>
					</trkpt>
					<trkpt lat="46.629270" lon="5.221880">
						<ele>185</ele>
						<time>2021-01-30T16:44:10Z</time>
					</trkpt>
					<trkpt lat="46.629270" lon="5.221960">
						<ele>185</ele>
						<time>2021-01-30T16:44:11Z</time>
					</trkpt>
					<trkpt lat="46.629270" lon="5.222050">
						<ele>185</ele>
						<time>2021-01-30T16:44:12Z</time>
					</trkpt>
					<trkpt lat="46.629270" lon="5.222150">
						<ele>185</ele>
						<time>2021-01-30T16:44:14Z</time>
					</trkpt>
					<trkpt lat="46.629270" lon="5.222240">
						<ele>185</ele>
						<time>2021-01-30T16:44:15Z</time>
					</trkpt>
					<trkpt lat="46.629270" lon="5.222500">
						<ele>186</ele>
						<time>2021-01-30T16:44:18Z</time>
					</trkpt>
					<trkpt lat="46.629270" lon="5.222660">
						<ele>186</ele>
						<time>2021-01-30T16:44:20Z</time>
					</trkpt>
					<trkpt lat="46.629270" lon="5.222680">
						<ele>186</ele>
						<time>2021-01-30T16:44:20Z</time>
					</trkpt>
					<trkpt lat="46.629280" lon="5.222810">
						<ele>186</ele>
						<time>2021-01-30T16:44:22Z</time>
					</trkpt>
					<trkpt lat="46.629290" lon="5.222920">
						<ele>186</ele>
						<time>2021-01-30T16:44:23Z</time>
					</trkpt>
					<trkpt lat="46.629310" lon="5.223050">
						<ele>186</ele>
						<time>2021-01-30T16:44:25Z</time>
					</trkpt>
					<trkpt lat="46.629350" lon="5.223340">
						<ele>185</ele>
						<time>2021-01-30T16:44:28Z</time>
					</trkpt>
					<trkpt lat="46.629520" lon="5.224250">
						<ele>184</ele>
						<time>2021-01-30T16:44:40Z</time>
					</trkpt>
					<trkpt lat="46.629550" lon="5.224480">
						<ele>183</ele>
						<time>2021-01-30T16:44:43Z</time>
					</trkpt>
					<trkpt lat="46.629630" lon="5.224900">
						<ele>182</ele>
						<time>2021-01-30T16:44:48Z</time>
					</trkpt>
					</trkseg>
				</trk>
			</gpx>